<?xml version="1.0" encoding="UTF-8" standalone="no" ?>
<gpx xmlns="http://www.topografix.com/GPX/1/1" xmlns:xsi="http://www.w3.org/2001/XMLSchema-instance" xsi:schemaLocation="http://www.topografix.com/GPX/1/1 http://www.topografix.com/GPX/1/1/gpx.xsd" version="1.1" creator="VisuGPX - https://www.visugpx.com">
  <metadata>
    <name>Balade Cyclo autour de Rochefort</name>
    <desc><![CDATA[Soubise - Ile Madame - Le port des Barques - St Nazaire sur Charente]]></desc>
  </metadata>
  <trk>
    <name><![CDATA[SityTrail - Cyclo autour de Rochefort]]></name>
    <desc><![CDATA[Soubise - Ile Madame - Le port des Barques - St Nazaire sur Charente]]></desc>
    <trkseg>
      <trkpt lat="45.94712" lon="-0.96395">
        <ele>5</ele>
        <time>2023-07-21T08:12:44.792+00:00</time>
      </trkpt>
      <trkpt lat="45.94712" lon="-0.96395">
        <ele>5</ele>
        <time>2023-07-21T08:12:44.792+00:00</time>
      </trkpt>
      <trkpt lat="45.94713" lon="-0.96384">
        <ele>5</ele>
        <time>2023-07-21T08:13:51.219+00:00</time>
      </trkpt>
      <trkpt lat="45.94713" lon="-0.96383">
        <ele>5</ele>
        <time>2023-07-21T08:13:56.263+00:00</time>
      </trkpt>
      <trkpt lat="45.94713" lon="-0.96383">
        <ele>5</ele>
        <time>2023-07-21T08:14:01.295+00:00</time>
      </trkpt>
      <trkpt lat="45.94715" lon="-0.96384">
        <ele>5</ele>
        <time>2023-07-21T08:14:06.244+00:00</time>
      </trkpt>
      <trkpt lat="45.94714" lon="-0.96383">
        <ele>5</ele>
        <time>2023-07-21T08:14:10.852+00:00</time>
      </trkpt>
      <trkpt lat="45.94713" lon="-0.96395">
        <ele>5</ele>
        <time>2023-07-21T08:15:29.770+00:00</time>
      </trkpt>
      <trkpt lat="45.94714" lon="-0.96396">
        <ele>5</ele>
        <time>2023-07-21T08:15:33.799+00:00</time>
      </trkpt>
      <trkpt lat="45.94717" lon="-0.96397">
        <ele>5</ele>
        <time>2023-07-21T08:15:37.804+00:00</time>
      </trkpt>
      <trkpt lat="45.94717" lon="-0.96398">
        <ele>5</ele>
        <time>2023-07-21T08:15:42.783+00:00</time>
      </trkpt>
      <trkpt lat="45.94719" lon="-0.96399">
        <ele>5</ele>
        <time>2023-07-21T08:15:46.786+00:00</time>
      </trkpt>
      <trkpt lat="45.94715" lon="-0.96398">
        <ele>5</ele>
        <time>2023-07-21T08:16:13.805+00:00</time>
      </trkpt>
      <trkpt lat="45.94714" lon="-0.96396">
        <ele>5</ele>
        <time>2023-07-21T08:16:17.813+00:00</time>
      </trkpt>
      <trkpt lat="45.94714" lon="-0.96391">
        <ele>5</ele>
        <time>2023-07-21T08:16:22.802+00:00</time>
      </trkpt>
      <trkpt lat="45.9471" lon="-0.96396">
        <ele>5</ele>
        <time>2023-07-21T08:16:27.808+00:00</time>
      </trkpt>
      <trkpt lat="45.94707" lon="-0.96405">
        <ele>6</ele>
        <time>2023-07-21T08:16:32.819+00:00</time>
      </trkpt>
      <trkpt lat="45.94697" lon="-0.96396">
        <ele>6</ele>
        <time>2023-07-21T08:16:37.165+00:00</time>
      </trkpt>
      <trkpt lat="45.94692" lon="-0.96376">
        <ele>6</ele>
        <time>2023-07-21T08:16:41.664+00:00</time>
      </trkpt>
      <trkpt lat="45.9468" lon="-0.96365">
        <ele>5</ele>
        <time>2023-07-21T08:16:46.788+00:00</time>
      </trkpt>
      <trkpt lat="45.94672" lon="-0.96351">
        <ele>5</ele>
        <time>2023-07-21T08:16:50.810+00:00</time>
      </trkpt>
      <trkpt lat="45.9467" lon="-0.96335">
        <ele>4</ele>
        <time>2023-07-21T08:16:55.194+00:00</time>
      </trkpt>
      <trkpt lat="45.9466" lon="-0.96314">
        <ele>4</ele>
        <time>2023-07-21T08:16:59.038+00:00</time>
      </trkpt>
      <trkpt lat="45.9464" lon="-0.96303">
        <ele>6</ele>
        <time>2023-07-21T08:17:03.298+00:00</time>
      </trkpt>
      <trkpt lat="45.94622" lon="-0.96292">
        <ele>8</ele>
        <time>2023-07-21T08:17:07.518+00:00</time>
      </trkpt>
      <trkpt lat="45.94603" lon="-0.96279">
        <ele>7</ele>
        <time>2023-07-21T08:17:11.820+00:00</time>
      </trkpt>
      <trkpt lat="45.94582" lon="-0.96263">
        <ele>6</ele>
        <time>2023-07-21T08:17:16.807+00:00</time>
      </trkpt>
      <trkpt lat="45.94565" lon="-0.9625">
        <ele>6</ele>
        <time>2023-07-21T08:17:21.375+00:00</time>
      </trkpt>
      <trkpt lat="45.94548" lon="-0.96232">
        <ele>5</ele>
        <time>2023-07-21T08:17:25.826+00:00</time>
      </trkpt>
      <trkpt lat="45.94523" lon="-0.96216">
        <ele>6</ele>
        <time>2023-07-21T08:17:30.813+00:00</time>
      </trkpt>
      <trkpt lat="45.94501" lon="-0.96198">
        <ele>6</ele>
        <time>2023-07-21T08:17:34.818+00:00</time>
      </trkpt>
      <trkpt lat="45.94477" lon="-0.96178">
        <ele>5</ele>
        <time>2023-07-21T08:17:39.812+00:00</time>
      </trkpt>
      <trkpt lat="45.94457" lon="-0.96165">
        <ele>6</ele>
        <time>2023-07-21T08:17:44.813+00:00</time>
      </trkpt>
      <trkpt lat="45.94431" lon="-0.96143">
        <ele>6</ele>
        <time>2023-07-21T08:17:49.805+00:00</time>
      </trkpt>
      <trkpt lat="45.94414" lon="-0.96129">
        <ele>7</ele>
        <time>2023-07-21T08:17:53.804+00:00</time>
      </trkpt>
      <trkpt lat="45.94402" lon="-0.96117">
        <ele>10</ele>
        <time>2023-07-21T08:17:57.799+00:00</time>
      </trkpt>
      <trkpt lat="45.94381" lon="-0.96103">
        <ele>10</ele>
        <time>2023-07-21T08:18:02.812+00:00</time>
      </trkpt>
      <trkpt lat="45.94363" lon="-0.96084">
        <ele>11</ele>
        <time>2023-07-21T08:18:07.391+00:00</time>
      </trkpt>
      <trkpt lat="45.94348" lon="-0.96071">
        <ele>11</ele>
        <time>2023-07-21T08:18:12.074+00:00</time>
      </trkpt>
      <trkpt lat="45.94332" lon="-0.96065">
        <ele>12</ele>
        <time>2023-07-21T08:18:16.580+00:00</time>
      </trkpt>
      <trkpt lat="45.94316" lon="-0.96077">
        <ele>15</ele>
        <time>2023-07-21T08:18:21.805+00:00</time>
      </trkpt>
      <trkpt lat="45.943" lon="-0.96105">
        <ele>16</ele>
        <time>2023-07-21T08:18:26.789+00:00</time>
      </trkpt>
      <trkpt lat="45.94288" lon="-0.96122">
        <ele>16</ele>
        <time>2023-07-21T08:18:30.783+00:00</time>
      </trkpt>
      <trkpt lat="45.9428" lon="-0.96143">
        <ele>16</ele>
        <time>2023-07-21T08:18:34.977+00:00</time>
      </trkpt>
      <trkpt lat="45.94271" lon="-0.96169">
        <ele>15</ele>
        <time>2023-07-21T08:18:39.702+00:00</time>
      </trkpt>
      <trkpt lat="45.94262" lon="-0.96191">
        <ele>17</ele>
        <time>2023-07-21T08:18:43.459+00:00</time>
      </trkpt>
      <trkpt lat="45.94247" lon="-0.96214">
        <ele>17</ele>
        <time>2023-07-21T08:18:48.792+00:00</time>
      </trkpt>
      <trkpt lat="45.94235" lon="-0.96232">
        <ele>17</ele>
        <time>2023-07-21T08:18:52.818+00:00</time>
      </trkpt>
      <trkpt lat="45.94217" lon="-0.96254">
        <ele>17</ele>
        <time>2023-07-21T08:18:57.817+00:00</time>
      </trkpt>
      <trkpt lat="45.94199" lon="-0.96276">
        <ele>17</ele>
        <time>2023-07-21T08:19:02.827+00:00</time>
      </trkpt>
      <trkpt lat="45.94185" lon="-0.96296">
        <ele>17</ele>
        <time>2023-07-21T08:19:07.236+00:00</time>
      </trkpt>
      <trkpt lat="45.94176" lon="-0.96319">
        <ele>17</ele>
        <time>2023-07-21T08:19:11.790+00:00</time>
      </trkpt>
      <trkpt lat="45.94169" lon="-0.96353">
        <ele>15</ele>
        <time>2023-07-21T08:19:16.824+00:00</time>
      </trkpt>
      <trkpt lat="45.94167" lon="-0.96378">
        <ele>15</ele>
        <time>2023-07-21T08:19:20.995+00:00</time>
      </trkpt>
      <trkpt lat="45.94165" lon="-0.96405">
        <ele>14</ele>
        <time>2023-07-21T08:19:25.617+00:00</time>
      </trkpt>
      <trkpt lat="45.94167" lon="-0.96429">
        <ele>14</ele>
        <time>2023-07-21T08:19:29.792+00:00</time>
      </trkpt>
      <trkpt lat="45.94172" lon="-0.9645">
        <ele>14</ele>
        <time>2023-07-21T08:19:33.814+00:00</time>
      </trkpt>
      <trkpt lat="45.94159" lon="-0.96495">
        <ele>15</ele>
        <time>2023-07-21T08:19:51.337+00:00</time>
      </trkpt>
      <trkpt lat="45.94158" lon="-0.96496">
        <ele>15</ele>
        <time>2023-07-21T08:19:56.608+00:00</time>
      </trkpt>
      <trkpt lat="45.94151" lon="-0.96494">
        <ele>14</ele>
        <time>2023-07-21T08:20:01.213+00:00</time>
      </trkpt>
      <trkpt lat="45.94137" lon="-0.96502">
        <ele>14</ele>
        <time>2023-07-21T08:20:05.234+00:00</time>
      </trkpt>
      <trkpt lat="45.9412" lon="-0.96512">
        <ele>13</ele>
        <time>2023-07-21T08:20:09.408+00:00</time>
      </trkpt>
      <trkpt lat="45.94101" lon="-0.96519">
        <ele>14</ele>
        <time>2023-07-21T08:20:14.066+00:00</time>
      </trkpt>
      <trkpt lat="45.94085" lon="-0.96528">
        <ele>14</ele>
        <time>2023-07-21T08:20:18.214+00:00</time>
      </trkpt>
      <trkpt lat="45.94064" lon="-0.96539">
        <ele>14</ele>
        <time>2023-07-21T08:20:22.813+00:00</time>
      </trkpt>
      <trkpt lat="45.94036" lon="-0.96551">
        <ele>13</ele>
        <time>2023-07-21T08:20:27.791+00:00</time>
      </trkpt>
      <trkpt lat="45.94016" lon="-0.96563">
        <ele>13</ele>
        <time>2023-07-21T08:20:31.826+00:00</time>
      </trkpt>
      <trkpt lat="45.93988" lon="-0.96577">
        <ele>12</ele>
        <time>2023-07-21T08:20:36.828+00:00</time>
      </trkpt>
      <trkpt lat="45.9396" lon="-0.96592">
        <ele>11</ele>
        <time>2023-07-21T08:20:41.819+00:00</time>
      </trkpt>
      <trkpt lat="45.93935" lon="-0.96603">
        <ele>11</ele>
        <time>2023-07-21T08:20:46.793+00:00</time>
      </trkpt>
      <trkpt lat="45.93916" lon="-0.96613">
        <ele>11</ele>
        <time>2023-07-21T08:20:50.802+00:00</time>
      </trkpt>
      <trkpt lat="45.93899" lon="-0.96626">
        <ele>10</ele>
        <time>2023-07-21T08:20:55.808+00:00</time>
      </trkpt>
      <trkpt lat="45.93886" lon="-0.96633">
        <ele>10</ele>
        <time>2023-07-21T08:20:59.367+00:00</time>
      </trkpt>
      <trkpt lat="45.93867" lon="-0.96655">
        <ele>9</ele>
        <time>2023-07-21T08:21:04.379+00:00</time>
      </trkpt>
      <trkpt lat="45.93851" lon="-0.9666">
        <ele>9</ele>
        <time>2023-07-21T08:21:08.433+00:00</time>
      </trkpt>
      <trkpt lat="45.93835" lon="-0.96681">
        <ele>8</ele>
        <time>2023-07-21T08:21:13.227+00:00</time>
      </trkpt>
      <trkpt lat="45.93821" lon="-0.96695">
        <ele>8</ele>
        <time>2023-07-21T08:21:17.621+00:00</time>
      </trkpt>
      <trkpt lat="45.93804" lon="-0.9671">
        <ele>9</ele>
        <time>2023-07-21T08:21:22.411+00:00</time>
      </trkpt>
      <trkpt lat="45.93788" lon="-0.9672">
        <ele>9</ele>
        <time>2023-07-21T08:21:26.962+00:00</time>
      </trkpt>
      <trkpt lat="45.9377" lon="-0.96727">
        <ele>9</ele>
        <time>2023-07-21T08:21:31.512+00:00</time>
      </trkpt>
      <trkpt lat="45.93748" lon="-0.96736">
        <ele>10</ele>
        <time>2023-07-21T08:21:36.540+00:00</time>
      </trkpt>
      <trkpt lat="45.93724" lon="-0.96746">
        <ele>10</ele>
        <time>2023-07-21T08:21:41.209+00:00</time>
      </trkpt>
      <trkpt lat="45.93705" lon="-0.96753">
        <ele>9</ele>
        <time>2023-07-21T08:21:45.701+00:00</time>
      </trkpt>
      <trkpt lat="45.93688" lon="-0.96761">
        <ele>9</ele>
        <time>2023-07-21T08:21:49.588+00:00</time>
      </trkpt>
      <trkpt lat="45.93667" lon="-0.96764">
        <ele>9</ele>
        <time>2023-07-21T08:21:54.816+00:00</time>
      </trkpt>
      <trkpt lat="45.93649" lon="-0.96767">
        <ele>9</ele>
        <time>2023-07-21T08:21:58.974+00:00</time>
      </trkpt>
      <trkpt lat="45.93629" lon="-0.9677">
        <ele>9</ele>
        <time>2023-07-21T08:22:03.641+00:00</time>
      </trkpt>
      <trkpt lat="45.93611" lon="-0.9677">
        <ele>9</ele>
        <time>2023-07-21T08:22:08.408+00:00</time>
      </trkpt>
      <trkpt lat="45.93593" lon="-0.96769">
        <ele>8</ele>
        <time>2023-07-21T08:22:13.196+00:00</time>
      </trkpt>
      <trkpt lat="45.93581" lon="-0.96771">
        <ele>8</ele>
        <time>2023-07-21T08:22:17.744+00:00</time>
      </trkpt>
      <trkpt lat="45.9357" lon="-0.96772">
        <ele>8</ele>
        <time>2023-07-21T08:22:21.792+00:00</time>
      </trkpt>
      <trkpt lat="45.93567" lon="-0.96757">
        <ele>6</ele>
        <time>2023-07-21T08:22:25.647+00:00</time>
      </trkpt>
      <trkpt lat="45.93555" lon="-0.96736">
        <ele>6</ele>
        <time>2023-07-21T08:22:30.197+00:00</time>
      </trkpt>
      <trkpt lat="45.93551" lon="-0.9671">
        <ele>7</ele>
        <time>2023-07-21T08:22:34.822+00:00</time>
      </trkpt>
      <trkpt lat="45.93546" lon="-0.9669">
        <ele>8</ele>
        <time>2023-07-21T08:22:38.798+00:00</time>
      </trkpt>
      <trkpt lat="45.93539" lon="-0.96666">
        <ele>8</ele>
        <time>2023-07-21T08:22:43.586+00:00</time>
      </trkpt>
      <trkpt lat="45.93532" lon="-0.9664">
        <ele>9</ele>
        <time>2023-07-21T08:22:48.375+00:00</time>
      </trkpt>
      <trkpt lat="45.93528" lon="-0.96614">
        <ele>9</ele>
        <time>2023-07-21T08:22:52.849+00:00</time>
      </trkpt>
      <trkpt lat="45.93521" lon="-0.9659">
        <ele>10</ele>
        <time>2023-07-21T08:22:56.994+00:00</time>
      </trkpt>
      <trkpt lat="45.93514" lon="-0.96564">
        <ele>11</ele>
        <time>2023-07-21T08:23:01.624+00:00</time>
      </trkpt>
      <trkpt lat="45.93509" lon="-0.96541">
        <ele>10</ele>
        <time>2023-07-21T08:23:06.364+00:00</time>
      </trkpt>
      <trkpt lat="45.93496" lon="-0.96534">
        <ele>10</ele>
        <time>2023-07-21T08:23:11.364+00:00</time>
      </trkpt>
      <trkpt lat="45.93477" lon="-0.96534">
        <ele>9</ele>
        <time>2023-07-21T08:23:15.392+00:00</time>
      </trkpt>
      <trkpt lat="45.93454" lon="-0.96541">
        <ele>9</ele>
        <time>2023-07-21T08:23:19.827+00:00</time>
      </trkpt>
      <trkpt lat="45.93425" lon="-0.96558">
        <ele>8</ele>
        <time>2023-07-21T08:23:24.791+00:00</time>
      </trkpt>
      <trkpt lat="45.93401" lon="-0.96573">
        <ele>6</ele>
        <time>2023-07-21T08:23:28.807+00:00</time>
      </trkpt>
      <trkpt lat="45.9337" lon="-0.96592">
        <ele>5</ele>
        <time>2023-07-21T08:23:33.824+00:00</time>
      </trkpt>
      <trkpt lat="45.93341" lon="-0.96612">
        <ele>4</ele>
        <time>2023-07-21T08:23:38.813+00:00</time>
      </trkpt>
      <trkpt lat="45.93316" lon="-0.96626">
        <ele>4</ele>
        <time>2023-07-21T08:23:43.822+00:00</time>
      </trkpt>
      <trkpt lat="45.933" lon="-0.96641">
        <ele>4</ele>
        <time>2023-07-21T08:23:48.822+00:00</time>
      </trkpt>
      <trkpt lat="45.9328" lon="-0.96648">
        <ele>4</ele>
        <time>2023-07-21T08:23:53.758+00:00</time>
      </trkpt>
      <trkpt lat="45.93262" lon="-0.96636">
        <ele>3</ele>
        <time>2023-07-21T08:23:57.823+00:00</time>
      </trkpt>
      <trkpt lat="45.93239" lon="-0.96623">
        <ele>3</ele>
        <time>2023-07-21T08:24:01.826+00:00</time>
      </trkpt>
      <trkpt lat="45.93213" lon="-0.96609">
        <ele>4</ele>
        <time>2023-07-21T08:24:06.806+00:00</time>
      </trkpt>
      <trkpt lat="45.93197" lon="-0.966">
        <ele>5</ele>
        <time>2023-07-21T08:24:10.815+00:00</time>
      </trkpt>
      <trkpt lat="45.93174" lon="-0.96586">
        <ele>4</ele>
        <time>2023-07-21T08:24:15.830+00:00</time>
      </trkpt>
      <trkpt lat="45.9316" lon="-0.96576">
        <ele>4</ele>
        <time>2023-07-21T08:24:19.823+00:00</time>
      </trkpt>
      <trkpt lat="45.93144" lon="-0.96568">
        <ele>2</ele>
        <time>2023-07-21T08:24:24.393+00:00</time>
      </trkpt>
      <trkpt lat="45.93139" lon="-0.96569">
        <ele>2</ele>
        <time>2023-07-21T08:24:28.342+00:00</time>
      </trkpt>
      <trkpt lat="45.93137" lon="-0.96569">
        <ele>2</ele>
        <time>2023-07-21T08:24:32.529+00:00</time>
      </trkpt>
      <trkpt lat="45.93126" lon="-0.96581">
        <ele>3</ele>
        <time>2023-07-21T08:24:37.017+00:00</time>
      </trkpt>
      <trkpt lat="45.93112" lon="-0.96592">
        <ele>3</ele>
        <time>2023-07-21T08:24:41.745+00:00</time>
      </trkpt>
      <trkpt lat="45.93094" lon="-0.96585">
        <ele>4</ele>
        <time>2023-07-21T08:24:46.513+00:00</time>
      </trkpt>
      <trkpt lat="45.93082" lon="-0.96565">
        <ele>4</ele>
        <time>2023-07-21T08:24:50.943+00:00</time>
      </trkpt>
      <trkpt lat="45.9307" lon="-0.96541">
        <ele>4</ele>
        <time>2023-07-21T08:24:55.361+00:00</time>
      </trkpt>
      <trkpt lat="45.93057" lon="-0.96522">
        <ele>4</ele>
        <time>2023-07-21T08:24:59.551+00:00</time>
      </trkpt>
      <trkpt lat="45.93042" lon="-0.96512">
        <ele>4</ele>
        <time>2023-07-21T08:25:04.338+00:00</time>
      </trkpt>
      <trkpt lat="45.93022" lon="-0.96491">
        <ele>4</ele>
        <time>2023-07-21T08:25:08.819+00:00</time>
      </trkpt>
      <trkpt lat="45.92999" lon="-0.96474">
        <ele>2</ele>
        <time>2023-07-21T08:25:13.805+00:00</time>
      </trkpt>
      <trkpt lat="45.92979" lon="-0.9646">
        <ele>2</ele>
        <time>2023-07-21T08:25:18.809+00:00</time>
      </trkpt>
      <trkpt lat="45.92959" lon="-0.9645">
        <ele>2</ele>
        <time>2023-07-21T08:25:23.583+00:00</time>
      </trkpt>
      <trkpt lat="45.92938" lon="-0.96444">
        <ele>3</ele>
        <time>2023-07-21T08:25:27.807+00:00</time>
      </trkpt>
      <trkpt lat="45.92919" lon="-0.96444">
        <ele>4</ele>
        <time>2023-07-21T08:25:32.834+00:00</time>
      </trkpt>
      <trkpt lat="45.92898" lon="-0.96445">
        <ele>1</ele>
        <time>2023-07-21T08:25:37.626+00:00</time>
      </trkpt>
      <trkpt lat="45.92878" lon="-0.96454">
        <ele>1</ele>
        <time>2023-07-21T08:25:41.664+00:00</time>
      </trkpt>
      <trkpt lat="45.92858" lon="-0.96468">
        <ele>2</ele>
        <time>2023-07-21T08:25:46.777+00:00</time>
      </trkpt>
      <trkpt lat="45.92844" lon="-0.96482">
        <ele>1</ele>
        <time>2023-07-21T08:25:50.781+00:00</time>
      </trkpt>
      <trkpt lat="45.92824" lon="-0.96499">
        <ele>2</ele>
        <time>2023-07-21T08:25:55.779+00:00</time>
      </trkpt>
      <trkpt lat="45.92808" lon="-0.96513">
        <ele>1</ele>
        <time>2023-07-21T08:26:00.311+00:00</time>
      </trkpt>
      <trkpt lat="45.92791" lon="-0.96528">
        <ele>2</ele>
        <time>2023-07-21T08:26:04.988+00:00</time>
      </trkpt>
      <trkpt lat="45.92776" lon="-0.96542">
        <ele>2</ele>
        <time>2023-07-21T08:26:09.184+00:00</time>
      </trkpt>
      <trkpt lat="45.92761" lon="-0.96554">
        <ele>1</ele>
        <time>2023-07-21T08:26:13.362+00:00</time>
      </trkpt>
      <trkpt lat="45.92745" lon="-0.96569">
        <ele>1</ele>
        <time>2023-07-21T08:26:17.993+00:00</time>
      </trkpt>
      <trkpt lat="45.9273" lon="-0.96583">
        <ele>4</ele>
        <time>2023-07-21T08:26:22.320+00:00</time>
      </trkpt>
      <trkpt lat="45.92714" lon="-0.96596">
        <ele>3.8</ele>
        <time>2023-07-21T08:26:26.797+00:00</time>
      </trkpt>
      <trkpt lat="45.927" lon="-0.9661">
        <ele>1</ele>
        <time>2023-07-21T08:26:30.898+00:00</time>
      </trkpt>
      <trkpt lat="45.92684" lon="-0.96624">
        <ele>1</ele>
        <time>2023-07-21T08:26:35.556+00:00</time>
      </trkpt>
      <trkpt lat="45.92666" lon="-0.96641">
        <ele>2</ele>
        <time>2023-07-21T08:26:40.725+00:00</time>
      </trkpt>
      <trkpt lat="45.92649" lon="-0.96653">
        <ele>2</ele>
        <time>2023-07-21T08:26:45.137+00:00</time>
      </trkpt>
      <trkpt lat="45.92632" lon="-0.96672">
        <ele>2</ele>
        <time>2023-07-21T08:26:49.782+00:00</time>
      </trkpt>
      <trkpt lat="45.92613" lon="-0.96686">
        <ele>2</ele>
        <time>2023-07-21T08:26:54.292+00:00</time>
      </trkpt>
      <trkpt lat="45.92597" lon="-0.96702">
        <ele>3</ele>
        <time>2023-07-21T08:26:59.308+00:00</time>
      </trkpt>
      <trkpt lat="45.92578" lon="-0.96714">
        <ele>3</ele>
        <time>2023-07-21T08:27:03.781+00:00</time>
      </trkpt>
      <trkpt lat="45.92563" lon="-0.96729">
        <ele>3</ele>
        <time>2023-07-21T08:27:07.779+00:00</time>
      </trkpt>
      <trkpt lat="45.92549" lon="-0.96743">
        <ele>3</ele>
        <time>2023-07-21T08:27:11.823+00:00</time>
      </trkpt>
      <trkpt lat="45.92533" lon="-0.96758">
        <ele>2</ele>
        <time>2023-07-21T08:27:15.830+00:00</time>
      </trkpt>
      <trkpt lat="45.92513" lon="-0.96776">
        <ele>3</ele>
        <time>2023-07-21T08:27:20.781+00:00</time>
      </trkpt>
      <trkpt lat="45.92498" lon="-0.96791">
        <ele>3</ele>
        <time>2023-07-21T08:27:24.805+00:00</time>
      </trkpt>
      <trkpt lat="45.92481" lon="-0.96804">
        <ele>3</ele>
        <time>2023-07-21T08:27:29.312+00:00</time>
      </trkpt>
      <trkpt lat="45.92466" lon="-0.96818">
        <ele>3</ele>
        <time>2023-07-21T08:27:33.823+00:00</time>
      </trkpt>
      <trkpt lat="45.9245" lon="-0.96831">
        <ele>2</ele>
        <time>2023-07-21T08:27:38.420+00:00</time>
      </trkpt>
      <trkpt lat="45.92438" lon="-0.96844">
        <ele>2</ele>
        <time>2023-07-21T08:27:42.543+00:00</time>
      </trkpt>
      <trkpt lat="45.92427" lon="-0.96862">
        <ele>1</ele>
        <time>2023-07-21T08:27:47.052+00:00</time>
      </trkpt>
      <trkpt lat="45.92424" lon="-0.9689">
        <ele>1</ele>
        <time>2023-07-21T08:27:51.352+00:00</time>
      </trkpt>
      <trkpt lat="45.92418" lon="-0.9691">
        <ele>1</ele>
        <time>2023-07-21T08:27:55.417+00:00</time>
      </trkpt>
      <trkpt lat="45.92408" lon="-0.96929">
        <ele>1</ele>
        <time>2023-07-21T08:27:59.638+00:00</time>
      </trkpt>
      <trkpt lat="45.92394" lon="-0.96942">
        <ele>2</ele>
        <time>2023-07-21T08:28:03.680+00:00</time>
      </trkpt>
      <trkpt lat="45.92379" lon="-0.96945">
        <ele>2</ele>
        <time>2023-07-21T08:28:07.684+00:00</time>
      </trkpt>
      <trkpt lat="45.92364" lon="-0.96946">
        <ele>3</ele>
        <time>2023-07-21T08:28:12.227+00:00</time>
      </trkpt>
      <trkpt lat="45.92354" lon="-0.96947">
        <ele>3</ele>
        <time>2023-07-21T08:28:16.349+00:00</time>
      </trkpt>
      <trkpt lat="45.92346" lon="-0.96941">
        <ele>4</ele>
        <time>2023-07-21T08:30:33.381+00:00</time>
      </trkpt>
      <trkpt lat="45.92346" lon="-0.96941">
        <ele>4</ele>
        <time>2023-07-21T08:30:38.757+00:00</time>
      </trkpt>
      <trkpt lat="45.92345" lon="-0.96942">
        <ele>4</ele>
        <time>2023-07-21T08:30:43.394+00:00</time>
      </trkpt>
      <trkpt lat="45.9234" lon="-0.96947">
        <ele>4</ele>
        <time>2023-07-21T08:30:48.610+00:00</time>
      </trkpt>
      <trkpt lat="45.92329" lon="-0.96943">
        <ele>4</ele>
        <time>2023-07-21T08:30:52.527+00:00</time>
      </trkpt>
      <trkpt lat="45.9232" lon="-0.96962">
        <ele>3</ele>
        <time>2023-07-21T08:30:56.465+00:00</time>
      </trkpt>
      <trkpt lat="45.9231" lon="-0.96984">
        <ele>2</ele>
        <time>2023-07-21T08:31:01.499+00:00</time>
      </trkpt>
      <trkpt lat="45.92299" lon="-0.97006">
        <ele>2</ele>
        <time>2023-07-21T08:31:06.715+00:00</time>
      </trkpt>
      <trkpt lat="45.92286" lon="-0.97023">
        <ele>1</ele>
        <time>2023-07-21T08:31:10.810+00:00</time>
      </trkpt>
      <trkpt lat="45.92268" lon="-0.97045">
        <ele>2</ele>
        <time>2023-07-21T08:31:15.808+00:00</time>
      </trkpt>
      <trkpt lat="45.92257" lon="-0.97066">
        <ele>2</ele>
        <time>2023-07-21T08:31:19.825+00:00</time>
      </trkpt>
      <trkpt lat="45.9224" lon="-0.97082">
        <ele>2</ele>
        <time>2023-07-21T08:31:24.597+00:00</time>
      </trkpt>
      <trkpt lat="45.92221" lon="-0.9708">
        <ele>2</ele>
        <time>2023-07-21T08:31:28.814+00:00</time>
      </trkpt>
      <trkpt lat="45.922" lon="-0.97063">
        <ele>2</ele>
        <time>2023-07-21T08:31:33.783+00:00</time>
      </trkpt>
      <trkpt lat="45.92187" lon="-0.97048">
        <ele>2</ele>
        <time>2023-07-21T08:31:37.355+00:00</time>
      </trkpt>
      <trkpt lat="45.92172" lon="-0.97028">
        <ele>2</ele>
        <time>2023-07-21T08:31:42.163+00:00</time>
      </trkpt>
      <trkpt lat="45.92158" lon="-0.97009">
        <ele>2</ele>
        <time>2023-07-21T08:31:46.406+00:00</time>
      </trkpt>
      <trkpt lat="45.92144" lon="-0.96992">
        <ele>3</ele>
        <time>2023-07-21T08:31:50.602+00:00</time>
      </trkpt>
      <trkpt lat="45.92128" lon="-0.96975">
        <ele>3</ele>
        <time>2023-07-21T08:31:55.617+00:00</time>
      </trkpt>
      <trkpt lat="45.92115" lon="-0.9696">
        <ele>4</ele>
        <time>2023-07-21T08:31:59.634+00:00</time>
      </trkpt>
      <trkpt lat="45.921" lon="-0.96948">
        <ele>4</ele>
        <time>2023-07-21T08:32:04.231+00:00</time>
      </trkpt>
      <trkpt lat="45.92084" lon="-0.96937">
        <ele>5</ele>
        <time>2023-07-21T08:32:08.630+00:00</time>
      </trkpt>
      <trkpt lat="45.92069" lon="-0.96921">
        <ele>4</ele>
        <time>2023-07-21T08:32:12.625+00:00</time>
      </trkpt>
      <trkpt lat="45.92054" lon="-0.96904">
        <ele>4</ele>
        <time>2023-07-21T08:32:17.087+00:00</time>
      </trkpt>
      <trkpt lat="45.92038" lon="-0.96889">
        <ele>5</ele>
        <time>2023-07-21T08:32:21.636+00:00</time>
      </trkpt>
      <trkpt lat="45.92024" lon="-0.96875">
        <ele>5</ele>
        <time>2023-07-21T08:32:26.251+00:00</time>
      </trkpt>
      <trkpt lat="45.92005" lon="-0.96859">
        <ele>7</ele>
        <time>2023-07-21T08:32:30.806+00:00</time>
      </trkpt>
      <trkpt lat="45.9199" lon="-0.96844">
        <ele>6</ele>
        <time>2023-07-21T08:32:35.173+00:00</time>
      </trkpt>
      <trkpt lat="45.91971" lon="-0.96828">
        <ele>9</ele>
        <time>2023-07-21T08:32:39.816+00:00</time>
      </trkpt>
      <trkpt lat="45.91955" lon="-0.96813">
        <ele>8</ele>
        <time>2023-07-21T08:32:44.193+00:00</time>
      </trkpt>
      <trkpt lat="45.9194" lon="-0.96801">
        <ele>8</ele>
        <time>2023-07-21T08:32:48.230+00:00</time>
      </trkpt>
      <trkpt lat="45.91925" lon="-0.96789">
        <ele>5</ele>
        <time>2023-07-21T08:32:52.306+00:00</time>
      </trkpt>
      <trkpt lat="45.9191" lon="-0.96777">
        <ele>5</ele>
        <time>2023-07-21T08:32:56.341+00:00</time>
      </trkpt>
      <trkpt lat="45.91891" lon="-0.96763">
        <ele>3</ele>
        <time>2023-07-21T08:33:01.314+00:00</time>
      </trkpt>
      <trkpt lat="45.91875" lon="-0.96751">
        <ele>3</ele>
        <time>2023-07-21T08:33:05.843+00:00</time>
      </trkpt>
      <trkpt lat="45.91861" lon="-0.96742">
        <ele>3</ele>
        <time>2023-07-21T08:33:09.821+00:00</time>
      </trkpt>
      <trkpt lat="45.91845" lon="-0.96731">
        <ele>4</ele>
        <time>2023-07-21T08:33:13.799+00:00</time>
      </trkpt>
      <trkpt lat="45.91829" lon="-0.9672">
        <ele>4</ele>
        <time>2023-07-21T08:33:17.954+00:00</time>
      </trkpt>
      <trkpt lat="45.91813" lon="-0.96709">
        <ele>4</ele>
        <time>2023-07-21T08:33:22.489+00:00</time>
      </trkpt>
      <trkpt lat="45.91798" lon="-0.96698">
        <ele>4</ele>
        <time>2023-07-21T08:33:27.003+00:00</time>
      </trkpt>
      <trkpt lat="45.91783" lon="-0.9669">
        <ele>3</ele>
        <time>2023-07-21T08:33:31.020+00:00</time>
      </trkpt>
      <trkpt lat="45.91767" lon="-0.9668">
        <ele>2</ele>
        <time>2023-07-21T08:33:35.588+00:00</time>
      </trkpt>
      <trkpt lat="45.91752" lon="-0.96672">
        <ele>2</ele>
        <time>2023-07-21T08:33:39.589+00:00</time>
      </trkpt>
      <trkpt lat="45.91738" lon="-0.96664">
        <ele>2</ele>
        <time>2023-07-21T08:33:43.785+00:00</time>
      </trkpt>
      <trkpt lat="45.91724" lon="-0.96656">
        <ele>2</ele>
        <time>2023-07-21T08:33:47.943+00:00</time>
      </trkpt>
      <trkpt lat="45.91708" lon="-0.96649">
        <ele>2</ele>
        <time>2023-07-21T08:33:52.467+00:00</time>
      </trkpt>
      <trkpt lat="45.91694" lon="-0.9664">
        <ele>1</ele>
        <time>2023-07-21T08:33:56.571+00:00</time>
      </trkpt>
      <trkpt lat="45.9168" lon="-0.96634">
        <ele>2</ele>
        <time>2023-07-21T08:34:01.579+00:00</time>
      </trkpt>
      <trkpt lat="45.91673" lon="-0.96629">
        <ele>2</ele>
        <time>2023-07-21T08:34:05.583+00:00</time>
      </trkpt>
      <trkpt lat="45.91673" lon="-0.96629">
        <ele>2</ele>
        <time>2023-07-21T08:34:24.635+00:00</time>
      </trkpt>
      <trkpt lat="45.91673" lon="-0.96629">
        <ele>2</ele>
        <time>2023-07-21T08:34:28.657+00:00</time>
      </trkpt>
      <trkpt lat="45.9167" lon="-0.96627">
        <ele>2</ele>
        <time>2023-07-21T08:34:33.667+00:00</time>
      </trkpt>
      <trkpt lat="45.91659" lon="-0.96624">
        <ele>3</ele>
        <time>2023-07-21T08:34:38.789+00:00</time>
      </trkpt>
      <trkpt lat="45.91659" lon="-0.96624">
        <ele>3</ele>
        <time>2023-07-21T08:34:43.789+00:00</time>
      </trkpt>
      <trkpt lat="45.91659" lon="-0.96624">
        <ele>3</ele>
        <time>2023-07-21T08:34:52.572+00:00</time>
      </trkpt>
      <trkpt lat="45.91659" lon="-0.96624">
        <ele>3</ele>
        <time>2023-07-21T08:34:57.631+00:00</time>
      </trkpt>
      <trkpt lat="45.91659" lon="-0.96624">
        <ele>3</ele>
        <time>2023-07-21T08:35:01.802+00:00</time>
      </trkpt>
      <trkpt lat="45.91655" lon="-0.96621">
        <ele>3</ele>
        <time>2023-07-21T08:35:06.781+00:00</time>
      </trkpt>
      <trkpt lat="45.91643" lon="-0.96616">
        <ele>9</ele>
        <time>2023-07-21T08:35:11.137+00:00</time>
      </trkpt>
      <trkpt lat="45.9163" lon="-0.9661">
        <ele>9</ele>
        <time>2023-07-21T08:35:15.211+00:00</time>
      </trkpt>
      <trkpt lat="45.91618" lon="-0.96606">
        <ele>13</ele>
        <time>2023-07-21T08:35:19.366+00:00</time>
      </trkpt>
      <trkpt lat="45.91614" lon="-0.96604">
        <ele>13</ele>
        <time>2023-07-21T08:35:24.518+00:00</time>
      </trkpt>
      <trkpt lat="45.91613" lon="-0.96601">
        <ele>13</ele>
        <time>2023-07-21T08:35:29.190+00:00</time>
      </trkpt>
      <trkpt lat="45.91614" lon="-0.96602">
        <ele>13</ele>
        <time>2023-07-21T08:38:09.697+00:00</time>
      </trkpt>
      <trkpt lat="45.91614" lon="-0.96602">
        <ele>13</ele>
        <time>2023-07-21T08:38:13.706+00:00</time>
      </trkpt>
      <trkpt lat="45.91614" lon="-0.96603">
        <ele>13</ele>
        <time>2023-07-21T08:38:18.219+00:00</time>
      </trkpt>
      <trkpt lat="45.91606" lon="-0.966">
        <ele>13</ele>
        <time>2023-07-21T08:38:22.431+00:00</time>
      </trkpt>
      <trkpt lat="45.91595" lon="-0.96597">
        <ele>8</ele>
        <time>2023-07-21T08:38:26.792+00:00</time>
      </trkpt>
      <trkpt lat="45.91583" lon="-0.96591">
        <ele>8</ele>
        <time>2023-07-21T08:38:41.584+00:00</time>
      </trkpt>
      <trkpt lat="45.91585" lon="-0.96593">
        <ele>8</ele>
        <time>2023-07-21T08:38:45.596+00:00</time>
      </trkpt>
      <trkpt lat="45.91586" lon="-0.96594">
        <ele>8</ele>
        <time>2023-07-21T08:38:50.113+00:00</time>
      </trkpt>
      <trkpt lat="45.91587" lon="-0.96593">
        <ele>8</ele>
        <time>2023-07-21T08:38:54.629+00:00</time>
      </trkpt>
      <trkpt lat="45.91573" lon="-0.96585">
        <ele>8</ele>
        <time>2023-07-21T08:38:59.345+00:00</time>
      </trkpt>
      <trkpt lat="45.91559" lon="-0.96584">
        <ele>3</ele>
        <time>2023-07-21T08:39:04.359+00:00</time>
      </trkpt>
      <trkpt lat="45.91543" lon="-0.96577">
        <ele>3</ele>
        <time>2023-07-21T08:39:09.391+00:00</time>
      </trkpt>
      <trkpt lat="45.91529" lon="-0.96568">
        <ele>7</ele>
        <time>2023-07-21T08:39:13.402+00:00</time>
      </trkpt>
      <trkpt lat="45.91517" lon="-0.96567">
        <ele>7</ele>
        <time>2023-07-21T08:39:18.015+00:00</time>
      </trkpt>
      <trkpt lat="45.9151" lon="-0.96564">
        <ele>11</ele>
        <time>2023-07-21T08:39:22.024+00:00</time>
      </trkpt>
      <trkpt lat="45.91499" lon="-0.96559">
        <ele>11</ele>
        <time>2023-07-21T08:39:26.533+00:00</time>
      </trkpt>
      <trkpt lat="45.91486" lon="-0.96558">
        <ele>9</ele>
        <time>2023-07-21T08:39:30.543+00:00</time>
      </trkpt>
      <trkpt lat="45.91473" lon="-0.96553">
        <ele>9</ele>
        <time>2023-07-21T08:39:35.052+00:00</time>
      </trkpt>
      <trkpt lat="45.91461" lon="-0.96549">
        <ele>9</ele>
        <time>2023-07-21T08:39:39.578+00:00</time>
      </trkpt>
      <trkpt lat="45.91449" lon="-0.96544">
        <ele>9</ele>
        <time>2023-07-21T08:39:43.600+00:00</time>
      </trkpt>
      <trkpt lat="45.91432" lon="-0.9654">
        <ele>9</ele>
        <time>2023-07-21T08:39:48.109+00:00</time>
      </trkpt>
      <trkpt lat="45.91417" lon="-0.96538">
        <ele>13</ele>
        <time>2023-07-21T08:39:52.704+00:00</time>
      </trkpt>
      <trkpt lat="45.91404" lon="-0.96533">
        <ele>13</ele>
        <time>2023-07-21T08:39:56.729+00:00</time>
      </trkpt>
      <trkpt lat="45.91387" lon="-0.9653">
        <ele>14</ele>
        <time>2023-07-21T08:40:01.322+00:00</time>
      </trkpt>
      <trkpt lat="45.91371" lon="-0.96526">
        <ele>14</ele>
        <time>2023-07-21T08:40:05.347+00:00</time>
      </trkpt>
      <trkpt lat="45.91352" lon="-0.96523">
        <ele>14</ele>
        <time>2023-07-21T08:40:09.956+00:00</time>
      </trkpt>
      <trkpt lat="45.91334" lon="-0.96519">
        <ele>14</ele>
        <time>2023-07-21T08:40:14.463+00:00</time>
      </trkpt>
      <trkpt lat="45.91316" lon="-0.96517">
        <ele>13</ele>
        <time>2023-07-21T08:40:18.470+00:00</time>
      </trkpt>
      <trkpt lat="45.91295" lon="-0.96514">
        <ele>13</ele>
        <time>2023-07-21T08:40:23.079+00:00</time>
      </trkpt>
      <trkpt lat="45.91276" lon="-0.96513">
        <ele>11</ele>
        <time>2023-07-21T08:40:27.603+00:00</time>
      </trkpt>
      <trkpt lat="45.91253" lon="-0.96511">
        <ele>12</ele>
        <time>2023-07-21T08:40:32.788+00:00</time>
      </trkpt>
      <trkpt lat="45.91233" lon="-0.96511">
        <ele>13</ele>
        <time>2023-07-21T08:40:36.787+00:00</time>
      </trkpt>
      <trkpt lat="45.91208" lon="-0.96509">
        <ele>13</ele>
        <time>2023-07-21T08:40:41.785+00:00</time>
      </trkpt>
      <trkpt lat="45.91181" lon="-0.9651">
        <ele>13</ele>
        <time>2023-07-21T08:40:46.780+00:00</time>
      </trkpt>
      <trkpt lat="45.91149" lon="-0.9651">
        <ele>13</ele>
        <time>2023-07-21T08:40:51.775+00:00</time>
      </trkpt>
      <trkpt lat="45.91124" lon="-0.96513">
        <ele>12</ele>
        <time>2023-07-21T08:40:55.804+00:00</time>
      </trkpt>
      <trkpt lat="45.91092" lon="-0.96514">
        <ele>12</ele>
        <time>2023-07-21T08:41:00.793+00:00</time>
      </trkpt>
      <trkpt lat="45.91069" lon="-0.96517">
        <ele>11</ele>
        <time>2023-07-21T08:41:04.804+00:00</time>
      </trkpt>
      <trkpt lat="45.91057" lon="-0.96484">
        <ele>10</ele>
        <time>2023-07-21T08:41:40.325+00:00</time>
      </trkpt>
      <trkpt lat="45.91057" lon="-0.96484">
        <ele>10</ele>
        <time>2023-07-21T08:41:45.098+00:00</time>
      </trkpt>
      <trkpt lat="45.91058" lon="-0.96484">
        <ele>10</ele>
        <time>2023-07-21T08:41:49.172+00:00</time>
      </trkpt>
      <trkpt lat="45.91058" lon="-0.96483">
        <ele>10</ele>
        <time>2023-07-21T08:41:53.348+00:00</time>
      </trkpt>
      <trkpt lat="45.91058" lon="-0.96483">
        <ele>10</ele>
        <time>2023-07-21T08:41:58.601+00:00</time>
      </trkpt>
      <trkpt lat="45.91058" lon="-0.96483">
        <ele>10</ele>
        <time>2023-07-21T08:42:26.778+00:00</time>
      </trkpt>
      <trkpt lat="45.91063" lon="-0.96478">
        <ele>10</ele>
        <time>2023-07-21T08:42:30.797+00:00</time>
      </trkpt>
      <trkpt lat="45.91071" lon="-0.96473">
        <ele>10</ele>
        <time>2023-07-21T08:42:35.365+00:00</time>
      </trkpt>
      <trkpt lat="45.91077" lon="-0.96465">
        <ele>10</ele>
        <time>2023-07-21T08:42:39.258+00:00</time>
      </trkpt>
      <trkpt lat="45.91085" lon="-0.96456">
        <ele>9</ele>
        <time>2023-07-21T08:42:43.333+00:00</time>
      </trkpt>
      <trkpt lat="45.91093" lon="-0.96447">
        <ele>9</ele>
        <time>2023-07-21T08:42:48.127+00:00</time>
      </trkpt>
      <trkpt lat="45.911" lon="-0.96439">
        <ele>10</ele>
        <time>2023-07-21T08:42:52.319+00:00</time>
      </trkpt>
      <trkpt lat="45.91106" lon="-0.96435">
        <ele>10</ele>
        <time>2023-07-21T08:42:56.993+00:00</time>
      </trkpt>
      <trkpt lat="45.9111" lon="-0.96429">
        <ele>9</ele>
        <time>2023-07-21T08:43:01.188+00:00</time>
      </trkpt>
      <trkpt lat="45.91113" lon="-0.9643">
        <ele>9</ele>
        <time>2023-07-21T08:43:47.811+00:00</time>
      </trkpt>
      <trkpt lat="45.9112" lon="-0.96422">
        <ele>9</ele>
        <time>2023-07-21T08:43:52.787+00:00</time>
      </trkpt>
      <trkpt lat="45.91134" lon="-0.96412">
        <ele>9</ele>
        <time>2023-07-21T08:43:57.183+00:00</time>
      </trkpt>
      <trkpt lat="45.91149" lon="-0.96402">
        <ele>9</ele>
        <time>2023-07-21T08:44:01.387+00:00</time>
      </trkpt>
      <trkpt lat="45.91165" lon="-0.96393">
        <ele>10</ele>
        <time>2023-07-21T08:44:06.538+00:00</time>
      </trkpt>
      <trkpt lat="45.9118" lon="-0.96384">
        <ele>10</ele>
        <time>2023-07-21T08:44:10.714+00:00</time>
      </trkpt>
      <trkpt lat="45.91194" lon="-0.96377">
        <ele>10</ele>
        <time>2023-07-21T08:44:14.769+00:00</time>
      </trkpt>
      <trkpt lat="45.9121" lon="-0.96375">
        <ele>9</ele>
        <time>2023-07-21T08:44:18.945+00:00</time>
      </trkpt>
      <trkpt lat="45.91228" lon="-0.96374">
        <ele>8</ele>
        <time>2023-07-21T08:44:23.620+00:00</time>
      </trkpt>
      <trkpt lat="45.9124" lon="-0.96375">
        <ele>7</ele>
        <time>2023-07-21T08:44:27.694+00:00</time>
      </trkpt>
      <trkpt lat="45.91253" lon="-0.96376">
        <ele>8</ele>
        <time>2023-07-21T08:44:31.768+00:00</time>
      </trkpt>
      <trkpt lat="45.91274" lon="-0.96378">
        <ele>8</ele>
        <time>2023-07-21T08:44:36.803+00:00</time>
      </trkpt>
      <trkpt lat="45.91292" lon="-0.9638">
        <ele>9</ele>
        <time>2023-07-21T08:44:40.927+00:00</time>
      </trkpt>
      <trkpt lat="45.91308" lon="-0.96383">
        <ele>9</ele>
        <time>2023-07-21T08:44:44.983+00:00</time>
      </trkpt>
      <trkpt lat="45.91325" lon="-0.96387">
        <ele>10</ele>
        <time>2023-07-21T08:44:49.776+00:00</time>
      </trkpt>
      <trkpt lat="45.91341" lon="-0.96391">
        <ele>10</ele>
        <time>2023-07-21T08:44:54.391+00:00</time>
      </trkpt>
      <trkpt lat="45.91356" lon="-0.96397">
        <ele>10</ele>
        <time>2023-07-21T08:44:59.666+00:00</time>
      </trkpt>
      <trkpt lat="45.91355" lon="-0.96393">
        <ele>10</ele>
        <time>2023-07-21T08:45:04.817+00:00</time>
      </trkpt>
      <trkpt lat="45.91346" lon="-0.9639">
        <ele>10</ele>
        <time>2023-07-21T08:45:09.589+00:00</time>
      </trkpt>
      <trkpt lat="45.91331" lon="-0.96387">
        <ele>10</ele>
        <time>2023-07-21T08:45:14.265+00:00</time>
      </trkpt>
      <trkpt lat="45.91318" lon="-0.96385">
        <ele>9</ele>
        <time>2023-07-21T08:45:18.777+00:00</time>
      </trkpt>
      <trkpt lat="45.91306" lon="-0.96384">
        <ele>9</ele>
        <time>2023-07-21T08:45:22.817+00:00</time>
      </trkpt>
      <trkpt lat="45.9129" lon="-0.96381">
        <ele>8</ele>
        <time>2023-07-21T08:45:27.610+00:00</time>
      </trkpt>
      <trkpt lat="45.91276" lon="-0.9638">
        <ele>8</ele>
        <time>2023-07-21T08:45:31.625+00:00</time>
      </trkpt>
      <trkpt lat="45.91254" lon="-0.96374">
        <ele>7</ele>
        <time>2023-07-21T08:45:36.398+00:00</time>
      </trkpt>
      <trkpt lat="45.91234" lon="-0.96372">
        <ele>8</ele>
        <time>2023-07-21T08:45:41.190+00:00</time>
      </trkpt>
      <trkpt lat="45.91216" lon="-0.96372">
        <ele>8</ele>
        <time>2023-07-21T08:45:45.382+00:00</time>
      </trkpt>
      <trkpt lat="45.912" lon="-0.96374">
        <ele>9</ele>
        <time>2023-07-21T08:45:50.446+00:00</time>
      </trkpt>
      <trkpt lat="45.91185" lon="-0.96381">
        <ele>10</ele>
        <time>2023-07-21T08:45:54.584+00:00</time>
      </trkpt>
      <trkpt lat="45.91166" lon="-0.9639">
        <ele>10</ele>
        <time>2023-07-21T08:45:59.375+00:00</time>
      </trkpt>
      <trkpt lat="45.91152" lon="-0.96397">
        <ele>9</ele>
        <time>2023-07-21T08:46:03.447+00:00</time>
      </trkpt>
      <trkpt lat="45.91135" lon="-0.96408">
        <ele>9</ele>
        <time>2023-07-21T08:46:08.583+00:00</time>
      </trkpt>
      <trkpt lat="45.91122" lon="-0.96419">
        <ele>9</ele>
        <time>2023-07-21T08:46:12.633+00:00</time>
      </trkpt>
      <trkpt lat="45.9111" lon="-0.96428">
        <ele>9</ele>
        <time>2023-07-21T08:46:16.566+00:00</time>
      </trkpt>
      <trkpt lat="45.91096" lon="-0.9644">
        <ele>9</ele>
        <time>2023-07-21T08:46:21.063+00:00</time>
      </trkpt>
      <trkpt lat="45.9108" lon="-0.96455">
        <ele>9</ele>
        <time>2023-07-21T08:46:25.516+00:00</time>
      </trkpt>
      <trkpt lat="45.9107" lon="-0.96471">
        <ele>10</ele>
        <time>2023-07-21T08:46:29.551+00:00</time>
      </trkpt>
      <trkpt lat="45.91065" lon="-0.96487">
        <ele>10</ele>
        <time>2023-07-21T08:46:34.224+00:00</time>
      </trkpt>
      <trkpt lat="45.91077" lon="-0.96502">
        <ele>11</ele>
        <time>2023-07-21T08:46:38.776+00:00</time>
      </trkpt>
      <trkpt lat="45.91097" lon="-0.96496">
        <ele>12</ele>
        <time>2023-07-21T08:46:42.818+00:00</time>
      </trkpt>
      <trkpt lat="45.91121" lon="-0.96489">
        <ele>12</ele>
        <time>2023-07-21T08:46:47.819+00:00</time>
      </trkpt>
      <trkpt lat="45.91142" lon="-0.96483">
        <ele>11</ele>
        <time>2023-07-21T08:46:52.364+00:00</time>
      </trkpt>
      <trkpt lat="45.91159" lon="-0.96481">
        <ele>11</ele>
        <time>2023-07-21T08:46:57.017+00:00</time>
      </trkpt>
      <trkpt lat="45.91175" lon="-0.96479">
        <ele>11</ele>
        <time>2023-07-21T08:47:01.068+00:00</time>
      </trkpt>
      <trkpt lat="45.91193" lon="-0.96477">
        <ele>12</ele>
        <time>2023-07-21T08:47:05.386+00:00</time>
      </trkpt>
      <trkpt lat="45.91209" lon="-0.96475">
        <ele>13</ele>
        <time>2023-07-21T08:47:09.341+00:00</time>
      </trkpt>
      <trkpt lat="45.91223" lon="-0.96484">
        <ele>13</ele>
        <time>2023-07-21T08:47:13.895+00:00</time>
      </trkpt>
      <trkpt lat="45.91227" lon="-0.96508">
        <ele>13</ele>
        <time>2023-07-21T08:47:17.970+00:00</time>
      </trkpt>
      <trkpt lat="45.91227" lon="-0.96528">
        <ele>13</ele>
        <time>2023-07-21T08:47:22.404+00:00</time>
      </trkpt>
      <trkpt lat="45.91208" lon="-0.96558">
        <ele>12</ele>
        <time>2023-07-21T08:47:40.384+00:00</time>
      </trkpt>
      <trkpt lat="45.91208" lon="-0.96558">
        <ele>12</ele>
        <time>2023-07-21T08:47:44.579+00:00</time>
      </trkpt>
      <trkpt lat="45.91203" lon="-0.96557">
        <ele>12</ele>
        <time>2023-07-21T08:47:49.816+00:00</time>
      </trkpt>
      <trkpt lat="45.91196" lon="-0.96561">
        <ele>12</ele>
        <time>2023-07-21T08:47:54.386+00:00</time>
      </trkpt>
      <trkpt lat="45.91189" lon="-0.96561">
        <ele>12</ele>
        <time>2023-07-21T08:47:58.578+00:00</time>
      </trkpt>
      <trkpt lat="45.91181" lon="-0.96559">
        <ele>12</ele>
        <time>2023-07-21T08:48:03.371+00:00</time>
      </trkpt>
      <trkpt lat="45.91174" lon="-0.96559">
        <ele>13</ele>
        <time>2023-07-21T08:48:07.564+00:00</time>
      </trkpt>
      <trkpt lat="45.91167" lon="-0.96557">
        <ele>13</ele>
        <time>2023-07-21T08:48:12.577+00:00</time>
      </trkpt>
      <trkpt lat="45.91158" lon="-0.96558">
        <ele>13</ele>
        <time>2023-07-21T08:48:16.790+00:00</time>
      </trkpt>
      <trkpt lat="45.91158" lon="-0.96558">
        <ele>13</ele>
        <time>2023-07-21T08:48:21.583+00:00</time>
      </trkpt>
      <trkpt lat="45.91158" lon="-0.96558">
        <ele>13</ele>
        <time>2023-07-21T08:48:25.776+00:00</time>
      </trkpt>
      <trkpt lat="45.91151" lon="-0.96557">
        <ele>13</ele>
        <time>2023-07-21T08:48:29.970+00:00</time>
      </trkpt>
      <trkpt lat="45.91132" lon="-0.96553">
        <ele>13</ele>
        <time>2023-07-21T08:48:34.523+00:00</time>
      </trkpt>
      <trkpt lat="45.91118" lon="-0.96551">
        <ele>12</ele>
        <time>2023-07-21T08:48:38.596+00:00</time>
      </trkpt>
      <trkpt lat="45.91104" lon="-0.96549">
        <ele>12</ele>
        <time>2023-07-21T08:48:43.029+00:00</time>
      </trkpt>
      <trkpt lat="45.91091" lon="-0.96549">
        <ele>12</ele>
        <time>2023-07-21T08:48:47.582+00:00</time>
      </trkpt>
      <trkpt lat="45.91078" lon="-0.9655">
        <ele>12</ele>
        <time>2023-07-21T08:48:51.719+00:00</time>
      </trkpt>
      <trkpt lat="45.91068" lon="-0.96555">
        <ele>12</ele>
        <time>2023-07-21T08:48:56.153+00:00</time>
      </trkpt>
      <trkpt lat="45.9106" lon="-0.96568">
        <ele>12</ele>
        <time>2023-07-21T08:49:00.602+00:00</time>
      </trkpt>
      <trkpt lat="45.91059" lon="-0.96585">
        <ele>11</ele>
        <time>2023-07-21T08:49:05.394+00:00</time>
      </trkpt>
      <trkpt lat="45.91063" lon="-0.96609">
        <ele>11</ele>
        <time>2023-07-21T08:49:09.349+00:00</time>
      </trkpt>
      <trkpt lat="45.91068" lon="-0.96636">
        <ele>11</ele>
        <time>2023-07-21T08:49:14.381+00:00</time>
      </trkpt>
      <trkpt lat="45.9107" lon="-0.9666">
        <ele>10</ele>
        <time>2023-07-21T08:49:18.574+00:00</time>
      </trkpt>
      <trkpt lat="45.91071" lon="-0.96691">
        <ele>11</ele>
        <time>2023-07-21T08:49:23.565+00:00</time>
      </trkpt>
      <trkpt lat="45.91074" lon="-0.96717">
        <ele>12</ele>
        <time>2023-07-21T08:49:27.758+00:00</time>
      </trkpt>
      <trkpt lat="45.91075" lon="-0.96741">
        <ele>11</ele>
        <time>2023-07-21T08:49:31.952+00:00</time>
      </trkpt>
      <trkpt lat="45.91075" lon="-0.96764">
        <ele>10</ele>
        <time>2023-07-21T08:49:36.026+00:00</time>
      </trkpt>
      <trkpt lat="45.91077" lon="-0.96791">
        <ele>10</ele>
        <time>2023-07-21T08:49:40.696+00:00</time>
      </trkpt>
      <trkpt lat="45.91077" lon="-0.9682">
        <ele>9</ele>
        <time>2023-07-21T08:49:45.367+00:00</time>
      </trkpt>
      <trkpt lat="45.91078" lon="-0.96846">
        <ele>9</ele>
        <time>2023-07-21T08:49:49.919+00:00</time>
      </trkpt>
      <trkpt lat="45.91077" lon="-0.9687">
        <ele>9</ele>
        <time>2023-07-21T08:49:53.993+00:00</time>
      </trkpt>
      <trkpt lat="45.91078" lon="-0.96895">
        <ele>10</ele>
        <time>2023-07-21T08:49:58.782+00:00</time>
      </trkpt>
      <trkpt lat="45.91078" lon="-0.96919">
        <ele>11</ele>
        <time>2023-07-21T08:50:02.978+00:00</time>
      </trkpt>
      <trkpt lat="45.91077" lon="-0.96942">
        <ele>12</ele>
        <time>2023-07-21T08:50:07.454+00:00</time>
      </trkpt>
      <trkpt lat="45.9108" lon="-0.96967">
        <ele>12</ele>
        <time>2023-07-21T08:50:11.964+00:00</time>
      </trkpt>
      <trkpt lat="45.91083" lon="-0.96994">
        <ele>12</ele>
        <time>2023-07-21T08:50:16.699+00:00</time>
      </trkpt>
      <trkpt lat="45.91086" lon="-0.97017">
        <ele>11</ele>
        <time>2023-07-21T08:50:20.708+00:00</time>
      </trkpt>
      <trkpt lat="45.91091" lon="-0.97043">
        <ele>10</ele>
        <time>2023-07-21T08:50:25.380+00:00</time>
      </trkpt>
      <trkpt lat="45.91094" lon="-0.97065">
        <ele>10</ele>
        <time>2023-07-21T08:50:29.573+00:00</time>
      </trkpt>
      <trkpt lat="45.91099" lon="-0.97088">
        <ele>10</ele>
        <time>2023-07-21T08:50:33.645+00:00</time>
      </trkpt>
      <trkpt lat="45.91103" lon="-0.97115">
        <ele>10</ele>
        <time>2023-07-21T08:50:37.977+00:00</time>
      </trkpt>
      <trkpt lat="45.91107" lon="-0.97147">
        <ele>10</ele>
        <time>2023-07-21T08:50:42.798+00:00</time>
      </trkpt>
      <trkpt lat="45.91111" lon="-0.97175">
        <ele>10</ele>
        <time>2023-07-21T08:50:47.302+00:00</time>
      </trkpt>
      <trkpt lat="45.91115" lon="-0.97199">
        <ele>11</ele>
        <time>2023-07-21T08:50:51.680+00:00</time>
      </trkpt>
      <trkpt lat="45.91118" lon="-0.97222">
        <ele>12</ele>
        <time>2023-07-21T08:50:55.571+00:00</time>
      </trkpt>
      <trkpt lat="45.91121" lon="-0.97249">
        <ele>12</ele>
        <time>2023-07-21T08:51:00.362+00:00</time>
      </trkpt>
      <trkpt lat="45.91124" lon="-0.97273">
        <ele>11</ele>
        <time>2023-07-21T08:51:04.434+00:00</time>
      </trkpt>
      <trkpt lat="45.91129" lon="-0.97296">
        <ele>10</ele>
        <time>2023-07-21T08:51:08.506+00:00</time>
      </trkpt>
      <trkpt lat="45.91132" lon="-0.97319">
        <ele>10</ele>
        <time>2023-07-21T08:51:12.519+00:00</time>
      </trkpt>
      <trkpt lat="45.91134" lon="-0.97345">
        <ele>10</ele>
        <time>2023-07-21T08:51:17.575+00:00</time>
      </trkpt>
      <trkpt lat="45.91136" lon="-0.97369">
        <ele>10</ele>
        <time>2023-07-21T08:51:21.644+00:00</time>
      </trkpt>
      <trkpt lat="45.91139" lon="-0.97392">
        <ele>11</ele>
        <time>2023-07-21T08:51:26.137+00:00</time>
      </trkpt>
      <trkpt lat="45.91143" lon="-0.97417">
        <ele>10</ele>
        <time>2023-07-21T08:51:30.714+00:00</time>
      </trkpt>
      <trkpt lat="45.91147" lon="-0.97443">
        <ele>10</ele>
        <time>2023-07-21T08:51:35.203+00:00</time>
      </trkpt>
      <trkpt lat="45.9115" lon="-0.97467">
        <ele>9</ele>
        <time>2023-07-21T08:51:39.256+00:00</time>
      </trkpt>
      <trkpt lat="45.91153" lon="-0.97491">
        <ele>9</ele>
        <time>2023-07-21T08:51:43.327+00:00</time>
      </trkpt>
      <trkpt lat="45.91158" lon="-0.97519">
        <ele>9</ele>
        <time>2023-07-21T08:51:47.996+00:00</time>
      </trkpt>
      <trkpt lat="45.9116" lon="-0.97542">
        <ele>9</ele>
        <time>2023-07-21T08:51:51.949+00:00</time>
      </trkpt>
      <trkpt lat="45.91163" lon="-0.97571">
        <ele>10</ele>
        <time>2023-07-21T08:51:56.619+00:00</time>
      </trkpt>
      <trkpt lat="45.91166" lon="-0.97598">
        <ele>10</ele>
        <time>2023-07-21T08:52:01.012+00:00</time>
      </trkpt>
      <trkpt lat="45.9117" lon="-0.97623">
        <ele>10</ele>
        <time>2023-07-21T08:52:05.203+00:00</time>
      </trkpt>
      <trkpt lat="45.91173" lon="-0.97648">
        <ele>10</ele>
        <time>2023-07-21T08:52:09.029+00:00</time>
      </trkpt>
      <trkpt lat="45.91178" lon="-0.97678">
        <ele>10</ele>
        <time>2023-07-21T08:52:13.815+00:00</time>
      </trkpt>
      <trkpt lat="45.91183" lon="-0.97711">
        <ele>9</ele>
        <time>2023-07-21T08:52:18.785+00:00</time>
      </trkpt>
      <trkpt lat="45.91185" lon="-0.97737">
        <ele>9</ele>
        <time>2023-07-21T08:52:22.823+00:00</time>
      </trkpt>
      <trkpt lat="45.91191" lon="-0.9777">
        <ele>9</ele>
        <time>2023-07-21T08:52:27.817+00:00</time>
      </trkpt>
      <trkpt lat="45.91197" lon="-0.97804">
        <ele>8</ele>
        <time>2023-07-21T08:52:32.813+00:00</time>
      </trkpt>
      <trkpt lat="45.91202" lon="-0.97839">
        <ele>8</ele>
        <time>2023-07-21T08:52:37.809+00:00</time>
      </trkpt>
      <trkpt lat="45.91207" lon="-0.97875">
        <ele>8</ele>
        <time>2023-07-21T08:52:42.801+00:00</time>
      </trkpt>
      <trkpt lat="45.91212" lon="-0.9791">
        <ele>9</ele>
        <time>2023-07-21T08:52:47.823+00:00</time>
      </trkpt>
      <trkpt lat="45.91215" lon="-0.97931">
        <ele>8</ele>
        <time>2023-07-21T08:52:52.815+00:00</time>
      </trkpt>
      <trkpt lat="45.91218" lon="-0.97951">
        <ele>8</ele>
        <time>2023-07-21T08:52:57.798+00:00</time>
      </trkpt>
      <trkpt lat="45.9122" lon="-0.97969">
        <ele>7</ele>
        <time>2023-07-21T08:53:01.406+00:00</time>
      </trkpt>
      <trkpt lat="45.91222" lon="-0.97985">
        <ele>7</ele>
        <time>2023-07-21T08:53:06.147+00:00</time>
      </trkpt>
      <trkpt lat="45.91223" lon="-0.97997">
        <ele>7</ele>
        <time>2023-07-21T08:53:10.060+00:00</time>
      </trkpt>
      <trkpt lat="45.91223" lon="-0.98016">
        <ele>5</ele>
        <time>2023-07-21T08:53:14.575+00:00</time>
      </trkpt>
      <trkpt lat="45.9122" lon="-0.98031">
        <ele>5</ele>
        <time>2023-07-21T08:53:18.524+00:00</time>
      </trkpt>
      <trkpt lat="45.91212" lon="-0.98049">
        <ele>4</ele>
        <time>2023-07-21T08:53:23.114+00:00</time>
      </trkpt>
      <trkpt lat="45.91207" lon="-0.98064">
        <ele>4</ele>
        <time>2023-07-21T08:53:27.060+00:00</time>
      </trkpt>
      <trkpt lat="45.91202" lon="-0.98089">
        <ele>4</ele>
        <time>2023-07-21T08:53:31.565+00:00</time>
      </trkpt>
      <trkpt lat="45.91204" lon="-0.98112">
        <ele>4</ele>
        <time>2023-07-21T08:53:35.632+00:00</time>
      </trkpt>
      <trkpt lat="45.91211" lon="-0.98135">
        <ele>3</ele>
        <time>2023-07-21T08:53:40.777+00:00</time>
      </trkpt>
      <trkpt lat="45.91223" lon="-0.98154">
        <ele>3</ele>
        <time>2023-07-21T08:53:44.925+00:00</time>
      </trkpt>
      <trkpt lat="45.91234" lon="-0.98175">
        <ele>3</ele>
        <time>2023-07-21T08:53:49.593+00:00</time>
      </trkpt>
      <trkpt lat="45.91245" lon="-0.98194">
        <ele>2</ele>
        <time>2023-07-21T08:53:53.623+00:00</time>
      </trkpt>
      <trkpt lat="45.91255" lon="-0.98211">
        <ele>2</ele>
        <time>2023-07-21T08:53:57.694+00:00</time>
      </trkpt>
      <trkpt lat="45.91267" lon="-0.98233">
        <ele>2</ele>
        <time>2023-07-21T08:54:02.803+00:00</time>
      </trkpt>
      <trkpt lat="45.91275" lon="-0.98251">
        <ele>3</ele>
        <time>2023-07-21T08:54:07.060+00:00</time>
      </trkpt>
      <trkpt lat="45.91282" lon="-0.98264">
        <ele>3</ele>
        <time>2023-07-21T08:54:11.682+00:00</time>
      </trkpt>
      <trkpt lat="45.91287" lon="-0.98272">
        <ele>4</ele>
        <time>2023-07-21T08:54:16.237+00:00</time>
      </trkpt>
      <trkpt lat="45.91291" lon="-0.9828">
        <ele>4</ele>
        <time>2023-07-21T08:54:20.186+00:00</time>
      </trkpt>
      <trkpt lat="45.91296" lon="-0.98295">
        <ele>6</ele>
        <time>2023-07-21T08:54:24.374+00:00</time>
      </trkpt>
      <trkpt lat="45.91301" lon="-0.98318">
        <ele>6</ele>
        <time>2023-07-21T08:54:29.613+00:00</time>
      </trkpt>
      <trkpt lat="45.91301" lon="-0.98335">
        <ele>8</ele>
        <time>2023-07-21T08:54:33.449+00:00</time>
      </trkpt>
      <trkpt lat="45.91297" lon="-0.98354">
        <ele>9</ele>
        <time>2023-07-21T08:54:38.115+00:00</time>
      </trkpt>
      <trkpt lat="45.91293" lon="-0.98374">
        <ele>9</ele>
        <time>2023-07-21T08:54:42.704+00:00</time>
      </trkpt>
      <trkpt lat="45.9129" lon="-0.98392">
        <ele>7</ele>
        <time>2023-07-21T08:54:46.610+00:00</time>
      </trkpt>
      <trkpt lat="45.91287" lon="-0.98419">
        <ele>8</ele>
        <time>2023-07-21T08:54:51.810+00:00</time>
      </trkpt>
      <trkpt lat="45.91282" lon="-0.98444">
        <ele>8</ele>
        <time>2023-07-21T08:54:56.424+00:00</time>
      </trkpt>
      <trkpt lat="45.91278" lon="-0.98468">
        <ele>8</ele>
        <time>2023-07-21T08:55:01.067+00:00</time>
      </trkpt>
      <trkpt lat="45.91274" lon="-0.98495">
        <ele>9</ele>
        <time>2023-07-21T08:55:05.601+00:00</time>
      </trkpt>
      <trkpt lat="45.91271" lon="-0.98518">
        <ele>9</ele>
        <time>2023-07-21T08:55:09.671+00:00</time>
      </trkpt>
      <trkpt lat="45.91271" lon="-0.98544">
        <ele>9</ele>
        <time>2023-07-21T08:55:14.218+00:00</time>
      </trkpt>
      <trkpt lat="45.91277" lon="-0.98567">
        <ele>9</ele>
        <time>2023-07-21T08:55:18.765+00:00</time>
      </trkpt>
      <trkpt lat="45.91286" lon="-0.9859">
        <ele>9</ele>
        <time>2023-07-21T08:55:23.311+00:00</time>
      </trkpt>
      <trkpt lat="45.91293" lon="-0.98612">
        <ele>10</ele>
        <time>2023-07-21T08:55:27.379+00:00</time>
      </trkpt>
      <trkpt lat="45.91303" lon="-0.98635">
        <ele>11</ele>
        <time>2023-07-21T08:55:32.163+00:00</time>
      </trkpt>
      <trkpt lat="45.91311" lon="-0.98657">
        <ele>12</ele>
        <time>2023-07-21T08:55:36.793+00:00</time>
      </trkpt>
      <trkpt lat="45.91319" lon="-0.98676">
        <ele>12</ele>
        <time>2023-07-21T08:55:40.777+00:00</time>
      </trkpt>
      <trkpt lat="45.91326" lon="-0.98699">
        <ele>13</ele>
        <time>2023-07-21T08:55:45.324+00:00</time>
      </trkpt>
      <trkpt lat="45.91334" lon="-0.98721">
        <ele>13</ele>
        <time>2023-07-21T08:55:49.394+00:00</time>
      </trkpt>
      <trkpt lat="45.91341" lon="-0.98742">
        <ele>13</ele>
        <time>2023-07-21T08:55:53.584+00:00</time>
      </trkpt>
      <trkpt lat="45.91349" lon="-0.98762">
        <ele>11</ele>
        <time>2023-07-21T08:55:57.772+00:00</time>
      </trkpt>
      <trkpt lat="45.91357" lon="-0.98783">
        <ele>11</ele>
        <time>2023-07-21T08:56:01.836+00:00</time>
      </trkpt>
      <trkpt lat="45.91369" lon="-0.98814">
        <ele>11</ele>
        <time>2023-07-21T08:56:06.814+00:00</time>
      </trkpt>
      <trkpt lat="45.91379" lon="-0.98836">
        <ele>8</ele>
        <time>2023-07-21T08:56:11.187+00:00</time>
      </trkpt>
      <trkpt lat="45.91388" lon="-0.98864">
        <ele>8</ele>
        <time>2023-07-21T08:56:15.801+00:00</time>
      </trkpt>
      <trkpt lat="45.91397" lon="-0.98894">
        <ele>8</ele>
        <time>2023-07-21T08:56:20.812+00:00</time>
      </trkpt>
      <trkpt lat="45.91407" lon="-0.98916">
        <ele>9</ele>
        <time>2023-07-21T08:56:24.829+00:00</time>
      </trkpt>
      <trkpt lat="45.91415" lon="-0.98937">
        <ele>10</ele>
        <time>2023-07-21T08:56:28.994+00:00</time>
      </trkpt>
      <trkpt lat="45.91424" lon="-0.98964">
        <ele>11</ele>
        <time>2023-07-21T08:56:33.520+00:00</time>
      </trkpt>
      <trkpt lat="45.91434" lon="-0.98989">
        <ele>12</ele>
        <time>2023-07-21T08:56:38.189+00:00</time>
      </trkpt>
      <trkpt lat="45.91442" lon="-0.99012">
        <ele>12</ele>
        <time>2023-07-21T08:56:42.970+00:00</time>
      </trkpt>
      <trkpt lat="45.9145" lon="-0.99036">
        <ele>12</ele>
        <time>2023-07-21T08:56:47.527+00:00</time>
      </trkpt>
      <trkpt lat="45.91457" lon="-0.99058">
        <ele>12</ele>
        <time>2023-07-21T08:56:51.596+00:00</time>
      </trkpt>
      <trkpt lat="45.91468" lon="-0.99082">
        <ele>13</ele>
        <time>2023-07-21T08:56:56.806+00:00</time>
      </trkpt>
      <trkpt lat="45.91474" lon="-0.99102">
        <ele>13</ele>
        <time>2023-07-21T08:57:00.809+00:00</time>
      </trkpt>
      <trkpt lat="45.91482" lon="-0.99121">
        <ele>13</ele>
        <time>2023-07-21T08:57:05.321+00:00</time>
      </trkpt>
      <trkpt lat="45.91488" lon="-0.9914">
        <ele>16</ele>
        <time>2023-07-21T08:57:09.989+00:00</time>
      </trkpt>
      <trkpt lat="45.91494" lon="-0.99155">
        <ele>15</ele>
        <time>2023-07-21T08:57:14.490+00:00</time>
      </trkpt>
      <trkpt lat="45.91494" lon="-0.99164">
        <ele>15</ele>
        <time>2023-07-21T08:57:18.367+00:00</time>
      </trkpt>
      <trkpt lat="45.91501" lon="-0.9917">
        <ele>15</ele>
        <time>2023-07-21T08:57:22.913+00:00</time>
      </trkpt>
      <trkpt lat="45.91505" lon="-0.99187">
        <ele>14</ele>
        <time>2023-07-21T08:57:27.341+00:00</time>
      </trkpt>
      <trkpt lat="45.91515" lon="-0.99211">
        <ele>15</ele>
        <time>2023-07-21T08:57:32.489+00:00</time>
      </trkpt>
      <trkpt lat="45.91523" lon="-0.99232">
        <ele>15</ele>
        <time>2023-07-21T08:57:37.082+00:00</time>
      </trkpt>
      <trkpt lat="45.91532" lon="-0.99255">
        <ele>13</ele>
        <time>2023-07-21T08:57:41.469+00:00</time>
      </trkpt>
      <trkpt lat="45.9154" lon="-0.99278">
        <ele>12</ele>
        <time>2023-07-21T08:57:45.497+00:00</time>
      </trkpt>
      <trkpt lat="45.91548" lon="-0.99304">
        <ele>10</ele>
        <time>2023-07-21T08:57:50.082+00:00</time>
      </trkpt>
      <trkpt lat="45.91556" lon="-0.99328">
        <ele>10</ele>
        <time>2023-07-21T08:57:54.554+00:00</time>
      </trkpt>
      <trkpt lat="45.91563" lon="-0.99348">
        <ele>9</ele>
        <time>2023-07-21T08:57:58.954+00:00</time>
      </trkpt>
      <trkpt lat="45.91569" lon="-0.99365">
        <ele>9</ele>
        <time>2023-07-21T08:58:03.529+00:00</time>
      </trkpt>
      <trkpt lat="45.91569" lon="-0.99375">
        <ele>8</ele>
        <time>2023-07-21T08:58:08.196+00:00</time>
      </trkpt>
      <trkpt lat="45.91575" lon="-0.99383">
        <ele>7</ele>
        <time>2023-07-21T08:58:12.264+00:00</time>
      </trkpt>
      <trkpt lat="45.91579" lon="-0.99387">
        <ele>7</ele>
        <time>2023-07-21T08:58:16.791+00:00</time>
      </trkpt>
      <trkpt lat="45.91579" lon="-0.99388">
        <ele>7</ele>
        <time>2023-07-21T08:58:20.382+00:00</time>
      </trkpt>
      <trkpt lat="45.91579" lon="-0.99389">
        <ele>7</ele>
        <time>2023-07-21T08:58:40.813+00:00</time>
      </trkpt>
      <trkpt lat="45.91579" lon="-0.99388">
        <ele>7</ele>
        <time>2023-07-21T08:58:44.810+00:00</time>
      </trkpt>
      <trkpt lat="45.91583" lon="-0.99397">
        <ele>7</ele>
        <time>2023-07-21T08:58:49.806+00:00</time>
      </trkpt>
      <trkpt lat="45.91589" lon="-0.99411">
        <ele>6</ele>
        <time>2023-07-21T08:58:53.783+00:00</time>
      </trkpt>
      <trkpt lat="45.91597" lon="-0.99432">
        <ele>6</ele>
        <time>2023-07-21T08:58:58.212+00:00</time>
      </trkpt>
      <trkpt lat="45.91604" lon="-0.99456">
        <ele>5</ele>
        <time>2023-07-21T08:59:02.402+00:00</time>
      </trkpt>
      <trkpt lat="45.91617" lon="-0.99486">
        <ele>3</ele>
        <time>2023-07-21T08:59:06.801+00:00</time>
      </trkpt>
      <trkpt lat="45.91629" lon="-0.99514">
        <ele>1</ele>
        <time>2023-07-21T08:59:10.812+00:00</time>
      </trkpt>
      <trkpt lat="45.91635" lon="-0.99543">
        <ele>3</ele>
        <time>2023-07-21T08:59:14.807+00:00</time>
      </trkpt>
      <trkpt lat="45.91646" lon="-0.99574">
        <ele>3</ele>
        <time>2023-07-21T08:59:19.805+00:00</time>
      </trkpt>
      <trkpt lat="45.91654" lon="-0.99595">
        <ele>3</ele>
        <time>2023-07-21T08:59:24.817+00:00</time>
      </trkpt>
      <trkpt lat="45.91667" lon="-0.99594">
        <ele>3</ele>
        <time>2023-07-21T08:59:29.219+00:00</time>
      </trkpt>
      <trkpt lat="45.91672" lon="-0.99605">
        <ele>4</ele>
        <time>2023-07-21T08:59:33.371+00:00</time>
      </trkpt>
      <trkpt lat="45.91674" lon="-0.99619">
        <ele>4</ele>
        <time>2023-07-21T08:59:37.921+00:00</time>
      </trkpt>
      <trkpt lat="45.91674" lon="-0.99635">
        <ele>5</ele>
        <time>2023-07-21T08:59:42.542+00:00</time>
      </trkpt>
      <trkpt lat="45.91679" lon="-0.99652">
        <ele>5</ele>
        <time>2023-07-21T08:59:47.622+00:00</time>
      </trkpt>
      <trkpt lat="45.91684" lon="-0.99669">
        <ele>7</ele>
        <time>2023-07-21T08:59:51.574+00:00</time>
      </trkpt>
      <trkpt lat="45.91691" lon="-0.9969">
        <ele>7</ele>
        <time>2023-07-21T08:59:56.805+00:00</time>
      </trkpt>
      <trkpt lat="45.91698" lon="-0.99713">
        <ele>8</ele>
        <time>2023-07-21T09:00:01.357+00:00</time>
      </trkpt>
      <trkpt lat="45.91704" lon="-0.99729">
        <ele>8</ele>
        <time>2023-07-21T09:00:05.549+00:00</time>
      </trkpt>
      <trkpt lat="45.91712" lon="-0.99751">
        <ele>11</ele>
        <time>2023-07-21T09:00:10.219+00:00</time>
      </trkpt>
      <trkpt lat="45.91719" lon="-0.99769">
        <ele>12</ele>
        <time>2023-07-21T09:00:14.372+00:00</time>
      </trkpt>
      <trkpt lat="45.91726" lon="-0.99788">
        <ele>12</ele>
        <time>2023-07-21T09:00:18.324+00:00</time>
      </trkpt>
      <trkpt lat="45.91733" lon="-0.99806">
        <ele>13</ele>
        <time>2023-07-21T09:00:22.394+00:00</time>
      </trkpt>
      <trkpt lat="45.91739" lon="-0.99827">
        <ele>12</ele>
        <time>2023-07-21T09:00:27.181+00:00</time>
      </trkpt>
      <trkpt lat="45.91747" lon="-0.99845">
        <ele>12</ele>
        <time>2023-07-21T09:00:31.370+00:00</time>
      </trkpt>
      <trkpt lat="45.91757" lon="-0.99863">
        <ele>13</ele>
        <time>2023-07-21T09:00:36.756+00:00</time>
      </trkpt>
      <trkpt lat="45.91767" lon="-0.99876">
        <ele>13</ele>
        <time>2023-07-21T09:00:40.833+00:00</time>
      </trkpt>
      <trkpt lat="45.91775" lon="-0.99888">
        <ele>13</ele>
        <time>2023-07-21T09:00:45.331+00:00</time>
      </trkpt>
      <trkpt lat="45.9178" lon="-0.99901">
        <ele>13</ele>
        <time>2023-07-21T09:01:17.812+00:00</time>
      </trkpt>
      <trkpt lat="45.91782" lon="-0.999">
        <ele>13</ele>
        <time>2023-07-21T09:01:22.827+00:00</time>
      </trkpt>
      <trkpt lat="45.91782" lon="-0.99901">
        <ele>13</ele>
        <time>2023-07-21T09:01:27.811+00:00</time>
      </trkpt>
      <trkpt lat="45.91783" lon="-0.99904">
        <ele>13</ele>
        <time>2023-07-21T09:01:31.336+00:00</time>
      </trkpt>
      <trkpt lat="45.91784" lon="-0.9992">
        <ele>13</ele>
        <time>2023-07-21T09:01:36.604+00:00</time>
      </trkpt>
      <trkpt lat="45.91793" lon="-0.99941">
        <ele>12</ele>
        <time>2023-07-21T09:01:41.395+00:00</time>
      </trkpt>
      <trkpt lat="45.91802" lon="-0.9996">
        <ele>15</ele>
        <time>2023-07-21T09:01:45.926+00:00</time>
      </trkpt>
      <trkpt lat="45.91811" lon="-0.99977">
        <ele>15</ele>
        <time>2023-07-21T09:01:50.577+00:00</time>
      </trkpt>
      <trkpt lat="45.91819" lon="-0.99994">
        <ele>14</ele>
        <time>2023-07-21T09:01:54.767+00:00</time>
      </trkpt>
      <trkpt lat="45.9183" lon="-1.00013">
        <ele>14</ele>
        <time>2023-07-21T09:01:59.554+00:00</time>
      </trkpt>
      <trkpt lat="45.9184" lon="-1.00032">
        <ele>13</ele>
        <time>2023-07-21T09:02:03.623+00:00</time>
      </trkpt>
      <trkpt lat="45.91851" lon="-1.00053">
        <ele>10</ele>
        <time>2023-07-21T09:02:07.922+00:00</time>
      </trkpt>
      <trkpt lat="45.91863" lon="-1.00073">
        <ele>11</ele>
        <time>2023-07-21T09:02:11.991+00:00</time>
      </trkpt>
      <trkpt lat="45.91873" lon="-1.00093">
        <ele>11</ele>
        <time>2023-07-21T09:02:16.161+00:00</time>
      </trkpt>
      <trkpt lat="45.91885" lon="-1.00116">
        <ele>10</ele>
        <time>2023-07-21T09:02:20.711+00:00</time>
      </trkpt>
      <trkpt lat="45.91896" lon="-1.00135">
        <ele>10</ele>
        <time>2023-07-21T09:02:24.661+00:00</time>
      </trkpt>
      <trkpt lat="45.91908" lon="-1.00154">
        <ele>10</ele>
        <time>2023-07-21T09:02:29.330+00:00</time>
      </trkpt>
      <trkpt lat="45.91921" lon="-1.00172">
        <ele>10</ele>
        <time>2023-07-21T09:02:33.410+00:00</time>
      </trkpt>
      <trkpt lat="45.91935" lon="-1.00187">
        <ele>10</ele>
        <time>2023-07-21T09:02:37.599+00:00</time>
      </trkpt>
      <trkpt lat="45.91947" lon="-1.00197">
        <ele>10</ele>
        <time>2023-07-21T09:02:41.909+00:00</time>
      </trkpt>
      <trkpt lat="45.91959" lon="-1.00204">
        <ele>10</ele>
        <time>2023-07-21T09:02:46.091+00:00</time>
      </trkpt>
      <trkpt lat="45.91968" lon="-1.00208">
        <ele>10</ele>
        <time>2023-07-21T09:03:08.722+00:00</time>
      </trkpt>
      <trkpt lat="45.91973" lon="-1.002">
        <ele>10</ele>
        <time>2023-07-21T09:03:13.391+00:00</time>
      </trkpt>
      <trkpt lat="45.91981" lon="-1.00194">
        <ele>10</ele>
        <time>2023-07-21T09:03:18.613+00:00</time>
      </trkpt>
      <trkpt lat="45.91988" lon="-1.00189">
        <ele>10</ele>
        <time>2023-07-21T09:03:22.592+00:00</time>
      </trkpt>
      <trkpt lat="45.91994" lon="-1.0019">
        <ele>10</ele>
        <time>2023-07-21T09:03:26.645+00:00</time>
      </trkpt>
      <trkpt lat="45.92006" lon="-1.00189">
        <ele>10</ele>
        <time>2023-07-21T09:03:30.598+00:00</time>
      </trkpt>
      <trkpt lat="45.92017" lon="-1.00184">
        <ele>9</ele>
        <time>2023-07-21T09:03:35.091+00:00</time>
      </trkpt>
      <trkpt lat="45.92024" lon="-1.00176">
        <ele>8</ele>
        <time>2023-07-21T09:03:40.005+00:00</time>
      </trkpt>
      <trkpt lat="45.92038" lon="-1.00167">
        <ele>8</ele>
        <time>2023-07-21T09:03:44.373+00:00</time>
      </trkpt>
      <trkpt lat="45.92051" lon="-1.00157">
        <ele>8</ele>
        <time>2023-07-21T09:03:48.922+00:00</time>
      </trkpt>
      <trkpt lat="45.9206" lon="-1.00153">
        <ele>8</ele>
        <time>2023-07-21T09:03:53.314+00:00</time>
      </trkpt>
      <trkpt lat="45.92062" lon="-1.00154">
        <ele>8</ele>
        <time>2023-07-21T09:03:57.267+00:00</time>
      </trkpt>
      <trkpt lat="45.92063" lon="-1.00154">
        <ele>8</ele>
        <time>2023-07-21T09:04:01.220+00:00</time>
      </trkpt>
      <trkpt lat="45.9207" lon="-1.00161">
        <ele>9</ele>
        <time>2023-07-21T09:05:44.795+00:00</time>
      </trkpt>
      <trkpt lat="45.9207" lon="-1.00163">
        <ele>9</ele>
        <time>2023-07-21T09:05:48.800+00:00</time>
      </trkpt>
      <trkpt lat="45.92073" lon="-1.00165">
        <ele>9</ele>
        <time>2023-07-21T09:05:53.798+00:00</time>
      </trkpt>
      <trkpt lat="45.92077" lon="-1.00164">
        <ele>9</ele>
        <time>2023-07-21T09:05:58.016+00:00</time>
      </trkpt>
      <trkpt lat="45.92083" lon="-1.00153">
        <ele>7</ele>
        <time>2023-07-21T09:06:02.017+00:00</time>
      </trkpt>
      <trkpt lat="45.9209" lon="-1.00139">
        <ele>7</ele>
        <time>2023-07-21T09:06:06.346+00:00</time>
      </trkpt>
      <trkpt lat="45.92098" lon="-1.00135">
        <ele>9</ele>
        <time>2023-07-21T09:06:10.417+00:00</time>
      </trkpt>
      <trkpt lat="45.92107" lon="-1.00129">
        <ele>9</ele>
        <time>2023-07-21T09:06:15.687+00:00</time>
      </trkpt>
      <trkpt lat="45.92114" lon="-1.00124">
        <ele>8</ele>
        <time>2023-07-21T09:06:19.639+00:00</time>
      </trkpt>
      <trkpt lat="45.9212" lon="-1.00117">
        <ele>8</ele>
        <time>2023-07-21T09:06:23.591+00:00</time>
      </trkpt>
      <trkpt lat="45.9213" lon="-1.0011">
        <ele>9</ele>
        <time>2023-07-21T09:06:28.176+00:00</time>
      </trkpt>
      <trkpt lat="45.92143" lon="-1.00107">
        <ele>9</ele>
        <time>2023-07-21T09:06:32.790+00:00</time>
      </trkpt>
      <trkpt lat="45.92154" lon="-1.00104">
        <ele>9</ele>
        <time>2023-07-21T09:06:36.642+00:00</time>
      </trkpt>
      <trkpt lat="45.92164" lon="-1.00099">
        <ele>9</ele>
        <time>2023-07-21T09:06:40.593+00:00</time>
      </trkpt>
      <trkpt lat="45.92176" lon="-1.00096">
        <ele>5</ele>
        <time>2023-07-21T09:06:45.023+00:00</time>
      </trkpt>
      <trkpt lat="45.92187" lon="-1.00096">
        <ele>5</ele>
        <time>2023-07-21T09:06:49.795+00:00</time>
      </trkpt>
      <trkpt lat="45.922" lon="-1.00097">
        <ele>5</ele>
        <time>2023-07-21T09:06:54.364+00:00</time>
      </trkpt>
      <trkpt lat="45.92212" lon="-1.00096">
        <ele>5</ele>
        <time>2023-07-21T09:06:58.316+00:00</time>
      </trkpt>
      <trkpt lat="45.92221" lon="-1.00091">
        <ele>5</ele>
        <time>2023-07-21T09:07:02.815+00:00</time>
      </trkpt>
      <trkpt lat="45.92233" lon="-1.0009">
        <ele>5</ele>
        <time>2023-07-21T09:07:07.297+00:00</time>
      </trkpt>
      <trkpt lat="45.92242" lon="-1.00091">
        <ele>6</ele>
        <time>2023-07-21T09:07:11.800+00:00</time>
      </trkpt>
      <trkpt lat="45.92252" lon="-1.0009">
        <ele>6</ele>
        <time>2023-07-21T09:07:15.917+00:00</time>
      </trkpt>
      <trkpt lat="45.92262" lon="-1.00091">
        <ele>6</ele>
        <time>2023-07-21T09:07:20.344+00:00</time>
      </trkpt>
      <trkpt lat="45.92274" lon="-1.00095">
        <ele>6</ele>
        <time>2023-07-21T09:07:24.394+00:00</time>
      </trkpt>
      <trkpt lat="45.92284" lon="-1.00099">
        <ele>8</ele>
        <time>2023-07-21T09:07:28.941+00:00</time>
      </trkpt>
      <trkpt lat="45.92293" lon="-1.001">
        <ele>7</ele>
        <time>2023-07-21T09:07:33.012+00:00</time>
      </trkpt>
      <trkpt lat="45.92303" lon="-1.00095">
        <ele>5</ele>
        <time>2023-07-21T09:07:37.680+00:00</time>
      </trkpt>
      <trkpt lat="45.92319" lon="-1.00098">
        <ele>7</ele>
        <time>2023-07-21T09:07:41.630+00:00</time>
      </trkpt>
      <trkpt lat="45.92338" lon="-1.00103">
        <ele>5</ele>
        <time>2023-07-21T09:07:46.297+00:00</time>
      </trkpt>
      <trkpt lat="45.92356" lon="-1.00108">
        <ele>5</ele>
        <time>2023-07-21T09:07:50.964+00:00</time>
      </trkpt>
      <trkpt lat="45.9237" lon="-1.0011">
        <ele>5</ele>
        <time>2023-07-21T09:07:55.512+00:00</time>
      </trkpt>
      <trkpt lat="45.92383" lon="-1.00113">
        <ele>5</ele>
        <time>2023-07-21T09:08:00.059+00:00</time>
      </trkpt>
      <trkpt lat="45.92397" lon="-1.00114">
        <ele>5</ele>
        <time>2023-07-21T09:08:04.091+00:00</time>
      </trkpt>
      <trkpt lat="45.92412" lon="-1.00112">
        <ele>5</ele>
        <time>2023-07-21T09:08:08.674+00:00</time>
      </trkpt>
      <trkpt lat="45.92423" lon="-1.00107">
        <ele>5</ele>
        <time>2023-07-21T09:08:12.623+00:00</time>
      </trkpt>
      <trkpt lat="45.92427" lon="-1.00106">
        <ele>5</ele>
        <time>2023-07-21T09:08:17.372+00:00</time>
      </trkpt>
      <trkpt lat="45.92427" lon="-1.00106">
        <ele>5</ele>
        <time>2023-07-21T09:08:21.364+00:00</time>
      </trkpt>
      <trkpt lat="45.92428" lon="-1.00106">
        <ele>5</ele>
        <time>2023-07-21T09:08:26.012+00:00</time>
      </trkpt>
      <trkpt lat="45.92428" lon="-1.00106">
        <ele>5</ele>
        <time>2023-07-21T09:08:30.800+00:00</time>
      </trkpt>
      <trkpt lat="45.9244" lon="-1.001">
        <ele>6</ele>
        <time>2023-07-21T09:08:35.499+00:00</time>
      </trkpt>
      <trkpt lat="45.92454" lon="-1.00095">
        <ele>5</ele>
        <time>2023-07-21T09:08:39.416+00:00</time>
      </trkpt>
      <trkpt lat="45.92468" lon="-1.0009">
        <ele>6</ele>
        <time>2023-07-21T09:08:44.084+00:00</time>
      </trkpt>
      <trkpt lat="45.92479" lon="-1.00086">
        <ele>6</ele>
        <time>2023-07-21T09:08:48.033+00:00</time>
      </trkpt>
      <trkpt lat="45.92494" lon="-1.00081">
        <ele>6</ele>
        <time>2023-07-21T09:08:52.582+00:00</time>
      </trkpt>
      <trkpt lat="45.9251" lon="-1.00076">
        <ele>6</ele>
        <time>2023-07-21T09:08:57.670+00:00</time>
      </trkpt>
      <trkpt lat="45.92523" lon="-1.00071">
        <ele>6</ele>
        <time>2023-07-21T09:09:01.618+00:00</time>
      </trkpt>
      <trkpt lat="45.92535" lon="-1.00067">
        <ele>5</ele>
        <time>2023-07-21T09:09:05.805+00:00</time>
      </trkpt>
      <trkpt lat="45.9255" lon="-1.00064">
        <ele>5</ele>
        <time>2023-07-21T09:09:10.351+00:00</time>
      </trkpt>
      <trkpt lat="45.92563" lon="-1.00058">
        <ele>5</ele>
        <time>2023-07-21T09:09:14.821+00:00</time>
      </trkpt>
      <trkpt lat="45.92577" lon="-1.0006">
        <ele>6</ele>
        <time>2023-07-21T09:09:18.828+00:00</time>
      </trkpt>
      <trkpt lat="45.92593" lon="-1.00066">
        <ele>6</ele>
        <time>2023-07-21T09:09:23.558+00:00</time>
      </trkpt>
      <trkpt lat="45.92607" lon="-1.00074">
        <ele>5</ele>
        <time>2023-07-21T09:09:27.562+00:00</time>
      </trkpt>
      <trkpt lat="45.92619" lon="-1.00088">
        <ele>5</ele>
        <time>2023-07-21T09:09:31.988+00:00</time>
      </trkpt>
      <trkpt lat="45.92628" lon="-1.00104">
        <ele>6</ele>
        <time>2023-07-21T09:09:35.936+00:00</time>
      </trkpt>
      <trkpt lat="45.92638" lon="-1.00121">
        <ele>6</ele>
        <time>2023-07-21T09:09:40.602+00:00</time>
      </trkpt>
      <trkpt lat="45.92647" lon="-1.00138">
        <ele>8</ele>
        <time>2023-07-21T09:09:44.789+00:00</time>
      </trkpt>
      <trkpt lat="45.92656" lon="-1.00153">
        <ele>6</ele>
        <time>2023-07-21T09:09:48.824+00:00</time>
      </trkpt>
      <trkpt lat="45.92665" lon="-1.00172">
        <ele>6</ele>
        <time>2023-07-21T09:09:53.282+00:00</time>
      </trkpt>
      <trkpt lat="45.92672" lon="-1.00193">
        <ele>6</ele>
        <time>2023-07-21T09:09:57.828+00:00</time>
      </trkpt>
      <trkpt lat="45.92678" lon="-1.00214">
        <ele>6</ele>
        <time>2023-07-21T09:10:02.373+00:00</time>
      </trkpt>
      <trkpt lat="45.92683" lon="-1.00229">
        <ele>4</ele>
        <time>2023-07-21T09:10:06.439+00:00</time>
      </trkpt>
      <trkpt lat="45.92687" lon="-1.00245">
        <ele>5</ele>
        <time>2023-07-21T09:10:10.625+00:00</time>
      </trkpt>
      <trkpt lat="45.92692" lon="-1.00263">
        <ele>5</ele>
        <time>2023-07-21T09:10:14.793+00:00</time>
      </trkpt>
      <trkpt lat="45.92697" lon="-1.00279">
        <ele>8</ele>
        <time>2023-07-21T09:10:19.338+00:00</time>
      </trkpt>
      <trkpt lat="45.92709" lon="-1.00275">
        <ele>3</ele>
        <time>2023-07-21T09:10:23.284+00:00</time>
      </trkpt>
      <trkpt lat="45.92723" lon="-1.00281">
        <ele>3</ele>
        <time>2023-07-21T09:10:40.374+00:00</time>
      </trkpt>
      <trkpt lat="45.92711" lon="-1.00292">
        <ele>4</ele>
        <time>2023-07-21T09:10:45.042+00:00</time>
      </trkpt>
      <trkpt lat="45.92703" lon="-1.00305">
        <ele>8</ele>
        <time>2023-07-21T09:10:49.470+00:00</time>
      </trkpt>
      <trkpt lat="45.92705" lon="-1.00317">
        <ele>8</ele>
        <time>2023-07-21T09:10:52.943+00:00</time>
      </trkpt>
      <trkpt lat="45.92711" lon="-1.00351">
        <ele>1</ele>
        <time>2023-07-21T09:11:01.611+00:00</time>
      </trkpt>
      <trkpt lat="45.92718" lon="-1.00361">
        <ele>1</ele>
        <time>2023-07-21T09:11:05.619+00:00</time>
      </trkpt>
      <trkpt lat="45.92723" lon="-1.00376">
        <ele>1</ele>
        <time>2023-07-21T09:11:10.148+00:00</time>
      </trkpt>
      <trkpt lat="45.92732" lon="-1.00399">
        <ele>1</ele>
        <time>2023-07-21T09:11:14.154+00:00</time>
      </trkpt>
      <trkpt lat="45.92745" lon="-1.00418">
        <ele>1</ele>
        <time>2023-07-21T09:11:18.670+00:00</time>
      </trkpt>
      <trkpt lat="45.92754" lon="-1.0044">
        <ele>2</ele>
        <time>2023-07-21T09:11:22.788+00:00</time>
      </trkpt>
      <trkpt lat="45.92764" lon="-1.00462">
        <ele>3</ele>
        <time>2023-07-21T09:11:27.398+00:00</time>
      </trkpt>
      <trkpt lat="45.92776" lon="-1.00487">
        <ele>2</ele>
        <time>2023-07-21T09:11:31.783+00:00</time>
      </trkpt>
      <trkpt lat="45.92785" lon="-1.00503">
        <ele>2</ele>
        <time>2023-07-21T09:11:35.782+00:00</time>
      </trkpt>
      <trkpt lat="45.92799" lon="-1.00514">
        <ele>2</ele>
        <time>2023-07-21T09:11:40.387+00:00</time>
      </trkpt>
      <trkpt lat="45.92816" lon="-1.00514">
        <ele>2</ele>
        <time>2023-07-21T09:11:44.899+00:00</time>
      </trkpt>
      <trkpt lat="45.92833" lon="-1.00512">
        <ele>1</ele>
        <time>2023-07-21T09:11:49.411+00:00</time>
      </trkpt>
      <trkpt lat="45.92845" lon="-1.0052">
        <ele>2</ele>
        <time>2023-07-21T09:11:53.917+00:00</time>
      </trkpt>
      <trkpt lat="45.92852" lon="-1.00519">
        <ele>3</ele>
        <time>2023-07-21T09:11:57.922+00:00</time>
      </trkpt>
      <trkpt lat="45.92862" lon="-1.00527">
        <ele>3</ele>
        <time>2023-07-21T09:12:02.429+00:00</time>
      </trkpt>
      <trkpt lat="45.92868" lon="-1.00537">
        <ele>3</ele>
        <time>2023-07-21T09:12:06.436+00:00</time>
      </trkpt>
      <trkpt lat="45.92872" lon="-1.00552">
        <ele>3</ele>
        <time>2023-07-21T09:12:10.440+00:00</time>
      </trkpt>
      <trkpt lat="45.92872" lon="-1.00565">
        <ele>3</ele>
        <time>2023-07-21T09:12:14.454+00:00</time>
      </trkpt>
      <trkpt lat="45.92869" lon="-1.00584">
        <ele>4</ele>
        <time>2023-07-21T09:12:19.615+00:00</time>
      </trkpt>
      <trkpt lat="45.92867" lon="-1.006">
        <ele>3</ele>
        <time>2023-07-21T09:12:23.617+00:00</time>
      </trkpt>
      <trkpt lat="45.92865" lon="-1.00617">
        <ele>3</ele>
        <time>2023-07-21T09:12:28.120+00:00</time>
      </trkpt>
      <trkpt lat="45.92863" lon="-1.00635">
        <ele>3</ele>
        <time>2023-07-21T09:12:32.135+00:00</time>
      </trkpt>
      <trkpt lat="45.92855" lon="-1.00654">
        <ele>3</ele>
        <time>2023-07-21T09:12:36.649+00:00</time>
      </trkpt>
      <trkpt lat="45.92854" lon="-1.00674">
        <ele>3</ele>
        <time>2023-07-21T09:12:40.661+00:00</time>
      </trkpt>
      <trkpt lat="45.92854" lon="-1.00688">
        <ele>4</ele>
        <time>2023-07-21T09:12:45.691+00:00</time>
      </trkpt>
      <trkpt lat="45.9285" lon="-1.00697">
        <ele>4</ele>
        <time>2023-07-21T09:12:50.706+00:00</time>
      </trkpt>
      <trkpt lat="45.92844" lon="-1.00703">
        <ele>5</ele>
        <time>2023-07-21T09:12:55.719+00:00</time>
      </trkpt>
      <trkpt lat="45.92845" lon="-1.00704">
        <ele>5</ele>
        <time>2023-07-21T09:12:59.326+00:00</time>
      </trkpt>
      <trkpt lat="45.92845" lon="-1.00706">
        <ele>5</ele>
        <time>2023-07-21T09:13:04.337+00:00</time>
      </trkpt>
      <trkpt lat="45.92846" lon="-1.00715">
        <ele>5</ele>
        <time>2023-07-21T09:13:08.347+00:00</time>
      </trkpt>
      <trkpt lat="45.92859" lon="-1.00731">
        <ele>4</ele>
        <time>2023-07-21T09:13:13.360+00:00</time>
      </trkpt>
      <trkpt lat="45.92864" lon="-1.00747">
        <ele>5</ele>
        <time>2023-07-21T09:13:18.374+00:00</time>
      </trkpt>
      <trkpt lat="45.92863" lon="-1.00762">
        <ele>5</ele>
        <time>2023-07-21T09:13:23.486+00:00</time>
      </trkpt>
      <trkpt lat="45.92851" lon="-1.00775">
        <ele>6</ele>
        <time>2023-07-21T09:13:28.496+00:00</time>
      </trkpt>
      <trkpt lat="45.9284" lon="-1.00784">
        <ele>6</ele>
        <time>2023-07-21T09:13:32.504+00:00</time>
      </trkpt>
      <trkpt lat="45.92832" lon="-1.00789">
        <ele>6</ele>
        <time>2023-07-21T09:13:37.013+00:00</time>
      </trkpt>
      <trkpt lat="45.92829" lon="-1.00787">
        <ele>6</ele>
        <time>2023-07-21T09:13:41.522+00:00</time>
      </trkpt>
      <trkpt lat="45.92829" lon="-1.00787">
        <ele>6</ele>
        <time>2023-07-21T09:13:46.542+00:00</time>
      </trkpt>
      <trkpt lat="45.92832" lon="-1.00785">
        <ele>6</ele>
        <time>2023-07-21T09:14:36.782+00:00</time>
      </trkpt>
      <trkpt lat="45.9284" lon="-1.00792">
        <ele>6</ele>
        <time>2023-07-21T09:14:40.785+00:00</time>
      </trkpt>
      <trkpt lat="45.92849" lon="-1.00808">
        <ele>6</ele>
        <time>2023-07-21T09:14:45.307+00:00</time>
      </trkpt>
      <trkpt lat="45.92858" lon="-1.00823">
        <ele>5</ele>
        <time>2023-07-21T09:14:50.310+00:00</time>
      </trkpt>
      <trkpt lat="45.92866" lon="-1.00835">
        <ele>5</ele>
        <time>2023-07-21T09:14:54.312+00:00</time>
      </trkpt>
      <trkpt lat="45.92874" lon="-1.00848">
        <ele>5</ele>
        <time>2023-07-21T09:14:58.472+00:00</time>
      </trkpt>
      <trkpt lat="45.92885" lon="-1.00866">
        <ele>4</ele>
        <time>2023-07-21T09:15:03.372+00:00</time>
      </trkpt>
      <trkpt lat="45.92897" lon="-1.00882">
        <ele>3</ele>
        <time>2023-07-21T09:15:08.312+00:00</time>
      </trkpt>
      <trkpt lat="45.92915" lon="-1.00894">
        <ele>3</ele>
        <time>2023-07-21T09:15:13.797+00:00</time>
      </trkpt>
      <trkpt lat="45.92935" lon="-1.009">
        <ele>3</ele>
        <time>2023-07-21T09:15:18.790+00:00</time>
      </trkpt>
      <trkpt lat="45.92947" lon="-1.00908">
        <ele>3</ele>
        <time>2023-07-21T09:15:22.807+00:00</time>
      </trkpt>
      <trkpt lat="45.92962" lon="-1.00922">
        <ele>3</ele>
        <time>2023-07-21T09:15:26.796+00:00</time>
      </trkpt>
      <trkpt lat="45.92976" lon="-1.0094">
        <ele>3</ele>
        <time>2023-07-21T09:15:31.353+00:00</time>
      </trkpt>
      <trkpt lat="45.92989" lon="-1.00963">
        <ele>2</ele>
        <time>2023-07-21T09:15:36.741+00:00</time>
      </trkpt>
      <trkpt lat="45.93" lon="-1.00979">
        <ele>2</ele>
        <time>2023-07-21T09:15:40.794+00:00</time>
      </trkpt>
      <trkpt lat="45.93012" lon="-1.01">
        <ele>2</ele>
        <time>2023-07-21T09:15:45+00:00</time>
      </trkpt>
      <trkpt lat="45.93026" lon="-1.0102">
        <ele>2</ele>
        <time>2023-07-21T09:15:49.320+00:00</time>
      </trkpt>
      <trkpt lat="45.93037" lon="-1.01037">
        <ele>2</ele>
        <time>2023-07-21T09:15:53.803+00:00</time>
      </trkpt>
      <trkpt lat="45.93051" lon="-1.01057">
        <ele>2</ele>
        <time>2023-07-21T09:15:58.298+00:00</time>
      </trkpt>
      <trkpt lat="45.93064" lon="-1.01074">
        <ele>2</ele>
        <time>2023-07-21T09:16:02.698+00:00</time>
      </trkpt>
      <trkpt lat="45.93076" lon="-1.0109">
        <ele>3</ele>
        <time>2023-07-21T09:16:06.817+00:00</time>
      </trkpt>
      <trkpt lat="45.93088" lon="-1.01106">
        <ele>3</ele>
        <time>2023-07-21T09:16:10.970+00:00</time>
      </trkpt>
      <trkpt lat="45.93105" lon="-1.01124">
        <ele>3</ele>
        <time>2023-07-21T09:16:15.649+00:00</time>
      </trkpt>
      <trkpt lat="45.9312" lon="-1.01141">
        <ele>1</ele>
        <time>2023-07-21T09:16:20.317+00:00</time>
      </trkpt>
      <trkpt lat="45.93135" lon="-1.01156">
        <ele>2</ele>
        <time>2023-07-21T09:16:24.400+00:00</time>
      </trkpt>
      <trkpt lat="45.9315" lon="-1.01169">
        <ele>2</ele>
        <time>2023-07-21T09:16:28.577+00:00</time>
      </trkpt>
      <trkpt lat="45.93171" lon="-1.01186">
        <ele>3</ele>
        <time>2023-07-21T09:16:33.779+00:00</time>
      </trkpt>
      <trkpt lat="45.93189" lon="-1.01206">
        <ele>4</ele>
        <time>2023-07-21T09:16:38.816+00:00</time>
      </trkpt>
      <trkpt lat="45.93201" lon="-1.01226">
        <ele>4</ele>
        <time>2023-07-21T09:16:42.825+00:00</time>
      </trkpt>
      <trkpt lat="45.93214" lon="-1.01254">
        <ele>2</ele>
        <time>2023-07-21T09:16:47.800+00:00</time>
      </trkpt>
      <trkpt lat="45.93224" lon="-1.01274">
        <ele>1</ele>
        <time>2023-07-21T09:16:51.761+00:00</time>
      </trkpt>
      <trkpt lat="45.93234" lon="-1.01302">
        <ele>2</ele>
        <time>2023-07-21T09:16:56.434+00:00</time>
      </trkpt>
      <trkpt lat="45.93245" lon="-1.01327">
        <ele>2</ele>
        <time>2023-07-21T09:17:01.158+00:00</time>
      </trkpt>
      <trkpt lat="45.93257" lon="-1.01352">
        <ele>3</ele>
        <time>2023-07-21T09:17:05.831+00:00</time>
      </trkpt>
      <trkpt lat="45.93268" lon="-1.01373">
        <ele>2</ele>
        <time>2023-07-21T09:17:10.425+00:00</time>
      </trkpt>
      <trkpt lat="45.93278" lon="-1.0139">
        <ele>3</ele>
        <time>2023-07-21T09:17:14.379+00:00</time>
      </trkpt>
      <trkpt lat="45.93295" lon="-1.01406">
        <ele>2</ele>
        <time>2023-07-21T09:17:19.171+00:00</time>
      </trkpt>
      <trkpt lat="45.93308" lon="-1.01422">
        <ele>2</ele>
        <time>2023-07-21T09:17:23.288+00:00</time>
      </trkpt>
      <trkpt lat="45.93317" lon="-1.01432">
        <ele>3</ele>
        <time>2023-07-21T09:17:27.290+00:00</time>
      </trkpt>
      <trkpt lat="45.93334" lon="-1.01454">
        <ele>3</ele>
        <time>2023-07-21T09:17:32.775+00:00</time>
      </trkpt>
      <trkpt lat="45.93342" lon="-1.01469">
        <ele>3</ele>
        <time>2023-07-21T09:17:37.370+00:00</time>
      </trkpt>
      <trkpt lat="45.93362" lon="-1.01489">
        <ele>3</ele>
        <time>2023-07-21T09:17:41.473+00:00</time>
      </trkpt>
      <trkpt lat="45.93378" lon="-1.01505">
        <ele>2</ele>
        <time>2023-07-21T09:17:46+00:00</time>
      </trkpt>
      <trkpt lat="45.9339" lon="-1.01521">
        <ele>2</ele>
        <time>2023-07-21T09:17:50.009+00:00</time>
      </trkpt>
      <trkpt lat="45.93403" lon="-1.0154">
        <ele>1</ele>
        <time>2023-07-21T09:17:54.522+00:00</time>
      </trkpt>
      <trkpt lat="45.93414" lon="-1.01559">
        <ele>1</ele>
        <time>2023-07-21T09:17:58.532+00:00</time>
      </trkpt>
      <trkpt lat="45.93424" lon="-1.01581">
        <ele>1</ele>
        <time>2023-07-21T09:18:02.788+00:00</time>
      </trkpt>
      <trkpt lat="45.93433" lon="-1.01606">
        <ele>1</ele>
        <time>2023-07-21T09:18:07.291+00:00</time>
      </trkpt>
      <trkpt lat="45.93443" lon="-1.01637">
        <ele>1</ele>
        <time>2023-07-21T09:18:12.401+00:00</time>
      </trkpt>
      <trkpt lat="45.93449" lon="-1.0166">
        <ele>1</ele>
        <time>2023-07-21T09:18:16.300+00:00</time>
      </trkpt>
      <trkpt lat="45.93454" lon="-1.01686">
        <ele>2</ele>
        <time>2023-07-21T09:18:20.809+00:00</time>
      </trkpt>
      <trkpt lat="45.93457" lon="-1.01711">
        <ele>2</ele>
        <time>2023-07-21T09:18:25.318+00:00</time>
      </trkpt>
      <trkpt lat="45.93458" lon="-1.01735">
        <ele>2</ele>
        <time>2023-07-21T09:18:29.326+00:00</time>
      </trkpt>
      <trkpt lat="45.93459" lon="-1.01761">
        <ele>1</ele>
        <time>2023-07-21T09:18:33.834+00:00</time>
      </trkpt>
      <trkpt lat="45.93459" lon="-1.01788">
        <ele>3</ele>
        <time>2023-07-21T09:18:38.342+00:00</time>
      </trkpt>
      <trkpt lat="45.93463" lon="-1.01816">
        <ele>3</ele>
        <time>2023-07-21T09:18:42.782+00:00</time>
      </trkpt>
      <trkpt lat="45.93469" lon="-1.01839">
        <ele>2</ele>
        <time>2023-07-21T09:18:46.813+00:00</time>
      </trkpt>
      <trkpt lat="45.93478" lon="-1.01861">
        <ele>3</ele>
        <time>2023-07-21T09:18:50.919+00:00</time>
      </trkpt>
      <trkpt lat="45.93491" lon="-1.01883">
        <ele>4</ele>
        <time>2023-07-21T09:18:55.430+00:00</time>
      </trkpt>
      <trkpt lat="45.93503" lon="-1.01904">
        <ele>4</ele>
        <time>2023-07-21T09:18:59.938+00:00</time>
      </trkpt>
      <trkpt lat="45.93514" lon="-1.01924">
        <ele>4</ele>
        <time>2023-07-21T09:19:03.945+00:00</time>
      </trkpt>
      <trkpt lat="45.93526" lon="-1.01944">
        <ele>2</ele>
        <time>2023-07-21T09:19:08.454+00:00</time>
      </trkpt>
      <trkpt lat="45.93538" lon="-1.01969">
        <ele>2</ele>
        <time>2023-07-21T09:19:13.323+00:00</time>
      </trkpt>
      <trkpt lat="45.9355" lon="-1.01991">
        <ele>2</ele>
        <time>2023-07-21T09:19:17.831+00:00</time>
      </trkpt>
      <trkpt lat="45.93561" lon="-1.02011">
        <ele>2</ele>
        <time>2023-07-21T09:19:21.850+00:00</time>
      </trkpt>
      <trkpt lat="45.93572" lon="-1.0203">
        <ele>2</ele>
        <time>2023-07-21T09:19:25.856+00:00</time>
      </trkpt>
      <trkpt lat="45.93583" lon="-1.02051">
        <ele>2</ele>
        <time>2023-07-21T09:19:29.962+00:00</time>
      </trkpt>
      <trkpt lat="45.93594" lon="-1.02069">
        <ele>2</ele>
        <time>2023-07-21T09:19:33.968+00:00</time>
      </trkpt>
      <trkpt lat="45.93607" lon="-1.02093">
        <ele>2</ele>
        <time>2023-07-21T09:19:38.584+00:00</time>
      </trkpt>
      <trkpt lat="45.93621" lon="-1.02116">
        <ele>2</ele>
        <time>2023-07-21T09:19:43.190+00:00</time>
      </trkpt>
      <trkpt lat="45.93634" lon="-1.02134">
        <ele>2</ele>
        <time>2023-07-21T09:19:47.693+00:00</time>
      </trkpt>
      <trkpt lat="45.93645" lon="-1.02151">
        <ele>2</ele>
        <time>2023-07-21T09:19:51.593+00:00</time>
      </trkpt>
      <trkpt lat="45.93659" lon="-1.02174">
        <ele>1</ele>
        <time>2023-07-21T09:19:56.391+00:00</time>
      </trkpt>
      <trkpt lat="45.9367" lon="-1.02191">
        <ele>1</ele>
        <time>2023-07-21T09:20:00.889+00:00</time>
      </trkpt>
      <trkpt lat="45.93682" lon="-1.02208">
        <ele>1</ele>
        <time>2023-07-21T09:20:05.302+00:00</time>
      </trkpt>
      <trkpt lat="45.93698" lon="-1.02214">
        <ele>1</ele>
        <time>2023-07-21T09:20:09.366+00:00</time>
      </trkpt>
      <trkpt lat="45.93715" lon="-1.02202">
        <ele>2</ele>
        <time>2023-07-21T09:20:14.017+00:00</time>
      </trkpt>
      <trkpt lat="45.93729" lon="-1.02188">
        <ele>2</ele>
        <time>2023-07-21T09:20:18.119+00:00</time>
      </trkpt>
      <trkpt lat="45.93744" lon="-1.02177">
        <ele>2</ele>
        <time>2023-07-21T09:20:22.673+00:00</time>
      </trkpt>
      <trkpt lat="45.93758" lon="-1.02164">
        <ele>2</ele>
        <time>2023-07-21T09:20:26.730+00:00</time>
      </trkpt>
      <trkpt lat="45.93774" lon="-1.02153">
        <ele>1</ele>
        <time>2023-07-21T09:20:30.925+00:00</time>
      </trkpt>
      <trkpt lat="45.93791" lon="-1.02142">
        <ele>1</ele>
        <time>2023-07-21T09:20:35.562+00:00</time>
      </trkpt>
      <trkpt lat="45.93808" lon="-1.02127">
        <ele>-1</ele>
        <time>2023-07-21T09:20:40.199+00:00</time>
      </trkpt>
      <trkpt lat="45.93825" lon="-1.02113">
        <ele>1</ele>
        <time>2023-07-21T09:20:44.409+00:00</time>
      </trkpt>
      <trkpt lat="45.9384" lon="-1.02101">
        <ele>1</ele>
        <time>2023-07-21T09:20:48.604+00:00</time>
      </trkpt>
      <trkpt lat="45.93857" lon="-1.02089">
        <ele>2</ele>
        <time>2023-07-21T09:20:52.788+00:00</time>
      </trkpt>
      <trkpt lat="45.93871" lon="-1.02076">
        <ele>2</ele>
        <time>2023-07-21T09:20:56.886+00:00</time>
      </trkpt>
      <trkpt lat="45.93889" lon="-1.02064">
        <ele>1</ele>
        <time>2023-07-21T09:21:01.359+00:00</time>
      </trkpt>
      <trkpt lat="45.93902" lon="-1.02052">
        <ele>1</ele>
        <time>2023-07-21T09:21:05.315+00:00</time>
      </trkpt>
      <trkpt lat="45.93917" lon="-1.0204">
        <ele>1</ele>
        <time>2023-07-21T09:21:09.806+00:00</time>
      </trkpt>
      <trkpt lat="45.93931" lon="-1.02029">
        <ele>1</ele>
        <time>2023-07-21T09:21:13.817+00:00</time>
      </trkpt>
      <trkpt lat="45.9395" lon="-1.02024">
        <ele>1</ele>
        <time>2023-07-21T09:21:18.363+00:00</time>
      </trkpt>
      <trkpt lat="45.93967" lon="-1.02039">
        <ele>2</ele>
        <time>2023-07-21T09:21:23.036+00:00</time>
      </trkpt>
      <trkpt lat="45.93978" lon="-1.02063">
        <ele>2</ele>
        <time>2023-07-21T09:21:27.832+00:00</time>
      </trkpt>
      <trkpt lat="45.93986" lon="-1.02091">
        <ele>2</ele>
        <time>2023-07-21T09:21:32.608+00:00</time>
      </trkpt>
      <trkpt lat="45.93992" lon="-1.02114">
        <ele>3</ele>
        <time>2023-07-21T09:21:36.699+00:00</time>
      </trkpt>
      <trkpt lat="45.94002" lon="-1.02135">
        <ele>2</ele>
        <time>2023-07-21T09:21:40.652+00:00</time>
      </trkpt>
      <trkpt lat="45.94018" lon="-1.02148">
        <ele>4</ele>
        <time>2023-07-21T09:21:45.204+00:00</time>
      </trkpt>
      <trkpt lat="45.94035" lon="-1.02135">
        <ele>4</ele>
        <time>2023-07-21T09:21:49.397+00:00</time>
      </trkpt>
      <trkpt lat="45.94048" lon="-1.02123">
        <ele>3</ele>
        <time>2023-07-21T09:21:53.331+00:00</time>
      </trkpt>
      <trkpt lat="45.94062" lon="-1.02109">
        <ele>3</ele>
        <time>2023-07-21T09:21:57.826+00:00</time>
      </trkpt>
      <trkpt lat="45.94078" lon="-1.02091">
        <ele>2</ele>
        <time>2023-07-21T09:22:02.432+00:00</time>
      </trkpt>
      <trkpt lat="45.94093" lon="-1.02076">
        <ele>2</ele>
        <time>2023-07-21T09:22:07.085+00:00</time>
      </trkpt>
      <trkpt lat="45.94108" lon="-1.0206">
        <ele>2</ele>
        <time>2023-07-21T09:22:11.652+00:00</time>
      </trkpt>
      <trkpt lat="45.94122" lon="-1.02047">
        <ele>2</ele>
        <time>2023-07-21T09:22:15.604+00:00</time>
      </trkpt>
      <trkpt lat="45.94138" lon="-1.02032">
        <ele>2</ele>
        <time>2023-07-21T09:22:20.080+00:00</time>
      </trkpt>
      <trkpt lat="45.94153" lon="-1.02018">
        <ele>2</ele>
        <time>2023-07-21T09:22:24.826+00:00</time>
      </trkpt>
      <trkpt lat="45.94167" lon="-1.02006">
        <ele>2</ele>
        <time>2023-07-21T09:22:28.830+00:00</time>
      </trkpt>
      <trkpt lat="45.94183" lon="-1.0199">
        <ele>2</ele>
        <time>2023-07-21T09:22:33.390+00:00</time>
      </trkpt>
      <trkpt lat="45.942" lon="-1.0197">
        <ele>2</ele>
        <time>2023-07-21T09:22:38.401+00:00</time>
      </trkpt>
      <trkpt lat="45.94215" lon="-1.01957">
        <ele>2</ele>
        <time>2023-07-21T09:22:42.828+00:00</time>
      </trkpt>
      <trkpt lat="45.9423" lon="-1.01943">
        <ele>2</ele>
        <time>2023-07-21T09:22:47.023+00:00</time>
      </trkpt>
      <trkpt lat="45.94246" lon="-1.01928">
        <ele>1</ele>
        <time>2023-07-21T09:22:51.575+00:00</time>
      </trkpt>
      <trkpt lat="45.9426" lon="-1.01914">
        <ele>1</ele>
        <time>2023-07-21T09:22:55.646+00:00</time>
      </trkpt>
      <trkpt lat="45.94279" lon="-1.01895">
        <ele>3</ele>
        <time>2023-07-21T09:23:00.823+00:00</time>
      </trkpt>
      <trkpt lat="45.94294" lon="-1.01882">
        <ele>3</ele>
        <time>2023-07-21T09:23:05.006+00:00</time>
      </trkpt>
      <trkpt lat="45.94311" lon="-1.01863">
        <ele>1</ele>
        <time>2023-07-21T09:23:09.676+00:00</time>
      </trkpt>
      <trkpt lat="45.94326" lon="-1.01848">
        <ele>1</ele>
        <time>2023-07-21T09:23:13.821+00:00</time>
      </trkpt>
      <trkpt lat="45.94341" lon="-1.01833">
        <ele>1</ele>
        <time>2023-07-21T09:23:18.168+00:00</time>
      </trkpt>
      <trkpt lat="45.94356" lon="-1.01819">
        <ele>3</ele>
        <time>2023-07-21T09:23:22.359+00:00</time>
      </trkpt>
      <trkpt lat="45.94371" lon="-1.01803">
        <ele>3</ele>
        <time>2023-07-21T09:23:26.552+00:00</time>
      </trkpt>
      <trkpt lat="45.94385" lon="-1.01789">
        <ele>1</ele>
        <time>2023-07-21T09:23:30.806+00:00</time>
      </trkpt>
      <trkpt lat="45.94401" lon="-1.01776">
        <ele>1</ele>
        <time>2023-07-21T09:23:35.026+00:00</time>
      </trkpt>
      <trkpt lat="45.94415" lon="-1.0176">
        <ele>1</ele>
        <time>2023-07-21T09:23:39.221+00:00</time>
      </trkpt>
      <trkpt lat="45.94432" lon="-1.01742">
        <ele>1</ele>
        <time>2023-07-21T09:23:43.820+00:00</time>
      </trkpt>
      <trkpt lat="45.94447" lon="-1.01729">
        <ele>1</ele>
        <time>2023-07-21T09:23:48.003+00:00</time>
      </trkpt>
      <trkpt lat="45.94464" lon="-1.01711">
        <ele>1</ele>
        <time>2023-07-21T09:23:52.797+00:00</time>
      </trkpt>
      <trkpt lat="45.94478" lon="-1.01697">
        <ele>1</ele>
        <time>2023-07-21T09:23:56.803+00:00</time>
      </trkpt>
      <trkpt lat="45.94493" lon="-1.01682">
        <ele>1</ele>
        <time>2023-07-21T09:24:00.817+00:00</time>
      </trkpt>
      <trkpt lat="45.94512" lon="-1.01662">
        <ele>1</ele>
        <time>2023-07-21T09:24:05.812+00:00</time>
      </trkpt>
      <trkpt lat="45.94529" lon="-1.01646">
        <ele>3</ele>
        <time>2023-07-21T09:24:10.328+00:00</time>
      </trkpt>
      <trkpt lat="45.94545" lon="-1.01629">
        <ele>1</ele>
        <time>2023-07-21T09:24:14.782+00:00</time>
      </trkpt>
      <trkpt lat="45.94557" lon="-1.0161">
        <ele>1</ele>
        <time>2023-07-21T09:24:18.787+00:00</time>
      </trkpt>
      <trkpt lat="45.94567" lon="-1.01592">
        <ele>1</ele>
        <time>2023-07-21T09:24:22.382+00:00</time>
      </trkpt>
      <trkpt lat="45.94581" lon="-1.01569">
        <ele>1</ele>
        <time>2023-07-21T09:24:27.636+00:00</time>
      </trkpt>
      <trkpt lat="45.94591" lon="-1.0155">
        <ele>1</ele>
        <time>2023-07-21T09:24:31.590+00:00</time>
      </trkpt>
      <trkpt lat="45.94601" lon="-1.01527">
        <ele>3</ele>
        <time>2023-07-21T09:24:35.782+00:00</time>
      </trkpt>
      <trkpt lat="45.94615" lon="-1.01503">
        <ele>1</ele>
        <time>2023-07-21T09:24:40.825+00:00</time>
      </trkpt>
      <trkpt lat="45.94627" lon="-1.01478">
        <ele>2</ele>
        <time>2023-07-21T09:24:45.593+00:00</time>
      </trkpt>
      <trkpt lat="45.94637" lon="-1.01459">
        <ele>2</ele>
        <time>2023-07-21T09:24:49.545+00:00</time>
      </trkpt>
      <trkpt lat="45.94651" lon="-1.01432">
        <ele>2</ele>
        <time>2023-07-21T09:24:54.812+00:00</time>
      </trkpt>
      <trkpt lat="45.94663" lon="-1.01409">
        <ele>3</ele>
        <time>2023-07-21T09:24:59.386+00:00</time>
      </trkpt>
      <trkpt lat="45.94675" lon="-1.01387">
        <ele>2</ele>
        <time>2023-07-21T09:25:03.998+00:00</time>
      </trkpt>
      <trkpt lat="45.94689" lon="-1.01366">
        <ele>2</ele>
        <time>2023-07-21T09:25:08.311+00:00</time>
      </trkpt>
      <trkpt lat="45.94702" lon="-1.01344">
        <ele>2</ele>
        <time>2023-07-21T09:25:12.827+00:00</time>
      </trkpt>
      <trkpt lat="45.94715" lon="-1.01327">
        <ele>2</ele>
        <time>2023-07-21T09:25:17.014+00:00</time>
      </trkpt>
      <trkpt lat="45.94731" lon="-1.01312">
        <ele>2</ele>
        <time>2023-07-21T09:25:21.208+00:00</time>
      </trkpt>
      <trkpt lat="45.94745" lon="-1.01297">
        <ele>2</ele>
        <time>2023-07-21T09:25:25.401+00:00</time>
      </trkpt>
      <trkpt lat="45.94759" lon="-1.01281">
        <ele>2</ele>
        <time>2023-07-21T09:25:29.555+00:00</time>
      </trkpt>
      <trkpt lat="45.94774" lon="-1.01267">
        <ele>2</ele>
        <time>2023-07-21T09:25:34.069+00:00</time>
      </trkpt>
      <trkpt lat="45.9479" lon="-1.01249">
        <ele>1</ele>
        <time>2023-07-21T09:25:38.668+00:00</time>
      </trkpt>
      <trkpt lat="45.94804" lon="-1.01235">
        <ele>1</ele>
        <time>2023-07-21T09:25:42.607+00:00</time>
      </trkpt>
      <trkpt lat="45.94818" lon="-1.01221">
        <ele>1</ele>
        <time>2023-07-21T09:25:46.438+00:00</time>
      </trkpt>
      <trkpt lat="45.94836" lon="-1.01202">
        <ele>2</ele>
        <time>2023-07-21T09:25:51.397+00:00</time>
      </trkpt>
      <trkpt lat="45.94853" lon="-1.01188">
        <ele>2</ele>
        <time>2023-07-21T09:25:55.821+00:00</time>
      </trkpt>
      <trkpt lat="45.94869" lon="-1.01177">
        <ele>2</ele>
        <time>2023-07-21T09:25:59.696+00:00</time>
      </trkpt>
      <trkpt lat="45.94888" lon="-1.01164">
        <ele>1</ele>
        <time>2023-07-21T09:26:04.245+00:00</time>
      </trkpt>
      <trkpt lat="45.94903" lon="-1.01152">
        <ele>1</ele>
        <time>2023-07-21T09:26:08.823+00:00</time>
      </trkpt>
      <trkpt lat="45.9492" lon="-1.01139">
        <ele>1</ele>
        <time>2023-07-21T09:26:13.288+00:00</time>
      </trkpt>
      <trkpt lat="45.94936" lon="-1.0113">
        <ele>2</ele>
        <time>2023-07-21T09:26:17.319+00:00</time>
      </trkpt>
      <trkpt lat="45.94953" lon="-1.01117">
        <ele>2</ele>
        <time>2023-07-21T09:26:22.103+00:00</time>
      </trkpt>
      <trkpt lat="45.94968" lon="-1.01108">
        <ele>3</ele>
        <time>2023-07-21T09:26:26.103+00:00</time>
      </trkpt>
      <trkpt lat="45.94983" lon="-1.01096">
        <ele>2</ele>
        <time>2023-07-21T09:26:30.103+00:00</time>
      </trkpt>
      <trkpt lat="45.94999" lon="-1.01082">
        <ele>2</ele>
        <time>2023-07-21T09:26:34.629+00:00</time>
      </trkpt>
      <trkpt lat="45.95016" lon="-1.0107">
        <ele>2</ele>
        <time>2023-07-21T09:26:38.811+00:00</time>
      </trkpt>
      <trkpt lat="45.95033" lon="-1.01058">
        <ele>2</ele>
        <time>2023-07-21T09:26:42.982+00:00</time>
      </trkpt>
      <trkpt lat="45.95053" lon="-1.01041">
        <ele>2</ele>
        <time>2023-07-21T09:26:47.633+00:00</time>
      </trkpt>
      <trkpt lat="45.95069" lon="-1.01036">
        <ele>2</ele>
        <time>2023-07-21T09:26:51.624+00:00</time>
      </trkpt>
      <trkpt lat="45.95088" lon="-1.01028">
        <ele>2</ele>
        <time>2023-07-21T09:26:55.576+00:00</time>
      </trkpt>
      <trkpt lat="45.95104" lon="-1.01024">
        <ele>2</ele>
        <time>2023-07-21T09:26:59.527+00:00</time>
      </trkpt>
      <trkpt lat="45.95122" lon="-1.01024">
        <ele>2</ele>
        <time>2023-07-21T09:27:04.030+00:00</time>
      </trkpt>
      <trkpt lat="45.95142" lon="-1.01025">
        <ele>2</ele>
        <time>2023-07-21T09:27:08.750+00:00</time>
      </trkpt>
      <trkpt lat="45.95159" lon="-1.0103">
        <ele>1</ele>
        <time>2023-07-21T09:27:12.663+00:00</time>
      </trkpt>
      <trkpt lat="45.95178" lon="-1.01035">
        <ele>1</ele>
        <time>2023-07-21T09:27:17.154+00:00</time>
      </trkpt>
      <trkpt lat="45.952" lon="-1.0104">
        <ele>3</ele>
        <time>2023-07-21T09:27:21.808+00:00</time>
      </trkpt>
      <trkpt lat="45.95223" lon="-1.01047">
        <ele>1</ele>
        <time>2023-07-21T09:27:26.815+00:00</time>
      </trkpt>
      <trkpt lat="45.95242" lon="-1.01051">
        <ele>2</ele>
        <time>2023-07-21T09:27:30.807+00:00</time>
      </trkpt>
      <trkpt lat="45.95258" lon="-1.01056">
        <ele>2</ele>
        <time>2023-07-21T09:27:35.591+00:00</time>
      </trkpt>
      <trkpt lat="45.9528" lon="-1.01063">
        <ele>3</ele>
        <time>2023-07-21T09:27:39.725+00:00</time>
      </trkpt>
      <trkpt lat="45.95299" lon="-1.01067">
        <ele>2</ele>
        <time>2023-07-21T09:27:44.143+00:00</time>
      </trkpt>
      <trkpt lat="45.95318" lon="-1.01068">
        <ele>2</ele>
        <time>2023-07-21T09:27:48.560+00:00</time>
      </trkpt>
      <trkpt lat="45.95338" lon="-1.01075">
        <ele>2</ele>
        <time>2023-07-21T09:27:53.229+00:00</time>
      </trkpt>
      <trkpt lat="45.95356" lon="-1.01079">
        <ele>2</ele>
        <time>2023-07-21T09:27:57.779+00:00</time>
      </trkpt>
      <trkpt lat="45.95373" lon="-1.01083">
        <ele>2</ele>
        <time>2023-07-21T09:28:01.911+00:00</time>
      </trkpt>
      <trkpt lat="45.95389" lon="-1.01087">
        <ele>1</ele>
        <time>2023-07-21T09:28:05.919+00:00</time>
      </trkpt>
      <trkpt lat="45.95405" lon="-1.01092">
        <ele>3</ele>
        <time>2023-07-21T09:28:09.990+00:00</time>
      </trkpt>
      <trkpt lat="45.95419" lon="-1.01108">
        <ele>2</ele>
        <time>2023-07-21T09:28:14.754+00:00</time>
      </trkpt>
      <trkpt lat="45.95427" lon="-1.01129">
        <ele>2</ele>
        <time>2023-07-21T09:28:18.582+00:00</time>
      </trkpt>
      <trkpt lat="45.95439" lon="-1.01156">
        <ele>2</ele>
        <time>2023-07-21T09:28:23.371+00:00</time>
      </trkpt>
      <trkpt lat="45.95448" lon="-1.01176">
        <ele>2</ele>
        <time>2023-07-21T09:28:27.560+00:00</time>
      </trkpt>
      <trkpt lat="45.95456" lon="-1.01203">
        <ele>1</ele>
        <time>2023-07-21T09:28:32.006+00:00</time>
      </trkpt>
      <trkpt lat="45.95463" lon="-1.01227">
        <ele>3.3</ele>
        <time>2023-07-21T09:28:35.983+00:00</time>
      </trkpt>
      <trkpt lat="45.9547" lon="-1.01252">
        <ele>1</ele>
        <time>2023-07-21T09:28:40.666+00:00</time>
      </trkpt>
      <trkpt lat="45.95476" lon="-1.01279">
        <ele>2</ele>
        <time>2023-07-21T09:28:45.202+00:00</time>
      </trkpt>
      <trkpt lat="45.95483" lon="-1.01303">
        <ele>3</ele>
        <time>2023-07-21T09:28:49.788+00:00</time>
      </trkpt>
      <trkpt lat="45.9549" lon="-1.01328">
        <ele>4</ele>
        <time>2023-07-21T09:28:54.800+00:00</time>
      </trkpt>
      <trkpt lat="45.95496" lon="-1.01354">
        <ele>3</ele>
        <time>2023-07-21T09:28:59.759+00:00</time>
      </trkpt>
      <trkpt lat="45.95502" lon="-1.01378">
        <ele>3</ele>
        <time>2023-07-21T09:29:04.332+00:00</time>
      </trkpt>
      <trkpt lat="45.95508" lon="-1.01397">
        <ele>3</ele>
        <time>2023-07-21T09:29:08.409+00:00</time>
      </trkpt>
      <trkpt lat="45.95514" lon="-1.01417">
        <ele>3</ele>
        <time>2023-07-21T09:29:12.602+00:00</time>
      </trkpt>
      <trkpt lat="45.95522" lon="-1.01444">
        <ele>2</ele>
        <time>2023-07-21T09:29:17.353+00:00</time>
      </trkpt>
      <trkpt lat="45.95522" lon="-1.0147">
        <ele>2</ele>
        <time>2023-07-21T09:29:21.796+00:00</time>
      </trkpt>
      <trkpt lat="45.95525" lon="-1.01496">
        <ele>2</ele>
        <time>2023-07-21T09:29:25.776+00:00</time>
      </trkpt>
      <trkpt lat="45.95526" lon="-1.01522">
        <ele>2</ele>
        <time>2023-07-21T09:29:29.966+00:00</time>
      </trkpt>
      <trkpt lat="45.95527" lon="-1.01548">
        <ele>2</ele>
        <time>2023-07-21T09:29:33.917+00:00</time>
      </trkpt>
      <trkpt lat="45.95528" lon="-1.01574">
        <ele>3</ele>
        <time>2023-07-21T09:29:38.519+00:00</time>
      </trkpt>
      <trkpt lat="45.9553" lon="-1.01602">
        <ele>3</ele>
        <time>2023-07-21T09:29:43.065+00:00</time>
      </trkpt>
      <trkpt lat="45.9553" lon="-1.01628">
        <ele>3</ele>
        <time>2023-07-21T09:29:47.186+00:00</time>
      </trkpt>
      <trkpt lat="45.95531" lon="-1.01653">
        <ele>3</ele>
        <time>2023-07-21T09:29:51.258+00:00</time>
      </trkpt>
      <trkpt lat="45.95525" lon="-1.01676">
        <ele>3</ele>
        <time>2023-07-21T09:30:05.004+00:00</time>
      </trkpt>
      <trkpt lat="45.95524" lon="-1.01677">
        <ele>3</ele>
        <time>2023-07-21T09:30:09.203+00:00</time>
      </trkpt>
      <trkpt lat="45.95535" lon="-1.01678">
        <ele>3</ele>
        <time>2023-07-21T09:30:13.812+00:00</time>
      </trkpt>
      <trkpt lat="45.95543" lon="-1.01679">
        <ele>3</ele>
        <time>2023-07-21T09:30:18.810+00:00</time>
      </trkpt>
      <trkpt lat="45.95551" lon="-1.01681">
        <ele>2</ele>
        <time>2023-07-21T09:30:23.382+00:00</time>
      </trkpt>
      <trkpt lat="45.95559" lon="-1.01684">
        <ele>2</ele>
        <time>2023-07-21T09:30:27.574+00:00</time>
      </trkpt>
      <trkpt lat="45.95568" lon="-1.01688">
        <ele>2</ele>
        <time>2023-07-21T09:30:31.646+00:00</time>
      </trkpt>
      <trkpt lat="45.95578" lon="-1.01696">
        <ele>2</ele>
        <time>2023-07-21T09:30:35.596+00:00</time>
      </trkpt>
      <trkpt lat="45.95591" lon="-1.01712">
        <ele>2</ele>
        <time>2023-07-21T09:30:40.384+00:00</time>
      </trkpt>
      <trkpt lat="45.95603" lon="-1.01723">
        <ele>2</ele>
        <time>2023-07-21T09:30:44.806+00:00</time>
      </trkpt>
      <trkpt lat="45.95613" lon="-1.01742">
        <ele>2</ele>
        <time>2023-07-21T09:30:49.326+00:00</time>
      </trkpt>
      <trkpt lat="45.95624" lon="-1.0176">
        <ele>2</ele>
        <time>2023-07-21T09:30:53.980+00:00</time>
      </trkpt>
      <trkpt lat="45.95635" lon="-1.01783">
        <ele>1</ele>
        <time>2023-07-21T09:30:58.750+00:00</time>
      </trkpt>
      <trkpt lat="45.95643" lon="-1.018">
        <ele>1</ele>
        <time>2023-07-21T09:31:02.824+00:00</time>
      </trkpt>
      <trkpt lat="45.95655" lon="-1.01817">
        <ele>1</ele>
        <time>2023-07-21T09:31:06.975+00:00</time>
      </trkpt>
      <trkpt lat="45.95665" lon="-1.01836">
        <ele>1</ele>
        <time>2023-07-21T09:31:11.524+00:00</time>
      </trkpt>
      <trkpt lat="45.95677" lon="-1.01862">
        <ele>2</ele>
        <time>2023-07-21T09:31:16.793+00:00</time>
      </trkpt>
      <trkpt lat="45.95684" lon="-1.01884">
        <ele>1</ele>
        <time>2023-07-21T09:31:20.804+00:00</time>
      </trkpt>
      <trkpt lat="45.95689" lon="-1.01911">
        <ele>1</ele>
        <time>2023-07-21T09:31:25.414+00:00</time>
      </trkpt>
      <trkpt lat="45.95691" lon="-1.01936">
        <ele>2</ele>
        <time>2023-07-21T09:31:29.606+00:00</time>
      </trkpt>
      <trkpt lat="45.95694" lon="-1.01965">
        <ele>2</ele>
        <time>2023-07-21T09:31:34.396+00:00</time>
      </trkpt>
      <trkpt lat="45.95696" lon="-1.01988">
        <ele>2</ele>
        <time>2023-07-21T09:31:38.347+00:00</time>
      </trkpt>
      <trkpt lat="45.95697" lon="-1.02014">
        <ele>2</ele>
        <time>2023-07-21T09:31:43.017+00:00</time>
      </trkpt>
      <trkpt lat="45.95696" lon="-1.0204">
        <ele>2</ele>
        <time>2023-07-21T09:31:47.529+00:00</time>
      </trkpt>
      <trkpt lat="45.95695" lon="-1.02066">
        <ele>2</ele>
        <time>2023-07-21T09:31:51.442+00:00</time>
      </trkpt>
      <trkpt lat="45.95694" lon="-1.02095">
        <ele>2</ele>
        <time>2023-07-21T09:31:56.232+00:00</time>
      </trkpt>
      <trkpt lat="45.95692" lon="-1.02152">
        <ele>1</ele>
        <time>2023-07-21T09:32:05.383+00:00</time>
      </trkpt>
      <trkpt lat="45.95691" lon="-1.02174">
        <ele>1</ele>
        <time>2023-07-21T09:32:09.309+00:00</time>
      </trkpt>
      <trkpt lat="45.95689" lon="-1.02193">
        <ele>1</ele>
        <time>2023-07-21T09:32:13.315+00:00</time>
      </trkpt>
      <trkpt lat="45.95687" lon="-1.0222">
        <ele>2</ele>
        <time>2023-07-21T09:32:17.824+00:00</time>
      </trkpt>
      <trkpt lat="45.95685" lon="-1.02246">
        <ele>3</ele>
        <time>2023-07-21T09:32:21.831+00:00</time>
      </trkpt>
      <trkpt lat="45.9568" lon="-1.02272">
        <ele>3</ele>
        <time>2023-07-21T09:32:26.454+00:00</time>
      </trkpt>
      <trkpt lat="45.95674" lon="-1.02296">
        <ele>4</ele>
        <time>2023-07-21T09:32:30.461+00:00</time>
      </trkpt>
      <trkpt lat="45.95675" lon="-1.02323">
        <ele>3</ele>
        <time>2023-07-21T09:32:34.969+00:00</time>
      </trkpt>
      <trkpt lat="45.95684" lon="-1.0235">
        <ele>1</ele>
        <time>2023-07-21T09:32:39.475+00:00</time>
      </trkpt>
      <trkpt lat="45.95692" lon="-1.02373">
        <ele>1</ele>
        <time>2023-07-21T09:32:43.480+00:00</time>
      </trkpt>
      <trkpt lat="45.95701" lon="-1.024">
        <ele>-1</ele>
        <time>2023-07-21T09:32:48.486+00:00</time>
      </trkpt>
      <trkpt lat="45.95707" lon="-1.02424">
        <ele>-1</ele>
        <time>2023-07-21T09:32:52.491+00:00</time>
      </trkpt>
      <trkpt lat="45.95712" lon="-1.02447">
        <ele>3</ele>
        <time>2023-07-21T09:32:57.095+00:00</time>
      </trkpt>
      <trkpt lat="45.95717" lon="-1.02472">
        <ele>3</ele>
        <time>2023-07-21T09:33:01.218+00:00</time>
      </trkpt>
      <trkpt lat="45.95723" lon="-1.02495">
        <ele>1</ele>
        <time>2023-07-21T09:33:05.724+00:00</time>
      </trkpt>
      <trkpt lat="45.95728" lon="-1.02516">
        <ele>1</ele>
        <time>2023-07-21T09:33:09.729+00:00</time>
      </trkpt>
      <trkpt lat="45.95735" lon="-1.02539">
        <ele>1</ele>
        <time>2023-07-21T09:33:13.837+00:00</time>
      </trkpt>
      <trkpt lat="45.95743" lon="-1.02565">
        <ele>2</ele>
        <time>2023-07-21T09:33:18.344+00:00</time>
      </trkpt>
      <trkpt lat="45.95752" lon="-1.02597">
        <ele>2</ele>
        <time>2023-07-21T09:33:23.780+00:00</time>
      </trkpt>
      <trkpt lat="45.95762" lon="-1.02622">
        <ele>3</ele>
        <time>2023-07-21T09:33:28.343+00:00</time>
      </trkpt>
      <trkpt lat="45.95776" lon="-1.0264">
        <ele>3</ele>
        <time>2023-07-21T09:33:32.351+00:00</time>
      </trkpt>
      <trkpt lat="45.95789" lon="-1.02654">
        <ele>3</ele>
        <time>2023-07-21T09:33:36.858+00:00</time>
      </trkpt>
      <trkpt lat="45.95802" lon="-1.0267">
        <ele>3</ele>
        <time>2023-07-21T09:33:41.385+00:00</time>
      </trkpt>
      <trkpt lat="45.95814" lon="-1.02685">
        <ele>2</ele>
        <time>2023-07-21T09:33:45.473+00:00</time>
      </trkpt>
      <trkpt lat="45.95827" lon="-1.027">
        <ele>2</ele>
        <time>2023-07-21T09:33:49.575+00:00</time>
      </trkpt>
      <trkpt lat="45.95838" lon="-1.02714">
        <ele>2</ele>
        <time>2023-07-21T09:33:53.580+00:00</time>
      </trkpt>
      <trkpt lat="45.95846" lon="-1.02734">
        <ele>2</ele>
        <time>2023-07-21T09:33:58.589+00:00</time>
      </trkpt>
      <trkpt lat="45.95854" lon="-1.02745">
        <ele>4</ele>
        <time>2023-07-21T09:34:24.373+00:00</time>
      </trkpt>
      <trkpt lat="45.95855" lon="-1.02748">
        <ele>4</ele>
        <time>2023-07-21T09:34:29.387+00:00</time>
      </trkpt>
      <trkpt lat="45.95856" lon="-1.02748">
        <ele>4</ele>
        <time>2023-07-21T09:34:33.397+00:00</time>
      </trkpt>
      <trkpt lat="45.95861" lon="-1.02741">
        <ele>4</ele>
        <time>2023-07-21T09:34:38.408+00:00</time>
      </trkpt>
      <trkpt lat="45.95865" lon="-1.02738">
        <ele>4</ele>
        <time>2023-07-21T09:34:43.423+00:00</time>
      </trkpt>
      <trkpt lat="45.95858" lon="-1.02739">
        <ele>4</ele>
        <time>2023-07-21T09:36:54.611+00:00</time>
      </trkpt>
      <trkpt lat="45.95858" lon="-1.02739">
        <ele>4</ele>
        <time>2023-07-21T09:36:58.621+00:00</time>
      </trkpt>
      <trkpt lat="45.95848" lon="-1.02745">
        <ele>4</ele>
        <time>2023-07-21T09:37:02.730+00:00</time>
      </trkpt>
      <trkpt lat="45.95845" lon="-1.02753">
        <ele>3</ele>
        <time>2023-07-21T09:37:07.756+00:00</time>
      </trkpt>
      <trkpt lat="45.95848" lon="-1.02771">
        <ele>4</ele>
        <time>2023-07-21T09:37:12.766+00:00</time>
      </trkpt>
      <trkpt lat="45.95846" lon="-1.02795">
        <ele>4</ele>
        <time>2023-07-21T09:37:17.276+00:00</time>
      </trkpt>
      <trkpt lat="45.95842" lon="-1.02819">
        <ele>3</ele>
        <time>2023-07-21T09:37:21.386+00:00</time>
      </trkpt>
      <trkpt lat="45.95839" lon="-1.02844">
        <ele>3</ele>
        <time>2023-07-21T09:37:25.494+00:00</time>
      </trkpt>
      <trkpt lat="45.95835" lon="-1.02866">
        <ele>3</ele>
        <time>2023-07-21T09:37:29.521+00:00</time>
      </trkpt>
      <trkpt lat="45.9583" lon="-1.02893">
        <ele>3</ele>
        <time>2023-07-21T09:37:34.531+00:00</time>
      </trkpt>
      <trkpt lat="45.95824" lon="-1.0292">
        <ele>4</ele>
        <time>2023-07-21T09:37:39.646+00:00</time>
      </trkpt>
      <trkpt lat="45.95817" lon="-1.02942">
        <ele>6</ele>
        <time>2023-07-21T09:37:43.752+00:00</time>
      </trkpt>
      <trkpt lat="45.95809" lon="-1.02966">
        <ele>5</ele>
        <time>2023-07-21T09:37:48.363+00:00</time>
      </trkpt>
      <trkpt lat="45.95801" lon="-1.0298">
        <ele>5</ele>
        <time>2023-07-21T09:37:52.373+00:00</time>
      </trkpt>
      <trkpt lat="45.9579" lon="-1.02996">
        <ele>6</ele>
        <time>2023-07-21T09:37:56.883+00:00</time>
      </trkpt>
      <trkpt lat="45.95778" lon="-1.03008">
        <ele>6</ele>
        <time>2023-07-21T09:38:01.393+00:00</time>
      </trkpt>
      <trkpt lat="45.95766" lon="-1.03014">
        <ele>6</ele>
        <time>2023-07-21T09:38:05.404+00:00</time>
      </trkpt>
      <trkpt lat="45.95753" lon="-1.03022">
        <ele>6</ele>
        <time>2023-07-21T09:38:10.430+00:00</time>
      </trkpt>
      <trkpt lat="45.95743" lon="-1.03032">
        <ele>6</ele>
        <time>2023-07-21T09:38:14.522+00:00</time>
      </trkpt>
      <trkpt lat="45.95733" lon="-1.03046">
        <ele>6</ele>
        <time>2023-07-21T09:38:18.630+00:00</time>
      </trkpt>
      <trkpt lat="45.95719" lon="-1.03066">
        <ele>6</ele>
        <time>2023-07-21T09:38:23.239+00:00</time>
      </trkpt>
      <trkpt lat="45.95709" lon="-1.03085">
        <ele>5</ele>
        <time>2023-07-21T09:38:27.345+00:00</time>
      </trkpt>
      <trkpt lat="45.95701" lon="-1.03099">
        <ele>5</ele>
        <time>2023-07-21T09:38:31.351+00:00</time>
      </trkpt>
      <trkpt lat="45.95691" lon="-1.03114">
        <ele>5</ele>
        <time>2023-07-21T09:38:35.459+00:00</time>
      </trkpt>
      <trkpt lat="45.9568" lon="-1.03131">
        <ele>6</ele>
        <time>2023-07-21T09:38:40.470+00:00</time>
      </trkpt>
      <trkpt lat="45.95667" lon="-1.03148">
        <ele>6</ele>
        <time>2023-07-21T09:38:45.043+00:00</time>
      </trkpt>
      <trkpt lat="45.95652" lon="-1.03162">
        <ele>5</ele>
        <time>2023-07-21T09:38:49.090+00:00</time>
      </trkpt>
      <trkpt lat="45.95642" lon="-1.03182">
        <ele>4</ele>
        <time>2023-07-21T09:38:53.601+00:00</time>
      </trkpt>
      <trkpt lat="45.95642" lon="-1.032">
        <ele>4</ele>
        <time>2023-07-21T09:38:57.614+00:00</time>
      </trkpt>
      <trkpt lat="45.95641" lon="-1.03209">
        <ele>4</ele>
        <time>2023-07-21T09:39:45.914+00:00</time>
      </trkpt>
      <trkpt lat="45.95643" lon="-1.03224">
        <ele>4</ele>
        <time>2023-07-21T09:39:50.373+00:00</time>
      </trkpt>
      <trkpt lat="45.95645" lon="-1.03252">
        <ele>5</ele>
        <time>2023-07-21T09:39:55.552+00:00</time>
      </trkpt>
      <trkpt lat="45.95648" lon="-1.03273">
        <ele>5</ele>
        <time>2023-07-21T09:39:59.371+00:00</time>
      </trkpt>
      <trkpt lat="45.95645" lon="-1.03277">
        <ele>5</ele>
        <time>2023-07-21T09:40:04+00:00</time>
      </trkpt>
      <trkpt lat="45.95645" lon="-1.03277">
        <ele>5</ele>
        <time>2023-07-21T09:40:08.088+00:00</time>
      </trkpt>
      <trkpt lat="45.95645" lon="-1.03276">
        <ele>5</ele>
        <time>2023-07-21T09:40:12.764+00:00</time>
      </trkpt>
      <trkpt lat="45.95646" lon="-1.03291">
        <ele>5</ele>
        <time>2023-07-21T09:40:17.283+00:00</time>
      </trkpt>
      <trkpt lat="45.9564" lon="-1.03304">
        <ele>4</ele>
        <time>2023-07-21T09:40:21.360+00:00</time>
      </trkpt>
      <trkpt lat="45.95627" lon="-1.03322">
        <ele>3</ele>
        <time>2023-07-21T09:41:18.512+00:00</time>
      </trkpt>
      <trkpt lat="45.95622" lon="-1.03337">
        <ele>3</ele>
        <time>2023-07-21T09:41:22.516+00:00</time>
      </trkpt>
      <trkpt lat="45.95613" lon="-1.03344">
        <ele>3</ele>
        <time>2023-07-21T09:41:26.519+00:00</time>
      </trkpt>
      <trkpt lat="45.95607" lon="-1.03348">
        <ele>2</ele>
        <time>2023-07-21T09:41:30.524+00:00</time>
      </trkpt>
      <trkpt lat="45.95594" lon="-1.03356">
        <ele>3</ele>
        <time>2023-07-21T09:41:35.630+00:00</time>
      </trkpt>
      <trkpt lat="45.95581" lon="-1.03366">
        <ele>3</ele>
        <time>2023-07-21T09:41:40.132+00:00</time>
      </trkpt>
      <trkpt lat="45.9557" lon="-1.03375">
        <ele>3</ele>
        <time>2023-07-21T09:41:44.136+00:00</time>
      </trkpt>
      <trkpt lat="45.95558" lon="-1.03383">
        <ele>5</ele>
        <time>2023-07-21T09:41:48.744+00:00</time>
      </trkpt>
      <trkpt lat="45.9555" lon="-1.03389">
        <ele>5</ele>
        <time>2023-07-21T09:41:52.344+00:00</time>
      </trkpt>
      <trkpt lat="45.95536" lon="-1.034">
        <ele>4</ele>
        <time>2023-07-21T09:41:57.351+00:00</time>
      </trkpt>
      <trkpt lat="45.95522" lon="-1.0341">
        <ele>3</ele>
        <time>2023-07-21T09:42:01.856+00:00</time>
      </trkpt>
      <trkpt lat="45.95507" lon="-1.03419">
        <ele>3</ele>
        <time>2023-07-21T09:42:06.461+00:00</time>
      </trkpt>
      <trkpt lat="45.95493" lon="-1.03429">
        <ele>3</ele>
        <time>2023-07-21T09:42:11.065+00:00</time>
      </trkpt>
      <trkpt lat="45.95481" lon="-1.03445">
        <ele>3</ele>
        <time>2023-07-21T09:42:15.167+00:00</time>
      </trkpt>
      <trkpt lat="45.95472" lon="-1.03466">
        <ele>3</ele>
        <time>2023-07-21T09:42:19.668+00:00</time>
      </trkpt>
      <trkpt lat="45.95463" lon="-1.03492">
        <ele>3</ele>
        <time>2023-07-21T09:42:24.671+00:00</time>
      </trkpt>
      <trkpt lat="45.95455" lon="-1.03513">
        <ele>4</ele>
        <time>2023-07-21T09:42:28.693+00:00</time>
      </trkpt>
      <trkpt lat="45.95446" lon="-1.03533">
        <ele>4</ele>
        <time>2023-07-21T09:42:32.796+00:00</time>
      </trkpt>
      <trkpt lat="45.95436" lon="-1.03551">
        <ele>4</ele>
        <time>2023-07-21T09:42:36.900+00:00</time>
      </trkpt>
      <trkpt lat="45.95424" lon="-1.03568">
        <ele>4</ele>
        <time>2023-07-21T09:42:41.004+00:00</time>
      </trkpt>
      <trkpt lat="45.9541" lon="-1.03586">
        <ele>3</ele>
        <time>2023-07-21T09:42:45.609+00:00</time>
      </trkpt>
      <trkpt lat="45.95391" lon="-1.03592">
        <ele>3</ele>
        <time>2023-07-21T09:42:50.112+00:00</time>
      </trkpt>
      <trkpt lat="45.95374" lon="-1.03591">
        <ele>4</ele>
        <time>2023-07-21T09:42:54.615+00:00</time>
      </trkpt>
      <trkpt lat="45.95358" lon="-1.03594">
        <ele>4</ele>
        <time>2023-07-21T09:42:59.620+00:00</time>
      </trkpt>
      <trkpt lat="45.95358" lon="-1.03617">
        <ele>4</ele>
        <time>2023-07-21T09:43:03.623+00:00</time>
      </trkpt>
      <trkpt lat="45.95355" lon="-1.0364">
        <ele>3</ele>
        <time>2023-07-21T09:43:08.126+00:00</time>
      </trkpt>
      <trkpt lat="45.95351" lon="-1.03666">
        <ele>3</ele>
        <time>2023-07-21T09:43:12.632+00:00</time>
      </trkpt>
      <trkpt lat="45.95345" lon="-1.0369">
        <ele>3</ele>
        <time>2023-07-21T09:43:17.137+00:00</time>
      </trkpt>
      <trkpt lat="45.95333" lon="-1.0371">
        <ele>2</ele>
        <time>2023-07-21T09:43:21.642+00:00</time>
      </trkpt>
      <trkpt lat="45.95322" lon="-1.03727">
        <ele>2</ele>
        <time>2023-07-21T09:43:26.147+00:00</time>
      </trkpt>
      <trkpt lat="45.95314" lon="-1.03745">
        <ele>3</ele>
        <time>2023-07-21T09:43:30.651+00:00</time>
      </trkpt>
      <trkpt lat="45.95305" lon="-1.0376">
        <ele>3</ele>
        <time>2023-07-21T09:43:34.655+00:00</time>
      </trkpt>
      <trkpt lat="45.95295" lon="-1.03782">
        <ele>2</ele>
        <time>2023-07-21T09:43:39.660+00:00</time>
      </trkpt>
      <trkpt lat="45.95287" lon="-1.03806">
        <ele>2</ele>
        <time>2023-07-21T09:43:44.666+00:00</time>
      </trkpt>
      <trkpt lat="45.95285" lon="-1.03826">
        <ele>2</ele>
        <time>2023-07-21T09:43:48.669+00:00</time>
      </trkpt>
      <trkpt lat="45.95282" lon="-1.03848">
        <ele>1</ele>
        <time>2023-07-21T09:43:52.773+00:00</time>
      </trkpt>
      <trkpt lat="45.95279" lon="-1.03878">
        <ele>2</ele>
        <time>2023-07-21T09:44:01.482+00:00</time>
      </trkpt>
      <trkpt lat="45.95279" lon="-1.03873">
        <ele>1</ele>
        <time>2023-07-21T09:44:14.509+00:00</time>
      </trkpt>
      <trkpt lat="45.95277" lon="-1.03892">
        <ele>2</ele>
        <time>2023-07-21T09:44:19.524+00:00</time>
      </trkpt>
      <trkpt lat="45.95268" lon="-1.03909">
        <ele>2</ele>
        <time>2023-07-21T09:44:23.535+00:00</time>
      </trkpt>
      <trkpt lat="45.95267" lon="-1.03929">
        <ele>2</ele>
        <time>2023-07-21T09:44:27.546+00:00</time>
      </trkpt>
      <trkpt lat="45.95261" lon="-1.03952">
        <ele>2</ele>
        <time>2023-07-21T09:44:32.059+00:00</time>
      </trkpt>
      <trkpt lat="45.95257" lon="-1.03977">
        <ele>1</ele>
        <time>2023-07-21T09:44:36.586+00:00</time>
      </trkpt>
      <trkpt lat="45.95255" lon="-1.04">
        <ele>1</ele>
        <time>2023-07-21T09:44:40.597+00:00</time>
      </trkpt>
      <trkpt lat="45.95254" lon="-1.04017">
        <ele>1</ele>
        <time>2023-07-21T09:44:44.606+00:00</time>
      </trkpt>
      <trkpt lat="45.95252" lon="-1.04031">
        <ele>1</ele>
        <time>2023-07-21T09:44:49.619+00:00</time>
      </trkpt>
      <trkpt lat="45.95254" lon="-1.04037">
        <ele>1</ele>
        <time>2023-07-21T09:44:54.630+00:00</time>
      </trkpt>
      <trkpt lat="45.95253" lon="-1.04038">
        <ele>1</ele>
        <time>2023-07-21T09:44:58.639+00:00</time>
      </trkpt>
      <trkpt lat="45.95249" lon="-1.04056">
        <ele>1</ele>
        <time>2023-07-21T09:45:03.650+00:00</time>
      </trkpt>
      <trkpt lat="45.95242" lon="-1.0407">
        <ele>2</ele>
        <time>2023-07-21T09:45:07.759+00:00</time>
      </trkpt>
      <trkpt lat="45.95229" lon="-1.04078">
        <ele>2</ele>
        <time>2023-07-21T09:45:12.266+00:00</time>
      </trkpt>
      <trkpt lat="45.95215" lon="-1.04082">
        <ele>2</ele>
        <time>2023-07-21T09:45:16.876+00:00</time>
      </trkpt>
      <trkpt lat="45.95203" lon="-1.04087">
        <ele>2</ele>
        <time>2023-07-21T09:45:20.984+00:00</time>
      </trkpt>
      <trkpt lat="45.95188" lon="-1.04093">
        <ele>2</ele>
        <time>2023-07-21T09:45:24.991+00:00</time>
      </trkpt>
      <trkpt lat="45.95172" lon="-1.04097">
        <ele>2</ele>
        <time>2023-07-21T09:45:29.500+00:00</time>
      </trkpt>
      <trkpt lat="45.9516" lon="-1.04101">
        <ele>3</ele>
        <time>2023-07-21T09:45:33.505+00:00</time>
      </trkpt>
      <trkpt lat="45.95144" lon="-1.04107">
        <ele>2</ele>
        <time>2023-07-21T09:45:38.112+00:00</time>
      </trkpt>
      <trkpt lat="45.95129" lon="-1.04112">
        <ele>2</ele>
        <time>2023-07-21T09:45:42.618+00:00</time>
      </trkpt>
      <trkpt lat="45.95115" lon="-1.04116">
        <ele>2</ele>
        <time>2023-07-21T09:45:46.623+00:00</time>
      </trkpt>
      <trkpt lat="45.95098" lon="-1.04121">
        <ele>2</ele>
        <time>2023-07-21T09:45:51.129+00:00</time>
      </trkpt>
      <trkpt lat="45.95083" lon="-1.04129">
        <ele>1</ele>
        <time>2023-07-21T09:45:55.636+00:00</time>
      </trkpt>
      <trkpt lat="45.95062" lon="-1.04135">
        <ele>2</ele>
        <time>2023-07-21T09:46:00.144+00:00</time>
      </trkpt>
      <trkpt lat="45.95046" lon="-1.04141">
        <ele>2</ele>
        <time>2023-07-21T09:46:04.150+00:00</time>
      </trkpt>
      <trkpt lat="45.95027" lon="-1.04145">
        <ele>2</ele>
        <time>2023-07-21T09:46:08.759+00:00</time>
      </trkpt>
      <trkpt lat="45.95008" lon="-1.04153">
        <ele>2</ele>
        <time>2023-07-21T09:46:13.290+00:00</time>
      </trkpt>
      <trkpt lat="45.94993" lon="-1.04159">
        <ele>2</ele>
        <time>2023-07-21T09:46:17.297+00:00</time>
      </trkpt>
      <trkpt lat="45.94977" lon="-1.04171">
        <ele>2</ele>
        <time>2023-07-21T09:46:21.907+00:00</time>
      </trkpt>
      <trkpt lat="45.94967" lon="-1.04194">
        <ele>2</ele>
        <time>2023-07-21T09:46:26.431+00:00</time>
      </trkpt>
      <trkpt lat="45.94962" lon="-1.04219">
        <ele>2</ele>
        <time>2023-07-21T09:46:30.955+00:00</time>
      </trkpt>
      <trkpt lat="45.94945" lon="-1.04235">
        <ele>2</ele>
        <time>2023-07-21T09:46:35.463+00:00</time>
      </trkpt>
      <trkpt lat="45.94927" lon="-1.04247">
        <ele>3</ele>
        <time>2023-07-21T09:46:39.804+00:00</time>
      </trkpt>
      <trkpt lat="45.94911" lon="-1.04256">
        <ele>3</ele>
        <time>2023-07-21T09:46:43.339+00:00</time>
      </trkpt>
      <trkpt lat="45.94893" lon="-1.04268">
        <ele>3</ele>
        <time>2023-07-21T09:46:47.960+00:00</time>
      </trkpt>
      <trkpt lat="45.94874" lon="-1.04278">
        <ele>2</ele>
        <time>2023-07-21T09:46:52.300+00:00</time>
      </trkpt>
      <trkpt lat="45.94858" lon="-1.04288">
        <ele>2</ele>
        <time>2023-07-21T09:46:56.299+00:00</time>
      </trkpt>
      <trkpt lat="45.94839" lon="-1.043">
        <ele>3</ele>
        <time>2023-07-21T09:47:00.793+00:00</time>
      </trkpt>
      <trkpt lat="45.94823" lon="-1.04312">
        <ele>3</ele>
        <time>2023-07-21T09:47:05.385+00:00</time>
      </trkpt>
      <trkpt lat="45.94805" lon="-1.04321">
        <ele>3</ele>
        <time>2023-07-21T09:47:09.316+00:00</time>
      </trkpt>
      <trkpt lat="45.94789" lon="-1.04331">
        <ele>1</ele>
        <time>2023-07-21T09:47:13.387+00:00</time>
      </trkpt>
      <trkpt lat="45.94771" lon="-1.0434">
        <ele>1</ele>
        <time>2023-07-21T09:47:17.726+00:00</time>
      </trkpt>
      <trkpt lat="45.94751" lon="-1.04351">
        <ele>2</ele>
        <time>2023-07-21T09:47:22.402+00:00</time>
      </trkpt>
      <trkpt lat="45.94735" lon="-1.04361">
        <ele>2</ele>
        <time>2023-07-21T09:47:26.481+00:00</time>
      </trkpt>
      <trkpt lat="45.94721" lon="-1.04372">
        <ele>2</ele>
        <time>2023-07-21T09:47:30.439+00:00</time>
      </trkpt>
      <trkpt lat="45.94708" lon="-1.04388">
        <ele>2</ele>
        <time>2023-07-21T09:47:34.937+00:00</time>
      </trkpt>
      <trkpt lat="45.94693" lon="-1.04406">
        <ele>2</ele>
        <time>2023-07-21T09:47:39.495+00:00</time>
      </trkpt>
      <trkpt lat="45.94681" lon="-1.04422">
        <ele>1</ele>
        <time>2023-07-21T09:47:43.353+00:00</time>
      </trkpt>
      <trkpt lat="45.94665" lon="-1.04437">
        <ele>1</ele>
        <time>2023-07-21T09:47:47.971+00:00</time>
      </trkpt>
      <trkpt lat="45.94652" lon="-1.04452">
        <ele>-1</ele>
        <time>2023-07-21T09:47:52.448+00:00</time>
      </trkpt>
      <trkpt lat="45.94636" lon="-1.04467">
        <ele>-1</ele>
        <time>2023-07-21T09:47:57.106+00:00</time>
      </trkpt>
      <trkpt lat="45.94622" lon="-1.0448">
        <ele>-1</ele>
        <time>2023-07-21T09:48:01.181+00:00</time>
      </trkpt>
      <trkpt lat="45.94599" lon="-1.04509">
        <ele>3</ele>
        <time>2023-07-21T09:48:19.405+00:00</time>
      </trkpt>
      <trkpt lat="45.94593" lon="-1.04514">
        <ele>3</ele>
        <time>2023-07-21T09:48:23.432+00:00</time>
      </trkpt>
      <trkpt lat="45.94582" lon="-1.04521">
        <ele>3</ele>
        <time>2023-07-21T09:48:27.370+00:00</time>
      </trkpt>
      <trkpt lat="45.94575" lon="-1.04534">
        <ele>3</ele>
        <time>2023-07-21T09:48:31.537+00:00</time>
      </trkpt>
      <trkpt lat="45.94566" lon="-1.04547">
        <ele>2</ele>
        <time>2023-07-21T09:48:35.705+00:00</time>
      </trkpt>
      <trkpt lat="45.94554" lon="-1.04554">
        <ele>2</ele>
        <time>2023-07-21T09:48:40.381+00:00</time>
      </trkpt>
      <trkpt lat="45.94545" lon="-1.04563">
        <ele>2</ele>
        <time>2023-07-21T09:48:44.578+00:00</time>
      </trkpt>
      <trkpt lat="45.94533" lon="-1.04568">
        <ele>1</ele>
        <time>2023-07-21T09:48:49.650+00:00</time>
      </trkpt>
      <trkpt lat="45.94532" lon="-1.04567">
        <ele>1</ele>
        <time>2023-07-21T09:48:53.661+00:00</time>
      </trkpt>
      <trkpt lat="45.94534" lon="-1.04568">
        <ele>1</ele>
        <time>2023-07-21T09:48:58.671+00:00</time>
      </trkpt>
      <trkpt lat="45.94533" lon="-1.04568">
        <ele>1</ele>
        <time>2023-07-21T09:49:03.183+00:00</time>
      </trkpt>
      <trkpt lat="45.94532" lon="-1.04567">
        <ele>1</ele>
        <time>2023-07-21T09:49:07.690+00:00</time>
      </trkpt>
      <trkpt lat="45.94527" lon="-1.04572">
        <ele>2</ele>
        <time>2023-07-21T09:49:12.570+00:00</time>
      </trkpt>
      <trkpt lat="45.94519" lon="-1.04573">
        <ele>2</ele>
        <time>2023-07-21T09:49:17.343+00:00</time>
      </trkpt>
      <trkpt lat="45.94513" lon="-1.0458">
        <ele>2</ele>
        <time>2023-07-21T09:49:21.751+00:00</time>
      </trkpt>
      <trkpt lat="45.94509" lon="-1.0458">
        <ele>2</ele>
        <time>2023-07-21T09:49:24.532+00:00</time>
      </trkpt>
      <trkpt lat="45.94502" lon="-1.04582">
        <ele>2</ele>
        <time>2023-07-21T09:49:30.047+00:00</time>
      </trkpt>
      <trkpt lat="45.94502" lon="-1.04583">
        <ele>2</ele>
        <time>2023-07-21T09:49:34.559+00:00</time>
      </trkpt>
      <trkpt lat="45.94503" lon="-1.04584">
        <ele>2</ele>
        <time>2023-07-21T09:49:43.583+00:00</time>
      </trkpt>
      <trkpt lat="45.94502" lon="-1.04583">
        <ele>2</ele>
        <time>2023-07-21T09:49:48.596+00:00</time>
      </trkpt>
      <trkpt lat="45.94502" lon="-1.04582">
        <ele>2</ele>
        <time>2023-07-21T09:49:53.778+00:00</time>
      </trkpt>
      <trkpt lat="45.945" lon="-1.04583">
        <ele>2</ele>
        <time>2023-07-21T09:49:58.768+00:00</time>
      </trkpt>
      <trkpt lat="45.94492" lon="-1.04589">
        <ele>2</ele>
        <time>2023-07-21T09:50:02.782+00:00</time>
      </trkpt>
      <trkpt lat="45.9448" lon="-1.04593">
        <ele>3</ele>
        <time>2023-07-21T09:50:07.653+00:00</time>
      </trkpt>
      <trkpt lat="45.94468" lon="-1.04592">
        <ele>3</ele>
        <time>2023-07-21T09:50:11.668+00:00</time>
      </trkpt>
      <trkpt lat="45.9446" lon="-1.04593">
        <ele>3</ele>
        <time>2023-07-21T09:50:16.683+00:00</time>
      </trkpt>
      <trkpt lat="45.94458" lon="-1.04597">
        <ele>3</ele>
        <time>2023-07-21T09:50:20.693+00:00</time>
      </trkpt>
      <trkpt lat="45.94451" lon="-1.04612">
        <ele>3</ele>
        <time>2023-07-21T09:51:48.785+00:00</time>
      </trkpt>
      <trkpt lat="45.94449" lon="-1.04614">
        <ele>3</ele>
        <time>2023-07-21T09:51:53.275+00:00</time>
      </trkpt>
      <trkpt lat="45.94441" lon="-1.04619">
        <ele>3</ele>
        <time>2023-07-21T09:51:57.784+00:00</time>
      </trkpt>
      <trkpt lat="45.94428" lon="-1.04629">
        <ele>3</ele>
        <time>2023-07-21T09:52:02.293+00:00</time>
      </trkpt>
      <trkpt lat="45.94414" lon="-1.04642">
        <ele>3</ele>
        <time>2023-07-21T09:52:06.807+00:00</time>
      </trkpt>
      <trkpt lat="45.94403" lon="-1.04655">
        <ele>3</ele>
        <time>2023-07-21T09:52:10.408+00:00</time>
      </trkpt>
      <trkpt lat="45.94389" lon="-1.0467">
        <ele>2</ele>
        <time>2023-07-21T09:52:14.933+00:00</time>
      </trkpt>
      <trkpt lat="45.94375" lon="-1.04687">
        <ele>1</ele>
        <time>2023-07-21T09:52:19.436+00:00</time>
      </trkpt>
      <trkpt lat="45.9436" lon="-1.04705">
        <ele>1</ele>
        <time>2023-07-21T09:52:24.217+00:00</time>
      </trkpt>
      <trkpt lat="45.94348" lon="-1.0472">
        <ele>1</ele>
        <time>2023-07-21T09:52:28.299+00:00</time>
      </trkpt>
      <trkpt lat="45.94335" lon="-1.04735">
        <ele>1</ele>
        <time>2023-07-21T09:52:32.804+00:00</time>
      </trkpt>
      <trkpt lat="45.94323" lon="-1.0475">
        <ele>2</ele>
        <time>2023-07-21T09:52:36.985+00:00</time>
      </trkpt>
      <trkpt lat="45.94309" lon="-1.04768">
        <ele>3</ele>
        <time>2023-07-21T09:52:41.686+00:00</time>
      </trkpt>
      <trkpt lat="45.94297" lon="-1.04785">
        <ele>3</ele>
        <time>2023-07-21T09:52:45.867+00:00</time>
      </trkpt>
      <trkpt lat="45.94283" lon="-1.04804">
        <ele>3</ele>
        <time>2023-07-21T09:52:50.287+00:00</time>
      </trkpt>
      <trkpt lat="45.9427" lon="-1.04819">
        <ele>3</ele>
        <time>2023-07-21T09:52:54.746+00:00</time>
      </trkpt>
      <trkpt lat="45.94255" lon="-1.04838">
        <ele>2</ele>
        <time>2023-07-21T09:52:59.366+00:00</time>
      </trkpt>
      <trkpt lat="45.94241" lon="-1.04855">
        <ele>2</ele>
        <time>2023-07-21T09:53:03.581+00:00</time>
      </trkpt>
      <trkpt lat="45.94227" lon="-1.04874">
        <ele>1</ele>
        <time>2023-07-21T09:53:07.802+00:00</time>
      </trkpt>
      <trkpt lat="45.94214" lon="-1.04889">
        <ele>3</ele>
        <time>2023-07-21T09:53:11.728+00:00</time>
      </trkpt>
      <trkpt lat="45.942" lon="-1.0491">
        <ele>3</ele>
        <time>2023-07-21T09:53:16.309+00:00</time>
      </trkpt>
      <trkpt lat="45.94186" lon="-1.04928">
        <ele>3</ele>
        <time>2023-07-21T09:53:20.891+00:00</time>
      </trkpt>
      <trkpt lat="45.94172" lon="-1.04946">
        <ele>1</ele>
        <time>2023-07-21T09:53:25.132+00:00</time>
      </trkpt>
      <trkpt lat="45.94157" lon="-1.04967">
        <ele>1</ele>
        <time>2023-07-21T09:53:29.838+00:00</time>
      </trkpt>
      <trkpt lat="45.94147" lon="-1.04987">
        <ele>1</ele>
        <time>2023-07-21T09:53:34.164+00:00</time>
      </trkpt>
      <trkpt lat="45.94136" lon="-1.05011">
        <ele>1</ele>
        <time>2023-07-21T09:53:38.350+00:00</time>
      </trkpt>
      <trkpt lat="45.9413" lon="-1.05031">
        <ele>2</ele>
        <time>2023-07-21T09:53:42.387+00:00</time>
      </trkpt>
      <trkpt lat="45.94123" lon="-1.05058">
        <ele>3</ele>
        <time>2023-07-21T09:53:47.344+00:00</time>
      </trkpt>
      <trkpt lat="45.94113" lon="-1.0508">
        <ele>3</ele>
        <time>2023-07-21T09:53:51.379+00:00</time>
      </trkpt>
      <trkpt lat="45.94101" lon="-1.05099">
        <ele>3</ele>
        <time>2023-07-21T09:53:55.997+00:00</time>
      </trkpt>
      <trkpt lat="45.94087" lon="-1.05113">
        <ele>2</ele>
        <time>2023-07-21T09:54:00.116+00:00</time>
      </trkpt>
      <trkpt lat="45.94071" lon="-1.05125">
        <ele>2</ele>
        <time>2023-07-21T09:54:04.133+00:00</time>
      </trkpt>
      <trkpt lat="45.9405" lon="-1.05129">
        <ele>2</ele>
        <time>2023-07-21T09:54:08.803+00:00</time>
      </trkpt>
      <trkpt lat="45.94036" lon="-1.05131">
        <ele>2</ele>
        <time>2023-07-21T09:54:12.380+00:00</time>
      </trkpt>
      <trkpt lat="45.94018" lon="-1.05134">
        <ele>2</ele>
        <time>2023-07-21T09:54:17.173+00:00</time>
      </trkpt>
      <trkpt lat="45.94003" lon="-1.05138">
        <ele>2</ele>
        <time>2023-07-21T09:54:21.606+00:00</time>
      </trkpt>
      <trkpt lat="45.93984" lon="-1.05148">
        <ele>1</ele>
        <time>2023-07-21T09:54:26.783+00:00</time>
      </trkpt>
      <trkpt lat="45.93965" lon="-1.05157">
        <ele>2</ele>
        <time>2023-07-21T09:54:31.550+00:00</time>
      </trkpt>
      <trkpt lat="45.93947" lon="-1.05166">
        <ele>2</ele>
        <time>2023-07-21T09:54:36.053+00:00</time>
      </trkpt>
      <trkpt lat="45.93931" lon="-1.05177">
        <ele>2</ele>
        <time>2023-07-21T09:54:40.803+00:00</time>
      </trkpt>
      <trkpt lat="45.93915" lon="-1.05187">
        <ele>4</ele>
        <time>2023-07-21T09:54:45.348+00:00</time>
      </trkpt>
      <trkpt lat="45.93897" lon="-1.05193">
        <ele>5</ele>
        <time>2023-07-21T09:54:49.809+00:00</time>
      </trkpt>
      <trkpt lat="45.93881" lon="-1.05197">
        <ele>5</ele>
        <time>2023-07-21T09:54:53.976+00:00</time>
      </trkpt>
      <trkpt lat="45.93866" lon="-1.05201">
        <ele>6</ele>
        <time>2023-07-21T09:54:57.931+00:00</time>
      </trkpt>
      <trkpt lat="45.9385" lon="-1.05204">
        <ele>6</ele>
        <time>2023-07-21T09:55:02.365+00:00</time>
      </trkpt>
      <trkpt lat="45.93834" lon="-1.052">
        <ele>7</ele>
        <time>2023-07-21T09:55:16.356+00:00</time>
      </trkpt>
      <trkpt lat="45.93834" lon="-1.052">
        <ele>7</ele>
        <time>2023-07-21T09:55:21.587+00:00</time>
      </trkpt>
      <trkpt lat="45.9383" lon="-1.052">
        <ele>7</ele>
        <time>2023-07-21T09:55:26.201+00:00</time>
      </trkpt>
      <trkpt lat="45.93819" lon="-1.05195">
        <ele>8</ele>
        <time>2023-07-21T09:55:30.810+00:00</time>
      </trkpt>
      <trkpt lat="45.93809" lon="-1.0519">
        <ele>8</ele>
        <time>2023-07-21T09:55:34.967+00:00</time>
      </trkpt>
      <trkpt lat="45.93796" lon="-1.05185">
        <ele>8</ele>
        <time>2023-07-21T09:55:39.435+00:00</time>
      </trkpt>
      <trkpt lat="45.93781" lon="-1.05187">
        <ele>9</ele>
        <time>2023-07-21T09:55:44.661+00:00</time>
      </trkpt>
      <trkpt lat="45.93768" lon="-1.05192">
        <ele>9</ele>
        <time>2023-07-21T09:55:48.579+00:00</time>
      </trkpt>
      <trkpt lat="45.93753" lon="-1.05199">
        <ele>11</ele>
        <time>2023-07-21T09:55:52.771+00:00</time>
      </trkpt>
      <trkpt lat="45.9374" lon="-1.05208">
        <ele>11</ele>
        <time>2023-07-21T09:55:56.963+00:00</time>
      </trkpt>
      <trkpt lat="45.93728" lon="-1.05216">
        <ele>13</ele>
        <time>2023-07-21T09:56:01.575+00:00</time>
      </trkpt>
      <trkpt lat="45.93718" lon="-1.05224">
        <ele>13</ele>
        <time>2023-07-21T09:56:06.249+00:00</time>
      </trkpt>
      <trkpt lat="45.93709" lon="-1.05211">
        <ele>13</ele>
        <time>2023-07-21T09:56:10.804+00:00</time>
      </trkpt>
      <trkpt lat="45.93695" lon="-1.052">
        <ele>14</ele>
        <time>2023-07-21T09:56:14.979+00:00</time>
      </trkpt>
      <trkpt lat="45.93695" lon="-1.0519">
        <ele>14</ele>
        <time>2023-07-21T09:56:19.771+00:00</time>
      </trkpt>
      <trkpt lat="45.93695" lon="-1.05186">
        <ele>14</ele>
        <time>2023-07-21T09:56:24.562+00:00</time>
      </trkpt>
      <trkpt lat="45.93695" lon="-1.05186">
        <ele>14</ele>
        <time>2023-07-21T09:56:28.587+00:00</time>
      </trkpt>
      <trkpt lat="45.93695" lon="-1.05186">
        <ele>14</ele>
        <time>2023-07-21T09:56:46.740+00:00</time>
      </trkpt>
      <trkpt lat="45.93681" lon="-1.05193">
        <ele>14</ele>
        <time>2023-07-21T09:56:50.961+00:00</time>
      </trkpt>
      <trkpt lat="45.93673" lon="-1.05192">
        <ele>15</ele>
        <time>2023-07-21T09:56:55.241+00:00</time>
      </trkpt>
      <trkpt lat="45.93665" lon="-1.0518">
        <ele>15</ele>
        <time>2023-07-21T09:56:59.561+00:00</time>
      </trkpt>
      <trkpt lat="45.93656" lon="-1.05168">
        <ele>15</ele>
        <time>2023-07-21T09:57:04.180+00:00</time>
      </trkpt>
      <trkpt lat="45.93648" lon="-1.05152">
        <ele>15</ele>
        <time>2023-07-21T09:57:08.559+00:00</time>
      </trkpt>
      <trkpt lat="45.93639" lon="-1.05138">
        <ele>15</ele>
        <time>2023-07-21T09:57:12.578+00:00</time>
      </trkpt>
      <trkpt lat="45.93628" lon="-1.05121">
        <ele>14</ele>
        <time>2023-07-21T09:57:17.375+00:00</time>
      </trkpt>
      <trkpt lat="45.9362" lon="-1.05113">
        <ele>14</ele>
        <time>2023-07-21T09:57:21.331+00:00</time>
      </trkpt>
      <trkpt lat="45.93609" lon="-1.05138">
        <ele>15</ele>
        <time>2023-07-21T09:59:57.561+00:00</time>
      </trkpt>
      <trkpt lat="45.9361" lon="-1.05138">
        <ele>15</ele>
        <time>2023-07-21T10:00:02.232+00:00</time>
      </trkpt>
      <trkpt lat="45.93611" lon="-1.05139">
        <ele>15</ele>
        <time>2023-07-21T10:00:06.783+00:00</time>
      </trkpt>
      <trkpt lat="45.93612" lon="-1.0514">
        <ele>15</ele>
        <time>2023-07-21T10:00:11.214+00:00</time>
      </trkpt>
      <trkpt lat="45.93612" lon="-1.05141">
        <ele>15</ele>
        <time>2023-07-21T10:00:15.524+00:00</time>
      </trkpt>
      <trkpt lat="45.93608" lon="-1.05132">
        <ele>15</ele>
        <time>2023-07-21T10:29:20.817+00:00</time>
      </trkpt>
      <trkpt lat="45.93609" lon="-1.0513">
        <ele>15</ele>
        <time>2023-07-21T10:29:25.805+00:00</time>
      </trkpt>
      <trkpt lat="45.93608" lon="-1.05129">
        <ele>15</ele>
        <time>2023-07-21T10:29:30.787+00:00</time>
      </trkpt>
      <trkpt lat="45.93608" lon="-1.05128">
        <ele>15</ele>
        <time>2023-07-21T10:29:34.801+00:00</time>
      </trkpt>
      <trkpt lat="45.93608" lon="-1.05128">
        <ele>15</ele>
        <time>2023-07-21T10:29:39.814+00:00</time>
      </trkpt>
      <trkpt lat="45.93612" lon="-1.05124">
        <ele>14</ele>
        <time>2023-07-21T10:29:49.810+00:00</time>
      </trkpt>
      <trkpt lat="45.93612" lon="-1.05124">
        <ele>14</ele>
        <time>2023-07-21T10:29:54.815+00:00</time>
      </trkpt>
      <trkpt lat="45.93613" lon="-1.05121">
        <ele>14</ele>
        <time>2023-07-21T10:29:59.812+00:00</time>
      </trkpt>
      <trkpt lat="45.93619" lon="-1.05121">
        <ele>14</ele>
        <time>2023-07-21T10:30:04.780+00:00</time>
      </trkpt>
      <trkpt lat="45.93623" lon="-1.05122">
        <ele>14</ele>
        <time>2023-07-21T10:30:08.798+00:00</time>
      </trkpt>
      <trkpt lat="45.93648" lon="-1.05138">
        <ele>15</ele>
        <time>2023-07-21T10:30:31.029+00:00</time>
      </trkpt>
      <trkpt lat="45.93648" lon="-1.05139">
        <ele>15</ele>
        <time>2023-07-21T10:30:35.750+00:00</time>
      </trkpt>
      <trkpt lat="45.93649" lon="-1.0514">
        <ele>15</ele>
        <time>2023-07-21T10:30:39.331+00:00</time>
      </trkpt>
      <trkpt lat="45.93655" lon="-1.05148">
        <ele>15</ele>
        <time>2023-07-21T10:30:43.330+00:00</time>
      </trkpt>
      <trkpt lat="45.93662" lon="-1.05156">
        <ele>15</ele>
        <time>2023-07-21T10:30:48.210+00:00</time>
      </trkpt>
      <trkpt lat="45.93669" lon="-1.05167">
        <ele>15</ele>
        <time>2023-07-21T10:30:52.371+00:00</time>
      </trkpt>
      <trkpt lat="45.93674" lon="-1.0518">
        <ele>15</ele>
        <time>2023-07-21T10:30:56.914+00:00</time>
      </trkpt>
      <trkpt lat="45.93684" lon="-1.05188">
        <ele>14</ele>
        <time>2023-07-21T10:31:01.519+00:00</time>
      </trkpt>
      <trkpt lat="45.93695" lon="-1.05192">
        <ele>14</ele>
        <time>2023-07-21T10:31:06.525+00:00</time>
      </trkpt>
      <trkpt lat="45.93704" lon="-1.052">
        <ele>14</ele>
        <time>2023-07-21T10:31:11.030+00:00</time>
      </trkpt>
      <trkpt lat="45.93712" lon="-1.05212">
        <ele>13</ele>
        <time>2023-07-21T10:31:15.733+00:00</time>
      </trkpt>
      <trkpt lat="45.93724" lon="-1.05215">
        <ele>13</ele>
        <time>2023-07-21T10:31:20.340+00:00</time>
      </trkpt>
      <trkpt lat="45.93737" lon="-1.05207">
        <ele>11</ele>
        <time>2023-07-21T10:31:24.348+00:00</time>
      </trkpt>
      <trkpt lat="45.93751" lon="-1.05196">
        <ele>11</ele>
        <time>2023-07-21T10:31:28.958+00:00</time>
      </trkpt>
      <trkpt lat="45.93767" lon="-1.05183">
        <ele>9</ele>
        <time>2023-07-21T10:31:32.965+00:00</time>
      </trkpt>
      <trkpt lat="45.93789" lon="-1.05177">
        <ele>9</ele>
        <time>2023-07-21T10:31:37.781+00:00</time>
      </trkpt>
      <trkpt lat="45.93813" lon="-1.05183">
        <ele>8</ele>
        <time>2023-07-21T10:31:42.780+00:00</time>
      </trkpt>
      <trkpt lat="45.93823" lon="-1.05194">
        <ele>7</ele>
        <time>2023-07-21T10:31:46.861+00:00</time>
      </trkpt>
      <trkpt lat="45.9383" lon="-1.05215">
        <ele>8</ele>
        <time>2023-07-21T10:31:50.866+00:00</time>
      </trkpt>
      <trkpt lat="45.93832" lon="-1.05243">
        <ele>9</ele>
        <time>2023-07-21T10:31:55.369+00:00</time>
      </trkpt>
      <trkpt lat="45.93843" lon="-1.05265">
        <ele>9</ele>
        <time>2023-07-21T10:31:59.957+00:00</time>
      </trkpt>
      <trkpt lat="45.93853" lon="-1.05288">
        <ele>8</ele>
        <time>2023-07-21T10:32:04.612+00:00</time>
      </trkpt>
      <trkpt lat="45.93863" lon="-1.05311">
        <ele>7</ele>
        <time>2023-07-21T10:32:08.913+00:00</time>
      </trkpt>
      <trkpt lat="45.93874" lon="-1.05333">
        <ele>7</ele>
        <time>2023-07-21T10:32:13.054+00:00</time>
      </trkpt>
      <trkpt lat="45.93884" lon="-1.05358">
        <ele>5</ele>
        <time>2023-07-21T10:32:17.821+00:00</time>
      </trkpt>
      <trkpt lat="45.93896" lon="-1.05387">
        <ele>5</ele>
        <time>2023-07-21T10:32:22.783+00:00</time>
      </trkpt>
      <trkpt lat="45.93906" lon="-1.05408">
        <ele>4</ele>
        <time>2023-07-21T10:32:26.796+00:00</time>
      </trkpt>
      <trkpt lat="45.93916" lon="-1.05429">
        <ele>4</ele>
        <time>2023-07-21T10:32:30.872+00:00</time>
      </trkpt>
      <trkpt lat="45.93932" lon="-1.05453">
        <ele>3</ele>
        <time>2023-07-21T10:32:35.785+00:00</time>
      </trkpt>
      <trkpt lat="45.93948" lon="-1.05476">
        <ele>4</ele>
        <time>2023-07-21T10:32:40.785+00:00</time>
      </trkpt>
      <trkpt lat="45.9396" lon="-1.05496">
        <ele>5</ele>
        <time>2023-07-21T10:32:44.960+00:00</time>
      </trkpt>
      <trkpt lat="45.93973" lon="-1.05521">
        <ele>6</ele>
        <time>2023-07-21T10:32:49.782+00:00</time>
      </trkpt>
      <trkpt lat="45.93984" lon="-1.05544">
        <ele>6</ele>
        <time>2023-07-21T10:32:53.979+00:00</time>
      </trkpt>
      <trkpt lat="45.93995" lon="-1.05567">
        <ele>6</ele>
        <time>2023-07-21T10:32:58.988+00:00</time>
      </trkpt>
      <trkpt lat="45.94006" lon="-1.05587">
        <ele>6</ele>
        <time>2023-07-21T10:33:03.494+00:00</time>
      </trkpt>
      <trkpt lat="45.94016" lon="-1.05607">
        <ele>5</ele>
        <time>2023-07-21T10:33:08.036+00:00</time>
      </trkpt>
      <trkpt lat="45.9403" lon="-1.05628">
        <ele>5</ele>
        <time>2023-07-21T10:33:12.735+00:00</time>
      </trkpt>
      <trkpt lat="45.94041" lon="-1.05648">
        <ele>5</ele>
        <time>2023-07-21T10:33:16.953+00:00</time>
      </trkpt>
      <trkpt lat="45.94057" lon="-1.0567">
        <ele>4</ele>
        <time>2023-07-21T10:33:21.820+00:00</time>
      </trkpt>
      <trkpt lat="45.94073" lon="-1.0569">
        <ele>5</ele>
        <time>2023-07-21T10:33:26.699+00:00</time>
      </trkpt>
      <trkpt lat="45.94089" lon="-1.057">
        <ele>5</ele>
        <time>2023-07-21T10:33:30.611+00:00</time>
      </trkpt>
      <trkpt lat="45.94112" lon="-1.0571">
        <ele>5</ele>
        <time>2023-07-21T10:33:35.830+00:00</time>
      </trkpt>
      <trkpt lat="45.94131" lon="-1.05714">
        <ele>4</ele>
        <time>2023-07-21T10:33:39.819+00:00</time>
      </trkpt>
      <trkpt lat="45.94152" lon="-1.05719">
        <ele>4</ele>
        <time>2023-07-21T10:33:44.809+00:00</time>
      </trkpt>
      <trkpt lat="45.94175" lon="-1.05723">
        <ele>4</ele>
        <time>2023-07-21T10:33:49.807+00:00</time>
      </trkpt>
      <trkpt lat="45.94195" lon="-1.05731">
        <ele>5</ele>
        <time>2023-07-21T10:33:54.795+00:00</time>
      </trkpt>
      <trkpt lat="45.94212" lon="-1.05751">
        <ele>5</ele>
        <time>2023-07-21T10:33:59.804+00:00</time>
      </trkpt>
      <trkpt lat="45.94222" lon="-1.05774">
        <ele>4</ele>
        <time>2023-07-21T10:34:03.839+00:00</time>
      </trkpt>
      <trkpt lat="45.94235" lon="-1.05803">
        <ele>4</ele>
        <time>2023-07-21T10:34:08.815+00:00</time>
      </trkpt>
      <trkpt lat="45.94251" lon="-1.05816">
        <ele>3</ele>
        <time>2023-07-21T10:34:12.824+00:00</time>
      </trkpt>
      <trkpt lat="45.94275" lon="-1.05809">
        <ele>2</ele>
        <time>2023-07-21T10:34:17.804+00:00</time>
      </trkpt>
      <trkpt lat="45.94293" lon="-1.05803">
        <ele>1</ele>
        <time>2023-07-21T10:34:22.818+00:00</time>
      </trkpt>
      <trkpt lat="45.94316" lon="-1.05815">
        <ele>1</ele>
        <time>2023-07-21T10:34:27.802+00:00</time>
      </trkpt>
      <trkpt lat="45.94331" lon="-1.05844">
        <ele>2</ele>
        <time>2023-07-21T10:34:32.811+00:00</time>
      </trkpt>
      <trkpt lat="45.94338" lon="-1.05878">
        <ele>5</ele>
        <time>2023-07-21T10:34:37.814+00:00</time>
      </trkpt>
      <trkpt lat="45.94341" lon="-1.05907">
        <ele>4</ele>
        <time>2023-07-21T10:34:41.833+00:00</time>
      </trkpt>
      <trkpt lat="45.94347" lon="-1.05943">
        <ele>4</ele>
        <time>2023-07-21T10:34:46.816+00:00</time>
      </trkpt>
      <trkpt lat="45.94363" lon="-1.05972">
        <ele>3</ele>
        <time>2023-07-21T10:34:51.805+00:00</time>
      </trkpt>
      <trkpt lat="45.94383" lon="-1.05981">
        <ele>3</ele>
        <time>2023-07-21T10:34:55.808+00:00</time>
      </trkpt>
      <trkpt lat="45.94407" lon="-1.05987">
        <ele>3</ele>
        <time>2023-07-21T10:35:00.807+00:00</time>
      </trkpt>
      <trkpt lat="45.94431" lon="-1.05994">
        <ele>3</ele>
        <time>2023-07-21T10:35:05.806+00:00</time>
      </trkpt>
      <trkpt lat="45.94452" lon="-1.0601">
        <ele>3</ele>
        <time>2023-07-21T10:35:10.809+00:00</time>
      </trkpt>
      <trkpt lat="45.94468" lon="-1.06038">
        <ele>4</ele>
        <time>2023-07-21T10:35:15.817+00:00</time>
      </trkpt>
      <trkpt lat="45.94482" lon="-1.06067">
        <ele>5</ele>
        <time>2023-07-21T10:35:20.818+00:00</time>
      </trkpt>
      <trkpt lat="45.94497" lon="-1.06097">
        <ele>5</ele>
        <time>2023-07-21T10:35:25.833+00:00</time>
      </trkpt>
      <trkpt lat="45.94511" lon="-1.06124">
        <ele>5</ele>
        <time>2023-07-21T10:35:30.796+00:00</time>
      </trkpt>
      <trkpt lat="45.94527" lon="-1.06149">
        <ele>5</ele>
        <time>2023-07-21T10:35:35.813+00:00</time>
      </trkpt>
      <trkpt lat="45.94543" lon="-1.06174">
        <ele>5</ele>
        <time>2023-07-21T10:35:40.801+00:00</time>
      </trkpt>
      <trkpt lat="45.94559" lon="-1.06198">
        <ele>5</ele>
        <time>2023-07-21T10:35:45.798+00:00</time>
      </trkpt>
      <trkpt lat="45.94572" lon="-1.06219">
        <ele>6</ele>
        <time>2023-07-21T10:35:49.813+00:00</time>
      </trkpt>
      <trkpt lat="45.94586" lon="-1.06245">
        <ele>6</ele>
        <time>2023-07-21T10:35:54.811+00:00</time>
      </trkpt>
      <trkpt lat="45.94596" lon="-1.06267">
        <ele>6</ele>
        <time>2023-07-21T10:35:58.806+00:00</time>
      </trkpt>
      <trkpt lat="45.94605" lon="-1.06292">
        <ele>6</ele>
        <time>2023-07-21T10:36:03.812+00:00</time>
      </trkpt>
      <trkpt lat="45.94612" lon="-1.06313">
        <ele>6</ele>
        <time>2023-07-21T10:36:07.579+00:00</time>
      </trkpt>
      <trkpt lat="45.94618" lon="-1.06344">
        <ele>5</ele>
        <time>2023-07-21T10:36:12.215+00:00</time>
      </trkpt>
      <trkpt lat="45.94619" lon="-1.06372">
        <ele>5</ele>
        <time>2023-07-21T10:36:16.771+00:00</time>
      </trkpt>
      <trkpt lat="45.94621" lon="-1.06398">
        <ele>6</ele>
        <time>2023-07-21T10:36:20.790+00:00</time>
      </trkpt>
      <trkpt lat="45.94623" lon="-1.0642">
        <ele>6</ele>
        <time>2023-07-21T10:36:24.776+00:00</time>
      </trkpt>
      <trkpt lat="45.94625" lon="-1.06441">
        <ele>5</ele>
        <time>2023-07-21T10:36:28.845+00:00</time>
      </trkpt>
      <trkpt lat="45.94628" lon="-1.06463">
        <ele>5</ele>
        <time>2023-07-21T10:36:32.854+00:00</time>
      </trkpt>
      <trkpt lat="45.94632" lon="-1.06486">
        <ele>5</ele>
        <time>2023-07-21T10:36:37.364+00:00</time>
      </trkpt>
      <trkpt lat="45.94629" lon="-1.06501">
        <ele>5</ele>
        <time>2023-07-21T10:37:13.477+00:00</time>
      </trkpt>
      <trkpt lat="45.9463" lon="-1.06506">
        <ele>5</ele>
        <time>2023-07-21T10:37:17.986+00:00</time>
      </trkpt>
      <trkpt lat="45.94635" lon="-1.06525">
        <ele>5</ele>
        <time>2023-07-21T10:37:22.623+00:00</time>
      </trkpt>
      <trkpt lat="45.94638" lon="-1.06533">
        <ele>5</ele>
        <time>2023-07-21T10:37:26.717+00:00</time>
      </trkpt>
      <trkpt lat="45.94638" lon="-1.06534">
        <ele>5</ele>
        <time>2023-07-21T10:37:31.727+00:00</time>
      </trkpt>
      <trkpt lat="45.94638" lon="-1.06534">
        <ele>5</ele>
        <time>2023-07-21T10:37:36.738+00:00</time>
      </trkpt>
      <trkpt lat="45.94639" lon="-1.06534">
        <ele>5</ele>
        <time>2023-07-21T10:37:41.750+00:00</time>
      </trkpt>
      <trkpt lat="45.94641" lon="-1.06537">
        <ele>5</ele>
        <time>2023-07-21T10:37:45.786+00:00</time>
      </trkpt>
      <trkpt lat="45.94644" lon="-1.0655">
        <ele>5</ele>
        <time>2023-07-21T10:37:50.268+00:00</time>
      </trkpt>
      <trkpt lat="45.94649" lon="-1.0657">
        <ele>4</ele>
        <time>2023-07-21T10:37:54.277+00:00</time>
      </trkpt>
      <trkpt lat="45.94651" lon="-1.0659">
        <ele>4</ele>
        <time>2023-07-21T10:37:58.784+00:00</time>
      </trkpt>
      <trkpt lat="45.94656" lon="-1.0661">
        <ele>3</ele>
        <time>2023-07-21T10:38:03.392+00:00</time>
      </trkpt>
      <trkpt lat="45.94659" lon="-1.06623">
        <ele>3</ele>
        <time>2023-07-21T10:38:07.904+00:00</time>
      </trkpt>
      <trkpt lat="45.94655" lon="-1.06652">
        <ele>3</ele>
        <time>2023-07-21T10:38:12.773+00:00</time>
      </trkpt>
      <trkpt lat="45.94649" lon="-1.06682">
        <ele>2</ele>
        <time>2023-07-21T10:38:17.783+00:00</time>
      </trkpt>
      <trkpt lat="45.94642" lon="-1.06711">
        <ele>1</ele>
        <time>2023-07-21T10:38:22.786+00:00</time>
      </trkpt>
      <trkpt lat="45.94635" lon="-1.06735">
        <ele>1</ele>
        <time>2023-07-21T10:38:26.974+00:00</time>
      </trkpt>
      <trkpt lat="45.9463" lon="-1.06759">
        <ele>1</ele>
        <time>2023-07-21T10:38:31.554+00:00</time>
      </trkpt>
      <trkpt lat="45.94635" lon="-1.06781">
        <ele>2</ele>
        <time>2023-07-21T10:38:35.954+00:00</time>
      </trkpt>
      <trkpt lat="45.94653" lon="-1.06801">
        <ele>2</ele>
        <time>2023-07-21T10:38:40.773+00:00</time>
      </trkpt>
      <trkpt lat="45.94667" lon="-1.06818">
        <ele>2</ele>
        <time>2023-07-21T10:38:44.565+00:00</time>
      </trkpt>
      <trkpt lat="45.94678" lon="-1.06837">
        <ele>2</ele>
        <time>2023-07-21T10:38:48.792+00:00</time>
      </trkpt>
      <trkpt lat="45.94688" lon="-1.06866">
        <ele>2</ele>
        <time>2023-07-21T10:38:53.784+00:00</time>
      </trkpt>
      <trkpt lat="45.94695" lon="-1.06891">
        <ele>3</ele>
        <time>2023-07-21T10:38:58.144+00:00</time>
      </trkpt>
      <trkpt lat="45.94703" lon="-1.06916">
        <ele>3</ele>
        <time>2023-07-21T10:39:02.532+00:00</time>
      </trkpt>
      <trkpt lat="45.94711" lon="-1.0694">
        <ele>3</ele>
        <time>2023-07-21T10:39:06.613+00:00</time>
      </trkpt>
      <trkpt lat="45.9472" lon="-1.06971">
        <ele>4</ele>
        <time>2023-07-21T10:39:11.781+00:00</time>
      </trkpt>
      <trkpt lat="45.9473" lon="-1.06999">
        <ele>4</ele>
        <time>2023-07-21T10:39:16.786+00:00</time>
      </trkpt>
      <trkpt lat="45.94736" lon="-1.07021">
        <ele>5</ele>
        <time>2023-07-21T10:39:21.688+00:00</time>
      </trkpt>
      <trkpt lat="45.94744" lon="-1.07005">
        <ele>4</ele>
        <time>2023-07-21T10:39:25.968+00:00</time>
      </trkpt>
      <trkpt lat="45.94754" lon="-1.06985">
        <ele>4</ele>
        <time>2023-07-21T10:39:30.388+00:00</time>
      </trkpt>
      <trkpt lat="45.94762" lon="-1.06966">
        <ele>4</ele>
        <time>2023-07-21T10:39:34.328+00:00</time>
      </trkpt>
      <trkpt lat="45.94771" lon="-1.06946">
        <ele>5</ele>
        <time>2023-07-21T10:39:39.027+00:00</time>
      </trkpt>
      <trkpt lat="45.94784" lon="-1.06927">
        <ele>5</ele>
        <time>2023-07-21T10:39:43.507+00:00</time>
      </trkpt>
      <trkpt lat="45.94799" lon="-1.0692">
        <ele>5</ele>
        <time>2023-07-21T10:39:47.747+00:00</time>
      </trkpt>
      <trkpt lat="45.94818" lon="-1.06918">
        <ele>5</ele>
        <time>2023-07-21T10:39:51.909+00:00</time>
      </trkpt>
      <trkpt lat="45.94836" lon="-1.06914">
        <ele>4</ele>
        <time>2023-07-21T10:39:56.310+00:00</time>
      </trkpt>
      <trkpt lat="45.94849" lon="-1.06912">
        <ele>3</ele>
        <time>2023-07-21T10:40:00.649+00:00</time>
      </trkpt>
      <trkpt lat="45.9486" lon="-1.06912">
        <ele>3</ele>
        <time>2023-07-21T10:40:05.731+00:00</time>
      </trkpt>
      <trkpt lat="45.94875" lon="-1.06912">
        <ele>3</ele>
        <time>2023-07-21T10:40:10.492+00:00</time>
      </trkpt>
      <trkpt lat="45.94883" lon="-1.06927">
        <ele>2</ele>
        <time>2023-07-21T10:40:15.750+00:00</time>
      </trkpt>
      <trkpt lat="45.94882" lon="-1.06943">
        <ele>2</ele>
        <time>2023-07-21T10:40:19.348+00:00</time>
      </trkpt>
      <trkpt lat="45.94896" lon="-1.06949">
        <ele>2</ele>
        <time>2023-07-21T10:40:24.142+00:00</time>
      </trkpt>
      <trkpt lat="45.94909" lon="-1.0695">
        <ele>1</ele>
        <time>2023-07-21T10:40:28.218+00:00</time>
      </trkpt>
      <trkpt lat="45.94919" lon="-1.06951">
        <ele>1</ele>
        <time>2023-07-21T10:40:32.335+00:00</time>
      </trkpt>
      <trkpt lat="45.94923" lon="-1.06959">
        <ele>2</ele>
        <time>2023-07-21T10:40:36.912+00:00</time>
      </trkpt>
      <trkpt lat="45.94922" lon="-1.06977">
        <ele>2</ele>
        <time>2023-07-21T10:40:40.870+00:00</time>
      </trkpt>
      <trkpt lat="45.94919" lon="-1.06998">
        <ele>4</ele>
        <time>2023-07-21T10:40:45.007+00:00</time>
      </trkpt>
      <trkpt lat="45.94917" lon="-1.07024">
        <ele>5</ele>
        <time>2023-07-21T10:40:49.733+00:00</time>
      </trkpt>
      <trkpt lat="45.94915" lon="-1.07047">
        <ele>4</ele>
        <time>2023-07-21T10:40:53.739+00:00</time>
      </trkpt>
      <trkpt lat="45.94912" lon="-1.07073">
        <ele>3</ele>
        <time>2023-07-21T10:40:58.454+00:00</time>
      </trkpt>
      <trkpt lat="45.9491" lon="-1.07095">
        <ele>3</ele>
        <time>2023-07-21T10:41:02.365+00:00</time>
      </trkpt>
      <trkpt lat="45.94908" lon="-1.07118">
        <ele>1</ele>
        <time>2023-07-21T10:41:07.157+00:00</time>
      </trkpt>
      <trkpt lat="45.94906" lon="-1.07138">
        <ele>2</ele>
        <time>2023-07-21T10:41:11.670+00:00</time>
      </trkpt>
      <trkpt lat="45.94904" lon="-1.07155">
        <ele>3</ele>
        <time>2023-07-21T10:41:15.584+00:00</time>
      </trkpt>
      <trkpt lat="45.94902" lon="-1.07177">
        <ele>2</ele>
        <time>2023-07-21T10:41:20.089+00:00</time>
      </trkpt>
      <trkpt lat="45.94902" lon="-1.07199">
        <ele>2</ele>
        <time>2023-07-21T10:41:24.132+00:00</time>
      </trkpt>
      <trkpt lat="45.94899" lon="-1.07224">
        <ele>2</ele>
        <time>2023-07-21T10:41:28.602+00:00</time>
      </trkpt>
      <trkpt lat="45.94896" lon="-1.07244">
        <ele>2</ele>
        <time>2023-07-21T10:41:32.556+00:00</time>
      </trkpt>
      <trkpt lat="45.94893" lon="-1.07265">
        <ele>2</ele>
        <time>2023-07-21T10:41:36.630+00:00</time>
      </trkpt>
      <trkpt lat="45.9489" lon="-1.07289">
        <ele>2</ele>
        <time>2023-07-21T10:41:40.784+00:00</time>
      </trkpt>
      <trkpt lat="45.94888" lon="-1.07315">
        <ele>2</ele>
        <time>2023-07-21T10:41:45.471+00:00</time>
      </trkpt>
      <trkpt lat="45.94885" lon="-1.0734">
        <ele>3</ele>
        <time>2023-07-21T10:41:49.592+00:00</time>
      </trkpt>
      <trkpt lat="45.94883" lon="-1.07363">
        <ele>3</ele>
        <time>2023-07-21T10:41:53.745+00:00</time>
      </trkpt>
      <trkpt lat="45.94882" lon="-1.07387">
        <ele>3</ele>
        <time>2023-07-21T10:41:57.939+00:00</time>
      </trkpt>
      <trkpt lat="45.94884" lon="-1.07407">
        <ele>3</ele>
        <time>2023-07-21T10:42:21.482+00:00</time>
      </trkpt>
      <trkpt lat="45.94881" lon="-1.07415">
        <ele>3</ele>
        <time>2023-07-21T10:42:25.493+00:00</time>
      </trkpt>
      <trkpt lat="45.94886" lon="-1.07437">
        <ele>3</ele>
        <time>2023-07-21T10:42:30.006+00:00</time>
      </trkpt>
      <trkpt lat="45.94884" lon="-1.07465">
        <ele>4</ele>
        <time>2023-07-21T10:42:34.619+00:00</time>
      </trkpt>
      <trkpt lat="45.94885" lon="-1.07488">
        <ele>4</ele>
        <time>2023-07-21T10:42:38.629+00:00</time>
      </trkpt>
      <trkpt lat="45.94887" lon="-1.07509">
        <ele>4</ele>
        <time>2023-07-21T10:42:42.639+00:00</time>
      </trkpt>
      <trkpt lat="45.9489" lon="-1.07531">
        <ele>4</ele>
        <time>2023-07-21T10:42:46.647+00:00</time>
      </trkpt>
      <trkpt lat="45.94894" lon="-1.07552">
        <ele>3</ele>
        <time>2023-07-21T10:42:50.655+00:00</time>
      </trkpt>
      <trkpt lat="45.94897" lon="-1.07579">
        <ele>3</ele>
        <time>2023-07-21T10:42:55.265+00:00</time>
      </trkpt>
      <trkpt lat="45.94907" lon="-1.07588">
        <ele>3</ele>
        <time>2023-07-21T10:42:59.774+00:00</time>
      </trkpt>
      <trkpt lat="45.94923" lon="-1.07592">
        <ele>3</ele>
        <time>2023-07-21T10:43:03.784+00:00</time>
      </trkpt>
      <trkpt lat="45.94933" lon="-1.07612">
        <ele>3</ele>
        <time>2023-07-21T10:43:07.794+00:00</time>
      </trkpt>
      <trkpt lat="45.94939" lon="-1.07636">
        <ele>3</ele>
        <time>2023-07-21T10:43:12.303+00:00</time>
      </trkpt>
      <trkpt lat="45.94942" lon="-1.07657">
        <ele>3</ele>
        <time>2023-07-21T10:43:16.328+00:00</time>
      </trkpt>
      <trkpt lat="45.9494" lon="-1.0768">
        <ele>3</ele>
        <time>2023-07-21T10:43:20.838+00:00</time>
      </trkpt>
      <trkpt lat="45.94939" lon="-1.0771">
        <ele>2</ele>
        <time>2023-07-21T10:43:25.787+00:00</time>
      </trkpt>
      <trkpt lat="45.94938" lon="-1.07735">
        <ele>2</ele>
        <time>2023-07-21T10:43:30.030+00:00</time>
      </trkpt>
      <trkpt lat="45.94937" lon="-1.0776">
        <ele>2</ele>
        <time>2023-07-21T10:43:34.037+00:00</time>
      </trkpt>
      <trkpt lat="45.94937" lon="-1.07783">
        <ele>3</ele>
        <time>2023-07-21T10:43:38.747+00:00</time>
      </trkpt>
      <trkpt lat="45.94933" lon="-1.078">
        <ele>4</ele>
        <time>2023-07-21T10:43:43.256+00:00</time>
      </trkpt>
      <trkpt lat="45.94923" lon="-1.07801">
        <ele>5</ele>
        <time>2023-07-21T10:43:47.262+00:00</time>
      </trkpt>
      <trkpt lat="45.94914" lon="-1.07798">
        <ele>5</ele>
        <time>2023-07-21T10:43:51.769+00:00</time>
      </trkpt>
      <trkpt lat="45.9491" lon="-1.07809">
        <ele>5</ele>
        <time>2023-07-21T10:43:56.782+00:00</time>
      </trkpt>
      <trkpt lat="45.94914" lon="-1.0782">
        <ele>5</ele>
        <time>2023-07-21T10:44:00.382+00:00</time>
      </trkpt>
      <trkpt lat="45.94917" lon="-1.07833">
        <ele>5</ele>
        <time>2023-07-21T10:44:04.888+00:00</time>
      </trkpt>
      <trkpt lat="45.94912" lon="-1.07847">
        <ele>5</ele>
        <time>2023-07-21T10:44:09.495+00:00</time>
      </trkpt>
      <trkpt lat="45.94914" lon="-1.07866">
        <ele>5</ele>
        <time>2023-07-21T10:44:14.504+00:00</time>
      </trkpt>
      <trkpt lat="45.94915" lon="-1.07893">
        <ele>3</ele>
        <time>2023-07-21T10:44:19.603+00:00</time>
      </trkpt>
      <trkpt lat="45.94919" lon="-1.07921">
        <ele>3</ele>
        <time>2023-07-21T10:44:24.722+00:00</time>
      </trkpt>
      <trkpt lat="45.94921" lon="-1.07944">
        <ele>3</ele>
        <time>2023-07-21T10:44:28.740+00:00</time>
      </trkpt>
      <trkpt lat="45.94922" lon="-1.07971">
        <ele>3</ele>
        <time>2023-07-21T10:44:33.497+00:00</time>
      </trkpt>
      <trkpt lat="45.9492" lon="-1.08001">
        <ele>3</ele>
        <time>2023-07-21T10:44:38.770+00:00</time>
      </trkpt>
      <trkpt lat="45.9492" lon="-1.08027">
        <ele>3</ele>
        <time>2023-07-21T10:44:42.965+00:00</time>
      </trkpt>
      <trkpt lat="45.94921" lon="-1.08079">
        <ele>2</ele>
        <time>2023-07-21T10:45:01.471+00:00</time>
      </trkpt>
      <trkpt lat="45.94921" lon="-1.0808">
        <ele>2</ele>
        <time>2023-07-21T10:45:05.478+00:00</time>
      </trkpt>
      <trkpt lat="45.9492" lon="-1.0808">
        <ele>2</ele>
        <time>2023-07-21T10:45:10.490+00:00</time>
      </trkpt>
      <trkpt lat="45.9492" lon="-1.08082">
        <ele>2</ele>
        <time>2023-07-21T10:45:14.499+00:00</time>
      </trkpt>
      <trkpt lat="45.94917" lon="-1.08098">
        <ele>1</ele>
        <time>2023-07-21T10:45:18.606+00:00</time>
      </trkpt>
      <trkpt lat="45.94917" lon="-1.08125">
        <ele>1</ele>
        <time>2023-07-21T10:45:23.614+00:00</time>
      </trkpt>
      <trkpt lat="45.94916" lon="-1.08143">
        <ele>1</ele>
        <time>2023-07-21T10:45:27.621+00:00</time>
      </trkpt>
      <trkpt lat="45.94913" lon="-1.08166">
        <ele>2.3</ele>
        <time>2023-07-21T10:45:32.143+00:00</time>
      </trkpt>
      <trkpt lat="45.9491" lon="-1.08188">
        <ele>2.5</ele>
        <time>2023-07-21T10:45:36.744+00:00</time>
      </trkpt>
      <trkpt lat="45.9491" lon="-1.08208">
        <ele>2.6</ele>
        <time>2023-07-21T10:45:40.763+00:00</time>
      </trkpt>
      <trkpt lat="45.94906" lon="-1.08236">
        <ele>1</ele>
        <time>2023-07-21T10:45:45.194+00:00</time>
      </trkpt>
      <trkpt lat="45.94906" lon="-1.08262">
        <ele>1</ele>
        <time>2023-07-21T10:45:49.738+00:00</time>
      </trkpt>
      <trkpt lat="45.94907" lon="-1.08285">
        <ele>3</ele>
        <time>2023-07-21T10:45:53.755+00:00</time>
      </trkpt>
      <trkpt lat="45.94907" lon="-1.08305">
        <ele>5</ele>
        <time>2023-07-21T10:45:57.853+00:00</time>
      </trkpt>
      <trkpt lat="45.94908" lon="-1.0833">
        <ele>5</ele>
        <time>2023-07-21T10:46:01.908+00:00</time>
      </trkpt>
      <trkpt lat="45.9491" lon="-1.08356">
        <ele>5</ele>
        <time>2023-07-21T10:46:06.582+00:00</time>
      </trkpt>
      <trkpt lat="45.94913" lon="-1.08385">
        <ele>6</ele>
        <time>2023-07-21T10:46:11.806+00:00</time>
      </trkpt>
      <trkpt lat="45.94915" lon="-1.08403">
        <ele>6</ele>
        <time>2023-07-21T10:46:15.926+00:00</time>
      </trkpt>
      <trkpt lat="45.94916" lon="-1.08426">
        <ele>6</ele>
        <time>2023-07-21T10:46:19.998+00:00</time>
      </trkpt>
      <trkpt lat="45.94917" lon="-1.08455">
        <ele>6</ele>
        <time>2023-07-21T10:46:24.788+00:00</time>
      </trkpt>
      <trkpt lat="45.94918" lon="-1.08474">
        <ele>8</ele>
        <time>2023-07-21T10:46:28.803+00:00</time>
      </trkpt>
      <trkpt lat="45.94919" lon="-1.08503">
        <ele>9</ele>
        <time>2023-07-21T10:46:33.371+00:00</time>
      </trkpt>
      <trkpt lat="45.9492" lon="-1.08527">
        <ele>9</ele>
        <time>2023-07-21T10:46:38.125+00:00</time>
      </trkpt>
      <trkpt lat="45.9492" lon="-1.08552">
        <ele>8</ele>
        <time>2023-07-21T10:46:42.638+00:00</time>
      </trkpt>
      <trkpt lat="45.94918" lon="-1.08572">
        <ele>7</ele>
        <time>2023-07-21T10:46:46.806+00:00</time>
      </trkpt>
      <trkpt lat="45.94913" lon="-1.08593">
        <ele>7</ele>
        <time>2023-07-21T10:46:50.785+00:00</time>
      </trkpt>
      <trkpt lat="45.94908" lon="-1.0862">
        <ele>5</ele>
        <time>2023-07-21T10:46:55.337+00:00</time>
      </trkpt>
      <trkpt lat="45.94902" lon="-1.08644">
        <ele>9</ele>
        <time>2023-07-21T10:47:00.021+00:00</time>
      </trkpt>
      <trkpt lat="45.94899" lon="-1.08664">
        <ele>9</ele>
        <time>2023-07-21T10:47:04.454+00:00</time>
      </trkpt>
      <trkpt lat="45.94899" lon="-1.0867">
        <ele>9</ele>
        <time>2023-07-21T10:47:17.572+00:00</time>
      </trkpt>
      <trkpt lat="45.94899" lon="-1.08672">
        <ele>9</ele>
        <time>2023-07-21T10:47:21.579+00:00</time>
      </trkpt>
      <trkpt lat="45.94891" lon="-1.0869">
        <ele>9</ele>
        <time>2023-07-21T10:47:25.583+00:00</time>
      </trkpt>
      <trkpt lat="45.94887" lon="-1.08713">
        <ele>8</ele>
        <time>2023-07-21T10:47:30.091+00:00</time>
      </trkpt>
      <trkpt lat="45.94889" lon="-1.08738">
        <ele>9</ele>
        <time>2023-07-21T10:47:34.596+00:00</time>
      </trkpt>
      <trkpt lat="45.94888" lon="-1.0876">
        <ele>9</ele>
        <time>2023-07-21T10:47:38.600+00:00</time>
      </trkpt>
      <trkpt lat="45.94887" lon="-1.08787">
        <ele>9</ele>
        <time>2023-07-21T10:47:43.104+00:00</time>
      </trkpt>
      <trkpt lat="45.94889" lon="-1.08812">
        <ele>9</ele>
        <time>2023-07-21T10:47:47.708+00:00</time>
      </trkpt>
      <trkpt lat="45.94891" lon="-1.08837">
        <ele>9</ele>
        <time>2023-07-21T10:47:51.714+00:00</time>
      </trkpt>
      <trkpt lat="45.94889" lon="-1.08862">
        <ele>8</ele>
        <time>2023-07-21T10:47:56.327+00:00</time>
      </trkpt>
      <trkpt lat="45.94889" lon="-1.08897">
        <ele>7</ele>
        <time>2023-07-21T10:48:00.777+00:00</time>
      </trkpt>
      <trkpt lat="45.94888" lon="-1.08929">
        <ele>5</ele>
        <time>2023-07-21T10:48:04.783+00:00</time>
      </trkpt>
      <trkpt lat="45.94885" lon="-1.0897">
        <ele>4</ele>
        <time>2023-07-21T10:48:09.789+00:00</time>
      </trkpt>
      <trkpt lat="45.94882" lon="-1.09013">
        <ele>4</ele>
        <time>2023-07-21T10:48:14.782+00:00</time>
      </trkpt>
      <trkpt lat="45.94879" lon="-1.09051">
        <ele>4</ele>
        <time>2023-07-21T10:48:19.776+00:00</time>
      </trkpt>
      <trkpt lat="45.94878" lon="-1.09087">
        <ele>4</ele>
        <time>2023-07-21T10:48:24.789+00:00</time>
      </trkpt>
      <trkpt lat="45.94878" lon="-1.09123">
        <ele>4</ele>
        <time>2023-07-21T10:48:29.780+00:00</time>
      </trkpt>
      <trkpt lat="45.94876" lon="-1.09154">
        <ele>4</ele>
        <time>2023-07-21T10:48:34.780+00:00</time>
      </trkpt>
      <trkpt lat="45.94873" lon="-1.09181">
        <ele>5</ele>
        <time>2023-07-21T10:48:38.779+00:00</time>
      </trkpt>
      <trkpt lat="45.94869" lon="-1.09219">
        <ele>5</ele>
        <time>2023-07-21T10:48:43.782+00:00</time>
      </trkpt>
      <trkpt lat="45.94868" lon="-1.0925">
        <ele>4</ele>
        <time>2023-07-21T10:48:47.775+00:00</time>
      </trkpt>
      <trkpt lat="45.94866" lon="-1.09289">
        <ele>4</ele>
        <time>2023-07-21T10:48:52.778+00:00</time>
      </trkpt>
      <trkpt lat="45.94863" lon="-1.09324">
        <ele>3</ele>
        <time>2023-07-21T10:48:57.782+00:00</time>
      </trkpt>
      <trkpt lat="45.94861" lon="-1.09359">
        <ele>3</ele>
        <time>2023-07-21T10:49:02.782+00:00</time>
      </trkpt>
      <trkpt lat="45.9486" lon="-1.09395">
        <ele>3</ele>
        <time>2023-07-21T10:49:07.780+00:00</time>
      </trkpt>
      <trkpt lat="45.94859" lon="-1.09431">
        <ele>4</ele>
        <time>2023-07-21T10:49:12.769+00:00</time>
      </trkpt>
      <trkpt lat="45.94861" lon="-1.09458">
        <ele>4</ele>
        <time>2023-07-21T10:49:17.779+00:00</time>
      </trkpt>
      <trkpt lat="45.94865" lon="-1.09475">
        <ele>5</ele>
        <time>2023-07-21T10:49:22.203+00:00</time>
      </trkpt>
      <trkpt lat="45.94863" lon="-1.09488">
        <ele>5</ele>
        <time>2023-07-21T10:49:26.713+00:00</time>
      </trkpt>
      <trkpt lat="45.94861" lon="-1.09504">
        <ele>5</ele>
        <time>2023-07-21T10:49:30.724+00:00</time>
      </trkpt>
      <trkpt lat="45.9486" lon="-1.09528">
        <ele>4</ele>
        <time>2023-07-21T10:49:35.748+00:00</time>
      </trkpt>
      <trkpt lat="45.94862" lon="-1.09542">
        <ele>3</ele>
        <time>2023-07-21T10:49:39.342+00:00</time>
      </trkpt>
      <trkpt lat="45.94865" lon="-1.09553">
        <ele>3</ele>
        <time>2023-07-21T10:49:44.350+00:00</time>
      </trkpt>
      <trkpt lat="45.94862" lon="-1.09553">
        <ele>3</ele>
        <time>2023-07-21T10:49:48.854+00:00</time>
      </trkpt>
      <trkpt lat="45.94862" lon="-1.09555">
        <ele>3</ele>
        <time>2023-07-21T10:49:53.358+00:00</time>
      </trkpt>
      <trkpt lat="45.9486" lon="-1.09557">
        <ele>3</ele>
        <time>2023-07-21T10:49:57.464+00:00</time>
      </trkpt>
      <trkpt lat="45.9486" lon="-1.09565">
        <ele>3</ele>
        <time>2023-07-21T10:50:01.471+00:00</time>
      </trkpt>
      <trkpt lat="45.94861" lon="-1.09568">
        <ele>3</ele>
        <time>2023-07-21T10:50:05.500+00:00</time>
      </trkpt>
      <trkpt lat="45.94863" lon="-1.09558">
        <ele>3</ele>
        <time>2023-07-21T10:50:10.011+00:00</time>
      </trkpt>
      <trkpt lat="45.94863" lon="-1.09556">
        <ele>3</ele>
        <time>2023-07-21T10:50:14.620+00:00</time>
      </trkpt>
      <trkpt lat="45.94864" lon="-1.09556">
        <ele>3</ele>
        <time>2023-07-21T10:50:19.630+00:00</time>
      </trkpt>
      <trkpt lat="45.94864" lon="-1.09554">
        <ele>3</ele>
        <time>2023-07-21T10:50:23.734+00:00</time>
      </trkpt>
      <trkpt lat="45.94868" lon="-1.09546">
        <ele>3</ele>
        <time>2023-07-21T10:50:28.760+00:00</time>
      </trkpt>
      <trkpt lat="45.94876" lon="-1.09539">
        <ele>3</ele>
        <time>2023-07-21T10:50:32.843+00:00</time>
      </trkpt>
      <trkpt lat="45.94882" lon="-1.09539">
        <ele>3</ele>
        <time>2023-07-21T10:50:36.848+00:00</time>
      </trkpt>
      <trkpt lat="45.94893" lon="-1.09542">
        <ele>3</ele>
        <time>2023-07-21T10:50:41.354+00:00</time>
      </trkpt>
      <trkpt lat="45.94902" lon="-1.09539">
        <ele>3</ele>
        <time>2023-07-21T10:50:45.459+00:00</time>
      </trkpt>
      <trkpt lat="45.94908" lon="-1.0955">
        <ele>1</ele>
        <time>2023-07-21T10:50:50.067+00:00</time>
      </trkpt>
      <trkpt lat="45.94914" lon="-1.0955">
        <ele>1</ele>
        <time>2023-07-21T10:50:54.173+00:00</time>
      </trkpt>
      <trkpt lat="45.94917" lon="-1.0954">
        <ele>1</ele>
        <time>2023-07-21T10:50:58.177+00:00</time>
      </trkpt>
      <trkpt lat="45.94916" lon="-1.0953">
        <ele>1</ele>
        <time>2023-07-21T10:51:02.681+00:00</time>
      </trkpt>
      <trkpt lat="45.94917" lon="-1.09522">
        <ele>1</ele>
        <time>2023-07-21T10:51:07.688+00:00</time>
      </trkpt>
      <trkpt lat="45.94927" lon="-1.09516">
        <ele>1</ele>
        <time>2023-07-21T10:51:12.696+00:00</time>
      </trkpt>
      <trkpt lat="45.94929" lon="-1.09512">
        <ele>1</ele>
        <time>2023-07-21T10:51:17.704+00:00</time>
      </trkpt>
      <trkpt lat="45.94929" lon="-1.09512">
        <ele>1</ele>
        <time>2023-07-21T10:51:21.713+00:00</time>
      </trkpt>
      <trkpt lat="45.94929" lon="-1.09511">
        <ele>1</ele>
        <time>2023-07-21T10:51:26.722+00:00</time>
      </trkpt>
      <trkpt lat="45.9493" lon="-1.09513">
        <ele>1</ele>
        <time>2023-07-21T10:51:30.730+00:00</time>
      </trkpt>
      <trkpt lat="45.94933" lon="-1.09514">
        <ele>3.4</ele>
        <time>2023-07-21T10:51:35.740+00:00</time>
      </trkpt>
      <trkpt lat="45.94936" lon="-1.09516">
        <ele>3.3</ele>
        <time>2023-07-21T10:51:39.747+00:00</time>
      </trkpt>
      <trkpt lat="45.94939" lon="-1.0949">
        <ele>2.9</ele>
        <time>2023-07-21T10:51:43.754+00:00</time>
      </trkpt>
      <trkpt lat="45.9494" lon="-1.09485">
        <ele>2.6</ele>
        <time>2023-07-21T10:51:48.262+00:00</time>
      </trkpt>
      <trkpt lat="45.9494" lon="-1.09483">
        <ele>2.5</ele>
        <time>2023-07-21T10:51:52.768+00:00</time>
      </trkpt>
      <trkpt lat="45.94942" lon="-1.0948">
        <ele>2.4</ele>
        <time>2023-07-21T10:51:56.875+00:00</time>
      </trkpt>
      <trkpt lat="45.94949" lon="-1.09473">
        <ele>1.9</ele>
        <time>2023-07-21T10:52:01.382+00:00</time>
      </trkpt>
      <trkpt lat="45.94959" lon="-1.09469">
        <ele>1.4</ele>
        <time>2023-07-21T10:52:05.488+00:00</time>
      </trkpt>
      <trkpt lat="45.94982" lon="-1.09461">
        <ele>1.2</ele>
        <time>2023-07-21T10:52:10.017+00:00</time>
      </trkpt>
      <trkpt lat="45.94998" lon="-1.09464">
        <ele>1</ele>
        <time>2023-07-21T10:52:14.633+00:00</time>
      </trkpt>
      <trkpt lat="45.95011" lon="-1.09478">
        <ele>1</ele>
        <time>2023-07-21T10:52:19.749+00:00</time>
      </trkpt>
      <trkpt lat="45.95025" lon="-1.09491">
        <ele>1</ele>
        <time>2023-07-21T10:52:24.260+00:00</time>
      </trkpt>
      <trkpt lat="45.95036" lon="-1.09503">
        <ele>1</ele>
        <time>2023-07-21T10:52:28.770+00:00</time>
      </trkpt>
      <trkpt lat="45.95049" lon="-1.09515">
        <ele>1</ele>
        <time>2023-07-21T10:52:32.777+00:00</time>
      </trkpt>
      <trkpt lat="45.95059" lon="-1.09525">
        <ele>1</ele>
        <time>2023-07-21T10:52:36.884+00:00</time>
      </trkpt>
      <trkpt lat="45.95069" lon="-1.09537">
        <ele>1</ele>
        <time>2023-07-21T10:52:40.892+00:00</time>
      </trkpt>
      <trkpt lat="45.95079" lon="-1.09548">
        <ele>1</ele>
        <time>2023-07-21T10:52:45.416+00:00</time>
      </trkpt>
      <trkpt lat="45.95085" lon="-1.0956">
        <ele>1</ele>
        <time>2023-07-21T10:52:49.924+00:00</time>
      </trkpt>
      <trkpt lat="45.95093" lon="-1.09571">
        <ele>1</ele>
        <time>2023-07-21T10:52:54.047+00:00</time>
      </trkpt>
      <trkpt lat="45.95099" lon="-1.09585">
        <ele>1</ele>
        <time>2023-07-21T10:52:58.555+00:00</time>
      </trkpt>
      <trkpt lat="45.95105" lon="-1.09599">
        <ele>1</ele>
        <time>2023-07-21T10:53:02.561+00:00</time>
      </trkpt>
      <trkpt lat="45.95115" lon="-1.09614">
        <ele>1</ele>
        <time>2023-07-21T10:53:07.068+00:00</time>
      </trkpt>
      <trkpt lat="45.95124" lon="-1.09629">
        <ele>1</ele>
        <time>2023-07-21T10:53:11.574+00:00</time>
      </trkpt>
      <trkpt lat="45.95133" lon="-1.09645">
        <ele>1</ele>
        <time>2023-07-21T10:53:15.580+00:00</time>
      </trkpt>
      <trkpt lat="45.95139" lon="-1.09658">
        <ele>1</ele>
        <time>2023-07-21T10:53:20.088+00:00</time>
      </trkpt>
      <trkpt lat="45.95148" lon="-1.09676">
        <ele>1</ele>
        <time>2023-07-21T10:53:24.197+00:00</time>
      </trkpt>
      <trkpt lat="45.95157" lon="-1.09693">
        <ele>1</ele>
        <time>2023-07-21T10:53:28.203+00:00</time>
      </trkpt>
      <trkpt lat="45.95165" lon="-1.09707">
        <ele>1</ele>
        <time>2023-07-21T10:53:32.808+00:00</time>
      </trkpt>
      <trkpt lat="45.9517" lon="-1.09723">
        <ele>1</ele>
        <time>2023-07-21T10:53:36.813+00:00</time>
      </trkpt>
      <trkpt lat="45.95179" lon="-1.09741">
        <ele>1</ele>
        <time>2023-07-21T10:53:41.321+00:00</time>
      </trkpt>
      <trkpt lat="45.95186" lon="-1.09761">
        <ele>1</ele>
        <time>2023-07-21T10:53:45.428+00:00</time>
      </trkpt>
      <trkpt lat="45.95193" lon="-1.09779">
        <ele>1</ele>
        <time>2023-07-21T10:53:50.032+00:00</time>
      </trkpt>
      <trkpt lat="45.952" lon="-1.09795">
        <ele>1</ele>
        <time>2023-07-21T10:53:54.036+00:00</time>
      </trkpt>
      <trkpt lat="45.95206" lon="-1.09812">
        <ele>1</ele>
        <time>2023-07-21T10:53:58.542+00:00</time>
      </trkpt>
      <trkpt lat="45.95213" lon="-1.0983">
        <ele>1</ele>
        <time>2023-07-21T10:54:03.064+00:00</time>
      </trkpt>
      <trkpt lat="45.95226" lon="-1.09858">
        <ele>1</ele>
        <time>2023-07-21T10:54:25.103+00:00</time>
      </trkpt>
      <trkpt lat="45.95228" lon="-1.09867">
        <ele>1</ele>
        <time>2023-07-21T10:54:29.628+00:00</time>
      </trkpt>
      <trkpt lat="45.9523" lon="-1.09886">
        <ele>1</ele>
        <time>2023-07-21T10:54:33.733+00:00</time>
      </trkpt>
      <trkpt lat="45.95234" lon="-1.09904">
        <ele>1</ele>
        <time>2023-07-21T10:54:38.238+00:00</time>
      </trkpt>
      <trkpt lat="45.95237" lon="-1.09922">
        <ele>1</ele>
        <time>2023-07-21T10:54:42.740+00:00</time>
      </trkpt>
      <trkpt lat="45.9524" lon="-1.09937">
        <ele>1</ele>
        <time>2023-07-21T10:54:46.743+00:00</time>
      </trkpt>
      <trkpt lat="45.95244" lon="-1.09956">
        <ele>1</ele>
        <time>2023-07-21T10:54:50.847+00:00</time>
      </trkpt>
      <trkpt lat="45.95251" lon="-1.09973">
        <ele>1</ele>
        <time>2023-07-21T10:54:55.456+00:00</time>
      </trkpt>
      <trkpt lat="45.95255" lon="-1.0999">
        <ele>1</ele>
        <time>2023-07-21T10:54:59.156+00:00</time>
      </trkpt>
      <trkpt lat="45.9526" lon="-1.10004">
        <ele>1</ele>
        <time>2023-07-21T10:55:03.677+00:00</time>
      </trkpt>
      <trkpt lat="45.95263" lon="-1.10021">
        <ele>1</ele>
        <time>2023-07-21T10:55:07.682+00:00</time>
      </trkpt>
      <trkpt lat="45.95267" lon="-1.1004">
        <ele>1</ele>
        <time>2023-07-21T10:55:11.886+00:00</time>
      </trkpt>
      <trkpt lat="45.95272" lon="-1.10055">
        <ele>1</ele>
        <time>2023-07-21T10:55:15.890+00:00</time>
      </trkpt>
      <trkpt lat="45.95277" lon="-1.10067">
        <ele>1</ele>
        <time>2023-07-21T10:55:20.412+00:00</time>
      </trkpt>
      <trkpt lat="45.9528" lon="-1.1008">
        <ele>1</ele>
        <time>2023-07-21T10:55:24.419+00:00</time>
      </trkpt>
      <trkpt lat="45.95285" lon="-1.10094">
        <ele>1</ele>
        <time>2023-07-21T10:55:28.926+00:00</time>
      </trkpt>
      <trkpt lat="45.95292" lon="-1.10109">
        <ele>1</ele>
        <time>2023-07-21T10:55:32.932+00:00</time>
      </trkpt>
      <trkpt lat="45.95297" lon="-1.10125">
        <ele>1</ele>
        <time>2023-07-21T10:55:37.439+00:00</time>
      </trkpt>
      <trkpt lat="45.95302" lon="-1.10138">
        <ele>1</ele>
        <time>2023-07-21T10:55:41.444+00:00</time>
      </trkpt>
      <trkpt lat="45.95309" lon="-1.10156">
        <ele>-1</ele>
        <time>2023-07-21T10:55:46.450+00:00</time>
      </trkpt>
      <trkpt lat="45.95314" lon="-1.10166">
        <ele>-1</ele>
        <time>2023-07-21T10:55:50.569+00:00</time>
      </trkpt>
      <trkpt lat="45.9532" lon="-1.10177">
        <ele>1</ele>
        <time>2023-07-21T10:55:54.158+00:00</time>
      </trkpt>
      <trkpt lat="45.95328" lon="-1.10191">
        <ele>-1</ele>
        <time>2023-07-21T10:55:58.664+00:00</time>
      </trkpt>
      <trkpt lat="45.95336" lon="-1.10202">
        <ele>-1</ele>
        <time>2023-07-21T10:56:02.769+00:00</time>
      </trkpt>
      <trkpt lat="45.95344" lon="-1.10213">
        <ele>-1</ele>
        <time>2023-07-21T10:56:06.889+00:00</time>
      </trkpt>
      <trkpt lat="45.9535" lon="-1.10224">
        <ele>1</ele>
        <time>2023-07-21T10:56:23.908+00:00</time>
      </trkpt>
      <trkpt lat="45.95353" lon="-1.10238">
        <ele>1</ele>
        <time>2023-07-21T10:56:28.415+00:00</time>
      </trkpt>
      <trkpt lat="45.95359" lon="-1.10266">
        <ele>1</ele>
        <time>2023-07-21T10:56:32.771+00:00</time>
      </trkpt>
      <trkpt lat="45.95363" lon="-1.10293">
        <ele>1</ele>
        <time>2023-07-21T10:56:37.328+00:00</time>
      </trkpt>
      <trkpt lat="45.95367" lon="-1.10314">
        <ele>1</ele>
        <time>2023-07-21T10:56:41.335+00:00</time>
      </trkpt>
      <trkpt lat="45.95373" lon="-1.10335">
        <ele>1</ele>
        <time>2023-07-21T10:56:45.841+00:00</time>
      </trkpt>
      <trkpt lat="45.95377" lon="-1.10356">
        <ele>1</ele>
        <time>2023-07-21T10:56:50.348+00:00</time>
      </trkpt>
      <trkpt lat="45.95382" lon="-1.10373">
        <ele>1</ele>
        <time>2023-07-21T10:56:54.354+00:00</time>
      </trkpt>
      <trkpt lat="45.95388" lon="-1.10389">
        <ele>1</ele>
        <time>2023-07-21T10:56:58.359+00:00</time>
      </trkpt>
      <trkpt lat="45.95387" lon="-1.10401">
        <ele>1</ele>
        <time>2023-07-21T10:57:02.865+00:00</time>
      </trkpt>
      <trkpt lat="45.95387" lon="-1.10411">
        <ele>1</ele>
        <time>2023-07-21T10:57:07.375+00:00</time>
      </trkpt>
      <trkpt lat="45.95388" lon="-1.10417">
        <ele>1</ele>
        <time>2023-07-21T10:57:12.381+00:00</time>
      </trkpt>
      <trkpt lat="45.95388" lon="-1.10417">
        <ele>1</ele>
        <time>2023-07-21T10:57:16.385+00:00</time>
      </trkpt>
      <trkpt lat="45.95387" lon="-1.10418">
        <ele>1</ele>
        <time>2023-07-21T10:57:20.891+00:00</time>
      </trkpt>
      <trkpt lat="45.95386" lon="-1.1043">
        <ele>1</ele>
        <time>2023-07-21T10:57:24.896+00:00</time>
      </trkpt>
      <trkpt lat="45.95387" lon="-1.10455">
        <ele>1</ele>
        <time>2023-07-21T10:57:29.401+00:00</time>
      </trkpt>
      <trkpt lat="45.95389" lon="-1.10469">
        <ele>1</ele>
        <time>2023-07-21T10:57:33.506+00:00</time>
      </trkpt>
      <trkpt lat="45.9539" lon="-1.10485">
        <ele>1</ele>
        <time>2023-07-21T10:57:38.012+00:00</time>
      </trkpt>
      <trkpt lat="45.95396" lon="-1.10513">
        <ele>1</ele>
        <time>2023-07-21T10:57:42.776+00:00</time>
      </trkpt>
      <trkpt lat="45.95403" lon="-1.10537">
        <ele>1</ele>
        <time>2023-07-21T10:57:47.292+00:00</time>
      </trkpt>
      <trkpt lat="45.95413" lon="-1.10555">
        <ele>1</ele>
        <time>2023-07-21T10:57:52.297+00:00</time>
      </trkpt>
      <trkpt lat="45.95427" lon="-1.10581">
        <ele>1</ele>
        <time>2023-07-21T10:59:32.767+00:00</time>
      </trkpt>
      <trkpt lat="45.95426" lon="-1.10582">
        <ele>1</ele>
        <time>2023-07-21T10:59:36.767+00:00</time>
      </trkpt>
      <trkpt lat="45.95426" lon="-1.10583">
        <ele>1</ele>
        <time>2023-07-21T10:59:41.760+00:00</time>
      </trkpt>
      <trkpt lat="45.95426" lon="-1.10585">
        <ele>1</ele>
        <time>2023-07-21T10:59:46.774+00:00</time>
      </trkpt>
      <trkpt lat="45.95426" lon="-1.10586">
        <ele>1</ele>
        <time>2023-07-21T10:59:51.526+00:00</time>
      </trkpt>
      <trkpt lat="45.95432" lon="-1.10592">
        <ele>2.8</ele>
        <time>2023-07-21T10:59:56.534+00:00</time>
      </trkpt>
      <trkpt lat="45.95446" lon="-1.10606">
        <ele>3.5</ele>
        <time>2023-07-21T11:00:01.786+00:00</time>
      </trkpt>
      <trkpt lat="45.95455" lon="-1.10613">
        <ele>3.2</ele>
        <time>2023-07-21T11:00:06.773+00:00</time>
      </trkpt>
      <trkpt lat="45.95464" lon="-1.10628">
        <ele>2.9</ele>
        <time>2023-07-21T11:00:11.789+00:00</time>
      </trkpt>
      <trkpt lat="45.95475" lon="-1.1064">
        <ele>2.8</ele>
        <time>2023-07-21T11:00:15.776+00:00</time>
      </trkpt>
      <trkpt lat="45.95489" lon="-1.10651">
        <ele>2.3</ele>
        <time>2023-07-21T11:00:19.782+00:00</time>
      </trkpt>
      <trkpt lat="45.95507" lon="-1.10664">
        <ele>2.6</ele>
        <time>2023-07-21T11:00:24.602+00:00</time>
      </trkpt>
      <trkpt lat="45.95523" lon="-1.1068">
        <ele>2.6</ele>
        <time>2023-07-21T11:00:29.110+00:00</time>
      </trkpt>
      <trkpt lat="45.9554" lon="-1.10693">
        <ele>2.5</ele>
        <time>2023-07-21T11:00:33.620+00:00</time>
      </trkpt>
      <trkpt lat="45.95557" lon="-1.10706">
        <ele>1</ele>
        <time>2023-07-21T11:00:37.627+00:00</time>
      </trkpt>
      <trkpt lat="45.95572" lon="-1.10716">
        <ele>1</ele>
        <time>2023-07-21T11:00:41.633+00:00</time>
      </trkpt>
      <trkpt lat="45.9559" lon="-1.10731">
        <ele>1</ele>
        <time>2023-07-21T11:00:46.640+00:00</time>
      </trkpt>
      <trkpt lat="45.95603" lon="-1.10744">
        <ele>1</ele>
        <time>2023-07-21T11:00:50.646+00:00</time>
      </trkpt>
      <trkpt lat="45.95619" lon="-1.10763">
        <ele>1</ele>
        <time>2023-07-21T11:00:55.652+00:00</time>
      </trkpt>
      <trkpt lat="45.95633" lon="-1.10779">
        <ele>3</ele>
        <time>2023-07-21T11:01:00.156+00:00</time>
      </trkpt>
      <trkpt lat="45.95648" lon="-1.10795">
        <ele>2.5</ele>
        <time>2023-07-21T11:01:04.660+00:00</time>
      </trkpt>
      <trkpt lat="45.95664" lon="-1.10816">
        <ele>2.4</ele>
        <time>2023-07-21T11:01:09.789+00:00</time>
      </trkpt>
      <trkpt lat="45.95684" lon="-1.10834">
        <ele>1</ele>
        <time>2023-07-21T11:01:14.779+00:00</time>
      </trkpt>
      <trkpt lat="45.95705" lon="-1.10848">
        <ele>2</ele>
        <time>2023-07-21T11:01:19.778+00:00</time>
      </trkpt>
      <trkpt lat="45.95721" lon="-1.10857">
        <ele>2</ele>
        <time>2023-07-21T11:01:23.380+00:00</time>
      </trkpt>
      <trkpt lat="45.9574" lon="-1.10868">
        <ele>2.5</ele>
        <time>2023-07-21T11:01:28.385+00:00</time>
      </trkpt>
      <trkpt lat="45.95759" lon="-1.10882">
        <ele>2.7</ele>
        <time>2023-07-21T11:01:33.390+00:00</time>
      </trkpt>
      <trkpt lat="45.95777" lon="-1.10893">
        <ele>3</ele>
        <time>2023-07-21T11:01:38.396+00:00</time>
      </trkpt>
      <trkpt lat="45.95798" lon="-1.10904">
        <ele>1</ele>
        <time>2023-07-21T11:01:43.664+00:00</time>
      </trkpt>
      <trkpt lat="45.95814" lon="-1.10917">
        <ele>1</ele>
        <time>2023-07-21T11:01:48.784+00:00</time>
      </trkpt>
      <trkpt lat="45.95817" lon="-1.10922">
        <ele>1</ele>
        <time>2023-07-21T11:01:52.321+00:00</time>
      </trkpt>
      <trkpt lat="45.95819" lon="-1.10921">
        <ele>1</ele>
        <time>2023-07-21T11:01:57.296+00:00</time>
      </trkpt>
      <trkpt lat="45.95821" lon="-1.10914">
        <ele>1</ele>
        <time>2023-07-21T11:02:01.971+00:00</time>
      </trkpt>
      <trkpt lat="45.95825" lon="-1.10908">
        <ele>1</ele>
        <time>2023-07-21T11:02:06.527+00:00</time>
      </trkpt>
      <trkpt lat="45.95822" lon="-1.10911">
        <ele>1</ele>
        <time>2023-07-21T11:02:36.678+00:00</time>
      </trkpt>
      <trkpt lat="45.95821" lon="-1.10914">
        <ele>1</ele>
        <time>2023-07-21T11:02:40.686+00:00</time>
      </trkpt>
      <trkpt lat="45.95821" lon="-1.10916">
        <ele>1</ele>
        <time>2023-07-21T11:02:44.710+00:00</time>
      </trkpt>
      <trkpt lat="45.95821" lon="-1.10916">
        <ele>1</ele>
        <time>2023-07-21T11:02:49.220+00:00</time>
      </trkpt>
      <trkpt lat="45.95821" lon="-1.10925">
        <ele>1</ele>
        <time>2023-07-21T11:02:53.730+00:00</time>
      </trkpt>
      <trkpt lat="45.95828" lon="-1.10937">
        <ele>1</ele>
        <time>2023-07-21T11:02:58.755+00:00</time>
      </trkpt>
      <trkpt lat="45.9583" lon="-1.10952">
        <ele>1</ele>
        <time>2023-07-21T11:03:02.762+00:00</time>
      </trkpt>
      <trkpt lat="45.95828" lon="-1.10977">
        <ele>2</ele>
        <time>2023-07-21T11:03:07.269+00:00</time>
      </trkpt>
      <trkpt lat="45.95825" lon="-1.11004">
        <ele>2</ele>
        <time>2023-07-21T11:03:11.292+00:00</time>
      </trkpt>
      <trkpt lat="45.95822" lon="-1.11035">
        <ele>2</ele>
        <time>2023-07-21T11:03:16.311+00:00</time>
      </trkpt>
      <trkpt lat="45.95819" lon="-1.11064">
        <ele>2</ele>
        <time>2023-07-21T11:03:20.919+00:00</time>
      </trkpt>
      <trkpt lat="45.9582" lon="-1.11094">
        <ele>3</ele>
        <time>2023-07-21T11:03:25.426+00:00</time>
      </trkpt>
      <trkpt lat="45.95817" lon="-1.1112">
        <ele>2</ele>
        <time>2023-07-21T11:03:29.773+00:00</time>
      </trkpt>
      <trkpt lat="45.95819" lon="-1.11143">
        <ele>2</ele>
        <time>2023-07-21T11:03:33.308+00:00</time>
      </trkpt>
      <trkpt lat="45.95819" lon="-1.11167">
        <ele>3</ele>
        <time>2023-07-21T11:03:38.313+00:00</time>
      </trkpt>
      <trkpt lat="45.95819" lon="-1.11184">
        <ele>3</ele>
        <time>2023-07-21T11:03:42.318+00:00</time>
      </trkpt>
      <trkpt lat="45.95817" lon="-1.11205">
        <ele>3</ele>
        <time>2023-07-21T11:03:46.340+00:00</time>
      </trkpt>
      <trkpt lat="45.95818" lon="-1.11232">
        <ele>2</ele>
        <time>2023-07-21T11:03:51.363+00:00</time>
      </trkpt>
      <trkpt lat="45.95819" lon="-1.11257">
        <ele>3</ele>
        <time>2023-07-21T11:03:55.870+00:00</time>
      </trkpt>
      <trkpt lat="45.95811" lon="-1.11291">
        <ele>3</ele>
        <time>2023-07-21T11:04:00.374+00:00</time>
      </trkpt>
      <trkpt lat="45.95806" lon="-1.11325">
        <ele>3</ele>
        <time>2023-07-21T11:04:05.675+00:00</time>
      </trkpt>
      <trkpt lat="45.95804" lon="-1.11353">
        <ele>3</ele>
        <time>2023-07-21T11:04:10.753+00:00</time>
      </trkpt>
      <trkpt lat="45.95801" lon="-1.11383">
        <ele>3</ele>
        <time>2023-07-21T11:04:15.510+00:00</time>
      </trkpt>
      <trkpt lat="45.95805" lon="-1.11407">
        <ele>4</ele>
        <time>2023-07-21T11:04:19.310+00:00</time>
      </trkpt>
      <trkpt lat="45.95814" lon="-1.11428">
        <ele>4</ele>
        <time>2023-07-21T11:04:23.808+00:00</time>
      </trkpt>
      <trkpt lat="45.95821" lon="-1.11448">
        <ele>6</ele>
        <time>2023-07-21T11:04:27.967+00:00</time>
      </trkpt>
      <trkpt lat="45.95829" lon="-1.11471">
        <ele>6</ele>
        <time>2023-07-21T11:04:32.763+00:00</time>
      </trkpt>
      <trkpt lat="45.95837" lon="-1.1149">
        <ele>5</ele>
        <time>2023-07-21T11:04:36.789+00:00</time>
      </trkpt>
      <trkpt lat="45.95844" lon="-1.11508">
        <ele>5</ele>
        <time>2023-07-21T11:04:40.785+00:00</time>
      </trkpt>
      <trkpt lat="45.95855" lon="-1.11519">
        <ele>5</ele>
        <time>2023-07-21T11:04:44.916+00:00</time>
      </trkpt>
      <trkpt lat="45.95872" lon="-1.11513">
        <ele>5</ele>
        <time>2023-07-21T11:04:49.572+00:00</time>
      </trkpt>
      <trkpt lat="45.95887" lon="-1.11503">
        <ele>6</ele>
        <time>2023-07-21T11:04:53.768+00:00</time>
      </trkpt>
      <trkpt lat="45.95902" lon="-1.11493">
        <ele>6</ele>
        <time>2023-07-21T11:04:57.961+00:00</time>
      </trkpt>
      <trkpt lat="45.95917" lon="-1.11484">
        <ele>8</ele>
        <time>2023-07-21T11:05:02.396+00:00</time>
      </trkpt>
      <trkpt lat="45.95935" lon="-1.11473">
        <ele>11</ele>
        <time>2023-07-21T11:05:07.788+00:00</time>
      </trkpt>
      <trkpt lat="45.95951" lon="-1.11462">
        <ele>11</ele>
        <time>2023-07-21T11:05:12.579+00:00</time>
      </trkpt>
      <trkpt lat="45.95962" lon="-1.11454">
        <ele>11</ele>
        <time>2023-07-21T11:05:16.773+00:00</time>
      </trkpt>
      <trkpt lat="45.95976" lon="-1.11447">
        <ele>11</ele>
        <time>2023-07-21T11:05:21.448+00:00</time>
      </trkpt>
      <trkpt lat="45.95992" lon="-1.11449">
        <ele>12</ele>
        <time>2023-07-21T11:05:25.583+00:00</time>
      </trkpt>
      <trkpt lat="45.9601" lon="-1.11469">
        <ele>12</ele>
        <time>2023-07-21T11:05:30.779+00:00</time>
      </trkpt>
      <trkpt lat="45.96017" lon="-1.11492">
        <ele>12</ele>
        <time>2023-07-21T11:05:34.716+00:00</time>
      </trkpt>
      <trkpt lat="45.96022" lon="-1.11508">
        <ele>12</ele>
        <time>2023-07-21T11:05:38.733+00:00</time>
      </trkpt>
      <trkpt lat="45.96027" lon="-1.11505">
        <ele>12</ele>
        <time>2023-07-21T11:05:43.348+00:00</time>
      </trkpt>
      <trkpt lat="45.96031" lon="-1.11502">
        <ele>12</ele>
        <time>2023-07-21T11:05:47.945+00:00</time>
      </trkpt>
      <trkpt lat="45.96042" lon="-1.11491">
        <ele>12</ele>
        <time>2023-07-21T11:05:52.101+00:00</time>
      </trkpt>
      <trkpt lat="45.96055" lon="-1.11478">
        <ele>12</ele>
        <time>2023-07-21T11:05:56.756+00:00</time>
      </trkpt>
      <trkpt lat="45.96064" lon="-1.1147">
        <ele>12</ele>
        <time>2023-07-21T11:06:01.338+00:00</time>
      </trkpt>
      <trkpt lat="45.96072" lon="-1.11463">
        <ele>11</ele>
        <time>2023-07-21T11:06:04.931+00:00</time>
      </trkpt>
      <trkpt lat="45.96085" lon="-1.11453">
        <ele>11</ele>
        <time>2023-07-21T11:06:09.726+00:00</time>
      </trkpt>
      <trkpt lat="45.96093" lon="-1.11447">
        <ele>11</ele>
        <time>2023-07-21T11:06:13.803+00:00</time>
      </trkpt>
      <trkpt lat="45.96104" lon="-1.11444">
        <ele>11</ele>
        <time>2023-07-21T11:06:18.600+00:00</time>
      </trkpt>
      <trkpt lat="45.96112" lon="-1.11454">
        <ele>11</ele>
        <time>2023-07-21T11:06:23.216+00:00</time>
      </trkpt>
      <trkpt lat="45.96123" lon="-1.11468">
        <ele>10</ele>
        <time>2023-07-21T11:06:27.828+00:00</time>
      </trkpt>
      <trkpt lat="45.96133" lon="-1.11468">
        <ele>9</ele>
        <time>2023-07-21T11:07:44.771+00:00</time>
      </trkpt>
      <trkpt lat="45.96131" lon="-1.11472">
        <ele>9</ele>
        <time>2023-07-21T11:07:49.771+00:00</time>
      </trkpt>
      <trkpt lat="45.96127" lon="-1.11469">
        <ele>9</ele>
        <time>2023-07-21T11:07:53.783+00:00</time>
      </trkpt>
      <trkpt lat="45.96123" lon="-1.11466">
        <ele>10</ele>
        <time>2023-07-21T11:07:57.779+00:00</time>
      </trkpt>
      <trkpt lat="45.96118" lon="-1.1146">
        <ele>10</ele>
        <time>2023-07-21T11:08:02.777+00:00</time>
      </trkpt>
      <trkpt lat="45.96111" lon="-1.11452">
        <ele>11</ele>
        <time>2023-07-21T11:08:07.766+00:00</time>
      </trkpt>
      <trkpt lat="45.96103" lon="-1.11453">
        <ele>11</ele>
        <time>2023-07-21T11:08:11.773+00:00</time>
      </trkpt>
      <trkpt lat="45.96094" lon="-1.11457">
        <ele>11</ele>
        <time>2023-07-21T11:08:16.778+00:00</time>
      </trkpt>
      <trkpt lat="45.96086" lon="-1.11461">
        <ele>11</ele>
        <time>2023-07-21T11:08:21.477+00:00</time>
      </trkpt>
      <trkpt lat="45.96078" lon="-1.11467">
        <ele>11</ele>
        <time>2023-07-21T11:08:25.987+00:00</time>
      </trkpt>
      <trkpt lat="45.96066" lon="-1.11474">
        <ele>12</ele>
        <time>2023-07-21T11:08:30.498+00:00</time>
      </trkpt>
      <trkpt lat="45.96056" lon="-1.11483">
        <ele>12</ele>
        <time>2023-07-21T11:08:34.507+00:00</time>
      </trkpt>
      <trkpt lat="45.96042" lon="-1.11495">
        <ele>12</ele>
        <time>2023-07-21T11:08:39.016+00:00</time>
      </trkpt>
      <trkpt lat="45.96025" lon="-1.11509">
        <ele>12</ele>
        <time>2023-07-21T11:09:12.768+00:00</time>
      </trkpt>
      <trkpt lat="45.96024" lon="-1.11511">
        <ele>12</ele>
        <time>2023-07-21T11:09:17.775+00:00</time>
      </trkpt>
      <trkpt lat="45.96025" lon="-1.11519">
        <ele>12</ele>
        <time>2023-07-21T11:09:21.628+00:00</time>
      </trkpt>
      <trkpt lat="45.96026" lon="-1.1152">
        <ele>12</ele>
        <time>2023-07-21T11:09:26.642+00:00</time>
      </trkpt>
      <trkpt lat="45.96026" lon="-1.1152">
        <ele>12</ele>
        <time>2023-07-21T11:09:31.649+00:00</time>
      </trkpt>
      <trkpt lat="45.96025" lon="-1.1152">
        <ele>12</ele>
        <time>2023-07-21T11:09:36.660+00:00</time>
      </trkpt>
      <trkpt lat="45.96025" lon="-1.1152">
        <ele>12</ele>
        <time>2023-07-21T11:09:40.672+00:00</time>
      </trkpt>
      <trkpt lat="45.96022" lon="-1.11521">
        <ele>12</ele>
        <time>2023-07-21T11:09:44.776+00:00</time>
      </trkpt>
      <trkpt lat="45.96024" lon="-1.11527">
        <ele>12</ele>
        <time>2023-07-21T11:09:49.772+00:00</time>
      </trkpt>
      <trkpt lat="45.96025" lon="-1.11537">
        <ele>12</ele>
        <time>2023-07-21T11:09:53.710+00:00</time>
      </trkpt>
      <trkpt lat="45.9603" lon="-1.1156">
        <ele>11</ele>
        <time>2023-07-21T11:09:58.723+00:00</time>
      </trkpt>
      <trkpt lat="45.96028" lon="-1.11585">
        <ele>11</ele>
        <time>2023-07-21T11:10:03.740+00:00</time>
      </trkpt>
      <trkpt lat="45.96024" lon="-1.11607">
        <ele>10</ele>
        <time>2023-07-21T11:10:07.766+00:00</time>
      </trkpt>
      <trkpt lat="45.96025" lon="-1.11631">
        <ele>9</ele>
        <time>2023-07-21T11:10:11.778+00:00</time>
      </trkpt>
      <trkpt lat="45.96031" lon="-1.11648">
        <ele>9</ele>
        <time>2023-07-21T11:10:24.806+00:00</time>
      </trkpt>
      <trkpt lat="45.96033" lon="-1.11646">
        <ele>9</ele>
        <time>2023-07-21T11:10:29.319+00:00</time>
      </trkpt>
      <trkpt lat="45.96034" lon="-1.11644">
        <ele>9</ele>
        <time>2023-07-21T11:10:34.334+00:00</time>
      </trkpt>
      <trkpt lat="45.96036" lon="-1.11648">
        <ele>9</ele>
        <time>2023-07-21T11:10:39.351+00:00</time>
      </trkpt>
      <trkpt lat="45.9604" lon="-1.11683">
        <ele>7</ele>
        <time>2023-07-21T11:10:44.366+00:00</time>
      </trkpt>
      <trkpt lat="45.96051" lon="-1.1171">
        <ele>7</ele>
        <time>2023-07-21T11:10:49.379+00:00</time>
      </trkpt>
      <trkpt lat="45.96059" lon="-1.1173">
        <ele>7</ele>
        <time>2023-07-21T11:10:54.395+00:00</time>
      </trkpt>
      <trkpt lat="45.96066" lon="-1.11751">
        <ele>7</ele>
        <time>2023-07-21T11:10:58.908+00:00</time>
      </trkpt>
      <trkpt lat="45.96073" lon="-1.11775">
        <ele>6</ele>
        <time>2023-07-21T11:11:03.436+00:00</time>
      </trkpt>
      <trkpt lat="45.96081" lon="-1.11799">
        <ele>5</ele>
        <time>2023-07-21T11:11:08.783+00:00</time>
      </trkpt>
      <trkpt lat="45.96089" lon="-1.11819">
        <ele>5</ele>
        <time>2023-07-21T11:11:13.795+00:00</time>
      </trkpt>
      <trkpt lat="45.96099" lon="-1.11849">
        <ele>4</ele>
        <time>2023-07-21T11:11:18.780+00:00</time>
      </trkpt>
      <trkpt lat="45.96108" lon="-1.11867">
        <ele>4</ele>
        <time>2023-07-21T11:11:22.809+00:00</time>
      </trkpt>
      <trkpt lat="45.96108" lon="-1.11892">
        <ele>3</ele>
        <time>2023-07-21T11:11:27.317+00:00</time>
      </trkpt>
      <trkpt lat="45.961" lon="-1.11914">
        <ele>3</ele>
        <time>2023-07-21T11:11:31.323+00:00</time>
      </trkpt>
      <trkpt lat="45.96094" lon="-1.11936">
        <ele>2</ele>
        <time>2023-07-21T11:11:35.829+00:00</time>
      </trkpt>
      <trkpt lat="45.96086" lon="-1.11958">
        <ele>2</ele>
        <time>2023-07-21T11:11:40.436+00:00</time>
      </trkpt>
      <trkpt lat="45.96079" lon="-1.11981">
        <ele>2</ele>
        <time>2023-07-21T11:11:44.443+00:00</time>
      </trkpt>
      <trkpt lat="45.96073" lon="-1.11999">
        <ele>2</ele>
        <time>2023-07-21T11:11:48.948+00:00</time>
      </trkpt>
      <trkpt lat="45.96075" lon="-1.12013">
        <ele>2</ele>
        <time>2023-07-21T11:11:53.453+00:00</time>
      </trkpt>
      <trkpt lat="45.96081" lon="-1.12018">
        <ele>2</ele>
        <time>2023-07-21T11:11:57.475+00:00</time>
      </trkpt>
      <trkpt lat="45.96092" lon="-1.12025">
        <ele>2</ele>
        <time>2023-07-21T11:12:20.512+00:00</time>
      </trkpt>
      <trkpt lat="45.96092" lon="-1.12025">
        <ele>2</ele>
        <time>2023-07-21T11:12:25.524+00:00</time>
      </trkpt>
      <trkpt lat="45.96092" lon="-1.12025">
        <ele>2</ele>
        <time>2023-07-21T11:12:29.532+00:00</time>
      </trkpt>
      <trkpt lat="45.96093" lon="-1.12025">
        <ele>2</ele>
        <time>2023-07-21T11:12:34.761+00:00</time>
      </trkpt>
      <trkpt lat="45.96093" lon="-1.12025">
        <ele>2</ele>
        <time>2023-07-21T11:12:38.548+00:00</time>
      </trkpt>
      <trkpt lat="45.96094" lon="-1.12027">
        <ele>2</ele>
        <time>2023-07-21T11:13:54.403+00:00</time>
      </trkpt>
      <trkpt lat="45.96086" lon="-1.12019">
        <ele>2</ele>
        <time>2023-07-21T11:13:59.011+00:00</time>
      </trkpt>
      <trkpt lat="45.96075" lon="-1.12014">
        <ele>2</ele>
        <time>2023-07-21T11:14:03.536+00:00</time>
      </trkpt>
      <trkpt lat="45.96066" lon="-1.1202">
        <ele>2</ele>
        <time>2023-07-21T11:14:07.544+00:00</time>
      </trkpt>
      <trkpt lat="45.96058" lon="-1.12028">
        <ele>2</ele>
        <time>2023-07-21T11:14:12.127+00:00</time>
      </trkpt>
      <trkpt lat="45.96051" lon="-1.12028">
        <ele>2</ele>
        <time>2023-07-21T11:14:25.688+00:00</time>
      </trkpt>
      <trkpt lat="45.96051" lon="-1.12031">
        <ele>2</ele>
        <time>2023-07-21T11:14:30.719+00:00</time>
      </trkpt>
      <trkpt lat="45.96038" lon="-1.12027">
        <ele>2</ele>
        <time>2023-07-21T11:14:35.738+00:00</time>
      </trkpt>
      <trkpt lat="45.96024" lon="-1.12024">
        <ele>2</ele>
        <time>2023-07-21T11:14:40.753+00:00</time>
      </trkpt>
      <trkpt lat="45.96012" lon="-1.12019">
        <ele>3</ele>
        <time>2023-07-21T11:14:44.865+00:00</time>
      </trkpt>
      <trkpt lat="45.95998" lon="-1.12013">
        <ele>3</ele>
        <time>2023-07-21T11:14:49.382+00:00</time>
      </trkpt>
      <trkpt lat="45.95986" lon="-1.12012">
        <ele>3</ele>
        <time>2023-07-21T11:14:53.390+00:00</time>
      </trkpt>
      <trkpt lat="45.95974" lon="-1.12013">
        <ele>3</ele>
        <time>2023-07-21T11:14:57.899+00:00</time>
      </trkpt>
      <trkpt lat="45.95963" lon="-1.12013">
        <ele>3</ele>
        <time>2023-07-21T11:15:02.406+00:00</time>
      </trkpt>
      <trkpt lat="45.95961" lon="-1.12016">
        <ele>2</ele>
        <time>2023-07-21T11:15:19.444+00:00</time>
      </trkpt>
      <trkpt lat="45.9596" lon="-1.12016">
        <ele>2</ele>
        <time>2023-07-21T11:15:23.960+00:00</time>
      </trkpt>
      <trkpt lat="45.95949" lon="-1.12013">
        <ele>2</ele>
        <time>2023-07-21T11:15:28.474+00:00</time>
      </trkpt>
      <trkpt lat="45.95926" lon="-1.12005">
        <ele>2</ele>
        <time>2023-07-21T11:15:32.776+00:00</time>
      </trkpt>
      <trkpt lat="45.95906" lon="-1.12">
        <ele>2</ele>
        <time>2023-07-21T11:15:36.769+00:00</time>
      </trkpt>
      <trkpt lat="45.9589" lon="-1.11996">
        <ele>2</ele>
        <time>2023-07-21T11:15:40.831+00:00</time>
      </trkpt>
      <trkpt lat="45.95871" lon="-1.11991">
        <ele>2</ele>
        <time>2023-07-21T11:15:45.442+00:00</time>
      </trkpt>
      <trkpt lat="45.95856" lon="-1.11989">
        <ele>2</ele>
        <time>2023-07-21T11:15:49.474+00:00</time>
      </trkpt>
      <trkpt lat="45.95854" lon="-1.11989">
        <ele>2</ele>
        <time>2023-07-21T11:15:54.593+00:00</time>
      </trkpt>
      <trkpt lat="45.95856" lon="-1.11989">
        <ele>2</ele>
        <time>2023-07-21T11:15:59.114+00:00</time>
      </trkpt>
      <trkpt lat="45.95851" lon="-1.11987">
        <ele>2</ele>
        <time>2023-07-21T11:16:03.224+00:00</time>
      </trkpt>
      <trkpt lat="45.9583" lon="-1.11981">
        <ele>1</ele>
        <time>2023-07-21T11:16:07.772+00:00</time>
      </trkpt>
      <trkpt lat="45.95811" lon="-1.11974">
        <ele>1</ele>
        <time>2023-07-21T11:16:11.769+00:00</time>
      </trkpt>
      <trkpt lat="45.95799" lon="-1.11971">
        <ele>1</ele>
        <time>2023-07-21T11:16:15.944+00:00</time>
      </trkpt>
      <trkpt lat="45.95783" lon="-1.11962">
        <ele>1</ele>
        <time>2023-07-21T11:16:20.457+00:00</time>
      </trkpt>
      <trkpt lat="45.95763" lon="-1.1195">
        <ele>1</ele>
        <time>2023-07-21T11:16:24.969+00:00</time>
      </trkpt>
      <trkpt lat="45.95747" lon="-1.11935">
        <ele>1</ele>
        <time>2023-07-21T11:16:29.583+00:00</time>
      </trkpt>
      <trkpt lat="45.95732" lon="-1.11925">
        <ele>4.3</ele>
        <time>2023-07-21T11:16:34.695+00:00</time>
      </trkpt>
      <trkpt lat="45.9572" lon="-1.11917">
        <ele>4.8</ele>
        <time>2023-07-21T11:16:39.206+00:00</time>
      </trkpt>
      <trkpt lat="45.9571" lon="-1.11904">
        <ele>4</ele>
        <time>2023-07-21T11:16:43.217+00:00</time>
      </trkpt>
      <trkpt lat="45.95695" lon="-1.11891">
        <ele>3.9</ele>
        <time>2023-07-21T11:16:47.327+00:00</time>
      </trkpt>
      <trkpt lat="45.9568" lon="-1.11882">
        <ele>3.6</ele>
        <time>2023-07-21T11:16:51.839+00:00</time>
      </trkpt>
      <trkpt lat="45.95663" lon="-1.11874">
        <ele>3.5</ele>
        <time>2023-07-21T11:16:56.350+00:00</time>
      </trkpt>
      <trkpt lat="45.95652" lon="-1.11868">
        <ele>3.8</ele>
        <time>2023-07-21T11:17:00.360+00:00</time>
      </trkpt>
      <trkpt lat="45.95648" lon="-1.11862">
        <ele>4</ele>
        <time>2023-07-21T11:17:05.372+00:00</time>
      </trkpt>
      <trkpt lat="45.95649" lon="-1.11863">
        <ele>3.9</ele>
        <time>2023-07-21T11:17:09.383+00:00</time>
      </trkpt>
      <trkpt lat="45.95649" lon="-1.11864">
        <ele>3.9</ele>
        <time>2023-07-21T11:17:14.399+00:00</time>
      </trkpt>
      <trkpt lat="45.95648" lon="-1.11865">
        <ele>3.9</ele>
        <time>2023-07-21T11:17:18.413+00:00</time>
      </trkpt>
      <trkpt lat="45.95644" lon="-1.11861">
        <ele>4</ele>
        <time>2023-07-21T11:17:23.433+00:00</time>
      </trkpt>
      <trkpt lat="45.95633" lon="-1.11852">
        <ele>3.9</ele>
        <time>2023-07-21T11:17:27.449+00:00</time>
      </trkpt>
      <trkpt lat="45.9562" lon="-1.1184">
        <ele>1</ele>
        <time>2023-07-21T11:17:32.465+00:00</time>
      </trkpt>
      <trkpt lat="45.95606" lon="-1.1183">
        <ele>1</ele>
        <time>2023-07-21T11:17:36.678+00:00</time>
      </trkpt>
      <trkpt lat="45.95589" lon="-1.11816">
        <ele>1</ele>
        <time>2023-07-21T11:17:41.693+00:00</time>
      </trkpt>
      <trkpt lat="45.95579" lon="-1.11809">
        <ele>1</ele>
        <time>2023-07-21T11:17:46.708+00:00</time>
      </trkpt>
      <trkpt lat="45.9558" lon="-1.11812">
        <ele>1</ele>
        <time>2023-07-21T11:18:37.661+00:00</time>
      </trkpt>
      <trkpt lat="45.95578" lon="-1.11808">
        <ele>1</ele>
        <time>2023-07-21T11:18:42.174+00:00</time>
      </trkpt>
      <trkpt lat="45.95567" lon="-1.11791">
        <ele>1</ele>
        <time>2023-07-21T11:18:46.185+00:00</time>
      </trkpt>
      <trkpt lat="45.95554" lon="-1.11771">
        <ele>1</ele>
        <time>2023-07-21T11:18:50.697+00:00</time>
      </trkpt>
      <trkpt lat="45.9554" lon="-1.11745">
        <ele>1</ele>
        <time>2023-07-21T11:18:55.210+00:00</time>
      </trkpt>
      <trkpt lat="45.95503" lon="-1.1171">
        <ele>1</ele>
        <time>2023-07-21T11:19:22.492+00:00</time>
      </trkpt>
      <trkpt lat="45.95502" lon="-1.11711">
        <ele>1</ele>
        <time>2023-07-21T11:19:27.004+00:00</time>
      </trkpt>
      <trkpt lat="45.95495" lon="-1.11705">
        <ele>1</ele>
        <time>2023-07-21T11:19:30.512+00:00</time>
      </trkpt>
      <trkpt lat="45.95475" lon="-1.11698">
        <ele>1</ele>
        <time>2023-07-21T11:19:35.527+00:00</time>
      </trkpt>
      <trkpt lat="45.95457" lon="-1.11706">
        <ele>2</ele>
        <time>2023-07-21T11:19:39.808+00:00</time>
      </trkpt>
      <trkpt lat="45.95439" lon="-1.11716">
        <ele>2</ele>
        <time>2023-07-21T11:19:44.313+00:00</time>
      </trkpt>
      <trkpt lat="45.95421" lon="-1.11725">
        <ele>1</ele>
        <time>2023-07-21T11:19:48.816+00:00</time>
      </trkpt>
      <trkpt lat="45.95403" lon="-1.11733">
        <ele>1</ele>
        <time>2023-07-21T11:19:53.330+00:00</time>
      </trkpt>
      <trkpt lat="45.95387" lon="-1.11738">
        <ele>1</ele>
        <time>2023-07-21T11:19:56.961+00:00</time>
      </trkpt>
      <trkpt lat="45.95366" lon="-1.11741">
        <ele>2</ele>
        <time>2023-07-21T11:20:01.781+00:00</time>
      </trkpt>
      <trkpt lat="45.95344" lon="-1.11735">
        <ele>2</ele>
        <time>2023-07-21T11:20:06.777+00:00</time>
      </trkpt>
      <trkpt lat="45.95324" lon="-1.11721">
        <ele>2</ele>
        <time>2023-07-21T11:20:11.781+00:00</time>
      </trkpt>
      <trkpt lat="45.95304" lon="-1.11706">
        <ele>2</ele>
        <time>2023-07-21T11:20:16.773+00:00</time>
      </trkpt>
      <trkpt lat="45.95287" lon="-1.11694">
        <ele>2</ele>
        <time>2023-07-21T11:20:20.775+00:00</time>
      </trkpt>
      <trkpt lat="45.95262" lon="-1.1168">
        <ele>1</ele>
        <time>2023-07-21T11:20:25.787+00:00</time>
      </trkpt>
      <trkpt lat="45.9524" lon="-1.11666">
        <ele>1</ele>
        <time>2023-07-21T11:20:30.783+00:00</time>
      </trkpt>
      <trkpt lat="45.95227" lon="-1.11643">
        <ele>1</ele>
        <time>2023-07-21T11:20:35.775+00:00</time>
      </trkpt>
      <trkpt lat="45.95222" lon="-1.11616">
        <ele>1</ele>
        <time>2023-07-21T11:20:39.781+00:00</time>
      </trkpt>
      <trkpt lat="45.95219" lon="-1.11581">
        <ele>1</ele>
        <time>2023-07-21T11:20:44.781+00:00</time>
      </trkpt>
      <trkpt lat="45.95216" lon="-1.11549">
        <ele>1</ele>
        <time>2023-07-21T11:20:49.782+00:00</time>
      </trkpt>
      <trkpt lat="45.95213" lon="-1.11515">
        <ele>2</ele>
        <time>2023-07-21T11:20:54.780+00:00</time>
      </trkpt>
      <trkpt lat="45.9521" lon="-1.1148">
        <ele>1</ele>
        <time>2023-07-21T11:20:59.783+00:00</time>
      </trkpt>
      <trkpt lat="45.95211" lon="-1.11447">
        <ele>1</ele>
        <time>2023-07-21T11:21:04.781+00:00</time>
      </trkpt>
      <trkpt lat="45.95217" lon="-1.11423">
        <ele>1</ele>
        <time>2023-07-21T11:21:09.783+00:00</time>
      </trkpt>
      <trkpt lat="45.95229" lon="-1.11403">
        <ele>1</ele>
        <time>2023-07-21T11:21:14.234+00:00</time>
      </trkpt>
      <trkpt lat="45.95241" lon="-1.11381">
        <ele>1</ele>
        <time>2023-07-21T11:21:18.675+00:00</time>
      </trkpt>
      <trkpt lat="45.95253" lon="-1.1136">
        <ele>1</ele>
        <time>2023-07-21T11:21:22.778+00:00</time>
      </trkpt>
      <trkpt lat="45.95266" lon="-1.11343">
        <ele>1</ele>
        <time>2023-07-21T11:21:26.918+00:00</time>
      </trkpt>
      <trkpt lat="45.95279" lon="-1.11319">
        <ele>1</ele>
        <time>2023-07-21T11:21:31.779+00:00</time>
      </trkpt>
      <trkpt lat="45.95287" lon="-1.11295">
        <ele>1</ele>
        <time>2023-07-21T11:21:36.197+00:00</time>
      </trkpt>
      <trkpt lat="45.9529" lon="-1.11268">
        <ele>1</ele>
        <time>2023-07-21T11:21:40.836+00:00</time>
      </trkpt>
      <trkpt lat="45.95293" lon="-1.11243">
        <ele>1</ele>
        <time>2023-07-21T11:21:44.940+00:00</time>
      </trkpt>
      <trkpt lat="45.95295" lon="-1.11217">
        <ele>1</ele>
        <time>2023-07-21T11:21:48.942+00:00</time>
      </trkpt>
      <trkpt lat="45.953" lon="-1.11191">
        <ele>1</ele>
        <time>2023-07-21T11:21:53.545+00:00</time>
      </trkpt>
      <trkpt lat="45.95309" lon="-1.11169">
        <ele>1</ele>
        <time>2023-07-21T11:21:58.048+00:00</time>
      </trkpt>
      <trkpt lat="45.95322" lon="-1.11159">
        <ele>1</ele>
        <time>2023-07-21T11:22:02.329+00:00</time>
      </trkpt>
      <trkpt lat="45.95341" lon="-1.1116">
        <ele>1</ele>
        <time>2023-07-21T11:22:06.774+00:00</time>
      </trkpt>
      <trkpt lat="45.9536" lon="-1.1116">
        <ele>2</ele>
        <time>2023-07-21T11:22:10.786+00:00</time>
      </trkpt>
      <trkpt lat="45.95378" lon="-1.11159">
        <ele>2</ele>
        <time>2023-07-21T11:22:14.870+00:00</time>
      </trkpt>
      <trkpt lat="45.95397" lon="-1.11157">
        <ele>2</ele>
        <time>2023-07-21T11:22:19.413+00:00</time>
      </trkpt>
      <trkpt lat="45.95414" lon="-1.11157">
        <ele>2</ele>
        <time>2023-07-21T11:22:23.574+00:00</time>
      </trkpt>
      <trkpt lat="45.95432" lon="-1.11157">
        <ele>1</ele>
        <time>2023-07-21T11:22:27.715+00:00</time>
      </trkpt>
      <trkpt lat="45.95449" lon="-1.11159">
        <ele>1</ele>
        <time>2023-07-21T11:22:31.936+00:00</time>
      </trkpt>
      <trkpt lat="45.95468" lon="-1.11158">
        <ele>1</ele>
        <time>2023-07-21T11:22:36.494+00:00</time>
      </trkpt>
      <trkpt lat="45.9548" lon="-1.11144">
        <ele>1</ele>
        <time>2023-07-21T11:22:40.777+00:00</time>
      </trkpt>
      <trkpt lat="45.95484" lon="-1.11125">
        <ele>1</ele>
        <time>2023-07-21T11:22:44.496+00:00</time>
      </trkpt>
      <trkpt lat="45.95483" lon="-1.11097">
        <ele>1</ele>
        <time>2023-07-21T11:22:49.099+00:00</time>
      </trkpt>
      <trkpt lat="45.95484" lon="-1.1107">
        <ele>1</ele>
        <time>2023-07-21T11:22:53.601+00:00</time>
      </trkpt>
      <trkpt lat="45.95486" lon="-1.11037">
        <ele>1</ele>
        <time>2023-07-21T11:22:58.606+00:00</time>
      </trkpt>
      <trkpt lat="45.95486" lon="-1.11009">
        <ele>2</ele>
        <time>2023-07-21T11:23:03.108+00:00</time>
      </trkpt>
      <trkpt lat="45.95485" lon="-1.10986">
        <ele>1</ele>
        <time>2023-07-21T11:23:07.111+00:00</time>
      </trkpt>
      <trkpt lat="45.95481" lon="-1.10958">
        <ele>1</ele>
        <time>2023-07-21T11:23:11.633+00:00</time>
      </trkpt>
      <trkpt lat="45.95477" lon="-1.10933">
        <ele>1</ele>
        <time>2023-07-21T11:23:15.799+00:00</time>
      </trkpt>
      <trkpt lat="45.9547" lon="-1.109">
        <ele>1</ele>
        <time>2023-07-21T11:23:20.774+00:00</time>
      </trkpt>
      <trkpt lat="45.95465" lon="-1.10873">
        <ele>1</ele>
        <time>2023-07-21T11:23:24.778+00:00</time>
      </trkpt>
      <trkpt lat="45.9546" lon="-1.10839">
        <ele>1</ele>
        <time>2023-07-21T11:23:29.779+00:00</time>
      </trkpt>
      <trkpt lat="45.95456" lon="-1.10806">
        <ele>2.4</ele>
        <time>2023-07-21T11:23:34.791+00:00</time>
      </trkpt>
      <trkpt lat="45.95455" lon="-1.1078">
        <ele>2.4</ele>
        <time>2023-07-21T11:23:38.791+00:00</time>
      </trkpt>
      <trkpt lat="45.95451" lon="-1.10746">
        <ele>1</ele>
        <time>2023-07-21T11:23:43.783+00:00</time>
      </trkpt>
      <trkpt lat="45.95447" lon="-1.10724">
        <ele>2</ele>
        <time>2023-07-21T11:23:47.802+00:00</time>
      </trkpt>
      <trkpt lat="45.95441" lon="-1.10691">
        <ele>1</ele>
        <time>2023-07-21T11:23:52.789+00:00</time>
      </trkpt>
      <trkpt lat="45.95435" lon="-1.10661">
        <ele>1</ele>
        <time>2023-07-21T11:24:11.363+00:00</time>
      </trkpt>
      <trkpt lat="45.95437" lon="-1.10655">
        <ele>1</ele>
        <time>2023-07-21T11:24:15.365+00:00</time>
      </trkpt>
      <trkpt lat="45.95431" lon="-1.10638">
        <ele>1</ele>
        <time>2023-07-21T11:24:19.469+00:00</time>
      </trkpt>
      <trkpt lat="45.95429" lon="-1.10612">
        <ele>3.4</ele>
        <time>2023-07-21T11:24:24.474+00:00</time>
      </trkpt>
      <trkpt lat="45.95427" lon="-1.10591">
        <ele>1</ele>
        <time>2023-07-21T11:24:28.477+00:00</time>
      </trkpt>
      <trkpt lat="45.9542" lon="-1.10574">
        <ele>1</ele>
        <time>2023-07-21T11:24:33.479+00:00</time>
      </trkpt>
      <trkpt lat="45.95411" lon="-1.10558">
        <ele>1</ele>
        <time>2023-07-21T11:24:37.330+00:00</time>
      </trkpt>
      <trkpt lat="45.95401" lon="-1.10534">
        <ele>2.1</ele>
        <time>2023-07-21T11:24:42.511+00:00</time>
      </trkpt>
      <trkpt lat="45.95395" lon="-1.10508">
        <ele>1</ele>
        <time>2023-07-21T11:24:47.192+00:00</time>
      </trkpt>
      <trkpt lat="45.95391" lon="-1.10486">
        <ele>1</ele>
        <time>2023-07-21T11:24:51.734+00:00</time>
      </trkpt>
      <trkpt lat="45.95386" lon="-1.10469">
        <ele>1</ele>
        <time>2023-07-21T11:24:55.876+00:00</time>
      </trkpt>
      <trkpt lat="45.95384" lon="-1.10456">
        <ele>1</ele>
        <time>2023-07-21T11:25:00.056+00:00</time>
      </trkpt>
      <trkpt lat="45.95384" lon="-1.10442">
        <ele>1</ele>
        <time>2023-07-21T11:25:04.157+00:00</time>
      </trkpt>
      <trkpt lat="45.95383" lon="-1.10427">
        <ele>1</ele>
        <time>2023-07-21T11:25:08.358+00:00</time>
      </trkpt>
      <trkpt lat="45.95384" lon="-1.1041">
        <ele>1</ele>
        <time>2023-07-21T11:25:12.758+00:00</time>
      </trkpt>
      <trkpt lat="45.95385" lon="-1.10393">
        <ele>1</ele>
        <time>2023-07-21T11:25:16.805+00:00</time>
      </trkpt>
      <trkpt lat="45.95382" lon="-1.10374">
        <ele>1</ele>
        <time>2023-07-21T11:25:21.192+00:00</time>
      </trkpt>
      <trkpt lat="45.95377" lon="-1.10355">
        <ele>1</ele>
        <time>2023-07-21T11:25:25.516+00:00</time>
      </trkpt>
      <trkpt lat="45.95369" lon="-1.10337">
        <ele>1</ele>
        <time>2023-07-21T11:25:30.790+00:00</time>
      </trkpt>
      <trkpt lat="45.95367" lon="-1.10325">
        <ele>1</ele>
        <time>2023-07-21T11:25:35.245+00:00</time>
      </trkpt>
      <trkpt lat="45.95365" lon="-1.10312">
        <ele>1</ele>
        <time>2023-07-21T11:25:38.914+00:00</time>
      </trkpt>
      <trkpt lat="45.95363" lon="-1.10293">
        <ele>1</ele>
        <time>2023-07-21T11:25:43.335+00:00</time>
      </trkpt>
      <trkpt lat="45.95362" lon="-1.10273">
        <ele>1</ele>
        <time>2023-07-21T11:25:48.335+00:00</time>
      </trkpt>
      <trkpt lat="45.95357" lon="-1.10255">
        <ele>1</ele>
        <time>2023-07-21T11:25:52.534+00:00</time>
      </trkpt>
      <trkpt lat="45.95352" lon="-1.10234">
        <ele>1</ele>
        <time>2023-07-21T11:25:57.133+00:00</time>
      </trkpt>
      <trkpt lat="45.95346" lon="-1.10217">
        <ele>-1</ele>
        <time>2023-07-21T11:26:01.512+00:00</time>
      </trkpt>
      <trkpt lat="45.95334" lon="-1.10196">
        <ele>-1</ele>
        <time>2023-07-21T11:26:06.591+00:00</time>
      </trkpt>
      <trkpt lat="45.95325" lon="-1.10179">
        <ele>1</ele>
        <time>2023-07-21T11:26:10.730+00:00</time>
      </trkpt>
      <trkpt lat="45.95316" lon="-1.10163">
        <ele>-1</ele>
        <time>2023-07-21T11:26:14.748+00:00</time>
      </trkpt>
      <trkpt lat="45.95305" lon="-1.10143">
        <ele>1</ele>
        <time>2023-07-21T11:26:19.265+00:00</time>
      </trkpt>
      <trkpt lat="45.95298" lon="-1.10121">
        <ele>1</ele>
        <time>2023-07-21T11:26:24.184+00:00</time>
      </trkpt>
      <trkpt lat="45.95291" lon="-1.101">
        <ele>1</ele>
        <time>2023-07-21T11:26:28.624+00:00</time>
      </trkpt>
      <trkpt lat="45.95284" lon="-1.10078">
        <ele>1</ele>
        <time>2023-07-21T11:26:33.144+00:00</time>
      </trkpt>
      <trkpt lat="45.95276" lon="-1.10057">
        <ele>1</ele>
        <time>2023-07-21T11:26:37.613+00:00</time>
      </trkpt>
      <trkpt lat="45.9527" lon="-1.10036">
        <ele>1</ele>
        <time>2023-07-21T11:26:41.498+00:00</time>
      </trkpt>
      <trkpt lat="45.95263" lon="-1.10013">
        <ele>1</ele>
        <time>2023-07-21T11:26:45.936+00:00</time>
      </trkpt>
      <trkpt lat="45.9526" lon="-1.09993">
        <ele>1</ele>
        <time>2023-07-21T11:26:49.954+00:00</time>
      </trkpt>
      <trkpt lat="45.95254" lon="-1.0997">
        <ele>1</ele>
        <time>2023-07-21T11:26:54.644+00:00</time>
      </trkpt>
      <trkpt lat="45.95248" lon="-1.09951">
        <ele>1</ele>
        <time>2023-07-21T11:26:58.588+00:00</time>
      </trkpt>
      <trkpt lat="45.95242" lon="-1.09933">
        <ele>1</ele>
        <time>2023-07-21T11:27:02.527+00:00</time>
      </trkpt>
      <trkpt lat="45.95237" lon="-1.09914">
        <ele>1</ele>
        <time>2023-07-21T11:27:06.980+00:00</time>
      </trkpt>
      <trkpt lat="45.95232" lon="-1.09897">
        <ele>1</ele>
        <time>2023-07-21T11:27:10.944+00:00</time>
      </trkpt>
      <trkpt lat="45.95227" lon="-1.09877">
        <ele>1</ele>
        <time>2023-07-21T11:27:15.562+00:00</time>
      </trkpt>
      <trkpt lat="45.95222" lon="-1.09861">
        <ele>1</ele>
        <time>2023-07-21T11:27:19.699+00:00</time>
      </trkpt>
      <trkpt lat="45.95215" lon="-1.09842">
        <ele>1</ele>
        <time>2023-07-21T11:27:24.255+00:00</time>
      </trkpt>
      <trkpt lat="45.9521" lon="-1.09824">
        <ele>1</ele>
        <time>2023-07-21T11:27:28.332+00:00</time>
      </trkpt>
      <trkpt lat="45.95202" lon="-1.09806">
        <ele>1</ele>
        <time>2023-07-21T11:27:32.803+00:00</time>
      </trkpt>
      <trkpt lat="45.95194" lon="-1.09787">
        <ele>1</ele>
        <time>2023-07-21T11:27:37.265+00:00</time>
      </trkpt>
      <trkpt lat="45.95186" lon="-1.09768">
        <ele>1</ele>
        <time>2023-07-21T11:27:41.820+00:00</time>
      </trkpt>
      <trkpt lat="45.95177" lon="-1.09747">
        <ele>1</ele>
        <time>2023-07-21T11:27:46.376+00:00</time>
      </trkpt>
      <trkpt lat="45.95171" lon="-1.0973">
        <ele>1</ele>
        <time>2023-07-21T11:27:50.571+00:00</time>
      </trkpt>
      <trkpt lat="45.95164" lon="-1.09711">
        <ele>1</ele>
        <time>2023-07-21T11:27:54.508+00:00</time>
      </trkpt>
      <trkpt lat="45.95156" lon="-1.09693">
        <ele>1</ele>
        <time>2023-07-21T11:27:58.543+00:00</time>
      </trkpt>
      <trkpt lat="45.95146" lon="-1.09672">
        <ele>1</ele>
        <time>2023-07-21T11:28:03.251+00:00</time>
      </trkpt>
      <trkpt lat="45.95135" lon="-1.09654">
        <ele>1</ele>
        <time>2023-07-21T11:28:07.194+00:00</time>
      </trkpt>
      <trkpt lat="45.95126" lon="-1.09636">
        <ele>1</ele>
        <time>2023-07-21T11:28:11.351+00:00</time>
      </trkpt>
      <trkpt lat="45.95115" lon="-1.09616">
        <ele>1</ele>
        <time>2023-07-21T11:28:15.980+00:00</time>
      </trkpt>
      <trkpt lat="45.95106" lon="-1.09598">
        <ele>1</ele>
        <time>2023-07-21T11:28:20.102+00:00</time>
      </trkpt>
      <trkpt lat="45.95097" lon="-1.0958">
        <ele>1</ele>
        <time>2023-07-21T11:28:24.180+00:00</time>
      </trkpt>
      <trkpt lat="45.95086" lon="-1.09564">
        <ele>1</ele>
        <time>2023-07-21T11:28:28.763+00:00</time>
      </trkpt>
      <trkpt lat="45.95077" lon="-1.09548">
        <ele>1</ele>
        <time>2023-07-21T11:28:33.097+00:00</time>
      </trkpt>
      <trkpt lat="45.95068" lon="-1.09531">
        <ele>1</ele>
        <time>2023-07-21T11:28:37.176+00:00</time>
      </trkpt>
      <trkpt lat="45.95055" lon="-1.09517">
        <ele>1</ele>
        <time>2023-07-21T11:28:41.372+00:00</time>
      </trkpt>
      <trkpt lat="45.95041" lon="-1.09506">
        <ele>1</ele>
        <time>2023-07-21T11:28:45.929+00:00</time>
      </trkpt>
      <trkpt lat="45.95027" lon="-1.09491">
        <ele>1</ele>
        <time>2023-07-21T11:28:50.470+00:00</time>
      </trkpt>
      <trkpt lat="45.95012" lon="-1.09479">
        <ele>1</ele>
        <time>2023-07-21T11:28:54.980+00:00</time>
      </trkpt>
      <trkpt lat="45.94999" lon="-1.09465">
        <ele>1</ele>
        <time>2023-07-21T11:28:59.559+00:00</time>
      </trkpt>
      <trkpt lat="45.94984" lon="-1.09456">
        <ele>1</ele>
        <time>2023-07-21T11:29:04.348+00:00</time>
      </trkpt>
      <trkpt lat="45.94969" lon="-1.09453">
        <ele>1</ele>
        <time>2023-07-21T11:29:08.372+00:00</time>
      </trkpt>
      <trkpt lat="45.94957" lon="-1.09456">
        <ele>1</ele>
        <time>2023-07-21T11:29:12.508+00:00</time>
      </trkpt>
      <trkpt lat="45.94947" lon="-1.09465">
        <ele>1.7</ele>
        <time>2023-07-21T11:29:16.465+00:00</time>
      </trkpt>
      <trkpt lat="45.9494" lon="-1.09476">
        <ele>2.3</ele>
        <time>2023-07-21T11:29:20.422+00:00</time>
      </trkpt>
      <trkpt lat="45.94935" lon="-1.09488">
        <ele>2.9</ele>
        <time>2023-07-21T11:29:24.990+00:00</time>
      </trkpt>
      <trkpt lat="45.94931" lon="-1.09499">
        <ele>3.4</ele>
        <time>2023-07-21T11:29:29.188+00:00</time>
      </trkpt>
      <trkpt lat="45.94923" lon="-1.09512">
        <ele>1</ele>
        <time>2023-07-21T11:29:33.368+00:00</time>
      </trkpt>
      <trkpt lat="45.94914" lon="-1.0952">
        <ele>1</ele>
        <time>2023-07-21T11:29:37.403+00:00</time>
      </trkpt>
      <trkpt lat="45.94913" lon="-1.09522">
        <ele>1</ele>
        <time>2023-07-21T11:29:41.358+00:00</time>
      </trkpt>
      <trkpt lat="45.94915" lon="-1.0952">
        <ele>1</ele>
        <time>2023-07-21T11:31:15.790+00:00</time>
      </trkpt>
      <trkpt lat="45.94915" lon="-1.09519">
        <ele>1</ele>
        <time>2023-07-21T11:31:20.303+00:00</time>
      </trkpt>
      <trkpt lat="45.94908" lon="-1.09524">
        <ele>1</ele>
        <time>2023-07-21T11:31:25.317+00:00</time>
      </trkpt>
      <trkpt lat="45.94897" lon="-1.09527">
        <ele>3</ele>
        <time>2023-07-21T11:31:29.322+00:00</time>
      </trkpt>
      <trkpt lat="45.94884" lon="-1.09518">
        <ele>3</ele>
        <time>2023-07-21T11:31:33.325+00:00</time>
      </trkpt>
      <trkpt lat="45.94869" lon="-1.09515">
        <ele>4</ele>
        <time>2023-07-21T11:31:37.829+00:00</time>
      </trkpt>
      <trkpt lat="45.94859" lon="-1.0953">
        <ele>4</ele>
        <time>2023-07-21T11:31:42.332+00:00</time>
      </trkpt>
      <trkpt lat="45.94856" lon="-1.09552">
        <ele>3</ele>
        <time>2023-07-21T11:31:46.337+00:00</time>
      </trkpt>
      <trkpt lat="45.94845" lon="-1.09583">
        <ele>2</ele>
        <time>2023-07-21T11:31:51.807+00:00</time>
      </trkpt>
      <trkpt lat="45.94834" lon="-1.09615">
        <ele>2</ele>
        <time>2023-07-21T11:31:56.812+00:00</time>
      </trkpt>
      <trkpt lat="45.94817" lon="-1.09638">
        <ele>2</ele>
        <time>2023-07-21T11:32:01.817+00:00</time>
      </trkpt>
      <trkpt lat="45.94801" lon="-1.09646">
        <ele>2</ele>
        <time>2023-07-21T11:32:05.959+00:00</time>
      </trkpt>
      <trkpt lat="45.9478" lon="-1.09651">
        <ele>2</ele>
        <time>2023-07-21T11:32:10.812+00:00</time>
      </trkpt>
      <trkpt lat="45.94759" lon="-1.09643">
        <ele>2</ele>
        <time>2023-07-21T11:32:15.079+00:00</time>
      </trkpt>
      <trkpt lat="45.94742" lon="-1.09632">
        <ele>2</ele>
        <time>2023-07-21T11:32:19.518+00:00</time>
      </trkpt>
      <trkpt lat="45.94723" lon="-1.09619">
        <ele>2</ele>
        <time>2023-07-21T11:32:24.514+00:00</time>
      </trkpt>
      <trkpt lat="45.94702" lon="-1.09609">
        <ele>2</ele>
        <time>2023-07-21T11:32:28.573+00:00</time>
      </trkpt>
      <trkpt lat="45.94681" lon="-1.09595">
        <ele>3</ele>
        <time>2023-07-21T11:32:33.732+00:00</time>
      </trkpt>
      <trkpt lat="45.94663" lon="-1.09584">
        <ele>3</ele>
        <time>2023-07-21T11:32:38.509+00:00</time>
      </trkpt>
      <trkpt lat="45.94642" lon="-1.09584">
        <ele>2</ele>
        <time>2023-07-21T11:32:43.147+00:00</time>
      </trkpt>
      <trkpt lat="45.94625" lon="-1.09593">
        <ele>3</ele>
        <time>2023-07-21T11:32:47.383+00:00</time>
      </trkpt>
      <trkpt lat="45.94611" lon="-1.09606">
        <ele>2</ele>
        <time>2023-07-21T11:32:51.501+00:00</time>
      </trkpt>
      <trkpt lat="45.94598" lon="-1.09613">
        <ele>2</ele>
        <time>2023-07-21T11:32:55.578+00:00</time>
      </trkpt>
      <trkpt lat="45.94584" lon="-1.09608">
        <ele>3</ele>
        <time>2023-07-21T11:33:00.252+00:00</time>
      </trkpt>
      <trkpt lat="45.94567" lon="-1.09607">
        <ele>3</ele>
        <time>2023-07-21T11:33:04.755+00:00</time>
      </trkpt>
      <trkpt lat="45.94557" lon="-1.09627">
        <ele>3</ele>
        <time>2023-07-21T11:33:08.843+00:00</time>
      </trkpt>
      <trkpt lat="45.94548" lon="-1.09653">
        <ele>3</ele>
        <time>2023-07-21T11:33:13.609+00:00</time>
      </trkpt>
      <trkpt lat="45.94532" lon="-1.09676">
        <ele>3</ele>
        <time>2023-07-21T11:33:18.726+00:00</time>
      </trkpt>
      <trkpt lat="45.94515" lon="-1.09694">
        <ele>2</ele>
        <time>2023-07-21T11:33:23.343+00:00</time>
      </trkpt>
      <trkpt lat="45.94495" lon="-1.09705">
        <ele>2</ele>
        <time>2023-07-21T11:33:28.799+00:00</time>
      </trkpt>
      <trkpt lat="45.94478" lon="-1.09712">
        <ele>2</ele>
        <time>2023-07-21T11:33:32.812+00:00</time>
      </trkpt>
      <trkpt lat="45.94461" lon="-1.0972">
        <ele>2</ele>
        <time>2023-07-21T11:33:37.812+00:00</time>
      </trkpt>
      <trkpt lat="45.94448" lon="-1.09727">
        <ele>2</ele>
        <time>2023-07-21T11:33:42.808+00:00</time>
      </trkpt>
      <trkpt lat="45.94435" lon="-1.09732">
        <ele>2</ele>
        <time>2023-07-21T11:33:47.799+00:00</time>
      </trkpt>
      <trkpt lat="45.94416" lon="-1.09741">
        <ele>2</ele>
        <time>2023-07-21T11:33:51.817+00:00</time>
      </trkpt>
      <trkpt lat="45.94396" lon="-1.09748">
        <ele>4</ele>
        <time>2023-07-21T11:33:55.823+00:00</time>
      </trkpt>
      <trkpt lat="45.94378" lon="-1.09755">
        <ele>4</ele>
        <time>2023-07-21T11:34:00.820+00:00</time>
      </trkpt>
      <trkpt lat="45.9436" lon="-1.09762">
        <ele>6</ele>
        <time>2023-07-21T11:34:05.819+00:00</time>
      </trkpt>
      <trkpt lat="45.94347" lon="-1.0977">
        <ele>5</ele>
        <time>2023-07-21T11:34:10.811+00:00</time>
      </trkpt>
      <trkpt lat="45.94337" lon="-1.09777">
        <ele>5</ele>
        <time>2023-07-21T11:34:15.804+00:00</time>
      </trkpt>
      <trkpt lat="45.94329" lon="-1.09776">
        <ele>5</ele>
        <time>2023-07-21T11:34:20.806+00:00</time>
      </trkpt>
      <trkpt lat="45.94328" lon="-1.09776">
        <ele>5</ele>
        <time>2023-07-21T11:34:25.316+00:00</time>
      </trkpt>
      <trkpt lat="45.94329" lon="-1.09775">
        <ele>5</ele>
        <time>2023-07-21T11:34:29.787+00:00</time>
      </trkpt>
      <trkpt lat="45.94329" lon="-1.09775">
        <ele>5</ele>
        <time>2023-07-21T11:34:32.535+00:00</time>
      </trkpt>
      <trkpt lat="45.94324" lon="-1.09782">
        <ele>5</ele>
        <time>2023-07-21T11:34:38.555+00:00</time>
      </trkpt>
      <trkpt lat="45.94302" lon="-1.09791">
        <ele>4</ele>
        <time>2023-07-21T11:34:43.572+00:00</time>
      </trkpt>
      <trkpt lat="45.94307" lon="-1.09783">
        <ele>4</ele>
        <time>2023-07-21T11:34:47.582+00:00</time>
      </trkpt>
      <trkpt lat="45.94315" lon="-1.09777">
        <ele>4</ele>
        <time>2023-07-21T11:34:52.086+00:00</time>
      </trkpt>
      <trkpt lat="45.9432" lon="-1.09779">
        <ele>5</ele>
        <time>2023-07-21T11:34:56.306+00:00</time>
      </trkpt>
      <trkpt lat="45.94326" lon="-1.09777">
        <ele>5</ele>
        <time>2023-07-21T11:35:00.783+00:00</time>
      </trkpt>
      <trkpt lat="45.9432" lon="-1.09754">
        <ele>7</ele>
        <time>2023-07-21T11:35:05.585+00:00</time>
      </trkpt>
      <trkpt lat="45.94308" lon="-1.09735">
        <ele>7</ele>
        <time>2023-07-21T11:35:10.696+00:00</time>
      </trkpt>
      <trkpt lat="45.94299" lon="-1.0972">
        <ele>7</ele>
        <time>2023-07-21T11:35:14.706+00:00</time>
      </trkpt>
      <trkpt lat="45.9429" lon="-1.09699">
        <ele>5</ele>
        <time>2023-07-21T11:35:18.786+00:00</time>
      </trkpt>
      <trkpt lat="45.94277" lon="-1.09672">
        <ele>6</ele>
        <time>2023-07-21T11:35:23.299+00:00</time>
      </trkpt>
      <trkpt lat="45.9427" lon="-1.09643">
        <ele>9</ele>
        <time>2023-07-21T11:35:28.308+00:00</time>
      </trkpt>
      <trkpt lat="45.94265" lon="-1.09617">
        <ele>11</ele>
        <time>2023-07-21T11:35:32.324+00:00</time>
      </trkpt>
      <trkpt lat="45.94262" lon="-1.09588">
        <ele>10</ele>
        <time>2023-07-21T11:35:37.347+00:00</time>
      </trkpt>
      <trkpt lat="45.94258" lon="-1.09567">
        <ele>12</ele>
        <time>2023-07-21T11:35:41.450+00:00</time>
      </trkpt>
      <trkpt lat="45.94252" lon="-1.09538">
        <ele>14</ele>
        <time>2023-07-21T11:35:46.453+00:00</time>
      </trkpt>
      <trkpt lat="45.94247" lon="-1.09515">
        <ele>14</ele>
        <time>2023-07-21T11:35:50.336+00:00</time>
      </trkpt>
      <trkpt lat="45.94237" lon="-1.09482">
        <ele>13</ele>
        <time>2023-07-21T11:35:55.803+00:00</time>
      </trkpt>
      <trkpt lat="45.9423" lon="-1.09456">
        <ele>10</ele>
        <time>2023-07-21T11:35:59.819+00:00</time>
      </trkpt>
      <trkpt lat="45.9422" lon="-1.09423">
        <ele>11</ele>
        <time>2023-07-21T11:36:04.795+00:00</time>
      </trkpt>
      <trkpt lat="45.94211" lon="-1.09392">
        <ele>12</ele>
        <time>2023-07-21T11:36:08.799+00:00</time>
      </trkpt>
      <trkpt lat="45.94203" lon="-1.09353">
        <ele>7</ele>
        <time>2023-07-21T11:36:12.822+00:00</time>
      </trkpt>
      <trkpt lat="45.94197" lon="-1.09302">
        <ele>9</ele>
        <time>2023-07-21T11:36:17.821+00:00</time>
      </trkpt>
      <trkpt lat="45.94191" lon="-1.09249">
        <ele>10</ele>
        <time>2023-07-21T11:36:22.808+00:00</time>
      </trkpt>
      <trkpt lat="45.94177" lon="-1.092">
        <ele>6</ele>
        <time>2023-07-21T11:36:27.807+00:00</time>
      </trkpt>
      <trkpt lat="45.94165" lon="-1.09165">
        <ele>6</ele>
        <time>2023-07-21T11:36:31.819+00:00</time>
      </trkpt>
      <trkpt lat="45.94153" lon="-1.09122">
        <ele>6</ele>
        <time>2023-07-21T11:36:36.811+00:00</time>
      </trkpt>
      <trkpt lat="45.94141" lon="-1.0908">
        <ele>6</ele>
        <time>2023-07-21T11:36:41.800+00:00</time>
      </trkpt>
      <trkpt lat="45.94133" lon="-1.09049">
        <ele>6</ele>
        <time>2023-07-21T11:36:45.800+00:00</time>
      </trkpt>
      <trkpt lat="45.94123" lon="-1.09012">
        <ele>4</ele>
        <time>2023-07-21T11:36:50.795+00:00</time>
      </trkpt>
      <trkpt lat="45.94111" lon="-1.08977">
        <ele>5</ele>
        <time>2023-07-21T11:36:55.801+00:00</time>
      </trkpt>
      <trkpt lat="45.941" lon="-1.08947">
        <ele>6</ele>
        <time>2023-07-21T11:37:00.790+00:00</time>
      </trkpt>
      <trkpt lat="45.94088" lon="-1.08916">
        <ele>4</ele>
        <time>2023-07-21T11:37:05.824+00:00</time>
      </trkpt>
      <trkpt lat="45.94077" lon="-1.08886">
        <ele>5</ele>
        <time>2023-07-21T11:37:10.801+00:00</time>
      </trkpt>
      <trkpt lat="45.94067" lon="-1.08862">
        <ele>5</ele>
        <time>2023-07-21T11:37:14.815+00:00</time>
      </trkpt>
      <trkpt lat="45.94056" lon="-1.08831">
        <ele>6</ele>
        <time>2023-07-21T11:37:19.810+00:00</time>
      </trkpt>
      <trkpt lat="45.94046" lon="-1.08799">
        <ele>7</ele>
        <time>2023-07-21T11:37:24.791+00:00</time>
      </trkpt>
      <trkpt lat="45.94037" lon="-1.08767">
        <ele>8</ele>
        <time>2023-07-21T11:37:29.781+00:00</time>
      </trkpt>
      <trkpt lat="45.9403" lon="-1.08742">
        <ele>9</ele>
        <time>2023-07-21T11:37:33.772+00:00</time>
      </trkpt>
      <trkpt lat="45.94021" lon="-1.08713">
        <ele>9</ele>
        <time>2023-07-21T11:37:38.805+00:00</time>
      </trkpt>
      <trkpt lat="45.94011" lon="-1.0868">
        <ele>8</ele>
        <time>2023-07-21T11:37:43.799+00:00</time>
      </trkpt>
      <trkpt lat="45.94005" lon="-1.08651">
        <ele>8</ele>
        <time>2023-07-21T11:37:47.803+00:00</time>
      </trkpt>
      <trkpt lat="45.93997" lon="-1.08615">
        <ele>9</ele>
        <time>2023-07-21T11:37:52.795+00:00</time>
      </trkpt>
      <trkpt lat="45.93989" lon="-1.08584">
        <ele>9</ele>
        <time>2023-07-21T11:37:56.802+00:00</time>
      </trkpt>
      <trkpt lat="45.93982" lon="-1.08552">
        <ele>8</ele>
        <time>2023-07-21T11:38:00.809+00:00</time>
      </trkpt>
      <trkpt lat="45.93973" lon="-1.08515">
        <ele>8</ele>
        <time>2023-07-21T11:38:05.782+00:00</time>
      </trkpt>
      <trkpt lat="45.93966" lon="-1.08478">
        <ele>8</ele>
        <time>2023-07-21T11:38:10.795+00:00</time>
      </trkpt>
      <trkpt lat="45.9396" lon="-1.08442">
        <ele>9</ele>
        <time>2023-07-21T11:38:15.795+00:00</time>
      </trkpt>
      <trkpt lat="45.93954" lon="-1.08414">
        <ele>9</ele>
        <time>2023-07-21T11:38:19.788+00:00</time>
      </trkpt>
      <trkpt lat="45.93949" lon="-1.08381">
        <ele>9</ele>
        <time>2023-07-21T11:38:24.787+00:00</time>
      </trkpt>
      <trkpt lat="45.93946" lon="-1.08347">
        <ele>9</ele>
        <time>2023-07-21T11:38:29.778+00:00</time>
      </trkpt>
      <trkpt lat="45.93947" lon="-1.08319">
        <ele>8</ele>
        <time>2023-07-21T11:38:33.806+00:00</time>
      </trkpt>
      <trkpt lat="45.93949" lon="-1.08284">
        <ele>7</ele>
        <time>2023-07-21T11:38:38.806+00:00</time>
      </trkpt>
      <trkpt lat="45.93947" lon="-1.08247">
        <ele>7</ele>
        <time>2023-07-21T11:38:43.801+00:00</time>
      </trkpt>
      <trkpt lat="45.93946" lon="-1.08209">
        <ele>7</ele>
        <time>2023-07-21T11:38:48.795+00:00</time>
      </trkpt>
      <trkpt lat="45.93944" lon="-1.08178">
        <ele>7</ele>
        <time>2023-07-21T11:38:52.811+00:00</time>
      </trkpt>
      <trkpt lat="45.93942" lon="-1.08141">
        <ele>6</ele>
        <time>2023-07-21T11:38:57.786+00:00</time>
      </trkpt>
      <trkpt lat="45.93937" lon="-1.08111">
        <ele>6</ele>
        <time>2023-07-21T11:39:01.786+00:00</time>
      </trkpt>
      <trkpt lat="45.93932" lon="-1.08084">
        <ele>6</ele>
        <time>2023-07-21T11:39:05.797+00:00</time>
      </trkpt>
      <trkpt lat="45.93926" lon="-1.08057">
        <ele>6</ele>
        <time>2023-07-21T11:39:09.813+00:00</time>
      </trkpt>
      <trkpt lat="45.93919" lon="-1.08023">
        <ele>7</ele>
        <time>2023-07-21T11:39:14.788+00:00</time>
      </trkpt>
      <trkpt lat="45.93913" lon="-1.07995">
        <ele>7</ele>
        <time>2023-07-21T11:39:18.806+00:00</time>
      </trkpt>
      <trkpt lat="45.93906" lon="-1.07959">
        <ele>8</ele>
        <time>2023-07-21T11:39:23.790+00:00</time>
      </trkpt>
      <trkpt lat="45.93901" lon="-1.07923">
        <ele>7</ele>
        <time>2023-07-21T11:39:28.800+00:00</time>
      </trkpt>
      <trkpt lat="45.93894" lon="-1.07887">
        <ele>7</ele>
        <time>2023-07-21T11:39:33.811+00:00</time>
      </trkpt>
      <trkpt lat="45.93886" lon="-1.07852">
        <ele>7</ele>
        <time>2023-07-21T11:39:38.804+00:00</time>
      </trkpt>
      <trkpt lat="45.93877" lon="-1.07813">
        <ele>6</ele>
        <time>2023-07-21T11:39:43.812+00:00</time>
      </trkpt>
      <trkpt lat="45.93866" lon="-1.07769">
        <ele>5</ele>
        <time>2023-07-21T11:39:48.809+00:00</time>
      </trkpt>
      <trkpt lat="45.93856" lon="-1.07722">
        <ele>4</ele>
        <time>2023-07-21T11:39:53.808+00:00</time>
      </trkpt>
      <trkpt lat="45.93851" lon="-1.07672">
        <ele>4</ele>
        <time>2023-07-21T11:39:58.786+00:00</time>
      </trkpt>
      <trkpt lat="45.93849" lon="-1.07634">
        <ele>4</ele>
        <time>2023-07-21T11:40:02.793+00:00</time>
      </trkpt>
      <trkpt lat="45.9385" lon="-1.07596">
        <ele>5</ele>
        <time>2023-07-21T11:40:06.804+00:00</time>
      </trkpt>
      <trkpt lat="45.93848" lon="-1.07549">
        <ele>5</ele>
        <time>2023-07-21T11:40:11.785+00:00</time>
      </trkpt>
      <trkpt lat="45.9384" lon="-1.07515">
        <ele>5</ele>
        <time>2023-07-21T11:40:15.788+00:00</time>
      </trkpt>
      <trkpt lat="45.93826" lon="-1.0749">
        <ele>4</ele>
        <time>2023-07-21T11:40:19.810+00:00</time>
      </trkpt>
      <trkpt lat="45.93809" lon="-1.07464">
        <ele>5</ele>
        <time>2023-07-21T11:40:24.796+00:00</time>
      </trkpt>
      <trkpt lat="45.93797" lon="-1.07437">
        <ele>5</ele>
        <time>2023-07-21T11:40:29.792+00:00</time>
      </trkpt>
      <trkpt lat="45.93793" lon="-1.07413">
        <ele>5</ele>
        <time>2023-07-21T11:40:33.798+00:00</time>
      </trkpt>
      <trkpt lat="45.93785" lon="-1.0739">
        <ele>5</ele>
        <time>2023-07-21T11:40:38.529+00:00</time>
      </trkpt>
      <trkpt lat="45.93777" lon="-1.07361">
        <ele>5</ele>
        <time>2023-07-21T11:40:43.667+00:00</time>
      </trkpt>
      <trkpt lat="45.93773" lon="-1.07335">
        <ele>6</ele>
        <time>2023-07-21T11:40:48.325+00:00</time>
      </trkpt>
      <trkpt lat="45.93766" lon="-1.07312">
        <ele>6</ele>
        <time>2023-07-21T11:40:52.304+00:00</time>
      </trkpt>
      <trkpt lat="45.9376" lon="-1.07287">
        <ele>7</ele>
        <time>2023-07-21T11:40:56.796+00:00</time>
      </trkpt>
      <trkpt lat="45.93755" lon="-1.07267">
        <ele>7</ele>
        <time>2023-07-21T11:41:00.721+00:00</time>
      </trkpt>
      <trkpt lat="45.93749" lon="-1.07246">
        <ele>8</ele>
        <time>2023-07-21T11:41:04.798+00:00</time>
      </trkpt>
      <trkpt lat="45.93743" lon="-1.0723">
        <ele>9</ele>
        <time>2023-07-21T11:41:08.801+00:00</time>
      </trkpt>
      <trkpt lat="45.93748" lon="-1.07221">
        <ele>9</ele>
        <time>2023-07-21T11:42:45.390+00:00</time>
      </trkpt>
      <trkpt lat="45.93751" lon="-1.07235">
        <ele>9</ele>
        <time>2023-07-21T11:42:49.449+00:00</time>
      </trkpt>
      <trkpt lat="45.93756" lon="-1.07258">
        <ele>8</ele>
        <time>2023-07-21T11:42:53.528+00:00</time>
      </trkpt>
      <trkpt lat="45.93764" lon="-1.07293">
        <ele>7</ele>
        <time>2023-07-21T11:42:58.798+00:00</time>
      </trkpt>
      <trkpt lat="45.93773" lon="-1.07328">
        <ele>6</ele>
        <time>2023-07-21T11:43:03.815+00:00</time>
      </trkpt>
      <trkpt lat="45.93781" lon="-1.07361">
        <ele>5</ele>
        <time>2023-07-21T11:43:08.806+00:00</time>
      </trkpt>
      <trkpt lat="45.93789" lon="-1.07394">
        <ele>5</ele>
        <time>2023-07-21T11:43:13.804+00:00</time>
      </trkpt>
      <trkpt lat="45.93796" lon="-1.0742">
        <ele>5</ele>
        <time>2023-07-21T11:43:17.811+00:00</time>
      </trkpt>
      <trkpt lat="45.93805" lon="-1.07448">
        <ele>5</ele>
        <time>2023-07-21T11:43:21.817+00:00</time>
      </trkpt>
      <trkpt lat="45.93818" lon="-1.07476">
        <ele>5</ele>
        <time>2023-07-21T11:43:25.804+00:00</time>
      </trkpt>
      <trkpt lat="45.93835" lon="-1.07504">
        <ele>4</ele>
        <time>2023-07-21T11:43:30.803+00:00</time>
      </trkpt>
      <trkpt lat="45.93846" lon="-1.07538">
        <ele>5</ele>
        <time>2023-07-21T11:43:35.809+00:00</time>
      </trkpt>
      <trkpt lat="45.93849" lon="-1.07575">
        <ele>5</ele>
        <time>2023-07-21T11:43:40.789+00:00</time>
      </trkpt>
      <trkpt lat="45.93851" lon="-1.07603">
        <ele>4</ele>
        <time>2023-07-21T11:43:44.802+00:00</time>
      </trkpt>
      <trkpt lat="45.93852" lon="-1.07628">
        <ele>4</ele>
        <time>2023-07-21T11:43:48.814+00:00</time>
      </trkpt>
      <trkpt lat="45.93855" lon="-1.07659">
        <ele>4</ele>
        <time>2023-07-21T11:43:53.781+00:00</time>
      </trkpt>
      <trkpt lat="45.93856" lon="-1.07677">
        <ele>4</ele>
        <time>2023-07-21T11:43:57.792+00:00</time>
      </trkpt>
      <trkpt lat="45.93847" lon="-1.07674">
        <ele>3</ele>
        <time>2023-07-21T11:44:16.783+00:00</time>
      </trkpt>
      <trkpt lat="45.93847" lon="-1.07674">
        <ele>3</ele>
        <time>2023-07-21T11:44:20.799+00:00</time>
      </trkpt>
      <trkpt lat="45.93845" lon="-1.07671">
        <ele>3</ele>
        <time>2023-07-21T11:44:24.797+00:00</time>
      </trkpt>
      <trkpt lat="45.93832" lon="-1.07664">
        <ele>3</ele>
        <time>2023-07-21T11:44:29.771+00:00</time>
      </trkpt>
      <trkpt lat="45.93819" lon="-1.07665">
        <ele>2</ele>
        <time>2023-07-21T11:44:33.812+00:00</time>
      </trkpt>
      <trkpt lat="45.93796" lon="-1.07669">
        <ele>2</ele>
        <time>2023-07-21T11:44:38.802+00:00</time>
      </trkpt>
      <trkpt lat="45.93772" lon="-1.0768">
        <ele>2</ele>
        <time>2023-07-21T11:44:43.800+00:00</time>
      </trkpt>
      <trkpt lat="45.93755" lon="-1.07691">
        <ele>2</ele>
        <time>2023-07-21T11:44:48.790+00:00</time>
      </trkpt>
      <trkpt lat="45.93742" lon="-1.07696">
        <ele>2</ele>
        <time>2023-07-21T11:44:53.812+00:00</time>
      </trkpt>
      <trkpt lat="45.93723" lon="-1.07699">
        <ele>3</ele>
        <time>2023-07-21T11:44:58.798+00:00</time>
      </trkpt>
      <trkpt lat="45.93703" lon="-1.07696">
        <ele>3</ele>
        <time>2023-07-21T11:45:03.799+00:00</time>
      </trkpt>
      <trkpt lat="45.93681" lon="-1.07689">
        <ele>3</ele>
        <time>2023-07-21T11:45:08.800+00:00</time>
      </trkpt>
      <trkpt lat="45.93657" lon="-1.07679">
        <ele>2</ele>
        <time>2023-07-21T11:45:13.805+00:00</time>
      </trkpt>
      <trkpt lat="45.93639" lon="-1.07673">
        <ele>3</ele>
        <time>2023-07-21T11:45:17.791+00:00</time>
      </trkpt>
      <trkpt lat="45.93619" lon="-1.07668">
        <ele>2</ele>
        <time>2023-07-21T11:45:22.797+00:00</time>
      </trkpt>
      <trkpt lat="45.93595" lon="-1.07659">
        <ele>1</ele>
        <time>2023-07-21T11:45:27.779+00:00</time>
      </trkpt>
      <trkpt lat="45.93577" lon="-1.07653">
        <ele>1</ele>
        <time>2023-07-21T11:45:31.807+00:00</time>
      </trkpt>
      <trkpt lat="45.93558" lon="-1.07647">
        <ele>3</ele>
        <time>2023-07-21T11:45:36.349+00:00</time>
      </trkpt>
      <trkpt lat="45.93539" lon="-1.07641">
        <ele>4</ele>
        <time>2023-07-21T11:45:40.367+00:00</time>
      </trkpt>
      <trkpt lat="45.93516" lon="-1.07635">
        <ele>4</ele>
        <time>2023-07-21T11:45:45.791+00:00</time>
      </trkpt>
      <trkpt lat="45.93496" lon="-1.07629">
        <ele>4</ele>
        <time>2023-07-21T11:45:49.795+00:00</time>
      </trkpt>
      <trkpt lat="45.93472" lon="-1.0762">
        <ele>2</ele>
        <time>2023-07-21T11:45:54.805+00:00</time>
      </trkpt>
      <trkpt lat="45.93451" lon="-1.07614">
        <ele>3</ele>
        <time>2023-07-21T11:45:59.812+00:00</time>
      </trkpt>
      <trkpt lat="45.93431" lon="-1.07607">
        <ele>3</ele>
        <time>2023-07-21T11:46:04.782+00:00</time>
      </trkpt>
      <trkpt lat="45.93417" lon="-1.07598">
        <ele>3</ele>
        <time>2023-07-21T11:46:09.776+00:00</time>
      </trkpt>
      <trkpt lat="45.9341" lon="-1.07575">
        <ele>2</ele>
        <time>2023-07-21T11:46:36.782+00:00</time>
      </trkpt>
      <trkpt lat="45.93409" lon="-1.07566">
        <ele>2</ele>
        <time>2023-07-21T11:46:41.776+00:00</time>
      </trkpt>
      <trkpt lat="45.93405" lon="-1.0755">
        <ele>2</ele>
        <time>2023-07-21T11:46:45.678+00:00</time>
      </trkpt>
      <trkpt lat="45.93403" lon="-1.07524">
        <ele>2</ele>
        <time>2023-07-21T11:46:49.784+00:00</time>
      </trkpt>
      <trkpt lat="45.93396" lon="-1.07497">
        <ele>2</ele>
        <time>2023-07-21T11:46:53.812+00:00</time>
      </trkpt>
      <trkpt lat="45.93384" lon="-1.07468">
        <ele>2</ele>
        <time>2023-07-21T11:46:58.806+00:00</time>
      </trkpt>
      <trkpt lat="45.93374" lon="-1.07445">
        <ele>2</ele>
        <time>2023-07-21T11:47:02.806+00:00</time>
      </trkpt>
      <trkpt lat="45.93362" lon="-1.07415">
        <ele>1</ele>
        <time>2023-07-21T11:47:07.807+00:00</time>
      </trkpt>
      <trkpt lat="45.93349" lon="-1.07386">
        <ele>1</ele>
        <time>2023-07-21T11:47:12.799+00:00</time>
      </trkpt>
      <trkpt lat="45.93334" lon="-1.07358">
        <ele>3.9</ele>
        <time>2023-07-21T11:47:17.788+00:00</time>
      </trkpt>
      <trkpt lat="45.9332" lon="-1.07337">
        <ele>3.5</ele>
        <time>2023-07-21T11:47:21.808+00:00</time>
      </trkpt>
      <trkpt lat="45.93298" lon="-1.0732">
        <ele>3.5</ele>
        <time>2023-07-21T11:47:26.812+00:00</time>
      </trkpt>
      <trkpt lat="45.93274" lon="-1.07311">
        <ele>3.8</ele>
        <time>2023-07-21T11:47:31.810+00:00</time>
      </trkpt>
      <trkpt lat="45.9325" lon="-1.07304">
        <ele>3.9</ele>
        <time>2023-07-21T11:47:36.806+00:00</time>
      </trkpt>
      <trkpt lat="45.93227" lon="-1.07299">
        <ele>3.7</ele>
        <time>2023-07-21T11:47:41.798+00:00</time>
      </trkpt>
      <trkpt lat="45.93202" lon="-1.07293">
        <ele>-1</ele>
        <time>2023-07-21T11:47:46.801+00:00</time>
      </trkpt>
      <trkpt lat="45.93182" lon="-1.07289">
        <ele>-1</ele>
        <time>2023-07-21T11:47:50.809+00:00</time>
      </trkpt>
      <trkpt lat="45.93163" lon="-1.07283">
        <ele>3.8</ele>
        <time>2023-07-21T11:47:54.803+00:00</time>
      </trkpt>
      <trkpt lat="45.93142" lon="-1.07277">
        <ele>4</ele>
        <time>2023-07-21T11:47:58.794+00:00</time>
      </trkpt>
      <trkpt lat="45.93117" lon="-1.07271">
        <ele>3.8</ele>
        <time>2023-07-21T11:48:03.821+00:00</time>
      </trkpt>
      <trkpt lat="45.93092" lon="-1.07264">
        <ele>3.9</ele>
        <time>2023-07-21T11:48:08.801+00:00</time>
      </trkpt>
      <trkpt lat="45.93071" lon="-1.07257">
        <ele>4</ele>
        <time>2023-07-21T11:48:12.789+00:00</time>
      </trkpt>
      <trkpt lat="45.9305" lon="-1.07254">
        <ele>1</ele>
        <time>2023-07-21T11:48:16.813+00:00</time>
      </trkpt>
      <trkpt lat="45.93025" lon="-1.07246">
        <ele>1</ele>
        <time>2023-07-21T11:48:21.792+00:00</time>
      </trkpt>
      <trkpt lat="45.93005" lon="-1.07241">
        <ele>3</ele>
        <time>2023-07-21T11:48:25.826+00:00</time>
      </trkpt>
      <trkpt lat="45.9298" lon="-1.07235">
        <ele>3</ele>
        <time>2023-07-21T11:48:30.801+00:00</time>
      </trkpt>
      <trkpt lat="45.92962" lon="-1.07229">
        <ele>3</ele>
        <time>2023-07-21T11:48:34.789+00:00</time>
      </trkpt>
      <trkpt lat="45.92944" lon="-1.07225">
        <ele>2</ele>
        <time>2023-07-21T11:48:38.813+00:00</time>
      </trkpt>
      <trkpt lat="45.92925" lon="-1.0722">
        <ele>2</ele>
        <time>2023-07-21T11:48:43.806+00:00</time>
      </trkpt>
      <trkpt lat="45.9291" lon="-1.07214">
        <ele>2</ele>
        <time>2023-07-21T11:48:47.810+00:00</time>
      </trkpt>
      <trkpt lat="45.9289" lon="-1.07212">
        <ele>3</ele>
        <time>2023-07-21T11:48:52.811+00:00</time>
      </trkpt>
      <trkpt lat="45.92872" lon="-1.07207">
        <ele>3</ele>
        <time>2023-07-21T11:48:56.813+00:00</time>
      </trkpt>
      <trkpt lat="45.92849" lon="-1.07201">
        <ele>3</ele>
        <time>2023-07-21T11:49:01.790+00:00</time>
      </trkpt>
      <trkpt lat="45.92829" lon="-1.07197">
        <ele>3</ele>
        <time>2023-07-21T11:49:05.801+00:00</time>
      </trkpt>
      <trkpt lat="45.9281" lon="-1.07192">
        <ele>2</ele>
        <time>2023-07-21T11:49:09.812+00:00</time>
      </trkpt>
      <trkpt lat="45.9279" lon="-1.07186">
        <ele>2</ele>
        <time>2023-07-21T11:49:13.806+00:00</time>
      </trkpt>
      <trkpt lat="45.92765" lon="-1.07179">
        <ele>2</ele>
        <time>2023-07-21T11:49:18.801+00:00</time>
      </trkpt>
      <trkpt lat="45.92739" lon="-1.07172">
        <ele>3</ele>
        <time>2023-07-21T11:49:23.799+00:00</time>
      </trkpt>
      <trkpt lat="45.92715" lon="-1.07166">
        <ele>4</ele>
        <time>2023-07-21T11:49:28.778+00:00</time>
      </trkpt>
      <trkpt lat="45.92696" lon="-1.07159">
        <ele>3</ele>
        <time>2023-07-21T11:49:32.808+00:00</time>
      </trkpt>
      <trkpt lat="45.92672" lon="-1.07153">
        <ele>3</ele>
        <time>2023-07-21T11:49:37.805+00:00</time>
      </trkpt>
      <trkpt lat="45.92649" lon="-1.07148">
        <ele>1</ele>
        <time>2023-07-21T11:49:42.798+00:00</time>
      </trkpt>
      <trkpt lat="45.92625" lon="-1.07139">
        <ele>1</ele>
        <time>2023-07-21T11:49:47.786+00:00</time>
      </trkpt>
      <trkpt lat="45.92606" lon="-1.07135">
        <ele>1</ele>
        <time>2023-07-21T11:49:51.817+00:00</time>
      </trkpt>
      <trkpt lat="45.92581" lon="-1.07128">
        <ele>2</ele>
        <time>2023-07-21T11:49:56.811+00:00</time>
      </trkpt>
      <trkpt lat="45.92563" lon="-1.07126">
        <ele>2</ele>
        <time>2023-07-21T11:50:00.810+00:00</time>
      </trkpt>
      <trkpt lat="45.92542" lon="-1.07125">
        <ele>2</ele>
        <time>2023-07-21T11:50:05.801+00:00</time>
      </trkpt>
      <trkpt lat="45.92525" lon="-1.07124">
        <ele>2</ele>
        <time>2023-07-21T11:50:10.061+00:00</time>
      </trkpt>
      <trkpt lat="45.92505" lon="-1.07124">
        <ele>1</ele>
        <time>2023-07-21T11:50:14.616+00:00</time>
      </trkpt>
      <trkpt lat="45.92486" lon="-1.07124">
        <ele>1</ele>
        <time>2023-07-21T11:50:19.292+00:00</time>
      </trkpt>
      <trkpt lat="45.92468" lon="-1.07124">
        <ele>1</ele>
        <time>2023-07-21T11:50:23.572+00:00</time>
      </trkpt>
      <trkpt lat="45.92448" lon="-1.07126">
        <ele>3.5</ele>
        <time>2023-07-21T11:50:28.590+00:00</time>
      </trkpt>
      <trkpt lat="45.92428" lon="-1.07125">
        <ele>3.5</ele>
        <time>2023-07-21T11:50:33.169+00:00</time>
      </trkpt>
      <trkpt lat="45.9241" lon="-1.07124">
        <ele>1</ele>
        <time>2023-07-21T11:50:37.211+00:00</time>
      </trkpt>
      <trkpt lat="45.92392" lon="-1.07124">
        <ele>1</ele>
        <time>2023-07-21T11:50:41.290+00:00</time>
      </trkpt>
      <trkpt lat="45.92375" lon="-1.07124">
        <ele>1</ele>
        <time>2023-07-21T11:50:45.328+00:00</time>
      </trkpt>
      <trkpt lat="45.92356" lon="-1.07128">
        <ele>1</ele>
        <time>2023-07-21T11:50:50.347+00:00</time>
      </trkpt>
      <trkpt lat="45.9234" lon="-1.07126">
        <ele>3.5</ele>
        <time>2023-07-21T11:50:54.807+00:00</time>
      </trkpt>
      <trkpt lat="45.92323" lon="-1.07128">
        <ele>3.6</ele>
        <time>2023-07-21T11:50:59.426+00:00</time>
      </trkpt>
      <trkpt lat="45.9231" lon="-1.07129">
        <ele>-1</ele>
        <time>2023-07-21T11:51:03.485+00:00</time>
      </trkpt>
      <trkpt lat="45.92295" lon="-1.0713">
        <ele>-1</ele>
        <time>2023-07-21T11:51:08.565+00:00</time>
      </trkpt>
      <trkpt lat="45.92277" lon="-1.07128">
        <ele>-2</ele>
        <time>2023-07-21T11:51:12.664+00:00</time>
      </trkpt>
      <trkpt lat="45.92257" lon="-1.07126">
        <ele>3.2</ele>
        <time>2023-07-21T11:51:17.804+00:00</time>
      </trkpt>
      <trkpt lat="45.92243" lon="-1.07127">
        <ele>3</ele>
        <time>2023-07-21T11:51:22.626+00:00</time>
      </trkpt>
      <trkpt lat="45.92242" lon="-1.07127">
        <ele>3</ele>
        <time>2023-07-21T11:51:27.686+00:00</time>
      </trkpt>
      <trkpt lat="45.92243" lon="-1.07127">
        <ele>3</ele>
        <time>2023-07-21T11:51:51.775+00:00</time>
      </trkpt>
      <trkpt lat="45.92229" lon="-1.07128">
        <ele>1</ele>
        <time>2023-07-21T11:51:56.686+00:00</time>
      </trkpt>
      <trkpt lat="45.92216" lon="-1.0713">
        <ele>1</ele>
        <time>2023-07-21T11:52:00.689+00:00</time>
      </trkpt>
      <trkpt lat="45.92199" lon="-1.07144">
        <ele>1</ele>
        <time>2023-07-21T11:52:05.211+00:00</time>
      </trkpt>
      <trkpt lat="45.92188" lon="-1.07163">
        <ele>1</ele>
        <time>2023-07-21T11:52:09.713+00:00</time>
      </trkpt>
      <trkpt lat="45.92185" lon="-1.07188">
        <ele>2.5</ele>
        <time>2023-07-21T11:52:13.716+00:00</time>
      </trkpt>
      <trkpt lat="45.92181" lon="-1.07215">
        <ele>2.5</ele>
        <time>2023-07-21T11:52:18.718+00:00</time>
      </trkpt>
      <trkpt lat="45.92178" lon="-1.07234">
        <ele>2.6</ele>
        <time>2023-07-21T11:52:22.479+00:00</time>
      </trkpt>
      <trkpt lat="45.92174" lon="-1.07254">
        <ele>-1</ele>
        <time>2023-07-21T11:52:26.517+00:00</time>
      </trkpt>
      <trkpt lat="45.92171" lon="-1.07281">
        <ele>-1</ele>
        <time>2023-07-21T11:52:31.570+00:00</time>
      </trkpt>
      <trkpt lat="45.92166" lon="-1.07303">
        <ele>-1</ele>
        <time>2023-07-21T11:52:35.786+00:00</time>
      </trkpt>
      <trkpt lat="45.92163" lon="-1.07324">
        <ele>3.3</ele>
        <time>2023-07-21T11:52:39.831+00:00</time>
      </trkpt>
      <trkpt lat="45.92163" lon="-1.07349">
        <ele>3.5</ele>
        <time>2023-07-21T11:52:44.346+00:00</time>
      </trkpt>
      <trkpt lat="45.92151" lon="-1.07364">
        <ele>1</ele>
        <time>2023-07-21T11:52:48.357+00:00</time>
      </trkpt>
      <trkpt lat="45.9213" lon="-1.07353">
        <ele>1</ele>
        <time>2023-07-21T11:52:52.760+00:00</time>
      </trkpt>
      <trkpt lat="45.92111" lon="-1.07332">
        <ele>2</ele>
        <time>2023-07-21T11:52:57.763+00:00</time>
      </trkpt>
      <trkpt lat="45.92091" lon="-1.07311">
        <ele>2</ele>
        <time>2023-07-21T11:53:02.765+00:00</time>
      </trkpt>
      <trkpt lat="45.92068" lon="-1.07294">
        <ele>3</ele>
        <time>2023-07-21T11:53:07.764+00:00</time>
      </trkpt>
      <trkpt lat="45.92052" lon="-1.07277">
        <ele>3</ele>
        <time>2023-07-21T11:53:11.768+00:00</time>
      </trkpt>
      <trkpt lat="45.92032" lon="-1.07256">
        <ele>3</ele>
        <time>2023-07-21T11:53:16.771+00:00</time>
      </trkpt>
      <trkpt lat="45.92014" lon="-1.0724">
        <ele>3</ele>
        <time>2023-07-21T11:53:21.774+00:00</time>
      </trkpt>
      <trkpt lat="45.92001" lon="-1.07229">
        <ele>2</ele>
        <time>2023-07-21T11:53:26.326+00:00</time>
      </trkpt>
      <trkpt lat="45.91984" lon="-1.07214">
        <ele>2</ele>
        <time>2023-07-21T11:53:30.835+00:00</time>
      </trkpt>
      <trkpt lat="45.9197" lon="-1.07196">
        <ele>2</ele>
        <time>2023-07-21T11:53:35.346+00:00</time>
      </trkpt>
      <trkpt lat="45.91959" lon="-1.07172">
        <ele>3</ele>
        <time>2023-07-21T11:53:39.771+00:00</time>
      </trkpt>
      <trkpt lat="45.9195" lon="-1.07144">
        <ele>4</ele>
        <time>2023-07-21T11:53:44.314+00:00</time>
      </trkpt>
      <trkpt lat="45.91941" lon="-1.07119">
        <ele>5</ele>
        <time>2023-07-21T11:53:48.804+00:00</time>
      </trkpt>
      <trkpt lat="45.91927" lon="-1.07105">
        <ele>3</ele>
        <time>2023-07-21T11:53:52.813+00:00</time>
      </trkpt>
      <trkpt lat="45.91908" lon="-1.07095">
        <ele>3</ele>
        <time>2023-07-21T11:53:57.424+00:00</time>
      </trkpt>
      <trkpt lat="45.91885" lon="-1.07074">
        <ele>2</ele>
        <time>2023-07-21T11:57:13.773+00:00</time>
      </trkpt>
      <trkpt lat="45.91885" lon="-1.07074">
        <ele>2</ele>
        <time>2023-07-21T11:57:17.774+00:00</time>
      </trkpt>
      <trkpt lat="45.91884" lon="-1.07074">
        <ele>2</ele>
        <time>2023-07-21T11:57:22.775+00:00</time>
      </trkpt>
      <trkpt lat="45.91883" lon="-1.07073">
        <ele>2</ele>
        <time>2023-07-21T11:57:26.764+00:00</time>
      </trkpt>
      <trkpt lat="45.91885" lon="-1.0707">
        <ele>2</ele>
        <time>2023-07-21T11:57:31.779+00:00</time>
      </trkpt>
      <trkpt lat="45.91879" lon="-1.07054">
        <ele>2</ele>
        <time>2023-07-21T11:57:35.774+00:00</time>
      </trkpt>
      <trkpt lat="45.91868" lon="-1.07026">
        <ele>1</ele>
        <time>2023-07-21T11:57:40.771+00:00</time>
      </trkpt>
      <trkpt lat="45.91857" lon="-1.06996">
        <ele>2</ele>
        <time>2023-07-21T11:57:45.760+00:00</time>
      </trkpt>
      <trkpt lat="45.91846" lon="-1.06968">
        <ele>1</ele>
        <time>2023-07-21T11:57:50.773+00:00</time>
      </trkpt>
      <trkpt lat="45.91835" lon="-1.06939">
        <ele>1</ele>
        <time>2023-07-21T11:57:55.775+00:00</time>
      </trkpt>
      <trkpt lat="45.91825" lon="-1.06908">
        <ele>1</ele>
        <time>2023-07-21T11:58:00.761+00:00</time>
      </trkpt>
      <trkpt lat="45.91819" lon="-1.06883">
        <ele>1</ele>
        <time>2023-07-21T11:58:04.771+00:00</time>
      </trkpt>
      <trkpt lat="45.91813" lon="-1.06858">
        <ele>2</ele>
        <time>2023-07-21T11:58:08.768+00:00</time>
      </trkpt>
      <trkpt lat="45.91809" lon="-1.0683">
        <ele>2</ele>
        <time>2023-07-21T11:58:13.773+00:00</time>
      </trkpt>
      <trkpt lat="45.91805" lon="-1.06805">
        <ele>1</ele>
        <time>2023-07-21T11:58:17.835+00:00</time>
      </trkpt>
      <trkpt lat="45.91804" lon="-1.06774">
        <ele>1</ele>
        <time>2023-07-21T11:58:22.447+00:00</time>
      </trkpt>
      <trkpt lat="45.91805" lon="-1.0675">
        <ele>1</ele>
        <time>2023-07-21T11:58:26.457+00:00</time>
      </trkpt>
      <trkpt lat="45.91806" lon="-1.0672">
        <ele>1</ele>
        <time>2023-07-21T11:58:31.291+00:00</time>
      </trkpt>
      <trkpt lat="45.91806" lon="-1.06688">
        <ele>2</ele>
        <time>2023-07-21T11:58:36.316+00:00</time>
      </trkpt>
      <trkpt lat="45.91806" lon="-1.06661">
        <ele>2</ele>
        <time>2023-07-21T11:58:40.428+00:00</time>
      </trkpt>
      <trkpt lat="45.91806" lon="-1.06635">
        <ele>2</ele>
        <time>2023-07-21T11:58:45.041+00:00</time>
      </trkpt>
      <trkpt lat="45.91805" lon="-1.06613">
        <ele>2</ele>
        <time>2023-07-21T11:58:49.052+00:00</time>
      </trkpt>
      <trkpt lat="45.91803" lon="-1.06589">
        <ele>1</ele>
        <time>2023-07-21T11:58:53.564+00:00</time>
      </trkpt>
      <trkpt lat="45.91799" lon="-1.06564">
        <ele>2.8</ele>
        <time>2023-07-21T11:58:58.093+00:00</time>
      </trkpt>
      <trkpt lat="45.91794" lon="-1.06539">
        <ele>2.8</ele>
        <time>2023-07-21T11:59:02.606+00:00</time>
      </trkpt>
      <trkpt lat="45.91789" lon="-1.06515">
        <ele>3</ele>
        <time>2023-07-21T11:59:07.118+00:00</time>
      </trkpt>
      <trkpt lat="45.91782" lon="-1.06494">
        <ele>3</ele>
        <time>2023-07-21T11:59:11.147+00:00</time>
      </trkpt>
      <trkpt lat="45.91777" lon="-1.06471">
        <ele>1</ele>
        <time>2023-07-21T11:59:15.659+00:00</time>
      </trkpt>
      <trkpt lat="45.91773" lon="-1.06448">
        <ele>1</ele>
        <time>2023-07-21T11:59:19.670+00:00</time>
      </trkpt>
      <trkpt lat="45.91766" lon="-1.06424">
        <ele>1</ele>
        <time>2023-07-21T11:59:24.185+00:00</time>
      </trkpt>
      <trkpt lat="45.91761" lon="-1.064">
        <ele>1</ele>
        <time>2023-07-21T11:59:28.698+00:00</time>
      </trkpt>
      <trkpt lat="45.91756" lon="-1.06375">
        <ele>1</ele>
        <time>2023-07-21T11:59:33.211+00:00</time>
      </trkpt>
      <trkpt lat="45.9175" lon="-1.06348">
        <ele>1</ele>
        <time>2023-07-21T11:59:37.725+00:00</time>
      </trkpt>
      <trkpt lat="45.91743" lon="-1.06322">
        <ele>1</ele>
        <time>2023-07-21T11:59:42.238+00:00</time>
      </trkpt>
      <trkpt lat="45.91739" lon="-1.06296">
        <ele>1</ele>
        <time>2023-07-21T11:59:46.751+00:00</time>
      </trkpt>
      <trkpt lat="45.91735" lon="-1.0627">
        <ele>2</ele>
        <time>2023-07-21T11:59:51.264+00:00</time>
      </trkpt>
      <trkpt lat="45.9173" lon="-1.06244">
        <ele>2</ele>
        <time>2023-07-21T11:59:55.779+00:00</time>
      </trkpt>
      <trkpt lat="45.91725" lon="-1.06224">
        <ele>3</ele>
        <time>2023-07-21T11:59:59.796+00:00</time>
      </trkpt>
      <trkpt lat="45.91718" lon="-1.06201">
        <ele>3</ele>
        <time>2023-07-21T12:00:04.320+00:00</time>
      </trkpt>
      <trkpt lat="45.91709" lon="-1.06183">
        <ele>3</ele>
        <time>2023-07-21T12:00:09.337+00:00</time>
      </trkpt>
      <trkpt lat="45.91709" lon="-1.06176">
        <ele>3</ele>
        <time>2023-07-21T12:00:13.350+00:00</time>
      </trkpt>
      <trkpt lat="45.91713" lon="-1.06174">
        <ele>3</ele>
        <time>2023-07-21T12:01:00.766+00:00</time>
      </trkpt>
      <trkpt lat="45.91713" lon="-1.06174">
        <ele>3</ele>
        <time>2023-07-21T12:01:04.762+00:00</time>
      </trkpt>
      <trkpt lat="45.91711" lon="-1.0617">
        <ele>3</ele>
        <time>2023-07-21T12:01:09.774+00:00</time>
      </trkpt>
      <trkpt lat="45.91704" lon="-1.06172">
        <ele>4</ele>
        <time>2023-07-21T12:01:13.836+00:00</time>
      </trkpt>
      <trkpt lat="45.91692" lon="-1.06182">
        <ele>4</ele>
        <time>2023-07-21T12:01:18.351+00:00</time>
      </trkpt>
      <trkpt lat="45.91681" lon="-1.06189">
        <ele>4</ele>
        <time>2023-07-21T12:01:49.776+00:00</time>
      </trkpt>
      <trkpt lat="45.91678" lon="-1.0619">
        <ele>4</ele>
        <time>2023-07-21T12:01:54.444+00:00</time>
      </trkpt>
      <trkpt lat="45.91675" lon="-1.06182">
        <ele>4</ele>
        <time>2023-07-21T12:01:58.449+00:00</time>
      </trkpt>
      <trkpt lat="45.91668" lon="-1.06168">
        <ele>3</ele>
        <time>2023-07-21T12:02:02.453+00:00</time>
      </trkpt>
      <trkpt lat="45.91659" lon="-1.06149">
        <ele>3</ele>
        <time>2023-07-21T12:02:07.015+00:00</time>
      </trkpt>
      <trkpt lat="45.91649" lon="-1.0613">
        <ele>1</ele>
        <time>2023-07-21T12:02:11.336+00:00</time>
      </trkpt>
      <trkpt lat="45.91642" lon="-1.06107">
        <ele>1</ele>
        <time>2023-07-21T12:02:15.756+00:00</time>
      </trkpt>
      <trkpt lat="45.91637" lon="-1.06081">
        <ele>1</ele>
        <time>2023-07-21T12:02:20.116+00:00</time>
      </trkpt>
      <trkpt lat="45.91632" lon="-1.06058">
        <ele>2</ele>
        <time>2023-07-21T12:02:23.896+00:00</time>
      </trkpt>
      <trkpt lat="45.91628" lon="-1.06032">
        <ele>1</ele>
        <time>2023-07-21T12:02:28.414+00:00</time>
      </trkpt>
      <trkpt lat="45.91625" lon="-1.06005">
        <ele>2</ele>
        <time>2023-07-21T12:02:33.215+00:00</time>
      </trkpt>
      <trkpt lat="45.9162" lon="-1.05977">
        <ele>2</ele>
        <time>2023-07-21T12:02:37.747+00:00</time>
      </trkpt>
      <trkpt lat="45.91616" lon="-1.05954">
        <ele>3</ele>
        <time>2023-07-21T12:02:41.735+00:00</time>
      </trkpt>
      <trkpt lat="45.91604" lon="-1.05917">
        <ele>3</ele>
        <time>2023-07-21T12:03:13.506+00:00</time>
      </trkpt>
      <trkpt lat="45.91606" lon="-1.059">
        <ele>2</ele>
        <time>2023-07-21T12:03:17.584+00:00</time>
      </trkpt>
      <trkpt lat="45.91606" lon="-1.05878">
        <ele>2</ele>
        <time>2023-07-21T12:03:22.379+00:00</time>
      </trkpt>
      <trkpt lat="45.91604" lon="-1.05856">
        <ele>3</ele>
        <time>2023-07-21T12:03:26.575+00:00</time>
      </trkpt>
      <trkpt lat="45.91601" lon="-1.05828">
        <ele>2</ele>
        <time>2023-07-21T12:03:31.073+00:00</time>
      </trkpt>
      <trkpt lat="45.916" lon="-1.058">
        <ele>2</ele>
        <time>2023-07-21T12:03:35.748+00:00</time>
      </trkpt>
      <trkpt lat="45.91604" lon="-1.05775">
        <ele>1</ele>
        <time>2023-07-21T12:03:40.498+00:00</time>
      </trkpt>
      <trkpt lat="45.91615" lon="-1.0575">
        <ele>1</ele>
        <time>2023-07-21T12:03:45.572+00:00</time>
      </trkpt>
      <trkpt lat="45.91621" lon="-1.05728">
        <ele>2</ele>
        <time>2023-07-21T12:03:49.596+00:00</time>
      </trkpt>
      <trkpt lat="45.91622" lon="-1.05705">
        <ele>3</ele>
        <time>2023-07-21T12:03:53.373+00:00</time>
      </trkpt>
      <trkpt lat="45.91623" lon="-1.05675">
        <ele>3</ele>
        <time>2023-07-21T12:03:58.432+00:00</time>
      </trkpt>
      <trkpt lat="45.91623" lon="-1.0565">
        <ele>3</ele>
        <time>2023-07-21T12:04:02.380+00:00</time>
      </trkpt>
      <trkpt lat="45.91621" lon="-1.05622">
        <ele>3</ele>
        <time>2023-07-21T12:04:06.521+00:00</time>
      </trkpt>
      <trkpt lat="45.9162" lon="-1.05598">
        <ele>3</ele>
        <time>2023-07-21T12:04:10.361+00:00</time>
      </trkpt>
      <trkpt lat="45.91616" lon="-1.05572">
        <ele>3</ele>
        <time>2023-07-21T12:04:14.841+00:00</time>
      </trkpt>
      <trkpt lat="45.9162" lon="-1.05543">
        <ele>2</ele>
        <time>2023-07-21T12:04:19.778+00:00</time>
      </trkpt>
      <trkpt lat="45.9163" lon="-1.05517">
        <ele>3</ele>
        <time>2023-07-21T12:04:24.760+00:00</time>
      </trkpt>
      <trkpt lat="45.9164" lon="-1.05503">
        <ele>2</ele>
        <time>2023-07-21T12:04:29.191+00:00</time>
      </trkpt>
      <trkpt lat="45.91652" lon="-1.05489">
        <ele>2</ele>
        <time>2023-07-21T12:04:33.279+00:00</time>
      </trkpt>
      <trkpt lat="45.91664" lon="-1.05472">
        <ele>3</ele>
        <time>2023-07-21T12:04:37.797+00:00</time>
      </trkpt>
      <trkpt lat="45.91675" lon="-1.05454">
        <ele>3</ele>
        <time>2023-07-21T12:04:42.323+00:00</time>
      </trkpt>
      <trkpt lat="45.91684" lon="-1.05439">
        <ele>3</ele>
        <time>2023-07-21T12:04:46.309+00:00</time>
      </trkpt>
      <trkpt lat="45.91693" lon="-1.05421">
        <ele>2</ele>
        <time>2023-07-21T12:04:50.625+00:00</time>
      </trkpt>
      <trkpt lat="45.91699" lon="-1.05402">
        <ele>1</ele>
        <time>2023-07-21T12:04:55.064+00:00</time>
      </trkpt>
      <trkpt lat="45.91698" lon="-1.05399">
        <ele>1</ele>
        <time>2023-07-21T12:04:59.795+00:00</time>
      </trkpt>
      <trkpt lat="45.91698" lon="-1.05401">
        <ele>1</ele>
        <time>2023-07-21T12:05:15.503+00:00</time>
      </trkpt>
      <trkpt lat="45.91697" lon="-1.05402">
        <ele>1</ele>
        <time>2023-07-21T12:05:19.787+00:00</time>
      </trkpt>
      <trkpt lat="45.91697" lon="-1.05401">
        <ele>1</ele>
        <time>2023-07-21T12:05:23.574+00:00</time>
      </trkpt>
      <trkpt lat="45.91696" lon="-1.05396">
        <ele>1</ele>
        <time>2023-07-21T12:05:28.577+00:00</time>
      </trkpt>
      <trkpt lat="45.91692" lon="-1.05387">
        <ele>1</ele>
        <time>2023-07-21T12:05:32.599+00:00</time>
      </trkpt>
      <trkpt lat="45.91699" lon="-1.05384">
        <ele>1</ele>
        <time>2023-07-21T12:06:14.319+00:00</time>
      </trkpt>
      <trkpt lat="45.91699" lon="-1.05386">
        <ele>1</ele>
        <time>2023-07-21T12:06:19.097+00:00</time>
      </trkpt>
      <trkpt lat="45.91702" lon="-1.05402">
        <ele>1</ele>
        <time>2023-07-21T12:06:23.595+00:00</time>
      </trkpt>
      <trkpt lat="45.91709" lon="-1.05414">
        <ele>3</ele>
        <time>2023-07-21T12:06:28.152+00:00</time>
      </trkpt>
      <trkpt lat="45.91715" lon="-1.0543">
        <ele>3</ele>
        <time>2023-07-21T12:06:32.282+00:00</time>
      </trkpt>
      <trkpt lat="45.91723" lon="-1.05448">
        <ele>4</ele>
        <time>2023-07-21T12:06:36.369+00:00</time>
      </trkpt>
      <trkpt lat="45.91732" lon="-1.05471">
        <ele>4</ele>
        <time>2023-07-21T12:06:41.453+00:00</time>
      </trkpt>
      <trkpt lat="45.91739" lon="-1.05495">
        <ele>5</ele>
        <time>2023-07-21T12:06:45.980+00:00</time>
      </trkpt>
      <trkpt lat="45.91745" lon="-1.0552">
        <ele>5</ele>
        <time>2023-07-21T12:06:50.684+00:00</time>
      </trkpt>
      <trkpt lat="45.91751" lon="-1.0555">
        <ele>5</ele>
        <time>2023-07-21T12:06:54.805+00:00</time>
      </trkpt>
      <trkpt lat="45.91758" lon="-1.05586">
        <ele>5</ele>
        <time>2023-07-21T12:06:59.814+00:00</time>
      </trkpt>
      <trkpt lat="45.91763" lon="-1.05626">
        <ele>6</ele>
        <time>2023-07-21T12:07:04.793+00:00</time>
      </trkpt>
      <trkpt lat="45.91768" lon="-1.05657">
        <ele>7</ele>
        <time>2023-07-21T12:07:08.786+00:00</time>
      </trkpt>
      <trkpt lat="45.91773" lon="-1.05687">
        <ele>7</ele>
        <time>2023-07-21T12:07:12.803+00:00</time>
      </trkpt>
      <trkpt lat="45.91775" lon="-1.05728">
        <ele>6</ele>
        <time>2023-07-21T12:07:17.812+00:00</time>
      </trkpt>
      <trkpt lat="45.91779" lon="-1.05767">
        <ele>7</ele>
        <time>2023-07-21T12:07:22.769+00:00</time>
      </trkpt>
      <trkpt lat="45.91781" lon="-1.05798">
        <ele>8</ele>
        <time>2023-07-21T12:07:26.796+00:00</time>
      </trkpt>
      <trkpt lat="45.9178" lon="-1.05837">
        <ele>8</ele>
        <time>2023-07-21T12:07:31.806+00:00</time>
      </trkpt>
      <trkpt lat="45.91777" lon="-1.0587">
        <ele>7</ele>
        <time>2023-07-21T12:07:35.808+00:00</time>
      </trkpt>
      <trkpt lat="45.91774" lon="-1.05907">
        <ele>8</ele>
        <time>2023-07-21T12:07:40.800+00:00</time>
      </trkpt>
      <trkpt lat="45.91775" lon="-1.05929">
        <ele>8</ele>
        <time>2023-07-21T12:07:44.808+00:00</time>
      </trkpt>
      <trkpt lat="45.91774" lon="-1.05949">
        <ele>9</ele>
        <time>2023-07-21T12:07:49.337+00:00</time>
      </trkpt>
      <trkpt lat="45.91774" lon="-1.05981">
        <ele>9</ele>
        <time>2023-07-21T12:07:53.891+00:00</time>
      </trkpt>
      <trkpt lat="45.91774" lon="-1.06006">
        <ele>9</ele>
        <time>2023-07-21T12:07:57.926+00:00</time>
      </trkpt>
      <trkpt lat="45.91776" lon="-1.06028">
        <ele>9</ele>
        <time>2023-07-21T12:08:02.563+00:00</time>
      </trkpt>
      <trkpt lat="45.91782" lon="-1.06033">
        <ele>9</ele>
        <time>2023-07-21T12:08:06.519+00:00</time>
      </trkpt>
      <trkpt lat="45.91782" lon="-1.06033">
        <ele>9</ele>
        <time>2023-07-21T12:08:11.795+00:00</time>
      </trkpt>
      <trkpt lat="45.91783" lon="-1.06032">
        <ele>9</ele>
        <time>2023-07-21T12:08:16.590+00:00</time>
      </trkpt>
      <trkpt lat="45.91785" lon="-1.06032">
        <ele>9</ele>
        <time>2023-07-21T12:08:20.766+00:00</time>
      </trkpt>
      <trkpt lat="45.918" lon="-1.06013">
        <ele>9</ele>
        <time>2023-07-21T12:08:25.321+00:00</time>
      </trkpt>
      <trkpt lat="45.91808" lon="-1.06002">
        <ele>9</ele>
        <time>2023-07-21T12:08:29.396+00:00</time>
      </trkpt>
      <trkpt lat="45.91817" lon="-1.05995">
        <ele>9</ele>
        <time>2023-07-21T12:08:33.331+00:00</time>
      </trkpt>
      <trkpt lat="45.91831" lon="-1.05987">
        <ele>10</ele>
        <time>2023-07-21T12:08:38.836+00:00</time>
      </trkpt>
      <trkpt lat="45.91841" lon="-1.0598">
        <ele>10</ele>
        <time>2023-07-21T12:08:43.522+00:00</time>
      </trkpt>
      <trkpt lat="45.91851" lon="-1.05971">
        <ele>10</ele>
        <time>2023-07-21T12:08:47.539+00:00</time>
      </trkpt>
      <trkpt lat="45.91863" lon="-1.0596">
        <ele>10</ele>
        <time>2023-07-21T12:08:52.576+00:00</time>
      </trkpt>
      <trkpt lat="45.91874" lon="-1.05952">
        <ele>9</ele>
        <time>2023-07-21T12:08:57.192+00:00</time>
      </trkpt>
      <trkpt lat="45.91883" lon="-1.05939">
        <ele>9</ele>
        <time>2023-07-21T12:09:01.387+00:00</time>
      </trkpt>
      <trkpt lat="45.91901" lon="-1.05933">
        <ele>9</ele>
        <time>2023-07-21T12:09:06.542+00:00</time>
      </trkpt>
      <trkpt lat="45.91917" lon="-1.05925">
        <ele>8</ele>
        <time>2023-07-21T12:09:10.438+00:00</time>
      </trkpt>
      <trkpt lat="45.91931" lon="-1.05916">
        <ele>8</ele>
        <time>2023-07-21T12:09:14.515+00:00</time>
      </trkpt>
      <trkpt lat="45.91947" lon="-1.05902">
        <ele>7</ele>
        <time>2023-07-21T12:09:19.191+00:00</time>
      </trkpt>
      <trkpt lat="45.91965" lon="-1.05893">
        <ele>7</ele>
        <time>2023-07-21T12:09:23.867+00:00</time>
      </trkpt>
      <trkpt lat="45.91981" lon="-1.05879">
        <ele>7</ele>
        <time>2023-07-21T12:09:28.418+00:00</time>
      </trkpt>
      <trkpt lat="45.91998" lon="-1.05867">
        <ele>5</ele>
        <time>2023-07-21T12:09:32.323+00:00</time>
      </trkpt>
      <trkpt lat="45.92015" lon="-1.05855">
        <ele>5</ele>
        <time>2023-07-21T12:09:36.805+00:00</time>
      </trkpt>
      <trkpt lat="45.92031" lon="-1.05845">
        <ele>4</ele>
        <time>2023-07-21T12:09:40.804+00:00</time>
      </trkpt>
      <trkpt lat="45.92053" lon="-1.0584">
        <ele>4</ele>
        <time>2023-07-21T12:09:45.803+00:00</time>
      </trkpt>
      <trkpt lat="45.92074" lon="-1.05829">
        <ele>4</ele>
        <time>2023-07-21T12:09:50.801+00:00</time>
      </trkpt>
      <trkpt lat="45.92093" lon="-1.05811">
        <ele>4</ele>
        <time>2023-07-21T12:09:55.797+00:00</time>
      </trkpt>
      <trkpt lat="45.92107" lon="-1.05795">
        <ele>3</ele>
        <time>2023-07-21T12:09:59.915+00:00</time>
      </trkpt>
      <trkpt lat="45.92125" lon="-1.05776">
        <ele>1</ele>
        <time>2023-07-21T12:10:04.795+00:00</time>
      </trkpt>
      <trkpt lat="45.92143" lon="-1.05764">
        <ele>1</ele>
        <time>2023-07-21T12:10:08.790+00:00</time>
      </trkpt>
      <trkpt lat="45.92162" lon="-1.05742">
        <ele>1</ele>
        <time>2023-07-21T12:10:13.794+00:00</time>
      </trkpt>
      <trkpt lat="45.92182" lon="-1.05724">
        <ele>2</ele>
        <time>2023-07-21T12:10:18.783+00:00</time>
      </trkpt>
      <trkpt lat="45.92199" lon="-1.05711">
        <ele>2</ele>
        <time>2023-07-21T12:10:23.774+00:00</time>
      </trkpt>
      <trkpt lat="45.92214" lon="-1.05703">
        <ele>1</ele>
        <time>2023-07-21T12:10:27.738+00:00</time>
      </trkpt>
      <trkpt lat="45.92234" lon="-1.05697">
        <ele>1</ele>
        <time>2023-07-21T12:10:31.933+00:00</time>
      </trkpt>
      <trkpt lat="45.92252" lon="-1.0569">
        <ele>2.9</ele>
        <time>2023-07-21T12:10:36.449+00:00</time>
      </trkpt>
      <trkpt lat="45.92272" lon="-1.05682">
        <ele>1</ele>
        <time>2023-07-21T12:10:40.967+00:00</time>
      </trkpt>
      <trkpt lat="45.92289" lon="-1.05673">
        <ele>1</ele>
        <time>2023-07-21T12:10:45.164+00:00</time>
      </trkpt>
      <trkpt lat="45.92307" lon="-1.05665">
        <ele>1</ele>
        <time>2023-07-21T12:10:49.300+00:00</time>
      </trkpt>
      <trkpt lat="45.92324" lon="-1.05659">
        <ele>1</ele>
        <time>2023-07-21T12:10:53.782+00:00</time>
      </trkpt>
      <trkpt lat="45.92344" lon="-1.0565">
        <ele>3</ele>
        <time>2023-07-21T12:10:58.334+00:00</time>
      </trkpt>
      <trkpt lat="45.92363" lon="-1.0564">
        <ele>3</ele>
        <time>2023-07-21T12:11:03.608+00:00</time>
      </trkpt>
      <trkpt lat="45.92373" lon="-1.05634">
        <ele>3</ele>
        <time>2023-07-21T12:11:08.764+00:00</time>
      </trkpt>
      <trkpt lat="45.92374" lon="-1.05637">
        <ele>3</ele>
        <time>2023-07-21T12:12:08.760+00:00</time>
      </trkpt>
      <trkpt lat="45.9238" lon="-1.05635">
        <ele>2</ele>
        <time>2023-07-21T12:12:13.264+00:00</time>
      </trkpt>
      <trkpt lat="45.92397" lon="-1.05625">
        <ele>2</ele>
        <time>2023-07-21T12:12:17.406+00:00</time>
      </trkpt>
      <trkpt lat="45.92413" lon="-1.05619">
        <ele>2</ele>
        <time>2023-07-21T12:12:21.666+00:00</time>
      </trkpt>
      <trkpt lat="45.92429" lon="-1.05609">
        <ele>2</ele>
        <time>2023-07-21T12:12:25.687+00:00</time>
      </trkpt>
      <trkpt lat="45.92449" lon="-1.056">
        <ele>2.9</ele>
        <time>2023-07-21T12:12:30.428+00:00</time>
      </trkpt>
      <trkpt lat="45.92467" lon="-1.05593">
        <ele>-1</ele>
        <time>2023-07-21T12:12:35.037+00:00</time>
      </trkpt>
      <trkpt lat="45.92484" lon="-1.0558">
        <ele>-1</ele>
        <time>2023-07-21T12:12:39.758+00:00</time>
      </trkpt>
      <trkpt lat="45.92506" lon="-1.05577">
        <ele>2.8</ele>
        <time>2023-07-21T12:12:44.217+00:00</time>
      </trkpt>
      <trkpt lat="45.92531" lon="-1.05565">
        <ele>2</ele>
        <time>2023-07-21T12:12:48.794+00:00</time>
      </trkpt>
      <trkpt lat="45.92561" lon="-1.05552">
        <ele>2</ele>
        <time>2023-07-21T12:12:53.809+00:00</time>
      </trkpt>
      <trkpt lat="45.92589" lon="-1.05545">
        <ele>2</ele>
        <time>2023-07-21T12:12:58.792+00:00</time>
      </trkpt>
      <trkpt lat="45.92617" lon="-1.05541">
        <ele>2</ele>
        <time>2023-07-21T12:13:03.789+00:00</time>
      </trkpt>
      <trkpt lat="45.9264" lon="-1.05535">
        <ele>2</ele>
        <time>2023-07-21T12:13:07.815+00:00</time>
      </trkpt>
      <trkpt lat="45.92664" lon="-1.0552">
        <ele>3</ele>
        <time>2023-07-21T12:13:12.773+00:00</time>
      </trkpt>
      <trkpt lat="45.92679" lon="-1.05502">
        <ele>4</ele>
        <time>2023-07-21T12:13:16.802+00:00</time>
      </trkpt>
      <trkpt lat="45.92697" lon="-1.05482">
        <ele>7</ele>
        <time>2023-07-21T12:13:21.804+00:00</time>
      </trkpt>
      <trkpt lat="45.92711" lon="-1.05463">
        <ele>8</ele>
        <time>2023-07-21T12:13:25.822+00:00</time>
      </trkpt>
      <trkpt lat="45.92729" lon="-1.05441">
        <ele>8</ele>
        <time>2023-07-21T12:13:30.804+00:00</time>
      </trkpt>
      <trkpt lat="45.92744" lon="-1.05425">
        <ele>10</ele>
        <time>2023-07-21T12:13:35.808+00:00</time>
      </trkpt>
      <trkpt lat="45.92745" lon="-1.05409">
        <ele>10</ele>
        <time>2023-07-21T12:13:40.530+00:00</time>
      </trkpt>
      <trkpt lat="45.92733" lon="-1.0539">
        <ele>8</ele>
        <time>2023-07-21T12:13:44.605+00:00</time>
      </trkpt>
      <trkpt lat="45.92724" lon="-1.05369">
        <ele>9</ele>
        <time>2023-07-21T12:13:49.015+00:00</time>
      </trkpt>
      <trkpt lat="45.92715" lon="-1.05353">
        <ele>9</ele>
        <time>2023-07-21T12:13:52.917+00:00</time>
      </trkpt>
      <trkpt lat="45.92703" lon="-1.05332">
        <ele>8</ele>
        <time>2023-07-21T12:13:57.451+00:00</time>
      </trkpt>
      <trkpt lat="45.92692" lon="-1.05313">
        <ele>9</ele>
        <time>2023-07-21T12:14:01.526+00:00</time>
      </trkpt>
      <trkpt lat="45.92678" lon="-1.05285">
        <ele>8</ele>
        <time>2023-07-21T12:14:06.801+00:00</time>
      </trkpt>
      <trkpt lat="45.92663" lon="-1.05254">
        <ele>9</ele>
        <time>2023-07-21T12:14:11.796+00:00</time>
      </trkpt>
      <trkpt lat="45.92649" lon="-1.05223">
        <ele>8</ele>
        <time>2023-07-21T12:14:16.790+00:00</time>
      </trkpt>
      <trkpt lat="45.92639" lon="-1.05199">
        <ele>9</ele>
        <time>2023-07-21T12:14:20.779+00:00</time>
      </trkpt>
      <trkpt lat="45.92628" lon="-1.05175">
        <ele>10</ele>
        <time>2023-07-21T12:14:24.804+00:00</time>
      </trkpt>
      <trkpt lat="45.92615" lon="-1.05145">
        <ele>9</ele>
        <time>2023-07-21T12:14:29.795+00:00</time>
      </trkpt>
      <trkpt lat="45.92603" lon="-1.05125">
        <ele>9</ele>
        <time>2023-07-21T12:14:33.812+00:00</time>
      </trkpt>
      <trkpt lat="45.92589" lon="-1.05103">
        <ele>8</ele>
        <time>2023-07-21T12:14:38.790+00:00</time>
      </trkpt>
      <trkpt lat="45.92577" lon="-1.05084">
        <ele>9</ele>
        <time>2023-07-21T12:14:43.167+00:00</time>
      </trkpt>
      <trkpt lat="45.92562" lon="-1.05069">
        <ele>10</ele>
        <time>2023-07-21T12:14:47.604+00:00</time>
      </trkpt>
      <trkpt lat="45.92549" lon="-1.05051">
        <ele>10</ele>
        <time>2023-07-21T12:14:52.053+00:00</time>
      </trkpt>
      <trkpt lat="45.92537" lon="-1.05028">
        <ele>9</ele>
        <time>2023-07-21T12:14:56.319+00:00</time>
      </trkpt>
      <trkpt lat="45.92528" lon="-1.05004">
        <ele>10</ele>
        <time>2023-07-21T12:15:00.689+00:00</time>
      </trkpt>
      <trkpt lat="45.92518" lon="-1.04977">
        <ele>10</ele>
        <time>2023-07-21T12:15:05.648+00:00</time>
      </trkpt>
      <trkpt lat="45.92508" lon="-1.04945">
        <ele>10</ele>
        <time>2023-07-21T12:15:10.804+00:00</time>
      </trkpt>
      <trkpt lat="45.92495" lon="-1.04918">
        <ele>9</ele>
        <time>2023-07-21T12:15:15.799+00:00</time>
      </trkpt>
      <trkpt lat="45.92483" lon="-1.04889">
        <ele>9</ele>
        <time>2023-07-21T12:15:20.801+00:00</time>
      </trkpt>
      <trkpt lat="45.92471" lon="-1.0486">
        <ele>8</ele>
        <time>2023-07-21T12:15:25.818+00:00</time>
      </trkpt>
      <trkpt lat="45.92461" lon="-1.04829">
        <ele>8</ele>
        <time>2023-07-21T12:15:30.811+00:00</time>
      </trkpt>
      <trkpt lat="45.92447" lon="-1.048">
        <ele>6</ele>
        <time>2023-07-21T12:15:35.809+00:00</time>
      </trkpt>
      <trkpt lat="45.92436" lon="-1.0477">
        <ele>6</ele>
        <time>2023-07-21T12:15:39.813+00:00</time>
      </trkpt>
      <trkpt lat="45.92421" lon="-1.04731">
        <ele>7</ele>
        <time>2023-07-21T12:15:44.806+00:00</time>
      </trkpt>
      <trkpt lat="45.9241" lon="-1.04702">
        <ele>7</ele>
        <time>2023-07-21T12:15:48.814+00:00</time>
      </trkpt>
      <trkpt lat="45.92396" lon="-1.04667">
        <ele>7</ele>
        <time>2023-07-21T12:15:53.822+00:00</time>
      </trkpt>
      <trkpt lat="45.92382" lon="-1.04636">
        <ele>7</ele>
        <time>2023-07-21T12:15:58.814+00:00</time>
      </trkpt>
      <trkpt lat="45.92371" lon="-1.04613">
        <ele>9</ele>
        <time>2023-07-21T12:16:03.803+00:00</time>
      </trkpt>
      <trkpt lat="45.9236" lon="-1.04592">
        <ele>8</ele>
        <time>2023-07-21T12:16:08.394+00:00</time>
      </trkpt>
      <trkpt lat="45.92347" lon="-1.04562">
        <ele>8</ele>
        <time>2023-07-21T12:16:13.532+00:00</time>
      </trkpt>
      <trkpt lat="45.92336" lon="-1.04543">
        <ele>8</ele>
        <time>2023-07-21T12:16:17.512+00:00</time>
      </trkpt>
      <trkpt lat="45.92322" lon="-1.04528">
        <ele>8</ele>
        <time>2023-07-21T12:16:22.028+00:00</time>
      </trkpt>
      <trkpt lat="45.92305" lon="-1.04515">
        <ele>8</ele>
        <time>2023-07-21T12:16:26.373+00:00</time>
      </trkpt>
      <trkpt lat="45.92286" lon="-1.04498">
        <ele>7</ele>
        <time>2023-07-21T12:16:31.249+00:00</time>
      </trkpt>
      <trkpt lat="45.92274" lon="-1.04479">
        <ele>8</ele>
        <time>2023-07-21T12:16:35.385+00:00</time>
      </trkpt>
      <trkpt lat="45.92265" lon="-1.04454">
        <ele>8</ele>
        <time>2023-07-21T12:16:39.421+00:00</time>
      </trkpt>
      <trkpt lat="45.92255" lon="-1.04421">
        <ele>8</ele>
        <time>2023-07-21T12:16:44.802+00:00</time>
      </trkpt>
      <trkpt lat="45.92247" lon="-1.04394">
        <ele>8</ele>
        <time>2023-07-21T12:16:49.235+00:00</time>
      </trkpt>
      <trkpt lat="45.92237" lon="-1.04371">
        <ele>9</ele>
        <time>2023-07-21T12:16:53.801+00:00</time>
      </trkpt>
      <trkpt lat="45.92225" lon="-1.04347">
        <ele>8</ele>
        <time>2023-07-21T12:16:58.330+00:00</time>
      </trkpt>
      <trkpt lat="45.92218" lon="-1.04324">
        <ele>8</ele>
        <time>2023-07-21T12:17:02.307+00:00</time>
      </trkpt>
      <trkpt lat="45.9221" lon="-1.0429">
        <ele>7</ele>
        <time>2023-07-21T12:17:07.816+00:00</time>
      </trkpt>
      <trkpt lat="45.92206" lon="-1.04262">
        <ele>7</ele>
        <time>2023-07-21T12:17:11.821+00:00</time>
      </trkpt>
      <trkpt lat="45.92205" lon="-1.04232">
        <ele>7</ele>
        <time>2023-07-21T12:17:16.801+00:00</time>
      </trkpt>
      <trkpt lat="45.92204" lon="-1.04201">
        <ele>7</ele>
        <time>2023-07-21T12:17:21.812+00:00</time>
      </trkpt>
      <trkpt lat="45.92206" lon="-1.04168">
        <ele>7</ele>
        <time>2023-07-21T12:17:26.784+00:00</time>
      </trkpt>
      <trkpt lat="45.92209" lon="-1.04131">
        <ele>9</ele>
        <time>2023-07-21T12:17:31.798+00:00</time>
      </trkpt>
      <trkpt lat="45.92208" lon="-1.04103">
        <ele>8</ele>
        <time>2023-07-21T12:17:35.814+00:00</time>
      </trkpt>
      <trkpt lat="45.92197" lon="-1.04081">
        <ele>8</ele>
        <time>2023-07-21T12:17:39.815+00:00</time>
      </trkpt>
      <trkpt lat="45.92181" lon="-1.04063">
        <ele>8</ele>
        <time>2023-07-21T12:17:44.819+00:00</time>
      </trkpt>
      <trkpt lat="45.92166" lon="-1.04047">
        <ele>8</ele>
        <time>2023-07-21T12:17:49.079+00:00</time>
      </trkpt>
      <trkpt lat="45.92151" lon="-1.04028">
        <ele>8</ele>
        <time>2023-07-21T12:17:53.785+00:00</time>
      </trkpt>
      <trkpt lat="45.92136" lon="-1.04009">
        <ele>8</ele>
        <time>2023-07-21T12:17:58.339+00:00</time>
      </trkpt>
      <trkpt lat="45.92124" lon="-1.03992">
        <ele>8</ele>
        <time>2023-07-21T12:18:02.355+00:00</time>
      </trkpt>
      <trkpt lat="45.92113" lon="-1.03969">
        <ele>8</ele>
        <time>2023-07-21T12:18:06.352+00:00</time>
      </trkpt>
      <trkpt lat="45.92103" lon="-1.03947">
        <ele>10</ele>
        <time>2023-07-21T12:18:10.949+00:00</time>
      </trkpt>
      <trkpt lat="45.92092" lon="-1.03919">
        <ele>10</ele>
        <time>2023-07-21T12:18:15.804+00:00</time>
      </trkpt>
      <trkpt lat="45.92085" lon="-1.03896">
        <ele>11</ele>
        <time>2023-07-21T12:18:19.829+00:00</time>
      </trkpt>
      <trkpt lat="45.92075" lon="-1.03864">
        <ele>11</ele>
        <time>2023-07-21T12:18:24.807+00:00</time>
      </trkpt>
      <trkpt lat="45.92068" lon="-1.03836">
        <ele>10</ele>
        <time>2023-07-21T12:18:29.814+00:00</time>
      </trkpt>
      <trkpt lat="45.92056" lon="-1.03805">
        <ele>11</ele>
        <time>2023-07-21T12:18:34.777+00:00</time>
      </trkpt>
      <trkpt lat="45.92049" lon="-1.03783">
        <ele>11</ele>
        <time>2023-07-21T12:18:38.802+00:00</time>
      </trkpt>
      <trkpt lat="45.9204" lon="-1.0376">
        <ele>10</ele>
        <time>2023-07-21T12:18:43.550+00:00</time>
      </trkpt>
      <trkpt lat="45.92029" lon="-1.03741">
        <ele>10</ele>
        <time>2023-07-21T12:18:47.587+00:00</time>
      </trkpt>
      <trkpt lat="45.92016" lon="-1.03718">
        <ele>11</ele>
        <time>2023-07-21T12:18:51.800+00:00</time>
      </trkpt>
      <trkpt lat="45.92005" lon="-1.03696">
        <ele>12</ele>
        <time>2023-07-21T12:18:55.818+00:00</time>
      </trkpt>
      <trkpt lat="45.9199" lon="-1.0367">
        <ele>13</ele>
        <time>2023-07-21T12:19:00.815+00:00</time>
      </trkpt>
      <trkpt lat="45.91977" lon="-1.03644">
        <ele>14</ele>
        <time>2023-07-21T12:19:05.783+00:00</time>
      </trkpt>
      <trkpt lat="45.91968" lon="-1.03622">
        <ele>15</ele>
        <time>2023-07-21T12:19:09.803+00:00</time>
      </trkpt>
      <trkpt lat="45.91958" lon="-1.03595">
        <ele>15</ele>
        <time>2023-07-21T12:19:14.785+00:00</time>
      </trkpt>
      <trkpt lat="45.9195" lon="-1.03575">
        <ele>15</ele>
        <time>2023-07-21T12:19:18.756+00:00</time>
      </trkpt>
      <trkpt lat="45.91939" lon="-1.0355">
        <ele>15</ele>
        <time>2023-07-21T12:19:23.477+00:00</time>
      </trkpt>
      <trkpt lat="45.91929" lon="-1.0352">
        <ele>14</ele>
        <time>2023-07-21T12:19:27.804+00:00</time>
      </trkpt>
      <trkpt lat="45.91917" lon="-1.03492">
        <ele>14</ele>
        <time>2023-07-21T12:19:32.784+00:00</time>
      </trkpt>
      <trkpt lat="45.91907" lon="-1.03465">
        <ele>15</ele>
        <time>2023-07-21T12:19:36.818+00:00</time>
      </trkpt>
      <trkpt lat="45.91897" lon="-1.03435">
        <ele>14</ele>
        <time>2023-07-21T12:19:40.824+00:00</time>
      </trkpt>
      <trkpt lat="45.91886" lon="-1.03398">
        <ele>14</ele>
        <time>2023-07-21T12:19:45.791+00:00</time>
      </trkpt>
      <trkpt lat="45.9188" lon="-1.03371">
        <ele>14</ele>
        <time>2023-07-21T12:19:49.812+00:00</time>
      </trkpt>
      <trkpt lat="45.91872" lon="-1.03338">
        <ele>13</ele>
        <time>2023-07-21T12:19:54.805+00:00</time>
      </trkpt>
      <trkpt lat="45.91867" lon="-1.03315">
        <ele>13</ele>
        <time>2023-07-21T12:19:58.819+00:00</time>
      </trkpt>
      <trkpt lat="45.91859" lon="-1.03289">
        <ele>13</ele>
        <time>2023-07-21T12:20:02.822+00:00</time>
      </trkpt>
      <trkpt lat="45.91848" lon="-1.03254">
        <ele>14</ele>
        <time>2023-07-21T12:20:07.806+00:00</time>
      </trkpt>
      <trkpt lat="45.91833" lon="-1.03221">
        <ele>14</ele>
        <time>2023-07-21T12:20:12.790+00:00</time>
      </trkpt>
      <trkpt lat="45.91819" lon="-1.0319">
        <ele>13</ele>
        <time>2023-07-21T12:20:17.819+00:00</time>
      </trkpt>
      <trkpt lat="45.91804" lon="-1.03163">
        <ele>14</ele>
        <time>2023-07-21T12:20:22.800+00:00</time>
      </trkpt>
      <trkpt lat="45.91792" lon="-1.03141">
        <ele>14</ele>
        <time>2023-07-21T12:20:26.791+00:00</time>
      </trkpt>
      <trkpt lat="45.91781" lon="-1.0312">
        <ele>15</ele>
        <time>2023-07-21T12:20:30.808+00:00</time>
      </trkpt>
      <trkpt lat="45.91769" lon="-1.03097">
        <ele>16</ele>
        <time>2023-07-21T12:20:35.814+00:00</time>
      </trkpt>
      <trkpt lat="45.91756" lon="-1.03074">
        <ele>16</ele>
        <time>2023-07-21T12:20:39.818+00:00</time>
      </trkpt>
      <trkpt lat="45.91738" lon="-1.03046">
        <ele>17</ele>
        <time>2023-07-21T12:20:44.815+00:00</time>
      </trkpt>
      <trkpt lat="45.91719" lon="-1.03018">
        <ele>17</ele>
        <time>2023-07-21T12:20:49.814+00:00</time>
      </trkpt>
      <trkpt lat="45.91705" lon="-1.03">
        <ele>16</ele>
        <time>2023-07-21T12:20:53.849+00:00</time>
      </trkpt>
      <trkpt lat="45.91691" lon="-1.02982">
        <ele>16</ele>
        <time>2023-07-21T12:20:57.808+00:00</time>
      </trkpt>
      <trkpt lat="45.91672" lon="-1.02959">
        <ele>16</ele>
        <time>2023-07-21T12:21:02.785+00:00</time>
      </trkpt>
      <trkpt lat="45.91653" lon="-1.02937">
        <ele>16</ele>
        <time>2023-07-21T12:21:07.801+00:00</time>
      </trkpt>
      <trkpt lat="45.91639" lon="-1.02916">
        <ele>17</ele>
        <time>2023-07-21T12:21:11.821+00:00</time>
      </trkpt>
      <trkpt lat="45.91619" lon="-1.02893">
        <ele>16</ele>
        <time>2023-07-21T12:21:16.791+00:00</time>
      </trkpt>
      <trkpt lat="45.91601" lon="-1.02875">
        <ele>16</ele>
        <time>2023-07-21T12:21:20.806+00:00</time>
      </trkpt>
      <trkpt lat="45.91583" lon="-1.02857">
        <ele>16</ele>
        <time>2023-07-21T12:21:24.810+00:00</time>
      </trkpt>
      <trkpt lat="45.91564" lon="-1.0284">
        <ele>17</ele>
        <time>2023-07-21T12:21:28.817+00:00</time>
      </trkpt>
      <trkpt lat="45.91541" lon="-1.02818">
        <ele>17</ele>
        <time>2023-07-21T12:21:33.829+00:00</time>
      </trkpt>
      <trkpt lat="45.91521" lon="-1.02795">
        <ele>17</ele>
        <time>2023-07-21T12:21:38.804+00:00</time>
      </trkpt>
      <trkpt lat="45.91502" lon="-1.02768">
        <ele>17</ele>
        <time>2023-07-21T12:21:43.812+00:00</time>
      </trkpt>
      <trkpt lat="45.91488" lon="-1.02747">
        <ele>17</ele>
        <time>2023-07-21T12:21:47.809+00:00</time>
      </trkpt>
      <trkpt lat="45.91473" lon="-1.02727">
        <ele>15</ele>
        <time>2023-07-21T12:21:51.808+00:00</time>
      </trkpt>
      <trkpt lat="45.91454" lon="-1.027">
        <ele>15</ele>
        <time>2023-07-21T12:21:56.806+00:00</time>
      </trkpt>
      <trkpt lat="45.91437" lon="-1.02676">
        <ele>14</ele>
        <time>2023-07-21T12:22:01.797+00:00</time>
      </trkpt>
      <trkpt lat="45.91425" lon="-1.02659">
        <ele>14</ele>
        <time>2023-07-21T12:22:05.801+00:00</time>
      </trkpt>
      <trkpt lat="45.9141" lon="-1.02641">
        <ele>13</ele>
        <time>2023-07-21T12:22:10.819+00:00</time>
      </trkpt>
      <trkpt lat="45.91395" lon="-1.0262">
        <ele>13</ele>
        <time>2023-07-21T12:22:15.373+00:00</time>
      </trkpt>
      <trkpt lat="45.91382" lon="-1.02604">
        <ele>13</ele>
        <time>2023-07-21T12:22:20.012+00:00</time>
      </trkpt>
      <trkpt lat="45.91372" lon="-1.02589">
        <ele>14</ele>
        <time>2023-07-21T12:22:24.210+00:00</time>
      </trkpt>
      <trkpt lat="45.91363" lon="-1.02576">
        <ele>14</ele>
        <time>2023-07-21T12:22:28.168+00:00</time>
      </trkpt>
      <trkpt lat="45.91355" lon="-1.02567">
        <ele>14</ele>
        <time>2023-07-21T12:22:32.706+00:00</time>
      </trkpt>
      <trkpt lat="45.91348" lon="-1.02565">
        <ele>14</ele>
        <time>2023-07-21T12:22:36.783+00:00</time>
      </trkpt>
      <trkpt lat="45.91334" lon="-1.02571">
        <ele>15</ele>
        <time>2023-07-21T12:22:40.982+00:00</time>
      </trkpt>
      <trkpt lat="45.91323" lon="-1.02562">
        <ele>16</ele>
        <time>2023-07-21T12:22:45.761+00:00</time>
      </trkpt>
      <trkpt lat="45.91323" lon="-1.02563">
        <ele>16</ele>
        <time>2023-07-21T12:24:51.734+00:00</time>
      </trkpt>
      <trkpt lat="45.91318" lon="-1.02558">
        <ele>16</ele>
        <time>2023-07-21T12:24:56.525+00:00</time>
      </trkpt>
      <trkpt lat="45.91309" lon="-1.02548">
        <ele>16</ele>
        <time>2023-07-21T12:25:00.706+00:00</time>
      </trkpt>
      <trkpt lat="45.91291" lon="-1.0252">
        <ele>15</ele>
        <time>2023-07-21T12:25:06.811+00:00</time>
      </trkpt>
      <trkpt lat="45.91278" lon="-1.02508">
        <ele>15</ele>
        <time>2023-07-21T12:25:10.838+00:00</time>
      </trkpt>
      <trkpt lat="45.91266" lon="-1.02497">
        <ele>15</ele>
        <time>2023-07-21T12:25:15.351+00:00</time>
      </trkpt>
      <trkpt lat="45.91259" lon="-1.02488">
        <ele>13</ele>
        <time>2023-07-21T12:25:19.860+00:00</time>
      </trkpt>
      <trkpt lat="45.91258" lon="-1.02486">
        <ele>13</ele>
        <time>2023-07-21T12:25:24.368+00:00</time>
      </trkpt>
      <trkpt lat="45.91258" lon="-1.02486">
        <ele>14</ele>
        <time>2023-07-21T12:25:29.384+00:00</time>
      </trkpt>
      <trkpt lat="45.91258" lon="-1.02486">
        <ele>13</ele>
        <time>2023-07-21T12:25:33.406+00:00</time>
      </trkpt>
      <trkpt lat="45.91257" lon="-1.02487">
        <ele>13</ele>
        <time>2023-07-21T12:25:37.422+00:00</time>
      </trkpt>
      <trkpt lat="45.91258" lon="-1.02489">
        <ele>13</ele>
        <time>2023-07-21T12:25:42.542+00:00</time>
      </trkpt>
      <trkpt lat="45.91258" lon="-1.02483">
        <ele>14</ele>
        <time>2023-07-21T12:25:47.786+00:00</time>
      </trkpt>
      <trkpt lat="45.91251" lon="-1.02474">
        <ele>14</ele>
        <time>2023-07-21T12:25:52.080+00:00</time>
      </trkpt>
      <trkpt lat="45.91242" lon="-1.02459">
        <ele>14</ele>
        <time>2023-07-21T12:25:56.599+00:00</time>
      </trkpt>
      <trkpt lat="45.91237" lon="-1.02442">
        <ele>14</ele>
        <time>2023-07-21T12:26:00.611+00:00</time>
      </trkpt>
      <trkpt lat="45.91235" lon="-1.02423">
        <ele>16</ele>
        <time>2023-07-21T12:26:04.623+00:00</time>
      </trkpt>
      <trkpt lat="45.91234" lon="-1.02396">
        <ele>16</ele>
        <time>2023-07-21T12:26:09.136+00:00</time>
      </trkpt>
      <trkpt lat="45.91228" lon="-1.02373">
        <ele>18</ele>
        <time>2023-07-21T12:26:49.369+00:00</time>
      </trkpt>
      <trkpt lat="45.91226" lon="-1.02362">
        <ele>18</ele>
        <time>2023-07-21T12:26:53.885+00:00</time>
      </trkpt>
      <trkpt lat="45.91222" lon="-1.02353">
        <ele>18</ele>
        <time>2023-07-21T12:26:58.402+00:00</time>
      </trkpt>
      <trkpt lat="45.91218" lon="-1.02349">
        <ele>18</ele>
        <time>2023-07-21T12:27:02.416+00:00</time>
      </trkpt>
      <trkpt lat="45.91217" lon="-1.02349">
        <ele>18</ele>
        <time>2023-07-21T12:27:07.436+00:00</time>
      </trkpt>
      <trkpt lat="45.91215" lon="-1.02348">
        <ele>18</ele>
        <time>2023-07-21T12:27:11.451+00:00</time>
      </trkpt>
      <trkpt lat="45.91215" lon="-1.02348">
        <ele>18</ele>
        <time>2023-07-21T12:27:15.470+00:00</time>
      </trkpt>
      <trkpt lat="45.91215" lon="-1.02349">
        <ele>18</ele>
        <time>2023-07-21T12:27:20.495+00:00</time>
      </trkpt>
      <trkpt lat="45.91216" lon="-1.02351">
        <ele>18</ele>
        <time>2023-07-21T12:27:24.519+00:00</time>
      </trkpt>
      <trkpt lat="45.91222" lon="-1.02359">
        <ele>18</ele>
        <time>2023-07-21T12:27:29.541+00:00</time>
      </trkpt>
      <trkpt lat="45.91222" lon="-1.02358">
        <ele>18</ele>
        <time>2023-07-21T12:27:34.060+00:00</time>
      </trkpt>
      <trkpt lat="45.9122" lon="-1.02354">
        <ele>18</ele>
        <time>2023-07-21T12:27:38.577+00:00</time>
      </trkpt>
      <trkpt lat="45.91213" lon="-1.0234">
        <ele>18</ele>
        <time>2023-07-21T12:27:42.591+00:00</time>
      </trkpt>
      <trkpt lat="45.91204" lon="-1.02322">
        <ele>17</ele>
        <time>2023-07-21T12:27:47.103+00:00</time>
      </trkpt>
      <trkpt lat="45.9119" lon="-1.02303">
        <ele>17</ele>
        <time>2023-07-21T12:27:51.323+00:00</time>
      </trkpt>
      <trkpt lat="45.91178" lon="-1.02283">
        <ele>17</ele>
        <time>2023-07-21T12:27:55.330+00:00</time>
      </trkpt>
      <trkpt lat="45.91163" lon="-1.02262">
        <ele>17</ele>
        <time>2023-07-21T12:28:00.349+00:00</time>
      </trkpt>
      <trkpt lat="45.9115" lon="-1.02241">
        <ele>18</ele>
        <time>2023-07-21T12:28:04.449+00:00</time>
      </trkpt>
      <trkpt lat="45.91137" lon="-1.02222">
        <ele>18</ele>
        <time>2023-07-21T12:28:08.982+00:00</time>
      </trkpt>
      <trkpt lat="45.91126" lon="-1.02202">
        <ele>19</ele>
        <time>2023-07-21T12:28:13.165+00:00</time>
      </trkpt>
      <trkpt lat="45.91114" lon="-1.02185">
        <ele>21</ele>
        <time>2023-07-21T12:28:17.673+00:00</time>
      </trkpt>
      <trkpt lat="45.91101" lon="-1.02169">
        <ele>21</ele>
        <time>2023-07-21T12:28:21.680+00:00</time>
      </trkpt>
      <trkpt lat="45.91085" lon="-1.02149">
        <ele>21</ele>
        <time>2023-07-21T12:28:26.190+00:00</time>
      </trkpt>
      <trkpt lat="45.91073" lon="-1.0213">
        <ele>21</ele>
        <time>2023-07-21T12:28:30.204+00:00</time>
      </trkpt>
      <trkpt lat="45.91058" lon="-1.02108">
        <ele>20</ele>
        <time>2023-07-21T12:28:34.788+00:00</time>
      </trkpt>
      <trkpt lat="45.91044" lon="-1.02088">
        <ele>19</ele>
        <time>2023-07-21T12:28:39.275+00:00</time>
      </trkpt>
      <trkpt lat="45.9103" lon="-1.02069">
        <ele>18</ele>
        <time>2023-07-21T12:28:43.797+00:00</time>
      </trkpt>
      <trkpt lat="45.9101" lon="-1.02046">
        <ele>17</ele>
        <time>2023-07-21T12:28:48.778+00:00</time>
      </trkpt>
      <trkpt lat="45.90997" lon="-1.02027">
        <ele>17</ele>
        <time>2023-07-21T12:28:52.892+00:00</time>
      </trkpt>
      <trkpt lat="45.90985" lon="-1.02012">
        <ele>17</ele>
        <time>2023-07-21T12:28:57.454+00:00</time>
      </trkpt>
      <trkpt lat="45.90982" lon="-1.02006">
        <ele>17</ele>
        <time>2023-07-21T12:29:41.228+00:00</time>
      </trkpt>
      <trkpt lat="45.90983" lon="-1.02006">
        <ele>17</ele>
        <time>2023-07-21T12:29:45.744+00:00</time>
      </trkpt>
      <trkpt lat="45.90979" lon="-1.02001">
        <ele>17</ele>
        <time>2023-07-21T12:29:50.258+00:00</time>
      </trkpt>
      <trkpt lat="45.90967" lon="-1.01987">
        <ele>17</ele>
        <time>2023-07-21T12:29:54.369+00:00</time>
      </trkpt>
      <trkpt lat="45.9095" lon="-1.01967">
        <ele>18</ele>
        <time>2023-07-21T12:29:58.380+00:00</time>
      </trkpt>
      <trkpt lat="45.90935" lon="-1.01948">
        <ele>19</ele>
        <time>2023-07-21T12:30:02.892+00:00</time>
      </trkpt>
      <trkpt lat="45.90922" lon="-1.01932">
        <ele>18</ele>
        <time>2023-07-21T12:30:07.403+00:00</time>
      </trkpt>
      <trkpt lat="45.90911" lon="-1.01915">
        <ele>19</ele>
        <time>2023-07-21T12:30:11.412+00:00</time>
      </trkpt>
      <trkpt lat="45.909" lon="-1.01895">
        <ele>19</ele>
        <time>2023-07-21T12:30:15.422+00:00</time>
      </trkpt>
      <trkpt lat="45.90889" lon="-1.01869">
        <ele>19</ele>
        <time>2023-07-21T12:30:20.433+00:00</time>
      </trkpt>
      <trkpt lat="45.90883" lon="-1.01846">
        <ele>19</ele>
        <time>2023-07-21T12:30:24.944+00:00</time>
      </trkpt>
      <trkpt lat="45.90876" lon="-1.01822">
        <ele>19</ele>
        <time>2023-07-21T12:30:29.456+00:00</time>
      </trkpt>
      <trkpt lat="45.90872" lon="-1.018">
        <ele>17</ele>
        <time>2023-07-21T12:30:33.467+00:00</time>
      </trkpt>
      <trkpt lat="45.90877" lon="-1.01782">
        <ele>19</ele>
        <time>2023-07-21T12:30:37.979+00:00</time>
      </trkpt>
      <trkpt lat="45.90891" lon="-1.01769">
        <ele>19</ele>
        <time>2023-07-21T12:30:41.988+00:00</time>
      </trkpt>
      <trkpt lat="45.90903" lon="-1.01758">
        <ele>19</ele>
        <time>2023-07-21T12:30:46.096+00:00</time>
      </trkpt>
      <trkpt lat="45.90915" lon="-1.01748">
        <ele>19</ele>
        <time>2023-07-21T12:30:50.125+00:00</time>
      </trkpt>
      <trkpt lat="45.90929" lon="-1.01738">
        <ele>19</ele>
        <time>2023-07-21T12:30:54.235+00:00</time>
      </trkpt>
      <trkpt lat="45.90944" lon="-1.01725">
        <ele>20</ele>
        <time>2023-07-21T12:30:58.764+00:00</time>
      </trkpt>
      <trkpt lat="45.90962" lon="-1.0171">
        <ele>20</ele>
        <time>2023-07-21T12:31:03.775+00:00</time>
      </trkpt>
      <trkpt lat="45.90977" lon="-1.01696">
        <ele>20</ele>
        <time>2023-07-21T12:31:07.885+00:00</time>
      </trkpt>
      <trkpt lat="45.90997" lon="-1.0168">
        <ele>19</ele>
        <time>2023-07-21T12:31:12.794+00:00</time>
      </trkpt>
      <trkpt lat="45.91011" lon="-1.01668">
        <ele>19</ele>
        <time>2023-07-21T12:31:16.807+00:00</time>
      </trkpt>
      <trkpt lat="45.91026" lon="-1.01655">
        <ele>17</ele>
        <time>2023-07-21T12:31:21.017+00:00</time>
      </trkpt>
      <trkpt lat="45.91042" lon="-1.01641">
        <ele>17</ele>
        <time>2023-07-21T12:31:25.527+00:00</time>
      </trkpt>
      <trkpt lat="45.91058" lon="-1.01627">
        <ele>17</ele>
        <time>2023-07-21T12:31:29.536+00:00</time>
      </trkpt>
      <trkpt lat="45.91075" lon="-1.01613">
        <ele>18</ele>
        <time>2023-07-21T12:31:34.146+00:00</time>
      </trkpt>
      <trkpt lat="45.91092" lon="-1.01599">
        <ele>18</ele>
        <time>2023-07-21T12:31:38.656+00:00</time>
      </trkpt>
      <trkpt lat="45.91106" lon="-1.01585">
        <ele>19</ele>
        <time>2023-07-21T12:31:42.795+00:00</time>
      </trkpt>
      <trkpt lat="45.91122" lon="-1.01573">
        <ele>19</ele>
        <time>2023-07-21T12:31:46.805+00:00</time>
      </trkpt>
      <trkpt lat="45.91138" lon="-1.0156">
        <ele>20</ele>
        <time>2023-07-21T12:31:51.315+00:00</time>
      </trkpt>
      <trkpt lat="45.91155" lon="-1.01545">
        <ele>20</ele>
        <time>2023-07-21T12:31:56.324+00:00</time>
      </trkpt>
      <trkpt lat="45.91171" lon="-1.01531">
        <ele>20</ele>
        <time>2023-07-21T12:32:00.333+00:00</time>
      </trkpt>
      <trkpt lat="45.91189" lon="-1.01517">
        <ele>20</ele>
        <time>2023-07-21T12:32:05.042+00:00</time>
      </trkpt>
      <trkpt lat="45.91208" lon="-1.01502">
        <ele>20</ele>
        <time>2023-07-21T12:32:09.779+00:00</time>
      </trkpt>
      <trkpt lat="45.9123" lon="-1.01483">
        <ele>19</ele>
        <time>2023-07-21T12:32:14.793+00:00</time>
      </trkpt>
      <trkpt lat="45.91251" lon="-1.01464">
        <ele>18</ele>
        <time>2023-07-21T12:32:19.788+00:00</time>
      </trkpt>
      <trkpt lat="45.91272" lon="-1.01446">
        <ele>16</ele>
        <time>2023-07-21T12:32:24.811+00:00</time>
      </trkpt>
      <trkpt lat="45.91294" lon="-1.01426">
        <ele>16</ele>
        <time>2023-07-21T12:32:29.777+00:00</time>
      </trkpt>
      <trkpt lat="45.91317" lon="-1.01406">
        <ele>16</ele>
        <time>2023-07-21T12:32:34.786+00:00</time>
      </trkpt>
      <trkpt lat="45.91339" lon="-1.01387">
        <ele>16</ele>
        <time>2023-07-21T12:32:39.786+00:00</time>
      </trkpt>
      <trkpt lat="45.9136" lon="-1.01369">
        <ele>15</ele>
        <time>2023-07-21T12:32:44.792+00:00</time>
      </trkpt>
      <trkpt lat="45.9138" lon="-1.01351">
        <ele>15</ele>
        <time>2023-07-21T12:32:49.783+00:00</time>
      </trkpt>
      <trkpt lat="45.91394" lon="-1.01337">
        <ele>15</ele>
        <time>2023-07-21T12:32:53.788+00:00</time>
      </trkpt>
      <trkpt lat="45.91415" lon="-1.01318">
        <ele>14</ele>
        <time>2023-07-21T12:32:58.772+00:00</time>
      </trkpt>
      <trkpt lat="45.91439" lon="-1.01298">
        <ele>15</ele>
        <time>2023-07-21T12:33:03.785+00:00</time>
      </trkpt>
      <trkpt lat="45.91462" lon="-1.0128">
        <ele>15</ele>
        <time>2023-07-21T12:33:08.783+00:00</time>
      </trkpt>
      <trkpt lat="45.91478" lon="-1.01266">
        <ele>15</ele>
        <time>2023-07-21T12:33:12.789+00:00</time>
      </trkpt>
      <trkpt lat="45.91495" lon="-1.01251">
        <ele>14</ele>
        <time>2023-07-21T12:33:16.791+00:00</time>
      </trkpt>
      <trkpt lat="45.91517" lon="-1.01233">
        <ele>14</ele>
        <time>2023-07-21T12:33:21.786+00:00</time>
      </trkpt>
      <trkpt lat="45.91537" lon="-1.01214">
        <ele>14</ele>
        <time>2023-07-21T12:33:26.771+00:00</time>
      </trkpt>
      <trkpt lat="45.91556" lon="-1.01199">
        <ele>14</ele>
        <time>2023-07-21T12:33:31.795+00:00</time>
      </trkpt>
      <trkpt lat="45.91572" lon="-1.01184">
        <ele>12</ele>
        <time>2023-07-21T12:33:36.330+00:00</time>
      </trkpt>
      <trkpt lat="45.91586" lon="-1.01174">
        <ele>12</ele>
        <time>2023-07-21T12:33:40.332+00:00</time>
      </trkpt>
      <trkpt lat="45.91601" lon="-1.0116">
        <ele>11</ele>
        <time>2023-07-21T12:33:45.414+00:00</time>
      </trkpt>
      <trkpt lat="45.91616" lon="-1.01139">
        <ele>12</ele>
        <time>2023-07-21T12:33:49.774+00:00</time>
      </trkpt>
      <trkpt lat="45.91631" lon="-1.01121">
        <ele>14</ele>
        <time>2023-07-21T12:33:53.820+00:00</time>
      </trkpt>
      <trkpt lat="45.9165" lon="-1.01098">
        <ele>14</ele>
        <time>2023-07-21T12:33:58.820+00:00</time>
      </trkpt>
      <trkpt lat="45.91669" lon="-1.01076">
        <ele>13</ele>
        <time>2023-07-21T12:34:03.808+00:00</time>
      </trkpt>
      <trkpt lat="45.91686" lon="-1.01058">
        <ele>13</ele>
        <time>2023-07-21T12:34:08.806+00:00</time>
      </trkpt>
      <trkpt lat="45.91701" lon="-1.01038">
        <ele>13</ele>
        <time>2023-07-21T12:34:13.297+00:00</time>
      </trkpt>
      <trkpt lat="45.91718" lon="-1.01021">
        <ele>14</ele>
        <time>2023-07-21T12:34:17.975+00:00</time>
      </trkpt>
      <trkpt lat="45.91735" lon="-1.01007">
        <ele>14</ele>
        <time>2023-07-21T12:34:22.652+00:00</time>
      </trkpt>
      <trkpt lat="45.9175" lon="-1.00995">
        <ele>14</ele>
        <time>2023-07-21T12:34:26.798+00:00</time>
      </trkpt>
      <trkpt lat="45.91769" lon="-1.00985">
        <ele>13</ele>
        <time>2023-07-21T12:34:31.352+00:00</time>
      </trkpt>
      <trkpt lat="45.91785" lon="-1.00975">
        <ele>13</ele>
        <time>2023-07-21T12:34:35.953+00:00</time>
      </trkpt>
      <trkpt lat="45.91799" lon="-1.00966">
        <ele>13</ele>
        <time>2023-07-21T12:34:39.907+00:00</time>
      </trkpt>
      <trkpt lat="45.91813" lon="-1.00957">
        <ele>13</ele>
        <time>2023-07-21T12:34:44.306+00:00</time>
      </trkpt>
      <trkpt lat="45.91834" lon="-1.00948">
        <ele>14</ele>
        <time>2023-07-21T12:34:49.784+00:00</time>
      </trkpt>
      <trkpt lat="45.91857" lon="-1.00942">
        <ele>15</ele>
        <time>2023-07-21T12:34:54.784+00:00</time>
      </trkpt>
      <trkpt lat="45.91876" lon="-1.00936">
        <ele>16</ele>
        <time>2023-07-21T12:34:58.801+00:00</time>
      </trkpt>
      <trkpt lat="45.919" lon="-1.00927">
        <ele>14</ele>
        <time>2023-07-21T12:35:03.792+00:00</time>
      </trkpt>
      <trkpt lat="45.91919" lon="-1.00922">
        <ele>15</ele>
        <time>2023-07-21T12:35:07.803+00:00</time>
      </trkpt>
      <trkpt lat="45.91944" lon="-1.00914">
        <ele>15</ele>
        <time>2023-07-21T12:35:12.799+00:00</time>
      </trkpt>
      <trkpt lat="45.91968" lon="-1.00909">
        <ele>15</ele>
        <time>2023-07-21T12:35:17.799+00:00</time>
      </trkpt>
      <trkpt lat="45.91986" lon="-1.009">
        <ele>15</ele>
        <time>2023-07-21T12:35:21.795+00:00</time>
      </trkpt>
      <trkpt lat="45.91998" lon="-1.00897">
        <ele>15</ele>
        <time>2023-07-21T12:35:26.791+00:00</time>
      </trkpt>
      <trkpt lat="45.92015" lon="-1.00892">
        <ele>16</ele>
        <time>2023-07-21T12:35:30.792+00:00</time>
      </trkpt>
      <trkpt lat="45.92032" lon="-1.00885">
        <ele>16</ele>
        <time>2023-07-21T12:35:34.850+00:00</time>
      </trkpt>
      <trkpt lat="45.92056" lon="-1.00881">
        <ele>16</ele>
        <time>2023-07-21T12:35:39.801+00:00</time>
      </trkpt>
      <trkpt lat="45.92078" lon="-1.00875">
        <ele>19</ele>
        <time>2023-07-21T12:35:44.782+00:00</time>
      </trkpt>
      <trkpt lat="45.92099" lon="-1.00867">
        <ele>19</ele>
        <time>2023-07-21T12:35:48.805+00:00</time>
      </trkpt>
      <trkpt lat="45.92124" lon="-1.00859">
        <ele>19</ele>
        <time>2023-07-21T12:35:53.806+00:00</time>
      </trkpt>
      <trkpt lat="45.92147" lon="-1.00853">
        <ele>18</ele>
        <time>2023-07-21T12:35:58.782+00:00</time>
      </trkpt>
      <trkpt lat="45.92164" lon="-1.00848">
        <ele>17</ele>
        <time>2023-07-21T12:36:02.799+00:00</time>
      </trkpt>
      <trkpt lat="45.92183" lon="-1.0084">
        <ele>17</ele>
        <time>2023-07-21T12:36:07.791+00:00</time>
      </trkpt>
      <trkpt lat="45.92203" lon="-1.00833">
        <ele>17</ele>
        <time>2023-07-21T12:36:12.383+00:00</time>
      </trkpt>
      <trkpt lat="45.92221" lon="-1.00831">
        <ele>16</ele>
        <time>2023-07-21T12:36:17+00:00</time>
      </trkpt>
      <trkpt lat="45.92231" lon="-1.00848">
        <ele>16</ele>
        <time>2023-07-21T12:36:21.554+00:00</time>
      </trkpt>
      <trkpt lat="45.92239" lon="-1.00872">
        <ele>15</ele>
        <time>2023-07-21T12:36:25.509+00:00</time>
      </trkpt>
      <trkpt lat="45.92246" lon="-1.00894">
        <ele>15</ele>
        <time>2023-07-21T12:36:29.582+00:00</time>
      </trkpt>
      <trkpt lat="45.92252" lon="-1.00921">
        <ele>16</ele>
        <time>2023-07-21T12:36:34.557+00:00</time>
      </trkpt>
      <trkpt lat="45.9226" lon="-1.00944">
        <ele>16</ele>
        <time>2023-07-21T12:36:39.159+00:00</time>
      </trkpt>
      <trkpt lat="45.92263" lon="-1.00969">
        <ele>16</ele>
        <time>2023-07-21T12:36:43.242+00:00</time>
      </trkpt>
      <trkpt lat="45.92268" lon="-1.00989">
        <ele>17</ele>
        <time>2023-07-21T12:36:47.139+00:00</time>
      </trkpt>
      <trkpt lat="45.92275" lon="-1.01013">
        <ele>17</ele>
        <time>2023-07-21T12:36:51.774+00:00</time>
      </trkpt>
      <trkpt lat="45.92281" lon="-1.01035">
        <ele>16</ele>
        <time>2023-07-21T12:36:56.328+00:00</time>
      </trkpt>
      <trkpt lat="45.92287" lon="-1.01055">
        <ele>17</ele>
        <time>2023-07-21T12:37:00.985+00:00</time>
      </trkpt>
      <trkpt lat="45.92294" lon="-1.0107">
        <ele>15</ele>
        <time>2023-07-21T12:37:04.901+00:00</time>
      </trkpt>
      <trkpt lat="45.92304" lon="-1.01083">
        <ele>15</ele>
        <time>2023-07-21T12:37:09.455+00:00</time>
      </trkpt>
      <trkpt lat="45.92313" lon="-1.01093">
        <ele>15</ele>
        <time>2023-07-21T12:37:14.608+00:00</time>
      </trkpt>
      <trkpt lat="45.92324" lon="-1.01078">
        <ele>15</ele>
        <time>2023-07-21T12:37:18.735+00:00</time>
      </trkpt>
      <trkpt lat="45.92336" lon="-1.01063">
        <ele>15</ele>
        <time>2023-07-21T12:37:22.639+00:00</time>
      </trkpt>
      <trkpt lat="45.92349" lon="-1.0105">
        <ele>15</ele>
        <time>2023-07-21T12:37:26.594+00:00</time>
      </trkpt>
      <trkpt lat="45.92364" lon="-1.01033">
        <ele>15</ele>
        <time>2023-07-21T12:37:31.350+00:00</time>
      </trkpt>
      <trkpt lat="45.9237" lon="-1.01022">
        <ele>15</ele>
        <time>2023-07-21T12:37:35.367+00:00</time>
      </trkpt>
      <trkpt lat="45.9238" lon="-1.01019">
        <ele>15</ele>
        <time>2023-07-21T12:37:39.560+00:00</time>
      </trkpt>
      <trkpt lat="45.92391" lon="-1.01008">
        <ele>16</ele>
        <time>2023-07-21T12:37:44.785+00:00</time>
      </trkpt>
      <trkpt lat="45.92403" lon="-1.00997">
        <ele>16</ele>
        <time>2023-07-21T12:37:48.728+00:00</time>
      </trkpt>
      <trkpt lat="45.92413" lon="-1.00984">
        <ele>16</ele>
        <time>2023-07-21T12:37:53.283+00:00</time>
      </trkpt>
      <trkpt lat="45.9242" lon="-1.00975">
        <ele>16</ele>
        <time>2023-07-21T12:37:57.654+00:00</time>
      </trkpt>
      <trkpt lat="45.92412" lon="-1.00952">
        <ele>16</ele>
        <time>2023-07-21T12:38:02.206+00:00</time>
      </trkpt>
      <trkpt lat="45.92408" lon="-1.00932">
        <ele>16</ele>
        <time>2023-07-21T12:38:06.800+00:00</time>
      </trkpt>
      <trkpt lat="45.92407" lon="-1.00917">
        <ele>16</ele>
        <time>2023-07-21T12:38:10.799+00:00</time>
      </trkpt>
      <trkpt lat="45.92399" lon="-1.00898">
        <ele>16</ele>
        <time>2023-07-21T12:38:15.263+00:00</time>
      </trkpt>
      <trkpt lat="45.92392" lon="-1.00875">
        <ele>17</ele>
        <time>2023-07-21T12:38:19.335+00:00</time>
      </trkpt>
      <trkpt lat="45.92386" lon="-1.00852">
        <ele>17</ele>
        <time>2023-07-21T12:38:23.807+00:00</time>
      </trkpt>
      <trkpt lat="45.92378" lon="-1.00821">
        <ele>16</ele>
        <time>2023-07-21T12:38:28.824+00:00</time>
      </trkpt>
      <trkpt lat="45.92373" lon="-1.00798">
        <ele>15</ele>
        <time>2023-07-21T12:38:33.345+00:00</time>
      </trkpt>
      <trkpt lat="45.92383" lon="-1.00787">
        <ele>14</ele>
        <time>2023-07-21T12:38:37.344+00:00</time>
      </trkpt>
      <trkpt lat="45.924" lon="-1.00782">
        <ele>14</ele>
        <time>2023-07-21T12:38:41.809+00:00</time>
      </trkpt>
      <trkpt lat="45.92423" lon="-1.00774">
        <ele>13</ele>
        <time>2023-07-21T12:38:46.816+00:00</time>
      </trkpt>
      <trkpt lat="45.92441" lon="-1.00769">
        <ele>12</ele>
        <time>2023-07-21T12:38:50.822+00:00</time>
      </trkpt>
      <trkpt lat="45.92455" lon="-1.00763">
        <ele>12</ele>
        <time>2023-07-21T12:38:55.350+00:00</time>
      </trkpt>
      <trkpt lat="45.92457" lon="-1.0076">
        <ele>12</ele>
        <time>2023-07-21T12:39:00.542+00:00</time>
      </trkpt>
      <trkpt lat="45.92457" lon="-1.00761">
        <ele>12</ele>
        <time>2023-07-21T12:39:04.816+00:00</time>
      </trkpt>
      <trkpt lat="45.92465" lon="-1.00759">
        <ele>10</ele>
        <time>2023-07-21T12:39:09.813+00:00</time>
      </trkpt>
      <trkpt lat="45.92488" lon="-1.00772">
        <ele>9</ele>
        <time>2023-07-21T12:39:14.806+00:00</time>
      </trkpt>
      <trkpt lat="45.92507" lon="-1.00779">
        <ele>9</ele>
        <time>2023-07-21T12:39:18.805+00:00</time>
      </trkpt>
      <trkpt lat="45.92523" lon="-1.00786">
        <ele>7</ele>
        <time>2023-07-21T12:39:22.430+00:00</time>
      </trkpt>
      <trkpt lat="45.92543" lon="-1.00795">
        <ele>8</ele>
        <time>2023-07-21T12:39:27.221+00:00</time>
      </trkpt>
      <trkpt lat="45.92561" lon="-1.008">
        <ele>8</ele>
        <time>2023-07-21T12:39:31.773+00:00</time>
      </trkpt>
      <trkpt lat="45.92576" lon="-1.0081">
        <ele>11</ele>
        <time>2023-07-21T12:39:36.325+00:00</time>
      </trkpt>
      <trkpt lat="45.92587" lon="-1.00827">
        <ele>13</ele>
        <time>2023-07-21T12:39:40.519+00:00</time>
      </trkpt>
      <trkpt lat="45.92593" lon="-1.00832">
        <ele>13</ele>
        <time>2023-07-21T12:39:45.731+00:00</time>
      </trkpt>
      <trkpt lat="45.92593" lon="-1.00832">
        <ele>13</ele>
        <time>2023-07-21T12:39:46.330+00:00</time>
      </trkpt>
      <trkpt lat="45.92592" lon="-1.00835">
        <ele>13</ele>
        <time>2023-07-21T12:39:56.027+00:00</time>
      </trkpt>
      <trkpt lat="45.92594" lon="-1.00839">
        <ele>13</ele>
        <time>2023-07-21T12:40:00.542+00:00</time>
      </trkpt>
      <trkpt lat="45.92591" lon="-1.00836">
        <ele>13</ele>
        <time>2023-07-21T12:40:27.612+00:00</time>
      </trkpt>
      <trkpt lat="45.92608" lon="-1.00841">
        <ele>14</ele>
        <time>2023-07-21T12:40:31.622+00:00</time>
      </trkpt>
      <trkpt lat="45.92623" lon="-1.00829">
        <ele>14</ele>
        <time>2023-07-21T12:40:36.148+00:00</time>
      </trkpt>
      <trkpt lat="45.92633" lon="-1.0082">
        <ele>15</ele>
        <time>2023-07-21T12:40:40.158+00:00</time>
      </trkpt>
      <trkpt lat="45.92645" lon="-1.00815">
        <ele>16</ele>
        <time>2023-07-21T12:40:44.770+00:00</time>
      </trkpt>
      <trkpt lat="45.9265" lon="-1.00828">
        <ele>15</ele>
        <time>2023-07-21T12:40:58.002+00:00</time>
      </trkpt>
      <trkpt lat="45.92652" lon="-1.00832">
        <ele>15</ele>
        <time>2023-07-21T12:41:02.515+00:00</time>
      </trkpt>
      <trkpt lat="45.92651" lon="-1.00833">
        <ele>15</ele>
        <time>2023-07-21T12:41:07.532+00:00</time>
      </trkpt>
      <trkpt lat="45.92653" lon="-1.00834">
        <ele>15</ele>
        <time>2023-07-21T12:41:11.546+00:00</time>
      </trkpt>
      <trkpt lat="45.92655" lon="-1.00838">
        <ele>15</ele>
        <time>2023-07-21T12:41:16.062+00:00</time>
      </trkpt>
      <trkpt lat="45.92665" lon="-1.00847">
        <ele>15</ele>
        <time>2023-07-21T12:41:25.593+00:00</time>
      </trkpt>
      <trkpt lat="45.92664" lon="-1.00842">
        <ele>15</ele>
        <time>2023-07-21T12:41:29.607+00:00</time>
      </trkpt>
      <trkpt lat="45.92664" lon="-1.0084">
        <ele>15</ele>
        <time>2023-07-21T12:41:34.125+00:00</time>
      </trkpt>
      <trkpt lat="45.9266" lon="-1.00839">
        <ele>15</ele>
        <time>2023-07-21T12:41:38.140+00:00</time>
      </trkpt>
      <trkpt lat="45.92652" lon="-1.00831">
        <ele>15</ele>
        <time>2023-07-21T12:41:42.654+00:00</time>
      </trkpt>
      <trkpt lat="45.9265" lon="-1.00826">
        <ele>15</ele>
        <time>2023-07-21T12:41:55.693+00:00</time>
      </trkpt>
      <trkpt lat="45.92655" lon="-1.00813">
        <ele>16</ele>
        <time>2023-07-21T12:42:00.708+00:00</time>
      </trkpt>
      <trkpt lat="45.92663" lon="-1.00803">
        <ele>16</ele>
        <time>2023-07-21T12:42:05.721+00:00</time>
      </trkpt>
      <trkpt lat="45.92663" lon="-1.00804">
        <ele>16</ele>
        <time>2023-07-21T12:42:10.733+00:00</time>
      </trkpt>
      <trkpt lat="45.92665" lon="-1.00804">
        <ele>16</ele>
        <time>2023-07-21T12:42:15.746+00:00</time>
      </trkpt>
      <trkpt lat="45.92664" lon="-1.00804">
        <ele>16</ele>
        <time>2023-07-21T12:42:37.501+00:00</time>
      </trkpt>
      <trkpt lat="45.92665" lon="-1.00799">
        <ele>16</ele>
        <time>2023-07-21T12:42:42.103+00:00</time>
      </trkpt>
      <trkpt lat="45.92665" lon="-1.00795">
        <ele>16</ele>
        <time>2023-07-21T12:42:46.646+00:00</time>
      </trkpt>
      <trkpt lat="45.92662" lon="-1.00791">
        <ele>16</ele>
        <time>2023-07-21T12:42:51.387+00:00</time>
      </trkpt>
      <trkpt lat="45.92662" lon="-1.00791">
        <ele>16</ele>
        <time>2023-07-21T12:42:55.818+00:00</time>
      </trkpt>
      <trkpt lat="45.92662" lon="-1.00787">
        <ele>16</ele>
        <time>2023-07-21T12:43:00.339+00:00</time>
      </trkpt>
      <trkpt lat="45.92656" lon="-1.00787">
        <ele>16</ele>
        <time>2023-07-21T12:43:05.356+00:00</time>
      </trkpt>
      <trkpt lat="45.92665" lon="-1.00772">
        <ele>16</ele>
        <time>2023-07-21T12:43:09.870+00:00</time>
      </trkpt>
      <trkpt lat="45.92665" lon="-1.00755">
        <ele>16</ele>
        <time>2023-07-21T12:43:14.385+00:00</time>
      </trkpt>
      <trkpt lat="45.9266" lon="-1.00739">
        <ele>16</ele>
        <time>2023-07-21T12:43:37.453+00:00</time>
      </trkpt>
      <trkpt lat="45.92662" lon="-1.00745">
        <ele>16</ele>
        <time>2023-07-21T12:43:41.965+00:00</time>
      </trkpt>
      <trkpt lat="45.92665" lon="-1.00749">
        <ele>16</ele>
        <time>2023-07-21T12:43:46.475+00:00</time>
      </trkpt>
      <trkpt lat="45.92665" lon="-1.00755">
        <ele>16</ele>
        <time>2023-07-21T12:43:50.480+00:00</time>
      </trkpt>
      <trkpt lat="45.92663" lon="-1.00772">
        <ele>16</ele>
        <time>2023-07-21T12:43:54.483+00:00</time>
      </trkpt>
      <trkpt lat="45.92663" lon="-1.00788">
        <ele>16</ele>
        <time>2023-07-21T12:43:59.184+00:00</time>
      </trkpt>
      <trkpt lat="45.92662" lon="-1.00792">
        <ele>16</ele>
        <time>2023-07-21T12:44:03.734+00:00</time>
      </trkpt>
      <trkpt lat="45.92666" lon="-1.008">
        <ele>16</ele>
        <time>2023-07-21T12:44:08.250+00:00</time>
      </trkpt>
      <trkpt lat="45.92668" lon="-1.00803">
        <ele>16</ele>
        <time>2023-07-21T12:44:12.262+00:00</time>
      </trkpt>
      <trkpt lat="45.92667" lon="-1.00804">
        <ele>16</ele>
        <time>2023-07-21T12:44:14.774+00:00</time>
      </trkpt>
      <trkpt lat="45.92662" lon="-1.00817">
        <ele>16</ele>
        <time>2023-07-21T12:44:23.404+00:00</time>
      </trkpt>
      <trkpt lat="45.9266" lon="-1.00822">
        <ele>15</ele>
        <time>2023-07-21T12:44:27.511+00:00</time>
      </trkpt>
      <trkpt lat="45.92659" lon="-1.00825">
        <ele>15</ele>
        <time>2023-07-21T12:44:32.517+00:00</time>
      </trkpt>
      <trkpt lat="45.9266" lon="-1.00826">
        <ele>15</ele>
        <time>2023-07-21T12:44:37.524+00:00</time>
      </trkpt>
      <trkpt lat="45.92659" lon="-1.00826">
        <ele>15</ele>
        <time>2023-07-21T12:44:42.031+00:00</time>
      </trkpt>
      <trkpt lat="45.9266" lon="-1.0082">
        <ele>15</ele>
        <time>2023-07-21T12:44:46.137+00:00</time>
      </trkpt>
      <trkpt lat="45.9266" lon="-1.0081">
        <ele>16</ele>
        <time>2023-07-21T12:44:50.749+00:00</time>
      </trkpt>
      <trkpt lat="45.92666" lon="-1.00805">
        <ele>16</ele>
        <time>2023-07-21T12:44:59.365+00:00</time>
      </trkpt>
      <trkpt lat="45.92667" lon="-1.00806">
        <ele>16</ele>
        <time>2023-07-21T12:45:04.370+00:00</time>
      </trkpt>
      <trkpt lat="45.92669" lon="-1.00801">
        <ele>16</ele>
        <time>2023-07-21T12:45:08.894+00:00</time>
      </trkpt>
      <trkpt lat="45.92667" lon="-1.00794">
        <ele>16</ele>
        <time>2023-07-21T12:45:13.014+00:00</time>
      </trkpt>
      <trkpt lat="45.92666" lon="-1.00791">
        <ele>16</ele>
        <time>2023-07-21T12:45:17.517+00:00</time>
      </trkpt>
      <trkpt lat="45.92661" lon="-1.00805">
        <ele>16</ele>
        <time>2023-07-21T12:47:23.344+00:00</time>
      </trkpt>
      <trkpt lat="45.92668" lon="-1.00808">
        <ele>16</ele>
        <time>2023-07-21T12:47:28.419+00:00</time>
      </trkpt>
      <trkpt lat="45.92683" lon="-1.008">
        <ele>15</ele>
        <time>2023-07-21T12:47:33.565+00:00</time>
      </trkpt>
      <trkpt lat="45.92695" lon="-1.00803">
        <ele>15</ele>
        <time>2023-07-21T12:47:37.520+00:00</time>
      </trkpt>
      <trkpt lat="45.92704" lon="-1.0081">
        <ele>15</ele>
        <time>2023-07-21T12:47:41.595+00:00</time>
      </trkpt>
      <trkpt lat="45.9271" lon="-1.00818">
        <ele>15</ele>
        <time>2023-07-21T12:47:46.628+00:00</time>
      </trkpt>
      <trkpt lat="45.9271" lon="-1.00817">
        <ele>15</ele>
        <time>2023-07-21T12:47:50.704+00:00</time>
      </trkpt>
      <trkpt lat="45.92709" lon="-1.00822">
        <ele>14</ele>
        <time>2023-07-21T12:47:55.321+00:00</time>
      </trkpt>
      <trkpt lat="45.92703" lon="-1.00843">
        <ele>15</ele>
        <time>2023-07-21T12:48:00.554+00:00</time>
      </trkpt>
      <trkpt lat="45.92698" lon="-1.00863">
        <ele>15</ele>
        <time>2023-07-21T12:48:04.510+00:00</time>
      </trkpt>
      <trkpt lat="45.92691" lon="-1.00885">
        <ele>14</ele>
        <time>2023-07-21T12:48:09.663+00:00</time>
      </trkpt>
      <trkpt lat="45.9268" lon="-1.00893">
        <ele>14</ele>
        <time>2023-07-21T12:48:14.296+00:00</time>
      </trkpt>
      <trkpt lat="45.92664" lon="-1.00896">
        <ele>14</ele>
        <time>2023-07-21T12:48:19.568+00:00</time>
      </trkpt>
      <trkpt lat="45.92648" lon="-1.00903">
        <ele>15</ele>
        <time>2023-07-21T12:48:24.111+00:00</time>
      </trkpt>
      <trkpt lat="45.92631" lon="-1.00907">
        <ele>15</ele>
        <time>2023-07-21T12:48:28.672+00:00</time>
      </trkpt>
      <trkpt lat="45.92619" lon="-1.00912">
        <ele>14</ele>
        <time>2023-07-21T12:48:32.625+00:00</time>
      </trkpt>
      <trkpt lat="45.92615" lon="-1.00914">
        <ele>14</ele>
        <time>2023-07-21T12:48:37.300+00:00</time>
      </trkpt>
      <trkpt lat="45.92615" lon="-1.00915">
        <ele>14</ele>
        <time>2023-07-21T12:48:41.317+00:00</time>
      </trkpt>
      <trkpt lat="45.92616" lon="-1.00917">
        <ele>14</ele>
        <time>2023-07-21T12:48:46.612+00:00</time>
      </trkpt>
      <trkpt lat="45.92609" lon="-1.00927">
        <ele>14</ele>
        <time>2023-07-21T12:48:50.670+00:00</time>
      </trkpt>
      <trkpt lat="45.92614" lon="-1.00941">
        <ele>15</ele>
        <time>2023-07-21T12:48:55.721+00:00</time>
      </trkpt>
      <trkpt lat="45.92617" lon="-1.00948">
        <ele>15</ele>
        <time>2023-07-21T12:49:36.525+00:00</time>
      </trkpt>
      <trkpt lat="45.92611" lon="-1.00932">
        <ele>15</ele>
        <time>2023-07-21T12:49:40.719+00:00</time>
      </trkpt>
      <trkpt lat="45.92605" lon="-1.0091">
        <ele>14</ele>
        <time>2023-07-21T12:49:45.234+00:00</time>
      </trkpt>
      <trkpt lat="45.92599" lon="-1.00889">
        <ele>14</ele>
        <time>2023-07-21T12:49:49.800+00:00</time>
      </trkpt>
      <trkpt lat="45.9259" lon="-1.00867">
        <ele>14</ele>
        <time>2023-07-21T12:49:54.326+00:00</time>
      </trkpt>
      <trkpt lat="45.92583" lon="-1.00856">
        <ele>14</ele>
        <time>2023-07-21T12:49:58.402+00:00</time>
      </trkpt>
      <trkpt lat="45.92581" lon="-1.00846">
        <ele>13</ele>
        <time>2023-07-21T12:50:02.379+00:00</time>
      </trkpt>
      <trkpt lat="45.92591" lon="-1.00844">
        <ele>13</ele>
        <time>2023-07-21T12:50:06.914+00:00</time>
      </trkpt>
      <trkpt lat="45.92606" lon="-1.0084">
        <ele>14</ele>
        <time>2023-07-21T12:50:11.530+00:00</time>
      </trkpt>
      <trkpt lat="45.92614" lon="-1.00836">
        <ele>14</ele>
        <time>2023-07-21T12:50:38.111+00:00</time>
      </trkpt>
      <trkpt lat="45.92601" lon="-1.00848">
        <ele>14</ele>
        <time>2023-07-21T12:50:42.012+00:00</time>
      </trkpt>
      <trkpt lat="45.92597" lon="-1.00854">
        <ele>14</ele>
        <time>2023-07-21T12:50:46.111+00:00</time>
      </trkpt>
      <trkpt lat="45.92586" lon="-1.00849">
        <ele>14</ele>
        <time>2023-07-21T12:50:50.721+00:00</time>
      </trkpt>
      <trkpt lat="45.92575" lon="-1.00823">
        <ele>13</ele>
        <time>2023-07-21T12:50:55.376+00:00</time>
      </trkpt>
      <trkpt lat="45.92556" lon="-1.00806">
        <ele>8</ele>
        <time>2023-07-21T12:50:59.803+00:00</time>
      </trkpt>
      <trkpt lat="45.92526" lon="-1.00795">
        <ele>9</ele>
        <time>2023-07-21T12:51:04.833+00:00</time>
      </trkpt>
      <trkpt lat="45.92499" lon="-1.00783">
        <ele>9</ele>
        <time>2023-07-21T12:51:09.805+00:00</time>
      </trkpt>
      <trkpt lat="45.92476" lon="-1.00776">
        <ele>11</ele>
        <time>2023-07-21T12:51:14.821+00:00</time>
      </trkpt>
      <trkpt lat="45.9246" lon="-1.00768">
        <ele>11</ele>
        <time>2023-07-21T12:51:18.819+00:00</time>
      </trkpt>
      <trkpt lat="45.92452" lon="-1.00735">
        <ele>12</ele>
        <time>2023-07-21T12:51:23.845+00:00</time>
      </trkpt>
      <trkpt lat="45.92444" lon="-1.00709">
        <ele>12</ele>
        <time>2023-07-21T12:51:27.842+00:00</time>
      </trkpt>
      <trkpt lat="45.92434" lon="-1.00687">
        <ele>12</ele>
        <time>2023-07-21T12:51:31.990+00:00</time>
      </trkpt>
      <trkpt lat="45.92424" lon="-1.00665">
        <ele>13</ele>
        <time>2023-07-21T12:51:36.182+00:00</time>
      </trkpt>
      <trkpt lat="45.92417" lon="-1.0064">
        <ele>13</ele>
        <time>2023-07-21T12:51:40.915+00:00</time>
      </trkpt>
      <trkpt lat="45.92409" lon="-1.00617">
        <ele>13</ele>
        <time>2023-07-21T12:51:44.927+00:00</time>
      </trkpt>
      <trkpt lat="45.924" lon="-1.00588">
        <ele>14</ele>
        <time>2023-07-21T12:51:49.800+00:00</time>
      </trkpt>
      <trkpt lat="45.92392" lon="-1.00569">
        <ele>14</ele>
        <time>2023-07-21T12:51:53.377+00:00</time>
      </trkpt>
      <trkpt lat="45.9238" lon="-1.00543">
        <ele>14</ele>
        <time>2023-07-21T12:51:58.768+00:00</time>
      </trkpt>
      <trkpt lat="45.92376" lon="-1.00525">
        <ele>14</ele>
        <time>2023-07-21T12:52:03.322+00:00</time>
      </trkpt>
      <trkpt lat="45.92361" lon="-1.00509">
        <ele>15</ele>
        <time>2023-07-21T12:52:07.397+00:00</time>
      </trkpt>
      <trkpt lat="45.92351" lon="-1.00492">
        <ele>15</ele>
        <time>2023-07-21T12:52:11.351+00:00</time>
      </trkpt>
      <trkpt lat="45.92337" lon="-1.00473">
        <ele>14</ele>
        <time>2023-07-21T12:52:16.583+00:00</time>
      </trkpt>
      <trkpt lat="45.92327" lon="-1.00457">
        <ele>14</ele>
        <time>2023-07-21T12:52:20.777+00:00</time>
      </trkpt>
      <trkpt lat="45.92314" lon="-1.00437">
        <ele>15</ele>
        <time>2023-07-21T12:52:25.328+00:00</time>
      </trkpt>
      <trkpt lat="45.92301" lon="-1.00421">
        <ele>15</ele>
        <time>2023-07-21T12:52:29.341+00:00</time>
      </trkpt>
      <trkpt lat="45.92286" lon="-1.00403">
        <ele>16</ele>
        <time>2023-07-21T12:52:34.614+00:00</time>
      </trkpt>
      <trkpt lat="45.92274" lon="-1.00391">
        <ele>16</ele>
        <time>2023-07-21T12:52:38.209+00:00</time>
      </trkpt>
      <trkpt lat="45.9226" lon="-1.00377">
        <ele>16</ele>
        <time>2023-07-21T12:52:42.799+00:00</time>
      </trkpt>
      <trkpt lat="45.92244" lon="-1.00364">
        <ele>16</ele>
        <time>2023-07-21T12:52:47.281+00:00</time>
      </trkpt>
      <trkpt lat="45.92228" lon="-1.00353">
        <ele>15</ele>
        <time>2023-07-21T12:52:51.804+00:00</time>
      </trkpt>
      <trkpt lat="45.92212" lon="-1.00342">
        <ele>16</ele>
        <time>2023-07-21T12:52:55.815+00:00</time>
      </trkpt>
      <trkpt lat="45.92194" lon="-1.00334">
        <ele>14</ele>
        <time>2023-07-21T12:53:00.182+00:00</time>
      </trkpt>
      <trkpt lat="45.9216" lon="-1.00344">
        <ele>14</ele>
        <time>2023-07-21T12:53:28.660+00:00</time>
      </trkpt>
      <trkpt lat="45.9216" lon="-1.00344">
        <ele>14</ele>
        <time>2023-07-21T12:53:33.743+00:00</time>
      </trkpt>
      <trkpt lat="45.9216" lon="-1.00345">
        <ele>14</ele>
        <time>2023-07-21T12:53:37.792+00:00</time>
      </trkpt>
      <trkpt lat="45.9216" lon="-1.00345">
        <ele>14</ele>
        <time>2023-07-21T12:53:42.834+00:00</time>
      </trkpt>
      <trkpt lat="45.9216" lon="-1.00346">
        <ele>14</ele>
        <time>2023-07-21T12:53:47.811+00:00</time>
      </trkpt>
      <trkpt lat="45.9216" lon="-1.00346">
        <ele>14</ele>
        <time>2023-07-21T12:53:52.313+00:00</time>
      </trkpt>
      <trkpt lat="45.9216" lon="-1.00344">
        <ele>14</ele>
        <time>2023-07-21T12:53:56.804+00:00</time>
      </trkpt>
      <trkpt lat="45.92153" lon="-1.00329">
        <ele>14</ele>
        <time>2023-07-21T12:54:01.368+00:00</time>
      </trkpt>
      <trkpt lat="45.92148" lon="-1.00306">
        <ele>13</ele>
        <time>2023-07-21T12:54:05.925+00:00</time>
      </trkpt>
      <trkpt lat="45.92144" lon="-1.00296">
        <ele>13</ele>
        <time>2023-07-21T12:54:10.721+00:00</time>
      </trkpt>
      <trkpt lat="45.92135" lon="-1.00292">
        <ele>13</ele>
        <time>2023-07-21T12:54:14.678+00:00</time>
      </trkpt>
      <trkpt lat="45.9212" lon="-1.00285">
        <ele>13</ele>
        <time>2023-07-21T12:54:19.113+00:00</time>
      </trkpt>
      <trkpt lat="45.92103" lon="-1.00278">
        <ele>13</ele>
        <time>2023-07-21T12:54:23.595+00:00</time>
      </trkpt>
      <trkpt lat="45.92086" lon="-1.00269">
        <ele>13</ele>
        <time>2023-07-21T12:54:28.112+00:00</time>
      </trkpt>
      <trkpt lat="45.92065" lon="-1.00262">
        <ele>11</ele>
        <time>2023-07-21T12:54:32.820+00:00</time>
      </trkpt>
      <trkpt lat="45.92046" lon="-1.0025">
        <ele>11</ele>
        <time>2023-07-21T12:54:37.505+00:00</time>
      </trkpt>
      <trkpt lat="45.92026" lon="-1.00242">
        <ele>10</ele>
        <time>2023-07-21T12:54:41.801+00:00</time>
      </trkpt>
      <trkpt lat="45.92009" lon="-1.00232">
        <ele>10</ele>
        <time>2023-07-21T12:54:46.091+00:00</time>
      </trkpt>
      <trkpt lat="45.91994" lon="-1.00223">
        <ele>10</ele>
        <time>2023-07-21T12:54:50.586+00:00</time>
      </trkpt>
      <trkpt lat="45.91979" lon="-1.00217">
        <ele>10</ele>
        <time>2023-07-21T12:54:55.022+00:00</time>
      </trkpt>
      <trkpt lat="45.9197" lon="-1.0021">
        <ele>10</ele>
        <time>2023-07-21T12:54:59.091+00:00</time>
      </trkpt>
      <trkpt lat="45.91962" lon="-1.00206">
        <ele>10</ele>
        <time>2023-07-21T12:55:03.653+00:00</time>
      </trkpt>
      <trkpt lat="45.91945" lon="-1.00195">
        <ele>10</ele>
        <time>2023-07-21T12:55:08.209+00:00</time>
      </trkpt>
      <trkpt lat="45.91928" lon="-1.00177">
        <ele>10</ele>
        <time>2023-07-21T12:55:12.835+00:00</time>
      </trkpt>
      <trkpt lat="45.91914" lon="-1.00159">
        <ele>10</ele>
        <time>2023-07-21T12:55:17.324+00:00</time>
      </trkpt>
      <trkpt lat="45.91901" lon="-1.00137">
        <ele>10</ele>
        <time>2023-07-21T12:55:21.796+00:00</time>
      </trkpt>
      <trkpt lat="45.91887" lon="-1.00111">
        <ele>10</ele>
        <time>2023-07-21T12:55:26.789+00:00</time>
      </trkpt>
      <trkpt lat="45.91876" lon="-1.00089">
        <ele>10</ele>
        <time>2023-07-21T12:55:30.814+00:00</time>
      </trkpt>
      <trkpt lat="45.91862" lon="-1.00063">
        <ele>10</ele>
        <time>2023-07-21T12:55:35.819+00:00</time>
      </trkpt>
      <trkpt lat="45.9185" lon="-1.00041">
        <ele>9</ele>
        <time>2023-07-21T12:55:39.842+00:00</time>
      </trkpt>
      <trkpt lat="45.91836" lon="-1.00014">
        <ele>13</ele>
        <time>2023-07-21T12:55:44.808+00:00</time>
      </trkpt>
      <trkpt lat="45.91821" lon="-0.99987">
        <ele>14</ele>
        <time>2023-07-21T12:55:49.783+00:00</time>
      </trkpt>
      <trkpt lat="45.91809" lon="-0.99963">
        <ele>15</ele>
        <time>2023-07-21T12:55:53.838+00:00</time>
      </trkpt>
      <trkpt lat="45.91794" lon="-0.99935">
        <ele>12</ele>
        <time>2023-07-21T12:55:58.820+00:00</time>
      </trkpt>
      <trkpt lat="45.91785" lon="-0.99911">
        <ele>13</ele>
        <time>2023-07-21T12:56:03.814+00:00</time>
      </trkpt>
      <trkpt lat="45.91782" lon="-0.99894">
        <ele>13</ele>
        <time>2023-07-21T12:56:08.542+00:00</time>
      </trkpt>
      <trkpt lat="45.91773" lon="-0.99878">
        <ele>13</ele>
        <time>2023-07-21T12:56:12.560+00:00</time>
      </trkpt>
      <trkpt lat="45.91762" lon="-0.99864">
        <ele>13</ele>
        <time>2023-07-21T12:56:16.578+00:00</time>
      </trkpt>
      <trkpt lat="45.91748" lon="-0.9984">
        <ele>12</ele>
        <time>2023-07-21T12:56:21.375+00:00</time>
      </trkpt>
      <trkpt lat="45.91739" lon="-0.99814">
        <ele>12</ele>
        <time>2023-07-21T12:56:25.803+00:00</time>
      </trkpt>
      <trkpt lat="45.91729" lon="-0.99788">
        <ele>12</ele>
        <time>2023-07-21T12:56:29.814+00:00</time>
      </trkpt>
      <trkpt lat="45.9172" lon="-0.99764">
        <ele>12</ele>
        <time>2023-07-21T12:56:34.156+00:00</time>
      </trkpt>
      <trkpt lat="45.91712" lon="-0.99741">
        <ele>11</ele>
        <time>2023-07-21T12:56:38.953+00:00</time>
      </trkpt>
      <trkpt lat="45.91701" lon="-0.99714">
        <ele>8</ele>
        <time>2023-07-21T12:56:43.827+00:00</time>
      </trkpt>
      <trkpt lat="45.91693" lon="-0.99687">
        <ele>7</ele>
        <time>2023-07-21T12:56:48.345+00:00</time>
      </trkpt>
      <trkpt lat="45.91685" lon="-0.99665">
        <ele>7</ele>
        <time>2023-07-21T12:56:52.883+00:00</time>
      </trkpt>
      <trkpt lat="45.91675" lon="-0.99643">
        <ele>5</ele>
        <time>2023-07-21T12:56:57.303+00:00</time>
      </trkpt>
      <trkpt lat="45.91676" lon="-0.99628">
        <ele>5</ele>
        <time>2023-07-21T12:57:01.841+00:00</time>
      </trkpt>
      <trkpt lat="45.91676" lon="-0.99614">
        <ele>4</ele>
        <time>2023-07-21T12:57:06.420+00:00</time>
      </trkpt>
      <trkpt lat="45.91673" lon="-0.99601">
        <ele>4</ele>
        <time>2023-07-21T12:57:10.479+00:00</time>
      </trkpt>
      <trkpt lat="45.91665" lon="-0.99594">
        <ele>3</ele>
        <time>2023-07-21T12:57:14.319+00:00</time>
      </trkpt>
      <trkpt lat="45.9165" lon="-0.99582">
        <ele>3</ele>
        <time>2023-07-21T12:57:19.279+00:00</time>
      </trkpt>
      <trkpt lat="45.91639" lon="-0.99552">
        <ele>3</ele>
        <time>2023-07-21T12:57:23.811+00:00</time>
      </trkpt>
      <trkpt lat="45.91632" lon="-0.99515">
        <ele>1</ele>
        <time>2023-07-21T12:57:28.806+00:00</time>
      </trkpt>
      <trkpt lat="45.91618" lon="-0.99484">
        <ele>4</ele>
        <time>2023-07-21T12:57:33.807+00:00</time>
      </trkpt>
      <trkpt lat="45.91605" lon="-0.99455">
        <ele>5</ele>
        <time>2023-07-21T12:57:38.794+00:00</time>
      </trkpt>
      <trkpt lat="45.91598" lon="-0.99435">
        <ele>5</ele>
        <time>2023-07-21T12:57:42.805+00:00</time>
      </trkpt>
      <trkpt lat="45.9159" lon="-0.99408">
        <ele>6</ele>
        <time>2023-07-21T12:57:47.389+00:00</time>
      </trkpt>
      <trkpt lat="45.91584" lon="-0.9939">
        <ele>7</ele>
        <time>2023-07-21T12:57:51.526+00:00</time>
      </trkpt>
      <trkpt lat="45.91578" lon="-0.9938">
        <ele>7</ele>
        <time>2023-07-21T12:57:55.958+00:00</time>
      </trkpt>
      <trkpt lat="45.91572" lon="-0.99369">
        <ele>8</ele>
        <time>2023-07-21T12:58:00.255+00:00</time>
      </trkpt>
      <trkpt lat="45.91572" lon="-0.99357">
        <ele>8</ele>
        <time>2023-07-21T12:58:04.219+00:00</time>
      </trkpt>
      <trkpt lat="45.91564" lon="-0.99337">
        <ele>10</ele>
        <time>2023-07-21T12:58:08.416+00:00</time>
      </trkpt>
      <trkpt lat="45.91555" lon="-0.99314">
        <ele>10</ele>
        <time>2023-07-21T12:58:13.809+00:00</time>
      </trkpt>
      <trkpt lat="45.91547" lon="-0.99292">
        <ele>10</ele>
        <time>2023-07-21T12:58:18.610+00:00</time>
      </trkpt>
      <trkpt lat="45.91538" lon="-0.99269">
        <ele>12</ele>
        <time>2023-07-21T12:58:23.247+00:00</time>
      </trkpt>
      <trkpt lat="45.91529" lon="-0.99241">
        <ele>13</ele>
        <time>2023-07-21T12:58:27.809+00:00</time>
      </trkpt>
      <trkpt lat="45.91519" lon="-0.99218">
        <ele>15</ele>
        <time>2023-07-21T12:58:32.181+00:00</time>
      </trkpt>
      <trkpt lat="45.91511" lon="-0.99195">
        <ele>14</ele>
        <time>2023-07-21T12:58:36.795+00:00</time>
      </trkpt>
      <trkpt lat="45.91502" lon="-0.99178">
        <ele>15</ele>
        <time>2023-07-21T12:58:40.813+00:00</time>
      </trkpt>
      <trkpt lat="45.91501" lon="-0.99165">
        <ele>15</ele>
        <time>2023-07-21T12:58:44.797+00:00</time>
      </trkpt>
      <trkpt lat="45.91495" lon="-0.9916">
        <ele>15</ele>
        <time>2023-07-21T12:58:48.813+00:00</time>
      </trkpt>
      <trkpt lat="45.91492" lon="-0.99143">
        <ele>16</ele>
        <time>2023-07-21T12:58:53.391+00:00</time>
      </trkpt>
      <trkpt lat="45.91478" lon="-0.99108">
        <ele>13</ele>
        <time>2023-07-21T12:58:58.807+00:00</time>
      </trkpt>
      <trkpt lat="45.91465" lon="-0.99071">
        <ele>13</ele>
        <time>2023-07-21T12:59:03.807+00:00</time>
      </trkpt>
      <trkpt lat="45.91452" lon="-0.99033">
        <ele>12</ele>
        <time>2023-07-21T12:59:08.806+00:00</time>
      </trkpt>
      <trkpt lat="45.91441" lon="-0.99002">
        <ele>12</ele>
        <time>2023-07-21T12:59:12.797+00:00</time>
      </trkpt>
      <trkpt lat="45.91431" lon="-0.98973">
        <ele>10</ele>
        <time>2023-07-21T12:59:16.802+00:00</time>
      </trkpt>
      <trkpt lat="45.91418" lon="-0.98935">
        <ele>10</ele>
        <time>2023-07-21T12:59:21.778+00:00</time>
      </trkpt>
      <trkpt lat="45.91408" lon="-0.98908">
        <ele>9</ele>
        <time>2023-07-21T12:59:25.774+00:00</time>
      </trkpt>
      <trkpt lat="45.91396" lon="-0.98878">
        <ele>8</ele>
        <time>2023-07-21T12:59:29.831+00:00</time>
      </trkpt>
      <trkpt lat="45.91384" lon="-0.98844">
        <ele>8</ele>
        <time>2023-07-21T12:59:34.802+00:00</time>
      </trkpt>
      <trkpt lat="45.91374" lon="-0.98819">
        <ele>11</ele>
        <time>2023-07-21T12:59:38.793+00:00</time>
      </trkpt>
      <trkpt lat="45.91364" lon="-0.98789">
        <ele>11</ele>
        <time>2023-07-21T12:59:43.833+00:00</time>
      </trkpt>
      <trkpt lat="45.91352" lon="-0.98759">
        <ele>11</ele>
        <time>2023-07-21T12:59:48.809+00:00</time>
      </trkpt>
      <trkpt lat="45.91339" lon="-0.98726">
        <ele>13</ele>
        <time>2023-07-21T12:59:53.811+00:00</time>
      </trkpt>
      <trkpt lat="45.9133" lon="-0.98699">
        <ele>13</ele>
        <time>2023-07-21T12:59:57.854+00:00</time>
      </trkpt>
      <trkpt lat="45.91318" lon="-0.98669">
        <ele>12</ele>
        <time>2023-07-21T13:00:02.800+00:00</time>
      </trkpt>
      <trkpt lat="45.91309" lon="-0.98644">
        <ele>11</ele>
        <time>2023-07-21T13:00:06.802+00:00</time>
      </trkpt>
      <trkpt lat="45.91299" lon="-0.98618">
        <ele>10</ele>
        <time>2023-07-21T13:00:10.816+00:00</time>
      </trkpt>
      <trkpt lat="45.91288" lon="-0.98588">
        <ele>9</ele>
        <time>2023-07-21T13:00:15.809+00:00</time>
      </trkpt>
      <trkpt lat="45.91279" lon="-0.98564">
        <ele>9</ele>
        <time>2023-07-21T13:00:19.813+00:00</time>
      </trkpt>
      <trkpt lat="45.91272" lon="-0.98538">
        <ele>9</ele>
        <time>2023-07-21T13:00:24.811+00:00</time>
      </trkpt>
      <trkpt lat="45.91275" lon="-0.98499">
        <ele>9</ele>
        <time>2023-07-21T13:00:29.829+00:00</time>
      </trkpt>
      <trkpt lat="45.9128" lon="-0.98457">
        <ele>8</ele>
        <time>2023-07-21T13:00:34.822+00:00</time>
      </trkpt>
      <trkpt lat="45.91286" lon="-0.98424">
        <ele>8</ele>
        <time>2023-07-21T13:00:38.834+00:00</time>
      </trkpt>
      <trkpt lat="45.91292" lon="-0.98391">
        <ele>10</ele>
        <time>2023-07-21T13:00:43.806+00:00</time>
      </trkpt>
      <trkpt lat="45.91296" lon="-0.9837">
        <ele>9</ele>
        <time>2023-07-21T13:00:47.807+00:00</time>
      </trkpt>
      <trkpt lat="45.91297" lon="-0.98353">
        <ele>9</ele>
        <time>2023-07-21T13:00:52.074+00:00</time>
      </trkpt>
      <trkpt lat="45.91302" lon="-0.98331">
        <ele>8</ele>
        <time>2023-07-21T13:00:56.526+00:00</time>
      </trkpt>
      <trkpt lat="45.913" lon="-0.98302">
        <ele>6</ele>
        <time>2023-07-21T13:01:00.822+00:00</time>
      </trkpt>
      <trkpt lat="45.91293" lon="-0.98281">
        <ele>4</ele>
        <time>2023-07-21T13:01:04.980+00:00</time>
      </trkpt>
      <trkpt lat="45.91287" lon="-0.98265">
        <ele>4</ele>
        <time>2023-07-21T13:01:09.175+00:00</time>
      </trkpt>
      <trkpt lat="45.91279" lon="-0.98253">
        <ele>3</ele>
        <time>2023-07-21T13:01:13.370+00:00</time>
      </trkpt>
      <trkpt lat="45.91266" lon="-0.98226">
        <ele>2</ele>
        <time>2023-07-21T13:01:17.816+00:00</time>
      </trkpt>
      <trkpt lat="45.91253" lon="-0.98204">
        <ele>2</ele>
        <time>2023-07-21T13:01:21.822+00:00</time>
      </trkpt>
      <trkpt lat="45.91237" lon="-0.98174">
        <ele>2</ele>
        <time>2023-07-21T13:01:26.800+00:00</time>
      </trkpt>
      <trkpt lat="45.91226" lon="-0.98153">
        <ele>3</ele>
        <time>2023-07-21T13:01:30.813+00:00</time>
      </trkpt>
      <trkpt lat="45.91213" lon="-0.9813">
        <ele>3</ele>
        <time>2023-07-21T13:01:35.813+00:00</time>
      </trkpt>
      <trkpt lat="45.91206" lon="-0.98109">
        <ele>4</ele>
        <time>2023-07-21T13:01:39.624+00:00</time>
      </trkpt>
      <trkpt lat="45.91201" lon="-0.98078">
        <ele>4</ele>
        <time>2023-07-21T13:01:43.826+00:00</time>
      </trkpt>
      <trkpt lat="45.91209" lon="-0.98051">
        <ele>4</ele>
        <time>2023-07-21T13:01:47.821+00:00</time>
      </trkpt>
      <trkpt lat="45.91217" lon="-0.9802">
        <ele>5</ele>
        <time>2023-07-21T13:01:52.818+00:00</time>
      </trkpt>
      <trkpt lat="45.91219" lon="-0.97982">
        <ele>7</ele>
        <time>2023-07-21T13:01:57.803+00:00</time>
      </trkpt>
      <trkpt lat="45.91217" lon="-0.9796">
        <ele>7</ele>
        <time>2023-07-21T13:02:01.390+00:00</time>
      </trkpt>
      <trkpt lat="45.91224" lon="-0.97938">
        <ele>8</ele>
        <time>2023-07-21T13:02:06.066+00:00</time>
      </trkpt>
      <trkpt lat="45.91238" lon="-0.97912">
        <ele>8</ele>
        <time>2023-07-21T13:02:10.800+00:00</time>
      </trkpt>
      <trkpt lat="45.91253" lon="-0.97885">
        <ele>9</ele>
        <time>2023-07-21T13:02:15.815+00:00</time>
      </trkpt>
      <trkpt lat="45.9127" lon="-0.97864">
        <ele>7</ele>
        <time>2023-07-21T13:02:20.797+00:00</time>
      </trkpt>
      <trkpt lat="45.91285" lon="-0.97846">
        <ele>7</ele>
        <time>2023-07-21T13:02:24.792+00:00</time>
      </trkpt>
      <trkpt lat="45.91305" lon="-0.97825">
        <ele>7</ele>
        <time>2023-07-21T13:02:29.806+00:00</time>
      </trkpt>
      <trkpt lat="45.91326" lon="-0.97802">
        <ele>8</ele>
        <time>2023-07-21T13:02:34.807+00:00</time>
      </trkpt>
      <trkpt lat="45.91343" lon="-0.9778">
        <ele>8</ele>
        <time>2023-07-21T13:02:39.819+00:00</time>
      </trkpt>
      <trkpt lat="45.91336" lon="-0.97752">
        <ele>9</ele>
        <time>2023-07-21T13:02:44.820+00:00</time>
      </trkpt>
      <trkpt lat="45.91327" lon="-0.9773">
        <ele>9</ele>
        <time>2023-07-21T13:02:49.027+00:00</time>
      </trkpt>
      <trkpt lat="45.91317" lon="-0.97707">
        <ele>9</ele>
        <time>2023-07-21T13:02:53.548+00:00</time>
      </trkpt>
      <trkpt lat="45.91315" lon="-0.97692">
        <ele>9</ele>
        <time>2023-07-21T13:02:57.680+00:00</time>
      </trkpt>
      <trkpt lat="45.91317" lon="-0.9768">
        <ele>9</ele>
        <time>2023-07-21T13:03:02.229+00:00</time>
      </trkpt>
      <trkpt lat="45.91327" lon="-0.97656">
        <ele>9</ele>
        <time>2023-07-21T13:03:06.266+00:00</time>
      </trkpt>
      <trkpt lat="45.91336" lon="-0.97627">
        <ele>9</ele>
        <time>2023-07-21T13:03:10.792+00:00</time>
      </trkpt>
      <trkpt lat="45.91345" lon="-0.97602">
        <ele>8</ele>
        <time>2023-07-21T13:03:14.804+00:00</time>
      </trkpt>
      <trkpt lat="45.91352" lon="-0.97576">
        <ele>7</ele>
        <time>2023-07-21T13:03:18.814+00:00</time>
      </trkpt>
      <trkpt lat="45.9136" lon="-0.97546">
        <ele>7</ele>
        <time>2023-07-21T13:03:23.812+00:00</time>
      </trkpt>
      <trkpt lat="45.91365" lon="-0.97519">
        <ele>7</ele>
        <time>2023-07-21T13:03:27.816+00:00</time>
      </trkpt>
      <trkpt lat="45.91371" lon="-0.97488">
        <ele>8</ele>
        <time>2023-07-21T13:03:32.801+00:00</time>
      </trkpt>
      <trkpt lat="45.91378" lon="-0.97453">
        <ele>8</ele>
        <time>2023-07-21T13:03:37.827+00:00</time>
      </trkpt>
      <trkpt lat="45.91381" lon="-0.9742">
        <ele>8</ele>
        <time>2023-07-21T13:03:42.788+00:00</time>
      </trkpt>
      <trkpt lat="45.91378" lon="-0.97393">
        <ele>7</ele>
        <time>2023-07-21T13:03:46.803+00:00</time>
      </trkpt>
      <trkpt lat="45.91376" lon="-0.9736">
        <ele>6</ele>
        <time>2023-07-21T13:03:51.801+00:00</time>
      </trkpt>
      <trkpt lat="45.91374" lon="-0.97336">
        <ele>9</ele>
        <time>2023-07-21T13:03:55.814+00:00</time>
      </trkpt>
      <trkpt lat="45.91372" lon="-0.97303">
        <ele>9</ele>
        <time>2023-07-21T13:04:00.826+00:00</time>
      </trkpt>
      <trkpt lat="45.91369" lon="-0.97276">
        <ele>8</ele>
        <time>2023-07-21T13:04:05.522+00:00</time>
      </trkpt>
      <trkpt lat="45.91367" lon="-0.97249">
        <ele>8</ele>
        <time>2023-07-21T13:04:09.547+00:00</time>
      </trkpt>
      <trkpt lat="45.91364" lon="-0.97218">
        <ele>7</ele>
        <time>2023-07-21T13:04:13.814+00:00</time>
      </trkpt>
      <trkpt lat="45.91362" lon="-0.97184">
        <ele>8</ele>
        <time>2023-07-21T13:04:18.810+00:00</time>
      </trkpt>
      <trkpt lat="45.9136" lon="-0.97155">
        <ele>8</ele>
        <time>2023-07-21T13:04:22.808+00:00</time>
      </trkpt>
      <trkpt lat="45.91358" lon="-0.97119">
        <ele>7</ele>
        <time>2023-07-21T13:04:27.808+00:00</time>
      </trkpt>
      <trkpt lat="45.91359" lon="-0.9709">
        <ele>7</ele>
        <time>2023-07-21T13:04:31.821+00:00</time>
      </trkpt>
      <trkpt lat="45.9136" lon="-0.97054">
        <ele>7</ele>
        <time>2023-07-21T13:04:36.834+00:00</time>
      </trkpt>
      <trkpt lat="45.9136" lon="-0.97025">
        <ele>8</ele>
        <time>2023-07-21T13:04:40.817+00:00</time>
      </trkpt>
      <trkpt lat="45.91362" lon="-0.9699">
        <ele>8</ele>
        <time>2023-07-21T13:04:45.770+00:00</time>
      </trkpt>
      <trkpt lat="45.91363" lon="-0.96967">
        <ele>8</ele>
        <time>2023-07-21T13:04:49.783+00:00</time>
      </trkpt>
      <trkpt lat="45.91367" lon="-0.96945">
        <ele>8</ele>
        <time>2023-07-21T13:04:53.777+00:00</time>
      </trkpt>
      <trkpt lat="45.9137" lon="-0.96937">
        <ele>8</ele>
        <time>2023-07-21T13:12:23.799+00:00</time>
      </trkpt>
      <trkpt lat="45.91368" lon="-0.96932">
        <ele>8</ele>
        <time>2023-07-21T13:12:28.771+00:00</time>
      </trkpt>
      <trkpt lat="45.91369" lon="-0.96919">
        <ele>9</ele>
        <time>2023-07-21T13:12:32.779+00:00</time>
      </trkpt>
      <trkpt lat="45.9137" lon="-0.96904">
        <ele>9</ele>
        <time>2023-07-21T13:12:36.785+00:00</time>
      </trkpt>
      <trkpt lat="45.91369" lon="-0.96876">
        <ele>9</ele>
        <time>2023-07-21T13:12:41.789+00:00</time>
      </trkpt>
      <trkpt lat="45.91367" lon="-0.96852">
        <ele>9</ele>
        <time>2023-07-21T13:12:45.814+00:00</time>
      </trkpt>
      <trkpt lat="45.91362" lon="-0.96823">
        <ele>9</ele>
        <time>2023-07-21T13:12:50.783+00:00</time>
      </trkpt>
      <trkpt lat="45.91357" lon="-0.96794">
        <ele>10</ele>
        <time>2023-07-21T13:12:55.139+00:00</time>
      </trkpt>
      <trkpt lat="45.91349" lon="-0.96765">
        <ele>9</ele>
        <time>2023-07-21T13:12:59.772+00:00</time>
      </trkpt>
      <trkpt lat="45.91348" lon="-0.96743">
        <ele>9</ele>
        <time>2023-07-21T13:13:03.745+00:00</time>
      </trkpt>
      <trkpt lat="45.91363" lon="-0.96725">
        <ele>9</ele>
        <time>2023-07-21T13:13:08.541+00:00</time>
      </trkpt>
      <trkpt lat="45.91378" lon="-0.96707">
        <ele>7</ele>
        <time>2023-07-21T13:13:13.758+00:00</time>
      </trkpt>
      <trkpt lat="45.91386" lon="-0.96692">
        <ele>7</ele>
        <time>2023-07-21T13:13:17.336+00:00</time>
      </trkpt>
      <trkpt lat="45.91396" lon="-0.96668">
        <ele>8</ele>
        <time>2023-07-21T13:13:22.576+00:00</time>
      </trkpt>
      <trkpt lat="45.91402" lon="-0.96644">
        <ele>9</ele>
        <time>2023-07-21T13:13:26.769+00:00</time>
      </trkpt>
      <trkpt lat="45.91406" lon="-0.9662">
        <ele>8</ele>
        <time>2023-07-21T13:13:30.793+00:00</time>
      </trkpt>
      <trkpt lat="45.91407" lon="-0.96596">
        <ele>11</ele>
        <time>2023-07-21T13:13:34.900+00:00</time>
      </trkpt>
      <trkpt lat="45.9139" lon="-0.96588">
        <ele>14</ele>
        <time>2023-07-21T13:13:39.417+00:00</time>
      </trkpt>
      <trkpt lat="45.91376" lon="-0.96582">
        <ele>14</ele>
        <time>2023-07-21T13:13:43.592+00:00</time>
      </trkpt>
      <trkpt lat="45.91368" lon="-0.96569">
        <ele>15</ele>
        <time>2023-07-21T13:13:48.671+00:00</time>
      </trkpt>
      <trkpt lat="45.91363" lon="-0.96561">
        <ele>15</ele>
        <time>2023-07-21T13:13:52.586+00:00</time>
      </trkpt>
      <trkpt lat="45.91363" lon="-0.96551">
        <ele>15</ele>
        <time>2023-07-21T13:13:56.602+00:00</time>
      </trkpt>
      <trkpt lat="45.91369" lon="-0.96539">
        <ele>14</ele>
        <time>2023-07-21T13:14:01.756+00:00</time>
      </trkpt>
      <trkpt lat="45.91377" lon="-0.96513">
        <ele>12</ele>
        <time>2023-07-21T13:14:06.531+00:00</time>
      </trkpt>
      <trkpt lat="45.9139" lon="-0.96498">
        <ele>12</ele>
        <time>2023-07-21T13:14:10.587+00:00</time>
      </trkpt>
      <trkpt lat="45.91394" lon="-0.96478">
        <ele>10</ele>
        <time>2023-07-21T13:14:14.781+00:00</time>
      </trkpt>
      <trkpt lat="45.91413" lon="-0.96475">
        <ele>9</ele>
        <time>2023-07-21T13:14:19.576+00:00</time>
      </trkpt>
      <trkpt lat="45.91418" lon="-0.96448">
        <ele>9</ele>
        <time>2023-07-21T13:14:24.810+00:00</time>
      </trkpt>
      <trkpt lat="45.91413" lon="-0.96423">
        <ele>8</ele>
        <time>2023-07-21T13:14:28.786+00:00</time>
      </trkpt>
      <trkpt lat="45.91419" lon="-0.96395">
        <ele>8</ele>
        <time>2023-07-21T13:14:41.810+00:00</time>
      </trkpt>
      <trkpt lat="45.91418" lon="-0.96395">
        <ele>8</ele>
        <time>2023-07-21T13:14:46.401+00:00</time>
      </trkpt>
      <trkpt lat="45.91426" lon="-0.96389">
        <ele>8</ele>
        <time>2023-07-21T13:14:51.794+00:00</time>
      </trkpt>
      <trkpt lat="45.91444" lon="-0.9639">
        <ele>6</ele>
        <time>2023-07-21T13:14:56.370+00:00</time>
      </trkpt>
      <trkpt lat="45.91456" lon="-0.96382">
        <ele>6</ele>
        <time>2023-07-21T13:15:00.324+00:00</time>
      </trkpt>
      <trkpt lat="45.9148" lon="-0.96398">
        <ele>5</ele>
        <time>2023-07-21T13:15:18.181+00:00</time>
      </trkpt>
      <trkpt lat="45.9148" lon="-0.96399">
        <ele>5</ele>
        <time>2023-07-21T13:15:22.376+00:00</time>
      </trkpt>
      <trkpt lat="45.91481" lon="-0.96398">
        <ele>5</ele>
        <time>2023-07-21T13:15:27.495+00:00</time>
      </trkpt>
      <trkpt lat="45.91482" lon="-0.96398">
        <ele>5</ele>
        <time>2023-07-21T13:15:31.373+00:00</time>
      </trkpt>
      <trkpt lat="45.91482" lon="-0.96398">
        <ele>5</ele>
        <time>2023-07-21T13:15:36.527+00:00</time>
      </trkpt>
      <trkpt lat="45.91479" lon="-0.96396">
        <ele>5</ele>
        <time>2023-07-21T13:15:41.767+00:00</time>
      </trkpt>
      <trkpt lat="45.9148" lon="-0.96395">
        <ele>5</ele>
        <time>2023-07-21T13:15:46.652+00:00</time>
      </trkpt>
      <trkpt lat="45.91489" lon="-0.96391">
        <ele>4</ele>
        <time>2023-07-21T13:15:51.363+00:00</time>
      </trkpt>
      <trkpt lat="45.91494" lon="-0.96379">
        <ele>4</ele>
        <time>2023-07-21T13:15:55.873+00:00</time>
      </trkpt>
      <trkpt lat="45.91504" lon="-0.96378">
        <ele>4</ele>
        <time>2023-07-21T13:17:14.589+00:00</time>
      </trkpt>
      <trkpt lat="45.91489" lon="-0.96379">
        <ele>4</ele>
        <time>2023-07-21T13:17:19.202+00:00</time>
      </trkpt>
      <trkpt lat="45.91475" lon="-0.9638">
        <ele>5</ele>
        <time>2023-07-21T13:17:23.714+00:00</time>
      </trkpt>
      <trkpt lat="45.9147" lon="-0.96366">
        <ele>6</ele>
        <time>2023-07-21T13:17:27.741+00:00</time>
      </trkpt>
      <trkpt lat="45.91473" lon="-0.96347">
        <ele>6</ele>
        <time>2023-07-21T13:17:31.765+00:00</time>
      </trkpt>
      <trkpt lat="45.91471" lon="-0.96333">
        <ele>6</ele>
        <time>2023-07-21T13:17:36.359+00:00</time>
      </trkpt>
      <trkpt lat="45.91466" lon="-0.96314">
        <ele>6</ele>
        <time>2023-07-21T13:17:41.069+00:00</time>
      </trkpt>
      <trkpt lat="45.91465" lon="-0.96288">
        <ele>6</ele>
        <time>2023-07-21T13:17:45.579+00:00</time>
      </trkpt>
      <trkpt lat="45.91464" lon="-0.96262">
        <ele>5</ele>
        <time>2023-07-21T13:17:49.589+00:00</time>
      </trkpt>
      <trkpt lat="45.91462" lon="-0.96236">
        <ele>5</ele>
        <time>2023-07-21T13:17:54.200+00:00</time>
      </trkpt>
      <trkpt lat="45.91461" lon="-0.96216">
        <ele>5</ele>
        <time>2023-07-21T13:17:58.709+00:00</time>
      </trkpt>
      <trkpt lat="45.91461" lon="-0.96206">
        <ele>5</ele>
        <time>2023-07-21T13:18:03.217+00:00</time>
      </trkpt>
      <trkpt lat="45.91465" lon="-0.96194">
        <ele>5</ele>
        <time>2023-07-21T13:18:07.225+00:00</time>
      </trkpt>
      <trkpt lat="45.91469" lon="-0.96172">
        <ele>4</ele>
        <time>2023-07-21T13:18:11.732+00:00</time>
      </trkpt>
      <trkpt lat="45.91473" lon="-0.96146">
        <ele>4</ele>
        <time>2023-07-21T13:18:16.255+00:00</time>
      </trkpt>
      <trkpt lat="45.91476" lon="-0.96129">
        <ele>4</ele>
        <time>2023-07-21T13:18:20.345+00:00</time>
      </trkpt>
      <trkpt lat="45.91479" lon="-0.96114">
        <ele>6</ele>
        <time>2023-07-21T13:18:24.855+00:00</time>
      </trkpt>
      <trkpt lat="45.91486" lon="-0.96083">
        <ele>8</ele>
        <time>2023-07-21T13:18:48.516+00:00</time>
      </trkpt>
      <trkpt lat="45.91487" lon="-0.96083">
        <ele>14</ele>
        <time>2023-07-21T13:18:53.032+00:00</time>
      </trkpt>
      <trkpt lat="45.91496" lon="-0.96086">
        <ele>14</ele>
        <time>2023-07-21T13:18:57.547+00:00</time>
      </trkpt>
      <trkpt lat="45.9151" lon="-0.9609">
        <ele>14</ele>
        <time>2023-07-21T13:19:02.662+00:00</time>
      </trkpt>
      <trkpt lat="45.91515" lon="-0.96083">
        <ele>20</ele>
        <time>2023-07-21T13:19:07.276+00:00</time>
      </trkpt>
      <trkpt lat="45.91508" lon="-0.96074">
        <ele>14</ele>
        <time>2023-07-21T13:19:20.413+00:00</time>
      </trkpt>
      <trkpt lat="45.91508" lon="-0.96073">
        <ele>14</ele>
        <time>2023-07-21T13:19:24.426+00:00</time>
      </trkpt>
      <trkpt lat="45.91507" lon="-0.96072">
        <ele>14</ele>
        <time>2023-07-21T13:19:29.443+00:00</time>
      </trkpt>
      <trkpt lat="45.91511" lon="-0.96071">
        <ele>14</ele>
        <time>2023-07-21T13:19:33.957+00:00</time>
      </trkpt>
      <trkpt lat="45.91523" lon="-0.96078">
        <ele>20</ele>
        <time>2023-07-21T13:19:38.471+00:00</time>
      </trkpt>
      <trkpt lat="45.9153" lon="-0.96078">
        <ele>20</ele>
        <time>2023-07-21T13:22:55.166+00:00</time>
      </trkpt>
      <trkpt lat="45.91532" lon="-0.96074">
        <ele>20</ele>
        <time>2023-07-21T13:22:59.677+00:00</time>
      </trkpt>
      <trkpt lat="45.91538" lon="-0.96071">
        <ele>20</ele>
        <time>2023-07-21T13:23:04.187+00:00</time>
      </trkpt>
      <trkpt lat="45.91539" lon="-0.96072">
        <ele>20</ele>
        <time>2023-07-21T13:23:08.700+00:00</time>
      </trkpt>
      <trkpt lat="45.91542" lon="-0.9607">
        <ele>18</ele>
        <time>2023-07-21T13:23:12.810+00:00</time>
      </trkpt>
      <trkpt lat="45.91545" lon="-0.96066">
        <ele>16</ele>
        <time>2023-07-21T13:23:16.819+00:00</time>
      </trkpt>
      <trkpt lat="45.91551" lon="-0.96068">
        <ele>16</ele>
        <time>2023-07-21T13:23:20.827+00:00</time>
      </trkpt>
      <trkpt lat="45.91555" lon="-0.96071">
        <ele>18</ele>
        <time>2023-07-21T13:23:25.335+00:00</time>
      </trkpt>
      <trkpt lat="45.91557" lon="-0.96069">
        <ele>16</ele>
        <time>2023-07-21T13:23:30.447+00:00</time>
      </trkpt>
      <trkpt lat="45.91557" lon="-0.96072">
        <ele>18</ele>
        <time>2023-07-21T13:27:04.423+00:00</time>
      </trkpt>
      <trkpt lat="45.91564" lon="-0.96072">
        <ele>18</ele>
        <time>2023-07-21T13:27:08.377+00:00</time>
      </trkpt>
      <trkpt lat="45.91565" lon="-0.96073">
        <ele>18</ele>
        <time>2023-07-21T13:27:10.175+00:00</time>
      </trkpt>
      <trkpt lat="45.9157" lon="-0.96077">
        <ele>13</ele>
        <time>2023-07-21T13:27:17.367+00:00</time>
      </trkpt>
      <trkpt lat="45.91571" lon="-0.96074">
        <ele>13</ele>
        <time>2023-07-21T13:27:22.378+00:00</time>
      </trkpt>
      <trkpt lat="45.91574" lon="-0.96071">
        <ele>13</ele>
        <time>2023-07-21T13:27:26.889+00:00</time>
      </trkpt>
      <trkpt lat="45.91576" lon="-0.9607">
        <ele>13</ele>
        <time>2023-07-21T13:27:31.399+00:00</time>
      </trkpt>
      <trkpt lat="45.91581" lon="-0.96071">
        <ele>13</ele>
        <time>2023-07-21T13:27:35.763+00:00</time>
      </trkpt>
      <trkpt lat="45.91583" lon="-0.9607">
        <ele>13</ele>
        <time>2023-07-21T13:27:40.764+00:00</time>
      </trkpt>
      <trkpt lat="45.91583" lon="-0.96071">
        <ele>13</ele>
        <time>2023-07-21T13:27:45.432+00:00</time>
      </trkpt>
      <trkpt lat="45.91585" lon="-0.96072">
        <ele>13</ele>
        <time>2023-07-21T13:27:50.444+00:00</time>
      </trkpt>
      <trkpt lat="45.91587" lon="-0.96071">
        <ele>13</ele>
        <time>2023-07-21T13:27:54.554+00:00</time>
      </trkpt>
      <trkpt lat="45.9159" lon="-0.96071">
        <ele>13</ele>
        <time>2023-07-21T13:27:59.569+00:00</time>
      </trkpt>
      <trkpt lat="45.91593" lon="-0.96073">
        <ele>13</ele>
        <time>2023-07-21T13:28:04.083+00:00</time>
      </trkpt>
      <trkpt lat="45.91593" lon="-0.96073">
        <ele>13</ele>
        <time>2023-07-21T13:28:08.596+00:00</time>
      </trkpt>
      <trkpt lat="45.91596" lon="-0.96074">
        <ele>13</ele>
        <time>2023-07-21T13:28:13.625+00:00</time>
      </trkpt>
      <trkpt lat="45.91599" lon="-0.96074">
        <ele>13</ele>
        <time>2023-07-21T13:28:18.638+00:00</time>
      </trkpt>
      <trkpt lat="45.91602" lon="-0.96073">
        <ele>13</ele>
        <time>2023-07-21T13:28:22.650+00:00</time>
      </trkpt>
      <trkpt lat="45.91604" lon="-0.96074">
        <ele>13</ele>
        <time>2023-07-21T13:28:27.664+00:00</time>
      </trkpt>
      <trkpt lat="45.91607" lon="-0.96075">
        <ele>13</ele>
        <time>2023-07-21T13:28:31.673+00:00</time>
      </trkpt>
      <trkpt lat="45.9161" lon="-0.96076">
        <ele>13</ele>
        <time>2023-07-21T13:28:36.682+00:00</time>
      </trkpt>
      <trkpt lat="45.91611" lon="-0.96075">
        <ele>13</ele>
        <time>2023-07-21T13:28:41.740+00:00</time>
      </trkpt>
      <trkpt lat="45.91613" lon="-0.96073">
        <ele>13</ele>
        <time>2023-07-21T13:28:46.769+00:00</time>
      </trkpt>
      <trkpt lat="45.91618" lon="-0.96073">
        <ele>13</ele>
        <time>2023-07-21T13:28:51.784+00:00</time>
      </trkpt>
      <trkpt lat="45.91618" lon="-0.96072">
        <ele>13</ele>
        <time>2023-07-21T13:28:55.771+00:00</time>
      </trkpt>
      <trkpt lat="45.9162" lon="-0.96072">
        <ele>13</ele>
        <time>2023-07-21T13:29:00.775+00:00</time>
      </trkpt>
      <trkpt lat="45.91624" lon="-0.96074">
        <ele>13</ele>
        <time>2023-07-21T13:29:05.776+00:00</time>
      </trkpt>
      <trkpt lat="45.91626" lon="-0.96074">
        <ele>18</ele>
        <time>2023-07-21T13:29:10.780+00:00</time>
      </trkpt>
      <trkpt lat="45.91628" lon="-0.96074">
        <ele>18</ele>
        <time>2023-07-21T13:29:15.775+00:00</time>
      </trkpt>
      <trkpt lat="45.91632" lon="-0.96073">
        <ele>18</ele>
        <time>2023-07-21T13:29:20.786+00:00</time>
      </trkpt>
      <trkpt lat="45.91634" lon="-0.96074">
        <ele>18</ele>
        <time>2023-07-21T13:29:25.774+00:00</time>
      </trkpt>
      <trkpt lat="45.91639" lon="-0.96075">
        <ele>18</ele>
        <time>2023-07-21T13:29:30.778+00:00</time>
      </trkpt>
      <trkpt lat="45.91642" lon="-0.96077">
        <ele>18</ele>
        <time>2023-07-21T13:29:35.780+00:00</time>
      </trkpt>
      <trkpt lat="45.91644" lon="-0.96076">
        <ele>18</ele>
        <time>2023-07-21T13:29:39.770+00:00</time>
      </trkpt>
      <trkpt lat="45.91646" lon="-0.96077">
        <ele>18</ele>
        <time>2023-07-21T13:29:44.769+00:00</time>
      </trkpt>
      <trkpt lat="45.91649" lon="-0.96075">
        <ele>18</ele>
        <time>2023-07-21T13:29:49.772+00:00</time>
      </trkpt>
      <trkpt lat="45.91651" lon="-0.96075">
        <ele>18</ele>
        <time>2023-07-21T13:29:54.766+00:00</time>
      </trkpt>
      <trkpt lat="45.91653" lon="-0.96078">
        <ele>11</ele>
        <time>2023-07-21T13:29:59.783+00:00</time>
      </trkpt>
      <trkpt lat="45.91658" lon="-0.96079">
        <ele>11</ele>
        <time>2023-07-21T13:30:13.772+00:00</time>
      </trkpt>
      <trkpt lat="45.9166" lon="-0.96078">
        <ele>11</ele>
        <time>2023-07-21T13:30:18.762+00:00</time>
      </trkpt>
      <trkpt lat="45.91661" lon="-0.96077">
        <ele>11</ele>
        <time>2023-07-21T13:30:22.769+00:00</time>
      </trkpt>
      <trkpt lat="45.91662" lon="-0.96077">
        <ele>11</ele>
        <time>2023-07-21T13:30:27.774+00:00</time>
      </trkpt>
      <trkpt lat="45.91664" lon="-0.96077">
        <ele>11</ele>
        <time>2023-07-21T13:30:32.388+00:00</time>
      </trkpt>
      <trkpt lat="45.91668" lon="-0.96077">
        <ele>11</ele>
        <time>2023-07-21T13:30:37.783+00:00</time>
      </trkpt>
      <trkpt lat="45.91669" lon="-0.96078">
        <ele>11</ele>
        <time>2023-07-21T13:30:42.415+00:00</time>
      </trkpt>
      <trkpt lat="45.91673" lon="-0.96077">
        <ele>11</ele>
        <time>2023-07-21T13:30:47.763+00:00</time>
      </trkpt>
      <trkpt lat="45.91675" lon="-0.96077">
        <ele>11</ele>
        <time>2023-07-21T13:30:52.761+00:00</time>
      </trkpt>
      <trkpt lat="45.91677" lon="-0.96077">
        <ele>11</ele>
        <time>2023-07-21T13:30:56.762+00:00</time>
      </trkpt>
      <trkpt lat="45.9168" lon="-0.96078">
        <ele>11</ele>
        <time>2023-07-21T13:31:35.670+00:00</time>
      </trkpt>
      <trkpt lat="45.9168" lon="-0.96078">
        <ele>11</ele>
        <time>2023-07-21T13:31:39.682+00:00</time>
      </trkpt>
      <trkpt lat="45.91681" lon="-0.9608">
        <ele>-4</ele>
        <time>2023-07-21T13:31:43.708+00:00</time>
      </trkpt>
      <trkpt lat="45.91683" lon="-0.96085">
        <ele>-4</ele>
        <time>2023-07-21T13:31:48.722+00:00</time>
      </trkpt>
      <trkpt lat="45.91688" lon="-0.96086">
        <ele>-4</ele>
        <time>2023-07-21T13:31:53.235+00:00</time>
      </trkpt>
      <trkpt lat="45.91695" lon="-0.96082">
        <ele>-4</ele>
        <time>2023-07-21T13:32:01.258+00:00</time>
      </trkpt>
      <trkpt lat="45.91696" lon="-0.96086">
        <ele>-4</ele>
        <time>2023-07-21T13:32:05.773+00:00</time>
      </trkpt>
      <trkpt lat="45.91697" lon="-0.96087">
        <ele>-4</ele>
        <time>2023-07-21T13:32:10.381+00:00</time>
      </trkpt>
      <trkpt lat="45.91697" lon="-0.96087">
        <ele>-4</ele>
        <time>2023-07-21T13:32:14.394+00:00</time>
      </trkpt>
      <trkpt lat="45.91694" lon="-0.96103">
        <ele>-1</ele>
        <time>2023-07-21T13:32:19.410+00:00</time>
      </trkpt>
      <trkpt lat="45.91699" lon="-0.96116">
        <ele>-1</ele>
        <time>2023-07-21T13:32:23.922+00:00</time>
      </trkpt>
      <trkpt lat="45.91704" lon="-0.96127">
        <ele>2</ele>
        <time>2023-07-21T13:32:28.033+00:00</time>
      </trkpt>
      <trkpt lat="45.91707" lon="-0.96138">
        <ele>2</ele>
        <time>2023-07-21T13:32:32.047+00:00</time>
      </trkpt>
      <trkpt lat="45.91708" lon="-0.96148">
        <ele>2</ele>
        <time>2023-07-21T13:32:36.058+00:00</time>
      </trkpt>
      <trkpt lat="45.91711" lon="-0.96152">
        <ele>1</ele>
        <time>2023-07-21T13:32:40.569+00:00</time>
      </trkpt>
      <trkpt lat="45.91723" lon="-0.96152">
        <ele>1</ele>
        <time>2023-07-21T13:32:45.193+00:00</time>
      </trkpt>
      <trkpt lat="45.91738" lon="-0.96151">
        <ele>1</ele>
        <time>2023-07-21T13:32:49.573+00:00</time>
      </trkpt>
      <trkpt lat="45.91753" lon="-0.96151">
        <ele>1</ele>
        <time>2023-07-21T13:32:53.413+00:00</time>
      </trkpt>
      <trkpt lat="45.91782" lon="-0.96162">
        <ele>1</ele>
        <time>2023-07-21T13:33:15.508+00:00</time>
      </trkpt>
      <trkpt lat="45.91782" lon="-0.96162">
        <ele>1</ele>
        <time>2023-07-21T13:33:20.667+00:00</time>
      </trkpt>
      <trkpt lat="45.91782" lon="-0.96162">
        <ele>1</ele>
        <time>2023-07-21T13:33:24.624+00:00</time>
      </trkpt>
      <trkpt lat="45.91782" lon="-0.96163">
        <ele>1</ele>
        <time>2023-07-21T13:33:29.799+00:00</time>
      </trkpt>
      <trkpt lat="45.91781" lon="-0.96166">
        <ele>1</ele>
        <time>2023-07-21T13:33:34.450+00:00</time>
      </trkpt>
      <trkpt lat="45.91787" lon="-0.96176">
        <ele>1</ele>
        <time>2023-07-21T13:33:38.295+00:00</time>
      </trkpt>
      <trkpt lat="45.91781" lon="-0.9619">
        <ele>1</ele>
        <time>2023-07-21T13:33:42.539+00:00</time>
      </trkpt>
      <trkpt lat="45.91777" lon="-0.96218">
        <ele>1</ele>
        <time>2023-07-21T13:33:47.345+00:00</time>
      </trkpt>
      <trkpt lat="45.91774" lon="-0.96237">
        <ele>1</ele>
        <time>2023-07-21T13:33:51.351+00:00</time>
      </trkpt>
      <trkpt lat="45.91772" lon="-0.96259">
        <ele>1</ele>
        <time>2023-07-21T13:33:55.855+00:00</time>
      </trkpt>
      <trkpt lat="45.91771" lon="-0.96286">
        <ele>2</ele>
        <time>2023-07-21T13:34:00.556+00:00</time>
      </trkpt>
      <trkpt lat="45.91769" lon="-0.96313">
        <ele>3</ele>
        <time>2023-07-21T13:34:05.495+00:00</time>
      </trkpt>
      <trkpt lat="45.91767" lon="-0.96341">
        <ele>3</ele>
        <time>2023-07-21T13:34:10.656+00:00</time>
      </trkpt>
      <trkpt lat="45.91761" lon="-0.96396">
        <ele>3</ele>
        <time>2023-07-21T13:35:19.781+00:00</time>
      </trkpt>
      <trkpt lat="45.9176" lon="-0.96396">
        <ele>3</ele>
        <time>2023-07-21T13:35:24.583+00:00</time>
      </trkpt>
      <trkpt lat="45.91761" lon="-0.96396">
        <ele>3</ele>
        <time>2023-07-21T13:35:28.587+00:00</time>
      </trkpt>
      <trkpt lat="45.9176" lon="-0.96396">
        <ele>3</ele>
        <time>2023-07-21T13:35:32.590+00:00</time>
      </trkpt>
      <trkpt lat="45.9176" lon="-0.96397">
        <ele>3</ele>
        <time>2023-07-21T13:35:37.351+00:00</time>
      </trkpt>
      <trkpt lat="45.91761" lon="-0.96396">
        <ele>3</ele>
        <time>2023-07-21T13:40:03.810+00:00</time>
      </trkpt>
      <trkpt lat="45.91762" lon="-0.96396">
        <ele>3</ele>
        <time>2023-07-21T13:40:08.319+00:00</time>
      </trkpt>
      <trkpt lat="45.91762" lon="-0.96395">
        <ele>3</ele>
        <time>2023-07-21T13:40:12.418+00:00</time>
      </trkpt>
      <trkpt lat="45.91763" lon="-0.96396">
        <ele>3</ele>
        <time>2023-07-21T13:40:16.377+00:00</time>
      </trkpt>
      <trkpt lat="45.91768" lon="-0.96411">
        <ele>3</ele>
        <time>2023-07-21T13:40:21.538+00:00</time>
      </trkpt>
      <trkpt lat="45.9178" lon="-0.9642">
        <ele>3</ele>
        <time>2023-07-21T13:40:25.610+00:00</time>
      </trkpt>
      <trkpt lat="45.91801" lon="-0.96419">
        <ele>2</ele>
        <time>2023-07-21T13:40:30.226+00:00</time>
      </trkpt>
      <trkpt lat="45.9182" lon="-0.96424">
        <ele>1</ele>
        <time>2023-07-21T13:40:34.779+00:00</time>
      </trkpt>
      <trkpt lat="45.91836" lon="-0.96426">
        <ele>1</ele>
        <time>2023-07-21T13:40:38.799+00:00</time>
      </trkpt>
      <trkpt lat="45.91851" lon="-0.96434">
        <ele>2</ele>
        <time>2023-07-21T13:40:43.536+00:00</time>
      </trkpt>
      <trkpt lat="45.91866" lon="-0.96445">
        <ele>2</ele>
        <time>2023-07-21T13:40:47.796+00:00</time>
      </trkpt>
      <trkpt lat="45.91885" lon="-0.96456">
        <ele>2</ele>
        <time>2023-07-21T13:40:52.792+00:00</time>
      </trkpt>
      <trkpt lat="45.91903" lon="-0.96469">
        <ele>3</ele>
        <time>2023-07-21T13:40:57.790+00:00</time>
      </trkpt>
      <trkpt lat="45.91916" lon="-0.96482">
        <ele>3</ele>
        <time>2023-07-21T13:41:01.802+00:00</time>
      </trkpt>
      <trkpt lat="45.91931" lon="-0.96501">
        <ele>3</ele>
        <time>2023-07-21T13:41:06.835+00:00</time>
      </trkpt>
      <trkpt lat="45.91937" lon="-0.96531">
        <ele>2</ele>
        <time>2023-07-21T13:41:11.834+00:00</time>
      </trkpt>
      <trkpt lat="45.91934" lon="-0.96562">
        <ele>1</ele>
        <time>2023-07-21T13:41:16.473+00:00</time>
      </trkpt>
      <trkpt lat="45.91928" lon="-0.96588">
        <ele>4</ele>
        <time>2023-07-21T13:41:21.075+00:00</time>
      </trkpt>
      <trkpt lat="45.91928" lon="-0.96614">
        <ele>1</ele>
        <time>2023-07-21T13:41:25.646+00:00</time>
      </trkpt>
      <trkpt lat="45.91927" lon="-0.96641">
        <ele>1</ele>
        <time>2023-07-21T13:41:29.787+00:00</time>
      </trkpt>
      <trkpt lat="45.91925" lon="-0.96662">
        <ele>2</ele>
        <time>2023-07-21T13:41:33.803+00:00</time>
      </trkpt>
      <trkpt lat="45.91923" lon="-0.96691">
        <ele>2</ele>
        <time>2023-07-21T13:41:38.793+00:00</time>
      </trkpt>
      <trkpt lat="45.91921" lon="-0.96719">
        <ele>3</ele>
        <time>2023-07-21T13:41:43.786+00:00</time>
      </trkpt>
      <trkpt lat="45.91918" lon="-0.96744">
        <ele>4</ele>
        <time>2023-07-21T13:41:47.550+00:00</time>
      </trkpt>
      <trkpt lat="45.91914" lon="-0.96772">
        <ele>5</ele>
        <time>2023-07-21T13:41:52.519+00:00</time>
      </trkpt>
      <trkpt lat="45.91918" lon="-0.96793">
        <ele>6</ele>
        <time>2023-07-21T13:41:56.506+00:00</time>
      </trkpt>
      <trkpt lat="45.91929" lon="-0.96819">
        <ele>6</ele>
        <time>2023-07-21T13:42:01.497+00:00</time>
      </trkpt>
      <trkpt lat="45.91938" lon="-0.9684">
        <ele>9</ele>
        <time>2023-07-21T13:42:05.787+00:00</time>
      </trkpt>
      <trkpt lat="45.91945" lon="-0.96866">
        <ele>9</ele>
        <time>2023-07-21T13:42:10.287+00:00</time>
      </trkpt>
      <trkpt lat="45.91951" lon="-0.96892">
        <ele>6</ele>
        <time>2023-07-21T13:42:14.567+00:00</time>
      </trkpt>
      <trkpt lat="45.91956" lon="-0.9692">
        <ele>4</ele>
        <time>2023-07-21T13:42:19.527+00:00</time>
      </trkpt>
      <trkpt lat="45.91962" lon="-0.96944">
        <ele>4</ele>
        <time>2023-07-21T13:42:23.906+00:00</time>
      </trkpt>
      <trkpt lat="45.91966" lon="-0.96971">
        <ele>2</ele>
        <time>2023-07-21T13:42:28.304+00:00</time>
      </trkpt>
      <trkpt lat="45.91972" lon="-0.96995">
        <ele>2</ele>
        <time>2023-07-21T13:42:32.382+00:00</time>
      </trkpt>
      <trkpt lat="45.91978" lon="-0.9702">
        <ele>3</ele>
        <time>2023-07-21T13:42:36.811+00:00</time>
      </trkpt>
      <trkpt lat="45.91987" lon="-0.97044">
        <ele>4</ele>
        <time>2023-07-21T13:42:40.802+00:00</time>
      </trkpt>
      <trkpt lat="45.91995" lon="-0.97065">
        <ele>4</ele>
        <time>2023-07-21T13:42:44.958+00:00</time>
      </trkpt>
      <trkpt lat="45.92006" lon="-0.97088">
        <ele>3</ele>
        <time>2023-07-21T13:42:49.015+00:00</time>
      </trkpt>
      <trkpt lat="45.92021" lon="-0.97113">
        <ele>3</ele>
        <time>2023-07-21T13:42:53.795+00:00</time>
      </trkpt>
      <trkpt lat="45.92033" lon="-0.9713">
        <ele>2</ele>
        <time>2023-07-21T13:42:57.942+00:00</time>
      </trkpt>
      <trkpt lat="45.92049" lon="-0.97147">
        <ele>4</ele>
        <time>2023-07-21T13:43:02.147+00:00</time>
      </trkpt>
      <trkpt lat="45.92063" lon="-0.97157">
        <ele>3</ele>
        <time>2023-07-21T13:43:06.782+00:00</time>
      </trkpt>
      <trkpt lat="45.92077" lon="-0.97168">
        <ele>3</ele>
        <time>2023-07-21T13:43:10.983+00:00</time>
      </trkpt>
      <trkpt lat="45.92093" lon="-0.97178">
        <ele>3</ele>
        <time>2023-07-21T13:43:14.940+00:00</time>
      </trkpt>
      <trkpt lat="45.92112" lon="-0.97182">
        <ele>3</ele>
        <time>2023-07-21T13:43:19.378+00:00</time>
      </trkpt>
      <trkpt lat="45.92129" lon="-0.97184">
        <ele>3</ele>
        <time>2023-07-21T13:43:23.896+00:00</time>
      </trkpt>
      <trkpt lat="45.92149" lon="-0.9719">
        <ele>3</ele>
        <time>2023-07-21T13:43:28.315+00:00</time>
      </trkpt>
      <trkpt lat="45.92166" lon="-0.97197">
        <ele>2</ele>
        <time>2023-07-21T13:43:32.412+00:00</time>
      </trkpt>
      <trkpt lat="45.92182" lon="-0.97207">
        <ele>2</ele>
        <time>2023-07-21T13:43:36.951+00:00</time>
      </trkpt>
      <trkpt lat="45.92197" lon="-0.97222">
        <ele>2</ele>
        <time>2023-07-21T13:43:40.968+00:00</time>
      </trkpt>
      <trkpt lat="45.92212" lon="-0.97237">
        <ele>2</ele>
        <time>2023-07-21T13:43:45.538+00:00</time>
      </trkpt>
      <trkpt lat="45.92225" lon="-0.97253">
        <ele>2</ele>
        <time>2023-07-21T13:43:49.617+00:00</time>
      </trkpt>
      <trkpt lat="45.92237" lon="-0.97274">
        <ele>2</ele>
        <time>2023-07-21T13:43:53.762+00:00</time>
      </trkpt>
      <trkpt lat="45.92247" lon="-0.97294">
        <ele>2</ele>
        <time>2023-07-21T13:43:57.797+00:00</time>
      </trkpt>
      <trkpt lat="45.92263" lon="-0.97311">
        <ele>2</ele>
        <time>2023-07-21T13:44:02.317+00:00</time>
      </trkpt>
      <trkpt lat="45.92277" lon="-0.97325">
        <ele>4</ele>
        <time>2023-07-21T13:44:06.275+00:00</time>
      </trkpt>
      <trkpt lat="45.92293" lon="-0.97339">
        <ele>4</ele>
        <time>2023-07-21T13:44:10.674+00:00</time>
      </trkpt>
      <trkpt lat="45.92308" lon="-0.97357">
        <ele>3</ele>
        <time>2023-07-21T13:44:15.052+00:00</time>
      </trkpt>
      <trkpt lat="45.92323" lon="-0.97372">
        <ele>2</ele>
        <time>2023-07-21T13:44:19.608+00:00</time>
      </trkpt>
      <trkpt lat="45.92341" lon="-0.97389">
        <ele>1</ele>
        <time>2023-07-21T13:44:24.605+00:00</time>
      </trkpt>
      <trkpt lat="45.92355" lon="-0.97404">
        <ele>3</ele>
        <time>2023-07-21T13:44:28.955+00:00</time>
      </trkpt>
      <trkpt lat="45.9237" lon="-0.9742">
        <ele>3</ele>
        <time>2023-07-21T13:44:33.365+00:00</time>
      </trkpt>
      <trkpt lat="45.92385" lon="-0.97434">
        <ele>-1</ele>
        <time>2023-07-21T13:44:37.361+00:00</time>
      </trkpt>
      <trkpt lat="45.924" lon="-0.97452">
        <ele>-1</ele>
        <time>2023-07-21T13:44:41.901+00:00</time>
      </trkpt>
      <trkpt lat="45.92413" lon="-0.97473">
        <ele>-1</ele>
        <time>2023-07-21T13:44:46.355+00:00</time>
      </trkpt>
      <trkpt lat="45.92422" lon="-0.97537">
        <ele>3</ele>
        <time>2023-07-21T13:45:16.797+00:00</time>
      </trkpt>
      <trkpt lat="45.92419" lon="-0.97542">
        <ele>1</ele>
        <time>2023-07-21T13:45:20.357+00:00</time>
      </trkpt>
      <trkpt lat="45.92411" lon="-0.9755">
        <ele>1</ele>
        <time>2023-07-21T13:45:25.154+00:00</time>
      </trkpt>
      <trkpt lat="45.92399" lon="-0.97562">
        <ele>1</ele>
        <time>2023-07-21T13:45:29.231+00:00</time>
      </trkpt>
      <trkpt lat="45.92388" lon="-0.97571">
        <ele>1</ele>
        <time>2023-07-21T13:45:33.188+00:00</time>
      </trkpt>
      <trkpt lat="45.92376" lon="-0.97586">
        <ele>1</ele>
        <time>2023-07-21T13:45:37.385+00:00</time>
      </trkpt>
      <trkpt lat="45.92364" lon="-0.97596">
        <ele>2</ele>
        <time>2023-07-21T13:45:41.583+00:00</time>
      </trkpt>
      <trkpt lat="45.92351" lon="-0.97608">
        <ele>1</ele>
        <time>2023-07-21T13:45:45.761+00:00</time>
      </trkpt>
      <trkpt lat="45.92339" lon="-0.9762">
        <ele>1</ele>
        <time>2023-07-21T13:45:49.861+00:00</time>
      </trkpt>
      <trkpt lat="45.92325" lon="-0.97635">
        <ele>2</ele>
        <time>2023-07-21T13:45:54.516+00:00</time>
      </trkpt>
      <trkpt lat="45.92313" lon="-0.97644">
        <ele>2</ele>
        <time>2023-07-21T13:45:59.153+00:00</time>
      </trkpt>
      <trkpt lat="45.92301" lon="-0.97659">
        <ele>2</ele>
        <time>2023-07-21T13:46:03.590+00:00</time>
      </trkpt>
      <trkpt lat="45.92288" lon="-0.97672">
        <ele>3</ele>
        <time>2023-07-21T13:46:08.368+00:00</time>
      </trkpt>
      <trkpt lat="45.92281" lon="-0.97679">
        <ele>3</ele>
        <time>2023-07-21T13:46:40.412+00:00</time>
      </trkpt>
      <trkpt lat="45.92268" lon="-0.97693">
        <ele>2</ele>
        <time>2023-07-21T13:46:44.917+00:00</time>
      </trkpt>
      <trkpt lat="45.92248" lon="-0.97713">
        <ele>4</ele>
        <time>2023-07-21T13:46:49.770+00:00</time>
      </trkpt>
      <trkpt lat="45.92232" lon="-0.9773">
        <ele>5</ele>
        <time>2023-07-21T13:46:54.317+00:00</time>
      </trkpt>
      <trkpt lat="45.92223" lon="-0.97739">
        <ele>4</ele>
        <time>2023-07-21T13:46:58.321+00:00</time>
      </trkpt>
      <trkpt lat="45.92221" lon="-0.97738">
        <ele>4</ele>
        <time>2023-07-21T13:47:27.770+00:00</time>
      </trkpt>
      <trkpt lat="45.9222" lon="-0.97739">
        <ele>4</ele>
        <time>2023-07-21T13:47:32.766+00:00</time>
      </trkpt>
      <trkpt lat="45.92215" lon="-0.97745">
        <ele>4</ele>
        <time>2023-07-21T13:47:37.759+00:00</time>
      </trkpt>
      <trkpt lat="45.92209" lon="-0.97753">
        <ele>4</ele>
        <time>2023-07-21T13:47:41.782+00:00</time>
      </trkpt>
      <trkpt lat="45.92198" lon="-0.97769">
        <ele>4</ele>
        <time>2023-07-21T13:47:46.763+00:00</time>
      </trkpt>
      <trkpt lat="45.92188" lon="-0.97781">
        <ele>4</ele>
        <time>2023-07-21T13:47:50.556+00:00</time>
      </trkpt>
      <trkpt lat="45.92176" lon="-0.97794">
        <ele>3</ele>
        <time>2023-07-21T13:47:54.564+00:00</time>
      </trkpt>
      <trkpt lat="45.92162" lon="-0.97808">
        <ele>3</ele>
        <time>2023-07-21T13:47:59.574+00:00</time>
      </trkpt>
      <trkpt lat="45.92152" lon="-0.97817">
        <ele>2</ele>
        <time>2023-07-21T13:48:03.583+00:00</time>
      </trkpt>
      <trkpt lat="45.92143" lon="-0.97824">
        <ele>2</ele>
        <time>2023-07-21T13:49:21.735+00:00</time>
      </trkpt>
      <trkpt lat="45.92145" lon="-0.97836">
        <ele>2</ele>
        <time>2023-07-21T13:49:25.916+00:00</time>
      </trkpt>
      <trkpt lat="45.92137" lon="-0.97856">
        <ele>3</ele>
        <time>2023-07-21T13:49:30.636+00:00</time>
      </trkpt>
      <trkpt lat="45.92127" lon="-0.97878">
        <ele>3</ele>
        <time>2023-07-21T13:49:35.297+00:00</time>
      </trkpt>
      <trkpt lat="45.92119" lon="-0.979">
        <ele>2</ele>
        <time>2023-07-21T13:49:40.236+00:00</time>
      </trkpt>
      <trkpt lat="45.92113" lon="-0.97921">
        <ele>2</ele>
        <time>2023-07-21T13:49:44.095+00:00</time>
      </trkpt>
      <trkpt lat="45.92106" lon="-0.97945">
        <ele>2</ele>
        <time>2023-07-21T13:49:48.995+00:00</time>
      </trkpt>
      <trkpt lat="45.92101" lon="-0.97967">
        <ele>1</ele>
        <time>2023-07-21T13:49:53.335+00:00</time>
      </trkpt>
      <trkpt lat="45.92096" lon="-0.97988">
        <ele>2</ele>
        <time>2023-07-21T13:49:57.874+00:00</time>
      </trkpt>
      <trkpt lat="45.92092" lon="-0.9801">
        <ele>2</ele>
        <time>2023-07-21T13:50:02.375+00:00</time>
      </trkpt>
      <trkpt lat="45.92091" lon="-0.98026">
        <ele>2</ele>
        <time>2023-07-21T13:50:06.215+00:00</time>
      </trkpt>
      <trkpt lat="45.92091" lon="-0.98042">
        <ele>2</ele>
        <time>2023-07-21T13:50:10.495+00:00</time>
      </trkpt>
      <trkpt lat="45.92091" lon="-0.98061">
        <ele>2</ele>
        <time>2023-07-21T13:50:14.616+00:00</time>
      </trkpt>
      <trkpt lat="45.92091" lon="-0.98085">
        <ele>2</ele>
        <time>2023-07-21T13:50:18.996+00:00</time>
      </trkpt>
      <trkpt lat="45.92091" lon="-0.98106">
        <ele>1</ele>
        <time>2023-07-21T13:50:23.416+00:00</time>
      </trkpt>
      <trkpt lat="45.92092" lon="-0.98128">
        <ele>3</ele>
        <time>2023-07-21T13:50:27.787+00:00</time>
      </trkpt>
      <trkpt lat="45.92093" lon="-0.9815">
        <ele>3</ele>
        <time>2023-07-21T13:50:32.076+00:00</time>
      </trkpt>
      <trkpt lat="45.92094" lon="-0.98173">
        <ele>1</ele>
        <time>2023-07-21T13:50:36.515+00:00</time>
      </trkpt>
      <trkpt lat="45.92097" lon="-0.98196">
        <ele>2</ele>
        <time>2023-07-21T13:50:40.534+00:00</time>
      </trkpt>
      <trkpt lat="45.92099" lon="-0.98223">
        <ele>2</ele>
        <time>2023-07-21T13:50:45.273+00:00</time>
      </trkpt>
      <trkpt lat="45.92099" lon="-0.98247">
        <ele>4</ele>
        <time>2023-07-21T13:50:49.350+00:00</time>
      </trkpt>
      <trkpt lat="45.92102" lon="-0.98271">
        <ele>4</ele>
        <time>2023-07-21T13:50:53.959+00:00</time>
      </trkpt>
      <trkpt lat="45.92103" lon="-0.98298">
        <ele>4</ele>
        <time>2023-07-21T13:50:58.387+00:00</time>
      </trkpt>
      <trkpt lat="45.92105" lon="-0.98321">
        <ele>3</ele>
        <time>2023-07-21T13:51:02.585+00:00</time>
      </trkpt>
      <trkpt lat="45.92108" lon="-0.9834">
        <ele>3</ele>
        <time>2023-07-21T13:51:07.606+00:00</time>
      </trkpt>
      <trkpt lat="45.92109" lon="-0.98348">
        <ele>2</ele>
        <time>2023-07-21T13:51:42.499+00:00</time>
      </trkpt>
      <trkpt lat="45.9211" lon="-0.98359">
        <ele>2</ele>
        <time>2023-07-21T13:51:47.511+00:00</time>
      </trkpt>
      <trkpt lat="45.9211" lon="-0.9836">
        <ele>2</ele>
        <time>2023-07-21T13:51:51.519+00:00</time>
      </trkpt>
      <trkpt lat="45.92113" lon="-0.98378">
        <ele>2</ele>
        <time>2023-07-21T13:51:56.532+00:00</time>
      </trkpt>
      <trkpt lat="45.92115" lon="-0.98398">
        <ele>2</ele>
        <time>2023-07-21T13:52:00.540+00:00</time>
      </trkpt>
      <trkpt lat="45.92117" lon="-0.98417">
        <ele>2</ele>
        <time>2023-07-21T13:52:04.647+00:00</time>
      </trkpt>
      <trkpt lat="45.92119" lon="-0.98437">
        <ele>2</ele>
        <time>2023-07-21T13:52:09.175+00:00</time>
      </trkpt>
      <trkpt lat="45.92122" lon="-0.98458">
        <ele>2</ele>
        <time>2023-07-21T13:52:13.682+00:00</time>
      </trkpt>
      <trkpt lat="45.92127" lon="-0.98486">
        <ele>3</ele>
        <time>2023-07-21T13:52:18.190+00:00</time>
      </trkpt>
      <trkpt lat="45.92131" lon="-0.98509">
        <ele>2</ele>
        <time>2023-07-21T13:52:22.697+00:00</time>
      </trkpt>
      <trkpt lat="45.92137" lon="-0.98533">
        <ele>2</ele>
        <time>2023-07-21T13:52:27.204+00:00</time>
      </trkpt>
      <trkpt lat="45.92142" lon="-0.98558">
        <ele>2</ele>
        <time>2023-07-21T13:52:31.811+00:00</time>
      </trkpt>
      <trkpt lat="45.92149" lon="-0.98582">
        <ele>3</ele>
        <time>2023-07-21T13:52:36.334+00:00</time>
      </trkpt>
      <trkpt lat="45.92156" lon="-0.98605">
        <ele>2</ele>
        <time>2023-07-21T13:52:40.442+00:00</time>
      </trkpt>
      <trkpt lat="45.92163" lon="-0.98629">
        <ele>2</ele>
        <time>2023-07-21T13:52:44.951+00:00</time>
      </trkpt>
      <trkpt lat="45.9217" lon="-0.98652">
        <ele>2</ele>
        <time>2023-07-21T13:52:49.460+00:00</time>
      </trkpt>
      <trkpt lat="45.92178" lon="-0.98673">
        <ele>2</ele>
        <time>2023-07-21T13:52:53.468+00:00</time>
      </trkpt>
      <trkpt lat="45.92191" lon="-0.9871">
        <ele>1</ele>
        <time>2023-07-21T13:53:15.014+00:00</time>
      </trkpt>
      <trkpt lat="45.92192" lon="-0.98715">
        <ele>1</ele>
        <time>2023-07-21T13:53:19.623+00:00</time>
      </trkpt>
      <trkpt lat="45.92194" lon="-0.98717">
        <ele>1</ele>
        <time>2023-07-21T13:53:24.133+00:00</time>
      </trkpt>
      <trkpt lat="45.92203" lon="-0.98732">
        <ele>1</ele>
        <time>2023-07-21T13:53:28.139+00:00</time>
      </trkpt>
      <trkpt lat="45.92213" lon="-0.98754">
        <ele>1</ele>
        <time>2023-07-21T13:53:32.221+00:00</time>
      </trkpt>
      <trkpt lat="45.92226" lon="-0.98778">
        <ele>1</ele>
        <time>2023-07-21T13:53:36.810+00:00</time>
      </trkpt>
      <trkpt lat="45.92242" lon="-0.98805">
        <ele>1</ele>
        <time>2023-07-21T13:53:41.765+00:00</time>
      </trkpt>
      <trkpt lat="45.92254" lon="-0.98826">
        <ele>3</ele>
        <time>2023-07-21T13:53:45.779+00:00</time>
      </trkpt>
      <trkpt lat="45.92269" lon="-0.9885">
        <ele>2</ele>
        <time>2023-07-21T13:53:50.780+00:00</time>
      </trkpt>
      <trkpt lat="45.92282" lon="-0.98869">
        <ele>2</ele>
        <time>2023-07-21T13:53:54.822+00:00</time>
      </trkpt>
      <trkpt lat="45.92298" lon="-0.98887">
        <ele>2</ele>
        <time>2023-07-21T13:53:59.822+00:00</time>
      </trkpt>
      <trkpt lat="45.92313" lon="-0.98904">
        <ele>3</ele>
        <time>2023-07-21T13:54:04.383+00:00</time>
      </trkpt>
      <trkpt lat="45.92332" lon="-0.98926">
        <ele>1</ele>
        <time>2023-07-21T13:54:08.809+00:00</time>
      </trkpt>
      <trkpt lat="45.92355" lon="-0.98951">
        <ele>1</ele>
        <time>2023-07-21T13:54:13.790+00:00</time>
      </trkpt>
      <trkpt lat="45.92378" lon="-0.98976">
        <ele>3.4</ele>
        <time>2023-07-21T13:54:18.787+00:00</time>
      </trkpt>
      <trkpt lat="45.92396" lon="-0.98997">
        <ele>-1</ele>
        <time>2023-07-21T13:54:22.804+00:00</time>
      </trkpt>
      <trkpt lat="45.9242" lon="-0.99021">
        <ele>-1</ele>
        <time>2023-07-21T13:54:27.781+00:00</time>
      </trkpt>
      <trkpt lat="45.92438" lon="-0.99041">
        <ele>3</ele>
        <time>2023-07-21T13:54:31.785+00:00</time>
      </trkpt>
      <trkpt lat="45.92457" lon="-0.99062">
        <ele>3</ele>
        <time>2023-07-21T13:54:35.813+00:00</time>
      </trkpt>
      <trkpt lat="45.92479" lon="-0.99089">
        <ele>3</ele>
        <time>2023-07-21T13:54:40.807+00:00</time>
      </trkpt>
      <trkpt lat="45.92502" lon="-0.99115">
        <ele>3</ele>
        <time>2023-07-21T13:54:45.799+00:00</time>
      </trkpt>
      <trkpt lat="45.92521" lon="-0.99135">
        <ele>1</ele>
        <time>2023-07-21T13:54:49.798+00:00</time>
      </trkpt>
      <trkpt lat="45.92539" lon="-0.99156">
        <ele>2</ele>
        <time>2023-07-21T13:54:53.814+00:00</time>
      </trkpt>
      <trkpt lat="45.92553" lon="-0.99176">
        <ele>3</ele>
        <time>2023-07-21T13:54:57.793+00:00</time>
      </trkpt>
      <trkpt lat="45.92567" lon="-0.99195">
        <ele>5</ele>
        <time>2023-07-21T13:55:02.823+00:00</time>
      </trkpt>
      <trkpt lat="45.92579" lon="-0.99212">
        <ele>3</ele>
        <time>2023-07-21T13:55:07.391+00:00</time>
      </trkpt>
      <trkpt lat="45.92591" lon="-0.99227">
        <ele>3</ele>
        <time>2023-07-21T13:55:11.346+00:00</time>
      </trkpt>
      <trkpt lat="45.92608" lon="-0.99253">
        <ele>1</ele>
        <time>2023-07-21T13:55:16.804+00:00</time>
      </trkpt>
      <trkpt lat="45.92625" lon="-0.99276">
        <ele>3</ele>
        <time>2023-07-21T13:55:21.784+00:00</time>
      </trkpt>
      <trkpt lat="45.92637" lon="-0.99294">
        <ele>1</ele>
        <time>2023-07-21T13:55:26.206+00:00</time>
      </trkpt>
      <trkpt lat="45.92648" lon="-0.99311">
        <ele>1</ele>
        <time>2023-07-21T13:55:30.160+00:00</time>
      </trkpt>
      <trkpt lat="45.92661" lon="-0.99327">
        <ele>2</ele>
        <time>2023-07-21T13:55:34.713+00:00</time>
      </trkpt>
      <trkpt lat="45.92671" lon="-0.99344">
        <ele>2</ele>
        <time>2023-07-21T13:55:38.307+00:00</time>
      </trkpt>
      <trkpt lat="45.92681" lon="-0.9936">
        <ele>3</ele>
        <time>2023-07-21T13:55:43.418+00:00</time>
      </trkpt>
      <trkpt lat="45.92686" lon="-0.99369">
        <ele>3</ele>
        <time>2023-07-21T13:55:47.610+00:00</time>
      </trkpt>
      <trkpt lat="45.92687" lon="-0.99371">
        <ele>3</ele>
        <time>2023-07-21T13:55:52.402+00:00</time>
      </trkpt>
      <trkpt lat="45.92688" lon="-0.99371">
        <ele>3</ele>
        <time>2023-07-21T13:55:53.600+00:00</time>
      </trkpt>
      <trkpt lat="45.92688" lon="-0.99372">
        <ele>3</ele>
        <time>2023-07-21T13:56:05.690+00:00</time>
      </trkpt>
      <trkpt lat="45.92689" lon="-0.99371">
        <ele>3</ele>
        <time>2023-07-21T13:56:10.710+00:00</time>
      </trkpt>
      <trkpt lat="45.92689" lon="-0.99369">
        <ele>3</ele>
        <time>2023-07-21T13:56:14.724+00:00</time>
      </trkpt>
      <trkpt lat="45.92692" lon="-0.99373">
        <ele>3</ele>
        <time>2023-07-21T13:56:18.738+00:00</time>
      </trkpt>
      <trkpt lat="45.92709" lon="-0.99399">
        <ele>3</ele>
        <time>2023-07-21T13:56:23.763+00:00</time>
      </trkpt>
      <trkpt lat="45.92724" lon="-0.99424">
        <ele>3</ele>
        <time>2023-07-21T13:56:27.767+00:00</time>
      </trkpt>
      <trkpt lat="45.92742" lon="-0.9945">
        <ele>1</ele>
        <time>2023-07-21T13:56:32.770+00:00</time>
      </trkpt>
      <trkpt lat="45.92753" lon="-0.99467">
        <ele>3.7</ele>
        <time>2023-07-21T13:56:36.770+00:00</time>
      </trkpt>
      <trkpt lat="45.92763" lon="-0.99483">
        <ele>3.5</ele>
        <time>2023-07-21T13:56:41.319+00:00</time>
      </trkpt>
      <trkpt lat="45.92775" lon="-0.99502">
        <ele>3.2</ele>
        <time>2023-07-21T13:57:03.962+00:00</time>
      </trkpt>
      <trkpt lat="45.92777" lon="-0.99505">
        <ele>3.2</ele>
        <time>2023-07-21T13:57:08.474+00:00</time>
      </trkpt>
      <trkpt lat="45.92783" lon="-0.99519">
        <ele>3.6</ele>
        <time>2023-07-21T13:57:12.485+00:00</time>
      </trkpt>
      <trkpt lat="45.92789" lon="-0.99532">
        <ele>3.6</ele>
        <time>2023-07-21T13:57:16.996+00:00</time>
      </trkpt>
      <trkpt lat="45.92797" lon="-0.99551">
        <ele>3.3</ele>
        <time>2023-07-21T13:57:21.004+00:00</time>
      </trkpt>
      <trkpt lat="45.92807" lon="-0.99571">
        <ele>1</ele>
        <time>2023-07-21T13:57:25.514+00:00</time>
      </trkpt>
      <trkpt lat="45.92816" lon="-0.99587">
        <ele>1</ele>
        <time>2023-07-21T13:57:29.621+00:00</time>
      </trkpt>
      <trkpt lat="45.92825" lon="-0.99605">
        <ele>2</ele>
        <time>2023-07-21T13:57:34.229+00:00</time>
      </trkpt>
      <trkpt lat="45.92835" lon="-0.99623">
        <ele>2</ele>
        <time>2023-07-21T13:57:38.341+00:00</time>
      </trkpt>
      <trkpt lat="45.92844" lon="-0.99643">
        <ele>2</ele>
        <time>2023-07-21T13:57:42.544+00:00</time>
      </trkpt>
      <trkpt lat="45.92854" lon="-0.99662">
        <ele>3</ele>
        <time>2023-07-21T13:57:46.982+00:00</time>
      </trkpt>
      <trkpt lat="45.92866" lon="-0.99688">
        <ele>3</ele>
        <time>2023-07-21T13:57:51.807+00:00</time>
      </trkpt>
      <trkpt lat="45.92878" lon="-0.99717">
        <ele>3</ele>
        <time>2023-07-21T13:57:56.776+00:00</time>
      </trkpt>
      <trkpt lat="45.92887" lon="-0.99742">
        <ele>3</ele>
        <time>2023-07-21T13:58:01.237+00:00</time>
      </trkpt>
      <trkpt lat="45.92895" lon="-0.99765">
        <ele>3</ele>
        <time>2023-07-21T13:58:05.281+00:00</time>
      </trkpt>
      <trkpt lat="45.92905" lon="-0.99789">
        <ele>1</ele>
        <time>2023-07-21T13:58:09.793+00:00</time>
      </trkpt>
      <trkpt lat="45.92916" lon="-0.9982">
        <ele>1</ele>
        <time>2023-07-21T13:58:14.804+00:00</time>
      </trkpt>
      <trkpt lat="45.92924" lon="-0.99843">
        <ele>1</ele>
        <time>2023-07-21T13:58:18.992+00:00</time>
      </trkpt>
      <trkpt lat="45.92932" lon="-0.99869">
        <ele>2</ele>
        <time>2023-07-21T13:58:23.549+00:00</time>
      </trkpt>
      <trkpt lat="45.92942" lon="-0.99896">
        <ele>2</ele>
        <time>2023-07-21T13:58:28.226+00:00</time>
      </trkpt>
      <trkpt lat="45.92949" lon="-0.99918">
        <ele>3</ele>
        <time>2023-07-21T13:58:32.744+00:00</time>
      </trkpt>
      <trkpt lat="45.92952" lon="-0.99918">
        <ele>3</ele>
        <time>2023-07-21T13:59:17.768+00:00</time>
      </trkpt>
      <trkpt lat="45.92956" lon="-0.99928">
        <ele>3</ele>
        <time>2023-07-21T13:59:21.541+00:00</time>
      </trkpt>
      <trkpt lat="45.92959" lon="-0.99942">
        <ele>4</ele>
        <time>2023-07-21T13:59:26.049+00:00</time>
      </trkpt>
      <trkpt lat="45.92964" lon="-0.99956">
        <ele>4</ele>
        <time>2023-07-21T13:59:30.556+00:00</time>
      </trkpt>
      <trkpt lat="45.92968" lon="-0.99971">
        <ele>5</ele>
        <time>2023-07-21T13:59:34.562+00:00</time>
      </trkpt>
      <trkpt lat="45.92974" lon="-0.99991">
        <ele>4</ele>
        <time>2023-07-21T13:59:39.586+00:00</time>
      </trkpt>
      <trkpt lat="45.92981" lon="-1.0001">
        <ele>4</ele>
        <time>2023-07-21T13:59:43.596+00:00</time>
      </trkpt>
      <trkpt lat="45.92988" lon="-1.00034">
        <ele>2</ele>
        <time>2023-07-21T13:59:48.106+00:00</time>
      </trkpt>
      <trkpt lat="45.92995" lon="-1.00057">
        <ele>2</ele>
        <time>2023-07-21T13:59:52.612+00:00</time>
      </trkpt>
      <trkpt lat="45.93003" lon="-1.00083">
        <ele>2</ele>
        <time>2023-07-21T13:59:57.118+00:00</time>
      </trkpt>
      <trkpt lat="45.9301" lon="-1.00108">
        <ele>1</ele>
        <time>2023-07-21T14:00:01.638+00:00</time>
      </trkpt>
      <trkpt lat="45.93018" lon="-1.00138">
        <ele>1</ele>
        <time>2023-07-21T14:00:06.777+00:00</time>
      </trkpt>
      <trkpt lat="45.93028" lon="-1.00168">
        <ele>1</ele>
        <time>2023-07-21T14:00:11.771+00:00</time>
      </trkpt>
      <trkpt lat="45.93037" lon="-1.0019">
        <ele>2</ele>
        <time>2023-07-21T14:00:15.782+00:00</time>
      </trkpt>
      <trkpt lat="45.93045" lon="-1.00213">
        <ele>1</ele>
        <time>2023-07-21T14:00:19.802+00:00</time>
      </trkpt>
      <trkpt lat="45.93056" lon="-1.00239">
        <ele>2</ele>
        <time>2023-07-21T14:00:24.407+00:00</time>
      </trkpt>
      <trkpt lat="45.93064" lon="-1.00263">
        <ele>2</ele>
        <time>2023-07-21T14:00:28.412+00:00</time>
      </trkpt>
      <trkpt lat="45.93073" lon="-1.00285">
        <ele>2</ele>
        <time>2023-07-21T14:00:32.773+00:00</time>
      </trkpt>
      <trkpt lat="45.93084" lon="-1.00314">
        <ele>2</ele>
        <time>2023-07-21T14:00:37.770+00:00</time>
      </trkpt>
      <trkpt lat="45.93092" lon="-1.00339">
        <ele>3</ele>
        <time>2023-07-21T14:00:42.331+00:00</time>
      </trkpt>
      <trkpt lat="45.93101" lon="-1.00358">
        <ele>3</ele>
        <time>2023-07-21T14:00:46.333+00:00</time>
      </trkpt>
      <trkpt lat="45.93109" lon="-1.00383">
        <ele>3</ele>
        <time>2023-07-21T14:00:51.457+00:00</time>
      </trkpt>
      <trkpt lat="45.93117" lon="-1.00405">
        <ele>2</ele>
        <time>2023-07-21T14:00:55.647+00:00</time>
      </trkpt>
      <trkpt lat="45.93124" lon="-1.00422">
        <ele>2</ele>
        <time>2023-07-21T14:00:59.651+00:00</time>
      </trkpt>
      <trkpt lat="45.93133" lon="-1.00433">
        <ele>4</ele>
        <time>2023-07-21T14:01:04.665+00:00</time>
      </trkpt>
      <trkpt lat="45.93134" lon="-1.00433">
        <ele>4</ele>
        <time>2023-07-21T14:01:22.335+00:00</time>
      </trkpt>
      <trkpt lat="45.93134" lon="-1.00433">
        <ele>4</ele>
        <time>2023-07-21T14:01:26.794+00:00</time>
      </trkpt>
      <trkpt lat="45.93133" lon="-1.00433">
        <ele>4</ele>
        <time>2023-07-21T14:01:31.779+00:00</time>
      </trkpt>
      <trkpt lat="45.93139" lon="-1.00436">
        <ele>4</ele>
        <time>2023-07-21T14:01:36.356+00:00</time>
      </trkpt>
      <trkpt lat="45.93148" lon="-1.0044">
        <ele>4</ele>
        <time>2023-07-21T14:01:40.556+00:00</time>
      </trkpt>
      <trkpt lat="45.9316" lon="-1.00442">
        <ele>3</ele>
        <time>2023-07-21T14:01:45.175+00:00</time>
      </trkpt>
      <trkpt lat="45.93174" lon="-1.00441">
        <ele>3</ele>
        <time>2023-07-21T14:01:49.754+00:00</time>
      </trkpt>
      <trkpt lat="45.93191" lon="-1.00453">
        <ele>2</ele>
        <time>2023-07-21T14:01:54.232+00:00</time>
      </trkpt>
      <trkpt lat="45.93206" lon="-1.00464">
        <ele>2</ele>
        <time>2023-07-21T14:01:58.711+00:00</time>
      </trkpt>
      <trkpt lat="45.93223" lon="-1.00476">
        <ele>2</ele>
        <time>2023-07-21T14:02:03.130+00:00</time>
      </trkpt>
      <trkpt lat="45.93239" lon="-1.00488">
        <ele>2</ele>
        <time>2023-07-21T14:02:07.723+00:00</time>
      </trkpt>
      <trkpt lat="45.93255" lon="-1.00502">
        <ele>2</ele>
        <time>2023-07-21T14:02:11.708+00:00</time>
      </trkpt>
      <trkpt lat="45.93273" lon="-1.00516">
        <ele>1</ele>
        <time>2023-07-21T14:02:16.265+00:00</time>
      </trkpt>
      <trkpt lat="45.93289" lon="-1.00529">
        <ele>1</ele>
        <time>2023-07-21T14:02:20.642+00:00</time>
      </trkpt>
      <trkpt lat="45.93305" lon="-1.00542">
        <ele>2</ele>
        <time>2023-07-21T14:02:25.200+00:00</time>
      </trkpt>
      <trkpt lat="45.93318" lon="-1.00556">
        <ele>2</ele>
        <time>2023-07-21T14:02:29.278+00:00</time>
      </trkpt>
      <trkpt lat="45.93332" lon="-1.00569">
        <ele>3</ele>
        <time>2023-07-21T14:02:33.356+00:00</time>
      </trkpt>
      <trkpt lat="45.93344" lon="-1.00581">
        <ele>3</ele>
        <time>2023-07-21T14:02:37.295+00:00</time>
      </trkpt>
      <trkpt lat="45.93358" lon="-1.00594">
        <ele>3</ele>
        <time>2023-07-21T14:02:41.789+00:00</time>
      </trkpt>
      <trkpt lat="45.93373" lon="-1.00605">
        <ele>3</ele>
        <time>2023-07-21T14:02:45.801+00:00</time>
      </trkpt>
      <trkpt lat="45.93392" lon="-1.00615">
        <ele>4</ele>
        <time>2023-07-21T14:02:50.796+00:00</time>
      </trkpt>
      <trkpt lat="45.93409" lon="-1.00621">
        <ele>5</ele>
        <time>2023-07-21T14:02:55.801+00:00</time>
      </trkpt>
      <trkpt lat="45.93429" lon="-1.00627">
        <ele>5</ele>
        <time>2023-07-21T14:03:00.803+00:00</time>
      </trkpt>
      <trkpt lat="45.93446" lon="-1.00633">
        <ele>6</ele>
        <time>2023-07-21T14:03:05.091+00:00</time>
      </trkpt>
      <trkpt lat="45.93463" lon="-1.00639">
        <ele>4</ele>
        <time>2023-07-21T14:03:09.800+00:00</time>
      </trkpt>
      <trkpt lat="45.93482" lon="-1.00643">
        <ele>4</ele>
        <time>2023-07-21T14:03:14.290+00:00</time>
      </trkpt>
      <trkpt lat="45.93498" lon="-1.00646">
        <ele>3</ele>
        <time>2023-07-21T14:03:18.602+00:00</time>
      </trkpt>
      <trkpt lat="45.93515" lon="-1.00649">
        <ele>2</ele>
        <time>2023-07-21T14:03:22.688+00:00</time>
      </trkpt>
      <trkpt lat="45.93532" lon="-1.00651">
        <ele>2</ele>
        <time>2023-07-21T14:03:27.180+00:00</time>
      </trkpt>
      <trkpt lat="45.93548" lon="-1.00651">
        <ele>1</ele>
        <time>2023-07-21T14:03:31.375+00:00</time>
      </trkpt>
      <trkpt lat="45.93564" lon="-1.00652">
        <ele>1</ele>
        <time>2023-07-21T14:03:35.572+00:00</time>
      </trkpt>
      <trkpt lat="45.93581" lon="-1.00652">
        <ele>1</ele>
        <time>2023-07-21T14:03:40.049+00:00</time>
      </trkpt>
      <trkpt lat="45.93596" lon="-1.00652">
        <ele>1</ele>
        <time>2023-07-21T14:03:43.907+00:00</time>
      </trkpt>
      <trkpt lat="45.93615" lon="-1.00652">
        <ele>1</ele>
        <time>2023-07-21T14:03:48.575+00:00</time>
      </trkpt>
      <trkpt lat="45.93634" lon="-1.00647">
        <ele>2.4</ele>
        <time>2023-07-21T14:03:53.250+00:00</time>
      </trkpt>
      <trkpt lat="45.93651" lon="-1.00642">
        <ele>2.9</ele>
        <time>2023-07-21T14:03:57.206+00:00</time>
      </trkpt>
      <trkpt lat="45.93669" lon="-1.00636">
        <ele>3.9</ele>
        <time>2023-07-21T14:04:01.941+00:00</time>
      </trkpt>
      <trkpt lat="45.93687" lon="-1.00628">
        <ele>-1</ele>
        <time>2023-07-21T14:04:06.376+00:00</time>
      </trkpt>
      <trkpt lat="45.93705" lon="-1.00623">
        <ele>3</ele>
        <time>2023-07-21T14:04:10.893+00:00</time>
      </trkpt>
      <trkpt lat="45.93721" lon="-1.00618">
        <ele>-1</ele>
        <time>2023-07-21T14:04:14.930+00:00</time>
      </trkpt>
      <trkpt lat="45.93739" lon="-1.00611">
        <ele>3.6</ele>
        <time>2023-07-21T14:04:19.605+00:00</time>
      </trkpt>
      <trkpt lat="45.93755" lon="-1.00604">
        <ele>3.8</ele>
        <time>2023-07-21T14:04:23.562+00:00</time>
      </trkpt>
      <trkpt lat="45.93773" lon="-1.00595">
        <ele>1</ele>
        <time>2023-07-21T14:04:28.239+00:00</time>
      </trkpt>
      <trkpt lat="45.93789" lon="-1.00587">
        <ele>1</ele>
        <time>2023-07-21T14:04:32.137+00:00</time>
      </trkpt>
      <trkpt lat="45.93807" lon="-1.0058">
        <ele>1</ele>
        <time>2023-07-21T14:04:36.331+00:00</time>
      </trkpt>
      <trkpt lat="45.93824" lon="-1.00572">
        <ele>-1</ele>
        <time>2023-07-21T14:04:40.525+00:00</time>
      </trkpt>
      <trkpt lat="45.93841" lon="-1.00561">
        <ele>-1</ele>
        <time>2023-07-21T14:04:45.320+00:00</time>
      </trkpt>
      <trkpt lat="45.93857" lon="-1.00547">
        <ele>3</ele>
        <time>2023-07-21T14:04:49.757+00:00</time>
      </trkpt>
      <trkpt lat="45.93871" lon="-1.00537">
        <ele>-1</ele>
        <time>2023-07-21T14:04:53.593+00:00</time>
      </trkpt>
      <trkpt lat="45.9389" lon="-1.00521">
        <ele>-1</ele>
        <time>2023-07-21T14:04:58.388+00:00</time>
      </trkpt>
      <trkpt lat="45.93906" lon="-1.0051">
        <ele>-1</ele>
        <time>2023-07-21T14:05:02.343+00:00</time>
      </trkpt>
      <trkpt lat="45.93921" lon="-1.00496">
        <ele>-1</ele>
        <time>2023-07-21T14:05:06.700+00:00</time>
      </trkpt>
      <trkpt lat="45.93935" lon="-1.00485">
        <ele>3</ele>
        <time>2023-07-21T14:05:10.614+00:00</time>
      </trkpt>
      <trkpt lat="45.93951" lon="-1.00471">
        <ele>3</ele>
        <time>2023-07-21T14:05:15.131+00:00</time>
      </trkpt>
      <trkpt lat="45.93967" lon="-1.00454">
        <ele>2</ele>
        <time>2023-07-21T14:05:19.726+00:00</time>
      </trkpt>
      <trkpt lat="45.93976" lon="-1.00433">
        <ele>2</ele>
        <time>2023-07-21T14:05:23.722+00:00</time>
      </trkpt>
      <trkpt lat="45.93986" lon="-1.00411">
        <ele>2</ele>
        <time>2023-07-21T14:05:28.281+00:00</time>
      </trkpt>
      <trkpt lat="45.94004" lon="-1.00392">
        <ele>3</ele>
        <time>2023-07-21T14:05:32.776+00:00</time>
      </trkpt>
      <trkpt lat="45.94024" lon="-1.00372">
        <ele>3</ele>
        <time>2023-07-21T14:05:37.815+00:00</time>
      </trkpt>
      <trkpt lat="45.94042" lon="-1.00354">
        <ele>3</ele>
        <time>2023-07-21T14:05:42.812+00:00</time>
      </trkpt>
      <trkpt lat="45.94057" lon="-1.00337">
        <ele>2</ele>
        <time>2023-07-21T14:05:47.076+00:00</time>
      </trkpt>
      <trkpt lat="45.94073" lon="-1.0032">
        <ele>2</ele>
        <time>2023-07-21T14:05:51.793+00:00</time>
      </trkpt>
      <trkpt lat="45.94088" lon="-1.00303">
        <ele>2</ele>
        <time>2023-07-21T14:05:55.809+00:00</time>
      </trkpt>
      <trkpt lat="45.94106" lon="-1.00283">
        <ele>3</ele>
        <time>2023-07-21T14:06:00.797+00:00</time>
      </trkpt>
      <trkpt lat="45.94124" lon="-1.00261">
        <ele>2</ele>
        <time>2023-07-21T14:06:05.798+00:00</time>
      </trkpt>
      <trkpt lat="45.94139" lon="-1.00246">
        <ele>3</ele>
        <time>2023-07-21T14:06:09.794+00:00</time>
      </trkpt>
      <trkpt lat="45.94155" lon="-1.00228">
        <ele>3</ele>
        <time>2023-07-21T14:06:14.358+00:00</time>
      </trkpt>
      <trkpt lat="45.94171" lon="-1.0021">
        <ele>3</ele>
        <time>2023-07-21T14:06:18.796+00:00</time>
      </trkpt>
      <trkpt lat="45.94188" lon="-1.00189">
        <ele>3</ele>
        <time>2023-07-21T14:06:23.816+00:00</time>
      </trkpt>
      <trkpt lat="45.94203" lon="-1.00172">
        <ele>2</ele>
        <time>2023-07-21T14:06:28.104+00:00</time>
      </trkpt>
      <trkpt lat="45.9422" lon="-1.00155">
        <ele>3</ele>
        <time>2023-07-21T14:06:32.810+00:00</time>
      </trkpt>
      <trkpt lat="45.94238" lon="-1.00133">
        <ele>2</ele>
        <time>2023-07-21T14:06:37.791+00:00</time>
      </trkpt>
      <trkpt lat="45.94252" lon="-1.00116">
        <ele>1</ele>
        <time>2023-07-21T14:06:41.803+00:00</time>
      </trkpt>
      <trkpt lat="45.94269" lon="-1.00098">
        <ele>2</ele>
        <time>2023-07-21T14:06:46.797+00:00</time>
      </trkpt>
      <trkpt lat="45.94282" lon="-1.00083">
        <ele>3</ele>
        <time>2023-07-21T14:06:50.788+00:00</time>
      </trkpt>
      <trkpt lat="45.94294" lon="-1.00067">
        <ele>4</ele>
        <time>2023-07-21T14:06:55.322+00:00</time>
      </trkpt>
      <trkpt lat="45.94306" lon="-1.00053">
        <ele>4</ele>
        <time>2023-07-21T14:06:59.400+00:00</time>
      </trkpt>
      <trkpt lat="45.94319" lon="-1.00038">
        <ele>3</ele>
        <time>2023-07-21T14:07:03.595+00:00</time>
      </trkpt>
      <trkpt lat="45.94333" lon="-1.00022">
        <ele>3</ele>
        <time>2023-07-21T14:07:07.793+00:00</time>
      </trkpt>
      <trkpt lat="45.94348" lon="-1.00005">
        <ele>1</ele>
        <time>2023-07-21T14:07:12.328+00:00</time>
      </trkpt>
      <trkpt lat="45.94361" lon="-0.9999">
        <ele>1</ele>
        <time>2023-07-21T14:07:16.374+00:00</time>
      </trkpt>
      <trkpt lat="45.9438" lon="-0.99971">
        <ele>3</ele>
        <time>2023-07-21T14:07:21.640+00:00</time>
      </trkpt>
      <trkpt lat="45.94396" lon="-0.9995">
        <ele>1</ele>
        <time>2023-07-21T14:07:26.414+00:00</time>
      </trkpt>
      <trkpt lat="45.94409" lon="-0.99936">
        <ele>1</ele>
        <time>2023-07-21T14:07:30.350+00:00</time>
      </trkpt>
      <trkpt lat="45.94422" lon="-0.9992">
        <ele>2</ele>
        <time>2023-07-21T14:07:34.406+00:00</time>
      </trkpt>
      <trkpt lat="45.94438" lon="-0.99904">
        <ele>2</ele>
        <time>2023-07-21T14:07:38.799+00:00</time>
      </trkpt>
      <trkpt lat="45.94456" lon="-0.99884">
        <ele>1</ele>
        <time>2023-07-21T14:07:43.806+00:00</time>
      </trkpt>
      <trkpt lat="45.94475" lon="-0.99864">
        <ele>1</ele>
        <time>2023-07-21T14:07:48.808+00:00</time>
      </trkpt>
      <trkpt lat="45.94493" lon="-0.99844">
        <ele>3.3</ele>
        <time>2023-07-21T14:07:53.782+00:00</time>
      </trkpt>
      <trkpt lat="45.94507" lon="-0.99826">
        <ele>3.2</ele>
        <time>2023-07-21T14:07:57.809+00:00</time>
      </trkpt>
      <trkpt lat="45.94526" lon="-0.99809">
        <ele>1</ele>
        <time>2023-07-21T14:08:02.785+00:00</time>
      </trkpt>
      <trkpt lat="45.94545" lon="-0.9979">
        <ele>3</ele>
        <time>2023-07-21T14:08:07.806+00:00</time>
      </trkpt>
      <trkpt lat="45.94558" lon="-0.99778">
        <ele>3</ele>
        <time>2023-07-21T14:08:11.826+00:00</time>
      </trkpt>
      <trkpt lat="45.94578" lon="-0.99756">
        <ele>3</ele>
        <time>2023-07-21T14:08:16.806+00:00</time>
      </trkpt>
      <trkpt lat="45.94596" lon="-0.99752">
        <ele>3</ele>
        <time>2023-07-21T14:08:21.652+00:00</time>
      </trkpt>
      <trkpt lat="45.94608" lon="-0.99757">
        <ele>1</ele>
        <time>2023-07-21T14:08:25.785+00:00</time>
      </trkpt>
      <trkpt lat="45.9461" lon="-0.99765">
        <ele>1</ele>
        <time>2023-07-21T14:08:29.902+00:00</time>
      </trkpt>
      <trkpt lat="45.94609" lon="-0.99766">
        <ele>1</ele>
        <time>2023-07-21T14:08:56.196+00:00</time>
      </trkpt>
      <trkpt lat="45.9461" lon="-0.99766">
        <ele>1</ele>
        <time>2023-07-21T14:09:00.759+00:00</time>
      </trkpt>
      <trkpt lat="45.9461" lon="-0.99766">
        <ele>1</ele>
        <time>2023-07-21T14:09:04.738+00:00</time>
      </trkpt>
      <trkpt lat="45.94612" lon="-0.99766">
        <ele>1</ele>
        <time>2023-07-21T14:09:08.755+00:00</time>
      </trkpt>
      <trkpt lat="45.94621" lon="-0.99774">
        <ele>1</ele>
        <time>2023-07-21T14:09:12.770+00:00</time>
      </trkpt>
      <trkpt lat="45.94629" lon="-0.9979">
        <ele>1</ele>
        <time>2023-07-21T14:09:16.786+00:00</time>
      </trkpt>
      <trkpt lat="45.9464" lon="-0.99791">
        <ele>1</ele>
        <time>2023-07-21T14:09:21.301+00:00</time>
      </trkpt>
      <trkpt lat="45.94651" lon="-0.99796">
        <ele>1</ele>
        <time>2023-07-21T14:09:25.318+00:00</time>
      </trkpt>
      <trkpt lat="45.94661" lon="-0.99783">
        <ele>2</ele>
        <time>2023-07-21T14:09:30.339+00:00</time>
      </trkpt>
      <trkpt lat="45.94675" lon="-0.99771">
        <ele>2</ele>
        <time>2023-07-21T14:09:35.377+00:00</time>
      </trkpt>
      <trkpt lat="45.94692" lon="-0.99761">
        <ele>2.8</ele>
        <time>2023-07-21T14:09:40.498+00:00</time>
      </trkpt>
      <trkpt lat="45.94707" lon="-0.99751">
        <ele>2.6</ele>
        <time>2023-07-21T14:09:44.511+00:00</time>
      </trkpt>
      <trkpt lat="45.94723" lon="-0.99737">
        <ele>1</ele>
        <time>2023-07-21T14:09:49.124+00:00</time>
      </trkpt>
      <trkpt lat="45.94739" lon="-0.99728">
        <ele>-2</ele>
        <time>2023-07-21T14:09:53.147+00:00</time>
      </trkpt>
      <trkpt lat="45.94756" lon="-0.99718">
        <ele>-2</ele>
        <time>2023-07-21T14:09:57.660+00:00</time>
      </trkpt>
      <trkpt lat="45.94769" lon="-0.99706">
        <ele>-3</ele>
        <time>2023-07-21T14:10:01.672+00:00</time>
      </trkpt>
      <trkpt lat="45.94784" lon="-0.99693">
        <ele>-3</ele>
        <time>2023-07-21T14:10:06.184+00:00</time>
      </trkpt>
      <trkpt lat="45.94798" lon="-0.99686">
        <ele>-3</ele>
        <time>2023-07-21T14:10:10.691+00:00</time>
      </trkpt>
      <trkpt lat="45.94815" lon="-0.99677">
        <ele>-1</ele>
        <time>2023-07-21T14:10:15.785+00:00</time>
      </trkpt>
      <trkpt lat="45.94831" lon="-0.99667">
        <ele>-2</ele>
        <time>2023-07-21T14:10:20.311+00:00</time>
      </trkpt>
      <trkpt lat="45.94844" lon="-0.9966">
        <ele>-2</ele>
        <time>2023-07-21T14:10:24.323+00:00</time>
      </trkpt>
      <trkpt lat="45.94865" lon="-0.99651">
        <ele>-2</ele>
        <time>2023-07-21T14:10:29.329+00:00</time>
      </trkpt>
      <trkpt lat="45.94887" lon="-0.99639">
        <ele>1</ele>
        <time>2023-07-21T14:10:33.776+00:00</time>
      </trkpt>
      <trkpt lat="45.94908" lon="-0.99624">
        <ele>1</ele>
        <time>2023-07-21T14:10:38.784+00:00</time>
      </trkpt>
      <trkpt lat="45.94926" lon="-0.99618">
        <ele>1</ele>
        <time>2023-07-21T14:10:42.793+00:00</time>
      </trkpt>
      <trkpt lat="45.94949" lon="-0.9961">
        <ele>1</ele>
        <time>2023-07-21T14:10:47.789+00:00</time>
      </trkpt>
      <trkpt lat="45.94968" lon="-0.99601">
        <ele>1</ele>
        <time>2023-07-21T14:10:51.795+00:00</time>
      </trkpt>
      <trkpt lat="45.94984" lon="-0.99594">
        <ele>2</ele>
        <time>2023-07-21T14:10:55.794+00:00</time>
      </trkpt>
      <trkpt lat="45.95" lon="-0.99587">
        <ele>1</ele>
        <time>2023-07-21T14:10:59.798+00:00</time>
      </trkpt>
      <trkpt lat="45.95018" lon="-0.99577">
        <ele>3.5</ele>
        <time>2023-07-21T14:11:04.300+00:00</time>
      </trkpt>
      <trkpt lat="45.95037" lon="-0.99568">
        <ele>3.1</ele>
        <time>2023-07-21T14:11:09.362+00:00</time>
      </trkpt>
      <trkpt lat="45.95052" lon="-0.99564">
        <ele>2.6</ele>
        <time>2023-07-21T14:11:13.367+00:00</time>
      </trkpt>
      <trkpt lat="45.95068" lon="-0.99555">
        <ele>3</ele>
        <time>2023-07-21T14:11:17.870+00:00</time>
      </trkpt>
      <trkpt lat="45.95081" lon="-0.99556">
        <ele>1</ele>
        <time>2023-07-21T14:11:39.474+00:00</time>
      </trkpt>
      <trkpt lat="45.95081" lon="-0.99556">
        <ele>1</ele>
        <time>2023-07-21T14:11:44.415+00:00</time>
      </trkpt>
      <trkpt lat="45.9508" lon="-0.99556">
        <ele>1</ele>
        <time>2023-07-21T14:11:49.693+00:00</time>
      </trkpt>
      <trkpt lat="45.95079" lon="-0.99553">
        <ele>1</ele>
        <time>2023-07-21T14:11:53.631+00:00</time>
      </trkpt>
      <trkpt lat="45.95067" lon="-0.99557">
        <ele>2.9</ele>
        <time>2023-07-21T14:11:58.346+00:00</time>
      </trkpt>
      <trkpt lat="45.95054" lon="-0.99563">
        <ele>2.5</ele>
        <time>2023-07-21T14:12:03.379+00:00</time>
      </trkpt>
      <trkpt lat="45.95045" lon="-0.99566">
        <ele>2.8</ele>
        <time>2023-07-21T14:12:07.574+00:00</time>
      </trkpt>
      <trkpt lat="45.9503" lon="-0.99573">
        <ele>3.2</ele>
        <time>2023-07-21T14:12:12.366+00:00</time>
      </trkpt>
      <trkpt lat="45.95016" lon="-0.99579">
        <ele>3.5</ele>
        <time>2023-07-21T14:12:17.756+00:00</time>
      </trkpt>
      <trkpt lat="45.9501" lon="-0.99569">
        <ele>1</ele>
        <time>2023-07-21T14:12:21.709+00:00</time>
      </trkpt>
      <trkpt lat="45.95007" lon="-0.99556">
        <ele>1</ele>
        <time>2023-07-21T14:12:26.381+00:00</time>
      </trkpt>
      <trkpt lat="45.95003" lon="-0.99534">
        <ele>2</ele>
        <time>2023-07-21T14:12:31.773+00:00</time>
      </trkpt>
      <trkpt lat="45.94999" lon="-0.9951">
        <ele>3</ele>
        <time>2023-07-21T14:12:35.966+00:00</time>
      </trkpt>
      <trkpt lat="45.94998" lon="-0.99486">
        <ele>3</ele>
        <time>2023-07-21T14:12:40.684+00:00</time>
      </trkpt>
      <trkpt lat="45.94994" lon="-0.99469">
        <ele>3</ele>
        <time>2023-07-21T14:12:44.719+00:00</time>
      </trkpt>
      <trkpt lat="45.94987" lon="-0.99449">
        <ele>3</ele>
        <time>2023-07-21T14:12:48.777+00:00</time>
      </trkpt>
      <trkpt lat="45.94979" lon="-0.99428">
        <ele>3</ele>
        <time>2023-07-21T14:12:52.374+00:00</time>
      </trkpt>
      <trkpt lat="45.9497" lon="-0.99402">
        <ele>4</ele>
        <time>2023-07-21T14:12:57.528+00:00</time>
      </trkpt>
      <trkpt lat="45.94962" lon="-0.99379">
        <ele>4</ele>
        <time>2023-07-21T14:13:01.725+00:00</time>
      </trkpt>
      <trkpt lat="45.94954" lon="-0.99361">
        <ele>3</ele>
        <time>2023-07-21T14:13:05.743+00:00</time>
      </trkpt>
      <trkpt lat="45.94944" lon="-0.99336">
        <ele>3</ele>
        <time>2023-07-21T14:13:10.419+00:00</time>
      </trkpt>
      <trkpt lat="45.94935" lon="-0.99317">
        <ele>4</ele>
        <time>2023-07-21T14:13:14.811+00:00</time>
      </trkpt>
      <trkpt lat="45.94924" lon="-0.99296">
        <ele>4</ele>
        <time>2023-07-21T14:13:18.814+00:00</time>
      </trkpt>
      <trkpt lat="45.94916" lon="-0.99271">
        <ele>4</ele>
        <time>2023-07-21T14:13:23.392+00:00</time>
      </trkpt>
      <trkpt lat="45.94909" lon="-0.99248">
        <ele>4</ele>
        <time>2023-07-21T14:13:27.511+00:00</time>
      </trkpt>
      <trkpt lat="45.94901" lon="-0.99225">
        <ele>5</ele>
        <time>2023-07-21T14:13:32.101+00:00</time>
      </trkpt>
      <trkpt lat="45.94892" lon="-0.99202">
        <ele>5</ele>
        <time>2023-07-21T14:13:36.747+00:00</time>
      </trkpt>
      <trkpt lat="45.94885" lon="-0.99177">
        <ele>6</ele>
        <time>2023-07-21T14:13:41.363+00:00</time>
      </trkpt>
      <trkpt lat="45.94875" lon="-0.99151">
        <ele>7</ele>
        <time>2023-07-21T14:13:46.161+00:00</time>
      </trkpt>
      <trkpt lat="45.94867" lon="-0.99127">
        <ele>7</ele>
        <time>2023-07-21T14:13:50.323+00:00</time>
      </trkpt>
      <trkpt lat="45.9486" lon="-0.99106">
        <ele>6</ele>
        <time>2023-07-21T14:13:54.544+00:00</time>
      </trkpt>
      <trkpt lat="45.94854" lon="-0.99087">
        <ele>6</ele>
        <time>2023-07-21T14:13:58.903+00:00</time>
      </trkpt>
      <trkpt lat="45.94845" lon="-0.99064">
        <ele>5</ele>
        <time>2023-07-21T14:14:03.787+00:00</time>
      </trkpt>
      <trkpt lat="45.94837" lon="-0.99033">
        <ele>5</ele>
        <time>2023-07-21T14:14:08.798+00:00</time>
      </trkpt>
      <trkpt lat="45.94824" lon="-0.99">
        <ele>4</ele>
        <time>2023-07-21T14:14:13.797+00:00</time>
      </trkpt>
      <trkpt lat="45.9481" lon="-0.98971">
        <ele>2</ele>
        <time>2023-07-21T14:14:18.808+00:00</time>
      </trkpt>
      <trkpt lat="45.94794" lon="-0.98952">
        <ele>2</ele>
        <time>2023-07-21T14:14:23.662+00:00</time>
      </trkpt>
      <trkpt lat="45.94776" lon="-0.98932">
        <ele>3</ele>
        <time>2023-07-21T14:14:28.408+00:00</time>
      </trkpt>
      <trkpt lat="45.9476" lon="-0.98914">
        <ele>4</ele>
        <time>2023-07-21T14:14:33.763+00:00</time>
      </trkpt>
      <trkpt lat="45.94752" lon="-0.98907">
        <ele>4</ele>
        <time>2023-07-21T14:14:37.920+00:00</time>
      </trkpt>
      <trkpt lat="45.94749" lon="-0.98901">
        <ele>3</ele>
        <time>2023-07-21T14:14:42.335+00:00</time>
      </trkpt>
      <trkpt lat="45.94747" lon="-0.98897">
        <ele>3</ele>
        <time>2023-07-21T14:15:04.832+00:00</time>
      </trkpt>
      <trkpt lat="45.94747" lon="-0.98895">
        <ele>3</ele>
        <time>2023-07-21T14:15:09.588+00:00</time>
      </trkpt>
      <trkpt lat="45.94747" lon="-0.98894">
        <ele>3</ele>
        <time>2023-07-21T14:15:14.324+00:00</time>
      </trkpt>
      <trkpt lat="45.94748" lon="-0.98889">
        <ele>3</ele>
        <time>2023-07-21T14:15:18.102+00:00</time>
      </trkpt>
      <trkpt lat="45.9476" lon="-0.98878">
        <ele>3</ele>
        <time>2023-07-21T14:15:22.599+00:00</time>
      </trkpt>
      <trkpt lat="45.9477" lon="-0.98862">
        <ele>2</ele>
        <time>2023-07-21T14:15:27.016+00:00</time>
      </trkpt>
      <trkpt lat="45.94762" lon="-0.98847">
        <ele>2</ele>
        <time>2023-07-21T14:15:31.592+00:00</time>
      </trkpt>
      <trkpt lat="45.94757" lon="-0.98834">
        <ele>2</ele>
        <time>2023-07-21T14:15:36.388+00:00</time>
      </trkpt>
      <trkpt lat="45.9475" lon="-0.9882">
        <ele>2</ele>
        <time>2023-07-21T14:15:40.586+00:00</time>
      </trkpt>
      <trkpt lat="45.94747" lon="-0.98809">
        <ele>1</ele>
        <time>2023-07-21T14:15:44.785+00:00</time>
      </trkpt>
      <trkpt lat="45.94746" lon="-0.98803">
        <ele>1</ele>
        <time>2023-07-21T14:15:48.645+00:00</time>
      </trkpt>
      <trkpt lat="45.94744" lon="-0.98794">
        <ele>1</ele>
        <time>2023-07-21T14:15:53.798+00:00</time>
      </trkpt>
      <trkpt lat="45.94739" lon="-0.98788">
        <ele>1</ele>
        <time>2023-07-21T14:15:58.066+00:00</time>
      </trkpt>
      <trkpt lat="45.94733" lon="-0.98785">
        <ele>3</ele>
        <time>2023-07-21T14:16:02.464+00:00</time>
      </trkpt>
      <trkpt lat="45.94723" lon="-0.98769">
        <ele>3</ele>
        <time>2023-07-21T14:16:06.770+00:00</time>
      </trkpt>
      <trkpt lat="45.94713" lon="-0.98747">
        <ele>3</ele>
        <time>2023-07-21T14:16:10.789+00:00</time>
      </trkpt>
      <trkpt lat="45.94704" lon="-0.98729">
        <ele>5</ele>
        <time>2023-07-21T14:16:15.236+00:00</time>
      </trkpt>
      <trkpt lat="45.94693" lon="-0.98716">
        <ele>5</ele>
        <time>2023-07-21T14:16:19.692+00:00</time>
      </trkpt>
      <trkpt lat="45.94687" lon="-0.98705">
        <ele>4</ele>
        <time>2023-07-21T14:16:24.231+00:00</time>
      </trkpt>
      <trkpt lat="45.94683" lon="-0.98689">
        <ele>4</ele>
        <time>2023-07-21T14:16:28.760+00:00</time>
      </trkpt>
      <trkpt lat="45.9468" lon="-0.98674">
        <ele>5</ele>
        <time>2023-07-21T14:16:32.626+00:00</time>
      </trkpt>
      <trkpt lat="45.94674" lon="-0.98657">
        <ele>5</ele>
        <time>2023-07-21T14:16:37.184+00:00</time>
      </trkpt>
      <trkpt lat="45.94668" lon="-0.98642">
        <ele>6</ele>
        <time>2023-07-21T14:16:41.773+00:00</time>
      </trkpt>
      <trkpt lat="45.94663" lon="-0.9863">
        <ele>6</ele>
        <time>2023-07-21T14:16:45.342+00:00</time>
      </trkpt>
      <trkpt lat="45.94657" lon="-0.98614">
        <ele>6</ele>
        <time>2023-07-21T14:16:50.519+00:00</time>
      </trkpt>
      <trkpt lat="45.9465" lon="-0.98595">
        <ele>7</ele>
        <time>2023-07-21T14:16:55.774+00:00</time>
      </trkpt>
      <trkpt lat="45.94645" lon="-0.9858">
        <ele>7</ele>
        <time>2023-07-21T14:16:59.632+00:00</time>
      </trkpt>
      <trkpt lat="45.94638" lon="-0.98563">
        <ele>7</ele>
        <time>2023-07-21T14:17:04.806+00:00</time>
      </trkpt>
      <trkpt lat="45.94631" lon="-0.98544">
        <ele>7</ele>
        <time>2023-07-21T14:17:09.288+00:00</time>
      </trkpt>
      <trkpt lat="45.9462" lon="-0.98512">
        <ele>7</ele>
        <time>2023-07-21T14:17:27.558+00:00</time>
      </trkpt>
      <trkpt lat="45.94617" lon="-0.98503">
        <ele>7</ele>
        <time>2023-07-21T14:17:32.316+00:00</time>
      </trkpt>
      <trkpt lat="45.94603" lon="-0.98471">
        <ele>6</ele>
        <time>2023-07-21T14:17:37.575+00:00</time>
      </trkpt>
      <trkpt lat="45.94593" lon="-0.9844">
        <ele>6</ele>
        <time>2023-07-21T14:17:42.791+00:00</time>
      </trkpt>
      <trkpt lat="45.94583" lon="-0.98417">
        <ele>7</ele>
        <time>2023-07-21T14:17:47.300+00:00</time>
      </trkpt>
      <trkpt lat="45.94577" lon="-0.98396">
        <ele>8</ele>
        <time>2023-07-21T14:17:51.304+00:00</time>
      </trkpt>
      <trkpt lat="45.9457" lon="-0.98372">
        <ele>9</ele>
        <time>2023-07-21T14:17:55.921+00:00</time>
      </trkpt>
      <trkpt lat="45.94561" lon="-0.98345">
        <ele>10</ele>
        <time>2023-07-21T14:18:00.457+00:00</time>
      </trkpt>
      <trkpt lat="45.94553" lon="-0.98324">
        <ele>10</ele>
        <time>2023-07-21T14:18:05.006+00:00</time>
      </trkpt>
      <trkpt lat="45.9454" lon="-0.98307">
        <ele>9</ele>
        <time>2023-07-21T14:18:09.567+00:00</time>
      </trkpt>
      <trkpt lat="45.94551" lon="-0.98292">
        <ele>11</ele>
        <time>2023-07-21T14:18:14.242+00:00</time>
      </trkpt>
      <trkpt lat="45.94571" lon="-0.98286">
        <ele>11</ele>
        <time>2023-07-21T14:18:18.680+00:00</time>
      </trkpt>
      <trkpt lat="45.94589" lon="-0.98277">
        <ele>11</ele>
        <time>2023-07-21T14:18:23.519+00:00</time>
      </trkpt>
      <trkpt lat="45.94608" lon="-0.98266">
        <ele>11</ele>
        <time>2023-07-21T14:19:04.510+00:00</time>
      </trkpt>
      <trkpt lat="45.946" lon="-0.98257">
        <ele>11</ele>
        <time>2023-07-21T14:19:08.369+00:00</time>
      </trkpt>
      <trkpt lat="45.94595" lon="-0.9824">
        <ele>11</ele>
        <time>2023-07-21T14:19:13.774+00:00</time>
      </trkpt>
      <trkpt lat="45.94591" lon="-0.98229">
        <ele>12</ele>
        <time>2023-07-21T14:19:17.631+00:00</time>
      </trkpt>
      <trkpt lat="45.94589" lon="-0.98225">
        <ele>12</ele>
        <time>2023-07-21T14:19:21.670+00:00</time>
      </trkpt>
      <trkpt lat="45.94595" lon="-0.9824">
        <ele>11</ele>
        <time>2023-07-21T14:19:26.800+00:00</time>
      </trkpt>
      <trkpt lat="45.946" lon="-0.98258">
        <ele>11</ele>
        <time>2023-07-21T14:19:31.527+00:00</time>
      </trkpt>
      <trkpt lat="45.94605" lon="-0.9827">
        <ele>11</ele>
        <time>2023-07-21T14:19:35.845+00:00</time>
      </trkpt>
      <trkpt lat="45.94614" lon="-0.98267">
        <ele>11</ele>
        <time>2023-07-21T14:19:40.436+00:00</time>
      </trkpt>
      <trkpt lat="45.94623" lon="-0.98263">
        <ele>11</ele>
        <time>2023-07-21T14:19:44.604+00:00</time>
      </trkpt>
      <trkpt lat="45.94633" lon="-0.98265">
        <ele>11</ele>
        <time>2023-07-21T14:19:48.610+00:00</time>
      </trkpt>
      <trkpt lat="45.94647" lon="-0.98259">
        <ele>11</ele>
        <time>2023-07-21T14:19:53.168+00:00</time>
      </trkpt>
      <trkpt lat="45.94663" lon="-0.98253">
        <ele>11</ele>
        <time>2023-07-21T14:19:58.148+00:00</time>
      </trkpt>
      <trkpt lat="45.94676" lon="-0.98246">
        <ele>11</ele>
        <time>2023-07-21T14:20:02.807+00:00</time>
      </trkpt>
      <trkpt lat="45.94689" lon="-0.98238">
        <ele>10</ele>
        <time>2023-07-21T14:20:07.424+00:00</time>
      </trkpt>
      <trkpt lat="45.94703" lon="-0.98231">
        <ele>10</ele>
        <time>2023-07-21T14:20:11.343+00:00</time>
      </trkpt>
      <trkpt lat="45.9472" lon="-0.98223">
        <ele>9</ele>
        <time>2023-07-21T14:20:16.541+00:00</time>
      </trkpt>
      <trkpt lat="45.94736" lon="-0.98212">
        <ele>9</ele>
        <time>2023-07-21T14:20:33.950+00:00</time>
      </trkpt>
      <trkpt lat="45.94739" lon="-0.98211">
        <ele>9</ele>
        <time>2023-07-21T14:20:37.929+00:00</time>
      </trkpt>
      <trkpt lat="45.94758" lon="-0.98203">
        <ele>9</ele>
        <time>2023-07-21T14:20:42.598+00:00</time>
      </trkpt>
      <trkpt lat="45.94777" lon="-0.98195">
        <ele>9</ele>
        <time>2023-07-21T14:20:46.543+00:00</time>
      </trkpt>
      <trkpt lat="45.94793" lon="-0.98187">
        <ele>9</ele>
        <time>2023-07-21T14:20:50.364+00:00</time>
      </trkpt>
      <trkpt lat="45.9481" lon="-0.98177">
        <ele>9</ele>
        <time>2023-07-21T14:20:54.804+00:00</time>
      </trkpt>
      <trkpt lat="45.94826" lon="-0.98165">
        <ele>8</ele>
        <time>2023-07-21T14:20:59.111+00:00</time>
      </trkpt>
      <trkpt lat="45.94833" lon="-0.98159">
        <ele>8</ele>
        <time>2023-07-21T14:21:03.170+00:00</time>
      </trkpt>
      <trkpt lat="45.94833" lon="-0.98158">
        <ele>8</ele>
        <time>2023-07-21T14:21:07.367+00:00</time>
      </trkpt>
      <trkpt lat="45.94834" lon="-0.98157">
        <ele>8</ele>
        <time>2023-07-21T14:21:12.792+00:00</time>
      </trkpt>
      <trkpt lat="45.94845" lon="-0.98142">
        <ele>9</ele>
        <time>2023-07-21T14:21:17.120+00:00</time>
      </trkpt>
      <trkpt lat="45.94859" lon="-0.9812">
        <ele>8</ele>
        <time>2023-07-21T14:21:21.643+00:00</time>
      </trkpt>
      <trkpt lat="45.94867" lon="-0.98103">
        <ele>8</ele>
        <time>2023-07-21T14:21:25.541+00:00</time>
      </trkpt>
      <trkpt lat="45.9488" lon="-0.9808">
        <ele>7</ele>
        <time>2023-07-21T14:21:30.401+00:00</time>
      </trkpt>
      <trkpt lat="45.9489" lon="-0.98057">
        <ele>8</ele>
        <time>2023-07-21T14:21:35.361+00:00</time>
      </trkpt>
      <trkpt lat="45.94897" lon="-0.98038">
        <ele>9</ele>
        <time>2023-07-21T14:21:39.381+00:00</time>
      </trkpt>
      <trkpt lat="45.94903" lon="-0.98019">
        <ele>8</ele>
        <time>2023-07-21T14:21:43.459+00:00</time>
      </trkpt>
      <trkpt lat="45.94908" lon="-0.97994">
        <ele>8</ele>
        <time>2023-07-21T14:21:48.577+00:00</time>
      </trkpt>
      <trkpt lat="45.94914" lon="-0.97967">
        <ele>9</ele>
        <time>2023-07-21T14:21:53.573+00:00</time>
      </trkpt>
      <trkpt lat="45.94916" lon="-0.97949">
        <ele>10</ele>
        <time>2023-07-21T14:21:57.475+00:00</time>
      </trkpt>
      <trkpt lat="45.94919" lon="-0.97928">
        <ele>10</ele>
        <time>2023-07-21T14:22:02.052+00:00</time>
      </trkpt>
      <trkpt lat="45.94923" lon="-0.97913">
        <ele>10</ele>
        <time>2023-07-21T14:22:06.571+00:00</time>
      </trkpt>
      <trkpt lat="45.94923" lon="-0.97894">
        <ele>11</ele>
        <time>2023-07-21T14:22:11.787+00:00</time>
      </trkpt>
      <trkpt lat="45.94925" lon="-0.97871">
        <ele>12</ele>
        <time>2023-07-21T14:22:16.247+00:00</time>
      </trkpt>
      <trkpt lat="45.94926" lon="-0.97852">
        <ele>12</ele>
        <time>2023-07-21T14:22:20.786+00:00</time>
      </trkpt>
      <trkpt lat="45.94928" lon="-0.97835">
        <ele>12</ele>
        <time>2023-07-21T14:22:25.282+00:00</time>
      </trkpt>
      <trkpt lat="45.94931" lon="-0.97815">
        <ele>11</ele>
        <time>2023-07-21T14:22:29.179+00:00</time>
      </trkpt>
      <trkpt lat="45.94934" lon="-0.97792">
        <ele>11</ele>
        <time>2023-07-21T14:22:33.718+00:00</time>
      </trkpt>
      <trkpt lat="45.94935" lon="-0.97771">
        <ele>10</ele>
        <time>2023-07-21T14:22:38.178+00:00</time>
      </trkpt>
      <trkpt lat="45.94937" lon="-0.97754">
        <ele>10</ele>
        <time>2023-07-21T14:22:42.677+00:00</time>
      </trkpt>
      <trkpt lat="45.94938" lon="-0.97734">
        <ele>11</ele>
        <time>2023-07-21T14:22:46.755+00:00</time>
      </trkpt>
      <trkpt lat="45.94941" lon="-0.97709">
        <ele>11</ele>
        <time>2023-07-21T14:22:51.312+00:00</time>
      </trkpt>
      <trkpt lat="45.94942" lon="-0.97691">
        <ele>11</ele>
        <time>2023-07-21T14:22:55.372+00:00</time>
      </trkpt>
      <trkpt lat="45.94933" lon="-0.97678">
        <ele>12</ele>
        <time>2023-07-21T14:23:00.311+00:00</time>
      </trkpt>
      <trkpt lat="45.9492" lon="-0.9767">
        <ele>12</ele>
        <time>2023-07-21T14:23:04.970+00:00</time>
      </trkpt>
      <trkpt lat="45.94905" lon="-0.97665">
        <ele>12</ele>
        <time>2023-07-21T14:23:09.529+00:00</time>
      </trkpt>
      <trkpt lat="45.94891" lon="-0.97661">
        <ele>12</ele>
        <time>2023-07-21T14:23:13.268+00:00</time>
      </trkpt>
      <trkpt lat="45.94879" lon="-0.97659">
        <ele>12</ele>
        <time>2023-07-21T14:23:17.770+00:00</time>
      </trkpt>
      <trkpt lat="45.94867" lon="-0.97652">
        <ele>14</ele>
        <time>2023-07-21T14:23:21.810+00:00</time>
      </trkpt>
      <trkpt lat="45.94851" lon="-0.9765">
        <ele>14</ele>
        <time>2023-07-21T14:23:25.383+00:00</time>
      </trkpt>
      <trkpt lat="45.94832" lon="-0.97646">
        <ele>15</ele>
        <time>2023-07-21T14:23:30.198+00:00</time>
      </trkpt>
      <trkpt lat="45.94816" lon="-0.97642">
        <ele>15</ele>
        <time>2023-07-21T14:23:34.156+00:00</time>
      </trkpt>
      <trkpt lat="45.94799" lon="-0.97642">
        <ele>15</ele>
        <time>2023-07-21T14:23:38.674+00:00</time>
      </trkpt>
      <trkpt lat="45.94789" lon="-0.97641">
        <ele>15</ele>
        <time>2023-07-21T14:23:42.552+00:00</time>
      </trkpt>
      <trkpt lat="45.9478" lon="-0.97638">
        <ele>15</ele>
        <time>2023-07-21T14:23:47.229+00:00</time>
      </trkpt>
      <trkpt lat="45.94777" lon="-0.97636">
        <ele>15</ele>
        <time>2023-07-21T14:23:51.786+00:00</time>
      </trkpt>
      <trkpt lat="45.94776" lon="-0.97632">
        <ele>15</ele>
        <time>2023-07-21T14:23:55.925+00:00</time>
      </trkpt>
      <trkpt lat="45.94782" lon="-0.97616">
        <ele>16</ele>
        <time>2023-07-21T14:24:00.886+00:00</time>
      </trkpt>
      <trkpt lat="45.94786" lon="-0.97595">
        <ele>16</ele>
        <time>2023-07-21T14:24:05.384+00:00</time>
      </trkpt>
      <trkpt lat="45.94784" lon="-0.97569">
        <ele>15</ele>
        <time>2023-07-21T14:24:09.487+00:00</time>
      </trkpt>
      <trkpt lat="45.94782" lon="-0.97542">
        <ele>15</ele>
        <time>2023-07-21T14:24:13.385+00:00</time>
      </trkpt>
      <trkpt lat="45.94782" lon="-0.97513">
        <ele>14</ele>
        <time>2023-07-21T14:24:17.782+00:00</time>
      </trkpt>
      <trkpt lat="45.94781" lon="-0.97486">
        <ele>14</ele>
        <time>2023-07-21T14:24:21.788+00:00</time>
      </trkpt>
      <trkpt lat="45.94779" lon="-0.97459">
        <ele>14</ele>
        <time>2023-07-21T14:24:25.790+00:00</time>
      </trkpt>
      <trkpt lat="45.94777" lon="-0.97426">
        <ele>14</ele>
        <time>2023-07-21T14:24:30.791+00:00</time>
      </trkpt>
      <trkpt lat="45.94775" lon="-0.97391">
        <ele>14</ele>
        <time>2023-07-21T14:24:35.790+00:00</time>
      </trkpt>
      <trkpt lat="45.94773" lon="-0.97357">
        <ele>14</ele>
        <time>2023-07-21T14:24:40.774+00:00</time>
      </trkpt>
      <trkpt lat="45.94772" lon="-0.97329">
        <ele>14</ele>
        <time>2023-07-21T14:24:44.794+00:00</time>
      </trkpt>
      <trkpt lat="45.9477" lon="-0.97301">
        <ele>14</ele>
        <time>2023-07-21T14:24:48.790+00:00</time>
      </trkpt>
      <trkpt lat="45.9477" lon="-0.97271">
        <ele>14</ele>
        <time>2023-07-21T14:24:52.795+00:00</time>
      </trkpt>
      <trkpt lat="45.94768" lon="-0.97231">
        <ele>14</ele>
        <time>2023-07-21T14:24:57.779+00:00</time>
      </trkpt>
      <trkpt lat="45.94766" lon="-0.97192">
        <ele>13</ele>
        <time>2023-07-21T14:25:02.802+00:00</time>
      </trkpt>
      <trkpt lat="45.94765" lon="-0.97153">
        <ele>13</ele>
        <time>2023-07-21T14:25:07.784+00:00</time>
      </trkpt>
      <trkpt lat="45.94762" lon="-0.97122">
        <ele>11</ele>
        <time>2023-07-21T14:25:11.795+00:00</time>
      </trkpt>
      <trkpt lat="45.94759" lon="-0.97099">
        <ele>11</ele>
        <time>2023-07-21T14:25:16.775+00:00</time>
      </trkpt>
      <trkpt lat="45.94759" lon="-0.97086">
        <ele>11</ele>
        <time>2023-07-21T14:25:20.711+00:00</time>
      </trkpt>
      <trkpt lat="45.94763" lon="-0.9705">
        <ele>12</ele>
        <time>2023-07-21T14:25:25.789+00:00</time>
      </trkpt>
      <trkpt lat="45.94761" lon="-0.97012">
        <ele>12</ele>
        <time>2023-07-21T14:25:30.769+00:00</time>
      </trkpt>
      <trkpt lat="45.94759" lon="-0.96976">
        <ele>12</ele>
        <time>2023-07-21T14:25:35.782+00:00</time>
      </trkpt>
      <trkpt lat="45.94756" lon="-0.96938">
        <ele>11</ele>
        <time>2023-07-21T14:25:40.778+00:00</time>
      </trkpt>
      <trkpt lat="45.94754" lon="-0.96906">
        <ele>11</ele>
        <time>2023-07-21T14:25:44.788+00:00</time>
      </trkpt>
      <trkpt lat="45.94751" lon="-0.96871">
        <ele>13</ele>
        <time>2023-07-21T14:25:49.798+00:00</time>
      </trkpt>
      <trkpt lat="45.94749" lon="-0.96844">
        <ele>12</ele>
        <time>2023-07-21T14:25:54.768+00:00</time>
      </trkpt>
      <trkpt lat="45.94747" lon="-0.96823">
        <ele>12</ele>
        <time>2023-07-21T14:25:58.746+00:00</time>
      </trkpt>
      <trkpt lat="45.9475" lon="-0.96795">
        <ele>11</ele>
        <time>2023-07-21T14:26:03.338+00:00</time>
      </trkpt>
      <trkpt lat="45.94749" lon="-0.96767">
        <ele>10</ele>
        <time>2023-07-21T14:26:07.798+00:00</time>
      </trkpt>
      <trkpt lat="45.94748" lon="-0.96736">
        <ele>9</ele>
        <time>2023-07-21T14:26:11.796+00:00</time>
      </trkpt>
      <trkpt lat="45.9474" lon="-0.967">
        <ele>7</ele>
        <time>2023-07-21T14:26:16.793+00:00</time>
      </trkpt>
      <trkpt lat="45.94735" lon="-0.9667">
        <ele>7</ele>
        <time>2023-07-21T14:26:20.806+00:00</time>
      </trkpt>
      <trkpt lat="45.94729" lon="-0.96629">
        <ele>7</ele>
        <time>2023-07-21T14:26:25.815+00:00</time>
      </trkpt>
      <trkpt lat="45.94724" lon="-0.96595">
        <ele>6</ele>
        <time>2023-07-21T14:26:30.783+00:00</time>
      </trkpt>
      <trkpt lat="45.94721" lon="-0.96574">
        <ele>6</ele>
        <time>2023-07-21T14:26:34.804+00:00</time>
      </trkpt>
      <trkpt lat="45.94711" lon="-0.96558">
        <ele>5</ele>
        <time>2023-07-21T14:26:39.136+00:00</time>
      </trkpt>
      <trkpt lat="45.94714" lon="-0.96548">
        <ele>5</ele>
        <time>2023-07-21T14:26:43.795+00:00</time>
      </trkpt>
      <trkpt lat="45.94714" lon="-0.96547">
        <ele>5</ele>
        <time>2023-07-21T14:26:48.312+00:00</time>
      </trkpt>
      <trkpt lat="45.94713" lon="-0.96546">
        <ele>5</ele>
        <time>2023-07-21T14:27:15.928+00:00</time>
      </trkpt>
      <trkpt lat="45.94714" lon="-0.96547">
        <ele>5</ele>
        <time>2023-07-21T14:27:20.726+00:00</time>
      </trkpt>
      <trkpt lat="45.94724" lon="-0.96563">
        <ele>5</ele>
        <time>2023-07-21T14:27:24.924+00:00</time>
      </trkpt>
      <trkpt lat="45.94727" lon="-0.966">
        <ele>7</ele>
        <time>2023-07-21T14:27:29.806+00:00</time>
      </trkpt>
      <trkpt lat="45.94733" lon="-0.96632">
        <ele>7</ele>
        <time>2023-07-21T14:27:34.797+00:00</time>
      </trkpt>
      <trkpt lat="45.94737" lon="-0.96665">
        <ele>7</ele>
        <time>2023-07-21T14:27:39.787+00:00</time>
      </trkpt>
      <trkpt lat="45.94742" lon="-0.96692">
        <ele>7</ele>
        <time>2023-07-21T14:27:44.797+00:00</time>
      </trkpt>
      <trkpt lat="45.94748" lon="-0.96717">
        <ele>8</ele>
        <time>2023-07-21T14:27:49.802+00:00</time>
      </trkpt>
      <trkpt lat="45.94751" lon="-0.96742">
        <ele>9</ele>
        <time>2023-07-21T14:27:54.769+00:00</time>
      </trkpt>
      <trkpt lat="45.94752" lon="-0.96763">
        <ele>9</ele>
        <time>2023-07-21T14:27:58.799+00:00</time>
      </trkpt>
      <trkpt lat="45.9476" lon="-0.96781">
        <ele>10</ele>
        <time>2023-07-21T14:28:03.787+00:00</time>
      </trkpt>
      <trkpt lat="45.94772" lon="-0.96786">
        <ele>9</ele>
        <time>2023-07-21T14:28:07.794+00:00</time>
      </trkpt>
      <trkpt lat="45.94791" lon="-0.96775">
        <ele>9</ele>
        <time>2023-07-21T14:28:12.788+00:00</time>
      </trkpt>
      <trkpt lat="45.94809" lon="-0.96742">
        <ele>9</ele>
        <time>2023-07-21T14:29:45.567+00:00</time>
      </trkpt>
      <trkpt lat="45.94809" lon="-0.96742">
        <ele>9</ele>
        <time>2023-07-21T14:29:49.581+00:00</time>
      </trkpt>
      <trkpt lat="45.9481" lon="-0.96742">
        <ele>9</ele>
        <time>2023-07-21T14:29:54.201+00:00</time>
      </trkpt>
      <trkpt lat="45.94812" lon="-0.96732">
        <ele>8</ele>
        <time>2023-07-21T14:29:57.980+00:00</time>
      </trkpt>
      <trkpt lat="45.94803" lon="-0.96711">
        <ele>8</ele>
        <time>2023-07-21T14:30:02.519+00:00</time>
      </trkpt>
      <trkpt lat="45.94793" lon="-0.96693">
        <ele>7</ele>
        <time>2023-07-21T14:30:06.357+00:00</time>
      </trkpt>
      <trkpt lat="45.94785" lon="-0.96672">
        <ele>7</ele>
        <time>2023-07-21T14:30:10.917+00:00</time>
      </trkpt>
      <trkpt lat="45.94775" lon="-0.9664">
        <ele>7</ele>
        <time>2023-07-21T14:30:15.806+00:00</time>
      </trkpt>
      <trkpt lat="45.94771" lon="-0.96614">
        <ele>7</ele>
        <time>2023-07-21T14:30:19.805+00:00</time>
      </trkpt>
      <trkpt lat="45.94773" lon="-0.96578">
        <ele>7</ele>
        <time>2023-07-21T14:30:24.794+00:00</time>
      </trkpt>
      <trkpt lat="45.94777" lon="-0.96542">
        <ele>6</ele>
        <time>2023-07-21T14:30:29.800+00:00</time>
      </trkpt>
      <trkpt lat="45.94778" lon="-0.96515">
        <ele>6</ele>
        <time>2023-07-21T14:30:33.801+00:00</time>
      </trkpt>
      <trkpt lat="45.94781" lon="-0.96488">
        <ele>6</ele>
        <time>2023-07-21T14:30:37.806+00:00</time>
      </trkpt>
      <trkpt lat="45.94783" lon="-0.96458">
        <ele>6</ele>
        <time>2023-07-21T14:30:42.793+00:00</time>
      </trkpt>
      <trkpt lat="45.94787" lon="-0.96424">
        <ele>6</ele>
        <time>2023-07-21T14:30:47.809+00:00</time>
      </trkpt>
      <trkpt lat="45.94792" lon="-0.96396">
        <ele>6</ele>
        <time>2023-07-21T14:30:51.804+00:00</time>
      </trkpt>
      <trkpt lat="45.94798" lon="-0.96362">
        <ele>7</ele>
        <time>2023-07-21T14:30:56.798+00:00</time>
      </trkpt>
      <trkpt lat="45.94806" lon="-0.96327">
        <ele>6</ele>
        <time>2023-07-21T14:31:01.809+00:00</time>
      </trkpt>
      <trkpt lat="45.94815" lon="-0.9629">
        <ele>4</ele>
        <time>2023-07-21T14:31:06.803+00:00</time>
      </trkpt>
      <trkpt lat="45.94827" lon="-0.96262">
        <ele>5</ele>
        <time>2023-07-21T14:31:10.811+00:00</time>
      </trkpt>
      <trkpt lat="45.94846" lon="-0.96227">
        <ele>5</ele>
        <time>2023-07-21T14:31:15.802+00:00</time>
      </trkpt>
      <trkpt lat="45.94862" lon="-0.962">
        <ele>5</ele>
        <time>2023-07-21T14:31:19.801+00:00</time>
      </trkpt>
      <trkpt lat="45.94883" lon="-0.96165">
        <ele>4</ele>
        <time>2023-07-21T14:31:24.791+00:00</time>
      </trkpt>
      <trkpt lat="45.94901" lon="-0.96139">
        <ele>4</ele>
        <time>2023-07-21T14:31:28.810+00:00</time>
      </trkpt>
      <trkpt lat="45.94928" lon="-0.96118">
        <ele>4</ele>
        <time>2023-07-21T14:31:33.808+00:00</time>
      </trkpt>
      <trkpt lat="45.94951" lon="-0.96113">
        <ele>4</ele>
        <time>2023-07-21T14:31:37.795+00:00</time>
      </trkpt>
      <trkpt lat="45.94976" lon="-0.96115">
        <ele>4</ele>
        <time>2023-07-21T14:31:42.797+00:00</time>
      </trkpt>
      <trkpt lat="45.94995" lon="-0.96119">
        <ele>3</ele>
        <time>2023-07-21T14:31:46.812+00:00</time>
      </trkpt>
      <trkpt lat="45.95013" lon="-0.96123">
        <ele>3</ele>
        <time>2023-07-21T14:31:50.806+00:00</time>
      </trkpt>
      <trkpt lat="45.9503" lon="-0.96123">
        <ele>2</ele>
        <time>2023-07-21T14:31:55.784+00:00</time>
      </trkpt>
      <trkpt lat="45.95048" lon="-0.96126">
        <ele>2</ele>
        <time>2023-07-21T14:31:59.789+00:00</time>
      </trkpt>
      <trkpt lat="45.95077" lon="-0.96132">
        <ele>2</ele>
        <time>2023-07-21T14:32:04.776+00:00</time>
      </trkpt>
      <trkpt lat="45.951" lon="-0.96137">
        <ele>2</ele>
        <time>2023-07-21T14:32:08.808+00:00</time>
      </trkpt>
      <trkpt lat="45.95126" lon="-0.96141">
        <ele>2</ele>
        <time>2023-07-21T14:32:13.781+00:00</time>
      </trkpt>
      <trkpt lat="45.95148" lon="-0.96143">
        <ele>2</ele>
        <time>2023-07-21T14:32:17.799+00:00</time>
      </trkpt>
      <trkpt lat="45.95175" lon="-0.96145">
        <ele>2</ele>
        <time>2023-07-21T14:32:22.790+00:00</time>
      </trkpt>
      <trkpt lat="45.95197" lon="-0.96147">
        <ele>3</ele>
        <time>2023-07-21T14:32:26.793+00:00</time>
      </trkpt>
      <trkpt lat="45.95225" lon="-0.96149">
        <ele>4</ele>
        <time>2023-07-21T14:32:31.778+00:00</time>
      </trkpt>
      <trkpt lat="45.95246" lon="-0.96151">
        <ele>5</ele>
        <time>2023-07-21T14:32:35.816+00:00</time>
      </trkpt>
      <trkpt lat="45.95273" lon="-0.96156">
        <ele>6</ele>
        <time>2023-07-21T14:32:40.787+00:00</time>
      </trkpt>
      <trkpt lat="45.953" lon="-0.96158">
        <ele>6</ele>
        <time>2023-07-21T14:32:45.790+00:00</time>
      </trkpt>
      <trkpt lat="45.95321" lon="-0.96162">
        <ele>5</ele>
        <time>2023-07-21T14:32:49.805+00:00</time>
      </trkpt>
      <trkpt lat="45.95344" lon="-0.96165">
        <ele>5</ele>
        <time>2023-07-21T14:32:54.805+00:00</time>
      </trkpt>
      <trkpt lat="45.95364" lon="-0.96164">
        <ele>5</ele>
        <time>2023-07-21T14:32:59.818+00:00</time>
      </trkpt>
      <trkpt lat="45.95379" lon="-0.96156">
        <ele>4</ele>
        <time>2023-07-21T14:33:04.387+00:00</time>
      </trkpt>
      <trkpt lat="45.95393" lon="-0.96147">
        <ele>5</ele>
        <time>2023-07-21T14:33:23.166+00:00</time>
      </trkpt>
      <trkpt lat="45.95383" lon="-0.96146">
        <ele>5</ele>
        <time>2023-07-21T14:33:27.720+00:00</time>
      </trkpt>
      <trkpt lat="45.95383" lon="-0.96144">
        <ele>5</ele>
        <time>2023-07-21T14:33:31.796+00:00</time>
      </trkpt>
      <trkpt lat="45.95382" lon="-0.96145">
        <ele>5</ele>
        <time>2023-07-21T14:33:36.349+00:00</time>
      </trkpt>
      <trkpt lat="45.95382" lon="-0.96146">
        <ele>5</ele>
        <time>2023-07-21T14:33:40.776+00:00</time>
      </trkpt>
      <trkpt lat="45.95382" lon="-0.96146">
        <ele>5</ele>
        <time>2023-07-21T14:33:54.805+00:00</time>
      </trkpt>
      <trkpt lat="45.95382" lon="-0.96145">
        <ele>5</ele>
        <time>2023-07-21T14:33:58.402+00:00</time>
      </trkpt>
      <trkpt lat="45.95383" lon="-0.96145">
        <ele>5</ele>
        <time>2023-07-21T14:34:03.818+00:00</time>
      </trkpt>
      <trkpt lat="45.95383" lon="-0.9614">
        <ele>5</ele>
        <time>2023-07-21T14:34:08.796+00:00</time>
      </trkpt>
      <trkpt lat="45.95382" lon="-0.96132">
        <ele>5</ele>
        <time>2023-07-21T14:34:13.724+00:00</time>
      </trkpt>
      <trkpt lat="45.95378" lon="-0.96124">
        <ele>4</ele>
        <time>2023-07-21T14:34:18.398+00:00</time>
      </trkpt>
      <trkpt lat="45.95374" lon="-0.96091">
        <ele>3</ele>
        <time>2023-07-21T14:34:22.816+00:00</time>
      </trkpt>
      <trkpt lat="45.95373" lon="-0.96052">
        <ele>3</ele>
        <time>2023-07-21T14:34:27.800+00:00</time>
      </trkpt>
      <trkpt lat="45.95371" lon="-0.96024">
        <ele>3</ele>
        <time>2023-07-21T14:34:31.809+00:00</time>
      </trkpt>
      <trkpt lat="45.95368" lon="-0.96015">
        <ele>3</ele>
        <time>2023-07-21T14:35:14.529+00:00</time>
      </trkpt>
      <trkpt lat="45.95368" lon="-0.96013">
        <ele>3</ele>
        <time>2023-07-21T14:35:19.536+00:00</time>
      </trkpt>
      <trkpt lat="45.95367" lon="-0.96005">
        <ele>3</ele>
        <time>2023-07-21T14:35:23.543+00:00</time>
      </trkpt>
      <trkpt lat="45.95368" lon="-0.95987">
        <ele>3</ele>
        <time>2023-07-21T14:35:27.549+00:00</time>
      </trkpt>
      <trkpt lat="45.95366" lon="-0.95982">
        <ele>3</ele>
        <time>2023-07-21T14:35:32.655+00:00</time>
      </trkpt>
      <trkpt lat="45.95368" lon="-0.95983">
        <ele>3</ele>
        <time>2023-07-21T14:35:37.161+00:00</time>
      </trkpt>
      <trkpt lat="45.95368" lon="-0.95985">
        <ele>3</ele>
        <time>2023-07-21T14:35:41.668+00:00</time>
      </trkpt>
      <trkpt lat="45.95369" lon="-0.95982">
        <ele>3</ele>
        <time>2023-07-21T14:35:46.175+00:00</time>
      </trkpt>
      <trkpt lat="45.9537" lon="-0.95957">
        <ele>3</ele>
        <time>2023-07-21T14:35:50.681+00:00</time>
      </trkpt>
      <trkpt lat="45.95371" lon="-0.95928">
        <ele>2</ele>
        <time>2023-07-21T14:35:54.767+00:00</time>
      </trkpt>
      <trkpt lat="45.95376" lon="-0.95899">
        <ele>1</ele>
        <time>2023-07-21T14:35:58.784+00:00</time>
      </trkpt>
      <trkpt lat="45.95395" lon="-0.95876">
        <ele>1</ele>
        <time>2023-07-21T14:36:03.774+00:00</time>
      </trkpt>
      <trkpt lat="45.95413" lon="-0.95865">
        <ele>2</ele>
        <time>2023-07-21T14:36:07.766+00:00</time>
      </trkpt>
      <trkpt lat="45.95432" lon="-0.95857">
        <ele>1</ele>
        <time>2023-07-21T14:36:11.772+00:00</time>
      </trkpt>
      <trkpt lat="45.9545" lon="-0.95845">
        <ele>1</ele>
        <time>2023-07-21T14:36:16.363+00:00</time>
      </trkpt>
      <trkpt lat="45.95472" lon="-0.95832">
        <ele>1</ele>
        <time>2023-07-21T14:36:20.800+00:00</time>
      </trkpt>
      <trkpt lat="45.95491" lon="-0.95819">
        <ele>1</ele>
        <time>2023-07-21T14:36:25.525+00:00</time>
      </trkpt>
      <trkpt lat="45.95515" lon="-0.95809">
        <ele>2</ele>
        <time>2023-07-21T14:36:29.802+00:00</time>
      </trkpt>
      <trkpt lat="45.95538" lon="-0.95799">
        <ele>2</ele>
        <time>2023-07-21T14:36:33.817+00:00</time>
      </trkpt>
      <trkpt lat="45.95561" lon="-0.95784">
        <ele>2</ele>
        <time>2023-07-21T14:36:38.393+00:00</time>
      </trkpt>
      <trkpt lat="45.95579" lon="-0.95779">
        <ele>2</ele>
        <time>2023-07-21T14:36:42.530+00:00</time>
      </trkpt>
      <trkpt lat="45.95601" lon="-0.95779">
        <ele>4</ele>
        <time>2023-07-21T14:36:46.806+00:00</time>
      </trkpt>
      <trkpt lat="45.95626" lon="-0.9578">
        <ele>5</ele>
        <time>2023-07-21T14:36:51.782+00:00</time>
      </trkpt>
      <trkpt lat="45.95647" lon="-0.95783">
        <ele>5</ele>
        <time>2023-07-21T14:36:55.815+00:00</time>
      </trkpt>
      <trkpt lat="45.95674" lon="-0.95782">
        <ele>5</ele>
        <time>2023-07-21T14:37:00.812+00:00</time>
      </trkpt>
      <trkpt lat="45.95696" lon="-0.95785">
        <ele>4</ele>
        <time>2023-07-21T14:37:05.778+00:00</time>
      </trkpt>
      <trkpt lat="45.95718" lon="-0.95787">
        <ele>4</ele>
        <time>2023-07-21T14:37:09.797+00:00</time>
      </trkpt>
      <trkpt lat="45.95737" lon="-0.95789">
        <ele>6</ele>
        <time>2023-07-21T14:37:13.809+00:00</time>
      </trkpt>
      <trkpt lat="45.9576" lon="-0.95788">
        <ele>6</ele>
        <time>2023-07-21T14:37:18.560+00:00</time>
      </trkpt>
      <trkpt lat="45.95784" lon="-0.95787">
        <ele>8</ele>
        <time>2023-07-21T14:37:23.794+00:00</time>
      </trkpt>
      <trkpt lat="45.95804" lon="-0.95789">
        <ele>8</ele>
        <time>2023-07-21T14:37:27.818+00:00</time>
      </trkpt>
      <trkpt lat="45.95819" lon="-0.95787">
        <ele>8</ele>
        <time>2023-07-21T14:37:31.962+00:00</time>
      </trkpt>
      <trkpt lat="45.95831" lon="-0.95771">
        <ele>7</ele>
        <time>2023-07-21T14:37:36.750+00:00</time>
      </trkpt>
      <trkpt lat="45.95826" lon="-0.95752">
        <ele>8</ele>
        <time>2023-07-21T14:37:41.300+00:00</time>
      </trkpt>
      <trkpt lat="45.95808" lon="-0.95738">
        <ele>9</ele>
        <time>2023-07-21T14:37:45.814+00:00</time>
      </trkpt>
      <trkpt lat="45.95793" lon="-0.95728">
        <ele>9</ele>
        <time>2023-07-21T14:37:49.991+00:00</time>
      </trkpt>
      <trkpt lat="45.95773" lon="-0.95709">
        <ele>8</ele>
        <time>2023-07-21T14:37:54.808+00:00</time>
      </trkpt>
      <trkpt lat="45.95753" lon="-0.9569">
        <ele>6</ele>
        <time>2023-07-21T14:37:59.813+00:00</time>
      </trkpt>
      <trkpt lat="45.95737" lon="-0.95676">
        <ele>6</ele>
        <time>2023-07-21T14:38:03.823+00:00</time>
      </trkpt>
      <trkpt lat="45.95718" lon="-0.95659">
        <ele>6</ele>
        <time>2023-07-21T14:38:08.800+00:00</time>
      </trkpt>
      <trkpt lat="45.95699" lon="-0.95644">
        <ele>7</ele>
        <time>2023-07-21T14:38:13.799+00:00</time>
      </trkpt>
      <trkpt lat="45.95683" lon="-0.95627">
        <ele>7</ele>
        <time>2023-07-21T14:38:18.277+00:00</time>
      </trkpt>
      <trkpt lat="45.95663" lon="-0.95612">
        <ele>6</ele>
        <time>2023-07-21T14:38:22.795+00:00</time>
      </trkpt>
      <trkpt lat="45.95641" lon="-0.95593">
        <ele>6</ele>
        <time>2023-07-21T14:38:27.808+00:00</time>
      </trkpt>
      <trkpt lat="45.95618" lon="-0.95573">
        <ele>7</ele>
        <time>2023-07-21T14:38:32.788+00:00</time>
      </trkpt>
      <trkpt lat="45.95597" lon="-0.95555">
        <ele>7</ele>
        <time>2023-07-21T14:38:36.815+00:00</time>
      </trkpt>
      <trkpt lat="45.95568" lon="-0.9553">
        <ele>6</ele>
        <time>2023-07-21T14:38:41.814+00:00</time>
      </trkpt>
      <trkpt lat="45.95536" lon="-0.95503">
        <ele>4</ele>
        <time>2023-07-21T14:38:46.801+00:00</time>
      </trkpt>
      <trkpt lat="45.9551" lon="-0.95481">
        <ele>2</ele>
        <time>2023-07-21T14:38:50.814+00:00</time>
      </trkpt>
      <trkpt lat="45.95482" lon="-0.95456">
        <ele>2</ele>
        <time>2023-07-21T14:38:54.820+00:00</time>
      </trkpt>
      <trkpt lat="45.95447" lon="-0.95425">
        <ele>2</ele>
        <time>2023-07-21T14:38:59.811+00:00</time>
      </trkpt>
      <trkpt lat="45.95427" lon="-0.95398">
        <ele>2</ele>
        <time>2023-07-21T14:39:03.815+00:00</time>
      </trkpt>
      <trkpt lat="45.95411" lon="-0.95374">
        <ele>3</ele>
        <time>2023-07-21T14:39:08.808+00:00</time>
      </trkpt>
      <trkpt lat="45.95406" lon="-0.95366">
        <ele>3</ele>
        <time>2023-07-21T14:39:52.618+00:00</time>
      </trkpt>
      <trkpt lat="45.95405" lon="-0.95366">
        <ele>3</ele>
        <time>2023-07-21T14:39:56.804+00:00</time>
      </trkpt>
      <trkpt lat="45.95404" lon="-0.95361">
        <ele>3</ele>
        <time>2023-07-21T14:40:01.602+00:00</time>
      </trkpt>
      <trkpt lat="45.95388" lon="-0.95334">
        <ele>2</ele>
        <time>2023-07-21T14:40:06.777+00:00</time>
      </trkpt>
      <trkpt lat="45.95368" lon="-0.95314">
        <ele>2</ele>
        <time>2023-07-21T14:40:10.786+00:00</time>
      </trkpt>
      <trkpt lat="45.95349" lon="-0.95297">
        <ele>2</ele>
        <time>2023-07-21T14:40:14.804+00:00</time>
      </trkpt>
      <trkpt lat="45.95328" lon="-0.95281">
        <ele>2</ele>
        <time>2023-07-21T14:40:19.817+00:00</time>
      </trkpt>
      <trkpt lat="45.95307" lon="-0.95271">
        <ele>2</ele>
        <time>2023-07-21T14:40:24.773+00:00</time>
      </trkpt>
      <trkpt lat="45.95283" lon="-0.95262">
        <ele>2</ele>
        <time>2023-07-21T14:40:29.812+00:00</time>
      </trkpt>
      <trkpt lat="45.9526" lon="-0.95253">
        <ele>2</ele>
        <time>2023-07-21T14:40:34.813+00:00</time>
      </trkpt>
      <trkpt lat="45.95239" lon="-0.95245">
        <ele>2</ele>
        <time>2023-07-21T14:40:39.795+00:00</time>
      </trkpt>
      <trkpt lat="45.95226" lon="-0.95241">
        <ele>2</ele>
        <time>2023-07-21T14:40:43.436+00:00</time>
      </trkpt>
      <trkpt lat="45.95211" lon="-0.95252">
        <ele>2</ele>
        <time>2023-07-21T14:40:47.986+00:00</time>
      </trkpt>
      <trkpt lat="45.95213" lon="-0.95282">
        <ele>2</ele>
        <time>2023-07-21T14:40:52.818+00:00</time>
      </trkpt>
      <trkpt lat="45.95221" lon="-0.95308">
        <ele>3</ele>
        <time>2023-07-21T14:40:57.397+00:00</time>
      </trkpt>
      <trkpt lat="45.95232" lon="-0.95334">
        <ele>4</ele>
        <time>2023-07-21T14:41:01.817+00:00</time>
      </trkpt>
      <trkpt lat="45.95237" lon="-0.95358">
        <ele>3</ele>
        <time>2023-07-21T14:41:05.805+00:00</time>
      </trkpt>
      <trkpt lat="45.95238" lon="-0.95384">
        <ele>3</ele>
        <time>2023-07-21T14:41:09.969+00:00</time>
      </trkpt>
      <trkpt lat="45.95231" lon="-0.95415">
        <ele>3</ele>
        <time>2023-07-21T14:41:14.794+00:00</time>
      </trkpt>
      <trkpt lat="45.95217" lon="-0.95437">
        <ele>3</ele>
        <time>2023-07-21T14:41:18.799+00:00</time>
      </trkpt>
      <trkpt lat="45.95201" lon="-0.95458">
        <ele>3</ele>
        <time>2023-07-21T14:41:22.804+00:00</time>
      </trkpt>
      <trkpt lat="45.95182" lon="-0.95484">
        <ele>3</ele>
        <time>2023-07-21T14:41:27.818+00:00</time>
      </trkpt>
      <trkpt lat="45.95165" lon="-0.95507">
        <ele>4</ele>
        <time>2023-07-21T14:41:32.822+00:00</time>
      </trkpt>
      <trkpt lat="45.95151" lon="-0.95529">
        <ele>3</ele>
        <time>2023-07-21T14:41:37.800+00:00</time>
      </trkpt>
      <trkpt lat="45.95138" lon="-0.95546">
        <ele>4</ele>
        <time>2023-07-21T14:41:41.801+00:00</time>
      </trkpt>
      <trkpt lat="45.95122" lon="-0.95565">
        <ele>3</ele>
        <time>2023-07-21T14:41:45.814+00:00</time>
      </trkpt>
      <trkpt lat="45.95106" lon="-0.95587">
        <ele>4</ele>
        <time>2023-07-21T14:41:50.801+00:00</time>
      </trkpt>
      <trkpt lat="45.95087" lon="-0.95614">
        <ele>5</ele>
        <time>2023-07-21T14:41:55.801+00:00</time>
      </trkpt>
      <trkpt lat="45.95072" lon="-0.95632">
        <ele>5</ele>
        <time>2023-07-21T14:41:59.812+00:00</time>
      </trkpt>
      <trkpt lat="45.95055" lon="-0.95645">
        <ele>5</ele>
        <time>2023-07-21T14:42:04.808+00:00</time>
      </trkpt>
      <trkpt lat="45.95028" lon="-0.95657">
        <ele>4</ele>
        <time>2023-07-21T14:42:09.812+00:00</time>
      </trkpt>
      <trkpt lat="45.95007" lon="-0.9566">
        <ele>4</ele>
        <time>2023-07-21T14:42:13.818+00:00</time>
      </trkpt>
      <trkpt lat="45.94983" lon="-0.95662">
        <ele>5</ele>
        <time>2023-07-21T14:42:18.816+00:00</time>
      </trkpt>
      <trkpt lat="45.9496" lon="-0.95666">
        <ele>5</ele>
        <time>2023-07-21T14:42:23.802+00:00</time>
      </trkpt>
      <trkpt lat="45.94939" lon="-0.95664">
        <ele>6</ele>
        <time>2023-07-21T14:42:27.836+00:00</time>
      </trkpt>
      <trkpt lat="45.94913" lon="-0.95668">
        <ele>5</ele>
        <time>2023-07-21T14:42:32.798+00:00</time>
      </trkpt>
      <trkpt lat="45.9489" lon="-0.95669">
        <ele>6</ele>
        <time>2023-07-21T14:42:37.809+00:00</time>
      </trkpt>
      <trkpt lat="45.94862" lon="-0.95674">
        <ele>5</ele>
        <time>2023-07-21T14:42:42.804+00:00</time>
      </trkpt>
      <trkpt lat="45.9484" lon="-0.95673">
        <ele>4</ele>
        <time>2023-07-21T14:42:46.821+00:00</time>
      </trkpt>
      <trkpt lat="45.94814" lon="-0.95668">
        <ele>3</ele>
        <time>2023-07-21T14:42:51.803+00:00</time>
      </trkpt>
      <trkpt lat="45.94789" lon="-0.95666">
        <ele>3</ele>
        <time>2023-07-21T14:42:56.803+00:00</time>
      </trkpt>
      <trkpt lat="45.94764" lon="-0.95665">
        <ele>3</ele>
        <time>2023-07-21T14:43:01.838+00:00</time>
      </trkpt>
      <trkpt lat="45.94739" lon="-0.95663">
        <ele>3</ele>
        <time>2023-07-21T14:43:06.807+00:00</time>
      </trkpt>
      <trkpt lat="45.9471" lon="-0.95663">
        <ele>3</ele>
        <time>2023-07-21T14:43:11.815+00:00</time>
      </trkpt>
      <trkpt lat="45.94689" lon="-0.95661">
        <ele>3</ele>
        <time>2023-07-21T14:43:15.815+00:00</time>
      </trkpt>
      <trkpt lat="45.94669" lon="-0.95652">
        <ele>3</ele>
        <time>2023-07-21T14:43:20.804+00:00</time>
      </trkpt>
      <trkpt lat="45.94651" lon="-0.95653">
        <ele>3</ele>
        <time>2023-07-21T14:43:25.793+00:00</time>
      </trkpt>
      <trkpt lat="45.94645" lon="-0.95664">
        <ele>3</ele>
        <time>2023-07-21T14:43:29.997+00:00</time>
      </trkpt>
      <trkpt lat="45.94644" lon="-0.95665">
        <ele>3</ele>
        <time>2023-07-21T14:43:34.785+00:00</time>
      </trkpt>
      <trkpt lat="45.94641" lon="-0.95666">
        <ele>3</ele>
        <time>2023-07-21T14:44:26.806+00:00</time>
      </trkpt>
      <trkpt lat="45.9464" lon="-0.95667">
        <ele>3</ele>
        <time>2023-07-21T14:44:31.806+00:00</time>
      </trkpt>
      <trkpt lat="45.94637" lon="-0.95676">
        <ele>3</ele>
        <time>2023-07-21T14:44:35.811+00:00</time>
      </trkpt>
      <trkpt lat="45.94636" lon="-0.95706">
        <ele>4</ele>
        <time>2023-07-21T14:44:40.799+00:00</time>
      </trkpt>
      <trkpt lat="45.94633" lon="-0.95736">
        <ele>4</ele>
        <time>2023-07-21T14:44:44.808+00:00</time>
      </trkpt>
      <trkpt lat="45.9463" lon="-0.95763">
        <ele>4</ele>
        <time>2023-07-21T14:44:49.296+00:00</time>
      </trkpt>
      <trkpt lat="45.94626" lon="-0.95781">
        <ele>5</ele>
        <time>2023-07-21T14:44:53.931+00:00</time>
      </trkpt>
      <trkpt lat="45.94608" lon="-0.95792">
        <ele>6</ele>
        <time>2023-07-21T14:44:58.798+00:00</time>
      </trkpt>
      <trkpt lat="45.94588" lon="-0.9579">
        <ele>5</ele>
        <time>2023-07-21T14:45:02.819+00:00</time>
      </trkpt>
      <trkpt lat="45.9457" lon="-0.95791">
        <ele>5</ele>
        <time>2023-07-21T14:45:06.947+00:00</time>
      </trkpt>
      <trkpt lat="45.94554" lon="-0.95789">
        <ele>5</ele>
        <time>2023-07-21T14:45:11.378+00:00</time>
      </trkpt>
      <trkpt lat="45.94539" lon="-0.95789">
        <ele>5</ele>
        <time>2023-07-21T14:45:15.929+00:00</time>
      </trkpt>
      <trkpt lat="45.94522" lon="-0.95788">
        <ele>5</ele>
        <time>2023-07-21T14:45:20.360+00:00</time>
      </trkpt>
      <trkpt lat="45.94501" lon="-0.95789">
        <ele>5</ele>
        <time>2023-07-21T14:45:25.391+00:00</time>
      </trkpt>
      <trkpt lat="45.94491" lon="-0.95788">
        <ele>5</ele>
        <time>2023-07-21T14:45:30.603+00:00</time>
      </trkpt>
      <trkpt lat="45.94482" lon="-0.95793">
        <ele>4</ele>
        <time>2023-07-21T14:45:35.338+00:00</time>
      </trkpt>
      <trkpt lat="45.94477" lon="-0.95805">
        <ele>4</ele>
        <time>2023-07-21T14:45:39.349+00:00</time>
      </trkpt>
      <trkpt lat="45.94472" lon="-0.9582">
        <ele>4</ele>
        <time>2023-07-21T14:45:43.303+00:00</time>
      </trkpt>
      <trkpt lat="45.94465" lon="-0.95835">
        <ele>4</ele>
        <time>2023-07-21T14:45:47.376+00:00</time>
      </trkpt>
      <trkpt lat="45.94454" lon="-0.95855">
        <ele>4</ele>
        <time>2023-07-21T14:45:52.525+00:00</time>
      </trkpt>
      <trkpt lat="45.94444" lon="-0.95871">
        <ele>4</ele>
        <time>2023-07-21T14:45:57.076+00:00</time>
      </trkpt>
      <trkpt lat="45.94434" lon="-0.95888">
        <ele>4</ele>
        <time>2023-07-21T14:46:01.607+00:00</time>
      </trkpt>
      <trkpt lat="45.94424" lon="-0.95908">
        <ele>5</ele>
        <time>2023-07-21T14:46:06.340+00:00</time>
      </trkpt>
      <trkpt lat="45.94416" lon="-0.95922">
        <ele>5</ele>
        <time>2023-07-21T14:46:11.013+00:00</time>
      </trkpt>
      <trkpt lat="45.94404" lon="-0.9594">
        <ele>6</ele>
        <time>2023-07-21T14:46:15.804+00:00</time>
      </trkpt>
      <trkpt lat="45.94396" lon="-0.95954">
        <ele>7</ele>
        <time>2023-07-21T14:46:19.397+00:00</time>
      </trkpt>
      <trkpt lat="45.94388" lon="-0.95967">
        <ele>8</ele>
        <time>2023-07-21T14:46:24.667+00:00</time>
      </trkpt>
      <trkpt lat="45.94378" lon="-0.95983">
        <ele>8</ele>
        <time>2023-07-21T14:46:29.219+00:00</time>
      </trkpt>
      <trkpt lat="45.94366" lon="-0.96002">
        <ele>10</ele>
        <time>2023-07-21T14:46:33.413+00:00</time>
      </trkpt>
      <trkpt lat="45.94354" lon="-0.96016">
        <ele>10</ele>
        <time>2023-07-21T14:46:37.606+00:00</time>
      </trkpt>
      <trkpt lat="45.94339" lon="-0.96027">
        <ele>11</ele>
        <time>2023-07-21T14:46:42.819+00:00</time>
      </trkpt>
      <trkpt lat="45.9434" lon="-0.96054">
        <ele>12</ele>
        <time>2023-07-21T14:46:47.410+00:00</time>
      </trkpt>
      <trkpt lat="45.94361" lon="-0.96074">
        <ele>11</ele>
        <time>2023-07-21T14:46:52.805+00:00</time>
      </trkpt>
      <trkpt lat="45.94388" lon="-0.96091">
        <ele>9</ele>
        <time>2023-07-21T14:46:57.803+00:00</time>
      </trkpt>
      <trkpt lat="45.94413" lon="-0.96111">
        <ele>7</ele>
        <time>2023-07-21T14:47:02.811+00:00</time>
      </trkpt>
      <trkpt lat="45.94438" lon="-0.96132">
        <ele>6</ele>
        <time>2023-07-21T14:47:07.793+00:00</time>
      </trkpt>
      <trkpt lat="45.94455" lon="-0.96146">
        <ele>6</ele>
        <time>2023-07-21T14:47:11.797+00:00</time>
      </trkpt>
      <trkpt lat="45.94478" lon="-0.96165">
        <ele>5</ele>
        <time>2023-07-21T14:47:16.805+00:00</time>
      </trkpt>
      <trkpt lat="45.94502" lon="-0.96186">
        <ele>6</ele>
        <time>2023-07-21T14:47:21.796+00:00</time>
      </trkpt>
      <trkpt lat="45.94523" lon="-0.96202">
        <ele>5</ele>
        <time>2023-07-21T14:47:25.804+00:00</time>
      </trkpt>
      <trkpt lat="45.9455" lon="-0.9622">
        <ele>5</ele>
        <time>2023-07-21T14:47:30.812+00:00</time>
      </trkpt>
      <trkpt lat="45.94573" lon="-0.9624">
        <ele>6</ele>
        <time>2023-07-21T14:47:35.809+00:00</time>
      </trkpt>
      <trkpt lat="45.94592" lon="-0.96257">
        <ele>6</ele>
        <time>2023-07-21T14:47:39.801+00:00</time>
      </trkpt>
      <trkpt lat="45.94614" lon="-0.96275">
        <ele>7</ele>
        <time>2023-07-21T14:47:43.816+00:00</time>
      </trkpt>
      <trkpt lat="45.94639" lon="-0.96294">
        <ele>6</ele>
        <time>2023-07-21T14:47:48.825+00:00</time>
      </trkpt>
      <trkpt lat="45.94664" lon="-0.9631">
        <ele>4</ele>
        <time>2023-07-21T14:47:53.794+00:00</time>
      </trkpt>
      <trkpt lat="45.94679" lon="-0.96321">
        <ele>4</ele>
        <time>2023-07-21T14:47:57.810+00:00</time>
      </trkpt>
      <trkpt lat="45.94688" lon="-0.96326">
        <ele>4</ele>
        <time>2023-07-21T14:48:01.814+00:00</time>
      </trkpt>
      <trkpt lat="45.94699" lon="-0.96337">
        <ele>4</ele>
        <time>2023-07-21T14:48:05.965+00:00</time>
      </trkpt>
      <trkpt lat="45.94701" lon="-0.96355">
        <ele>5</ele>
        <time>2023-07-21T14:48:10.055+00:00</time>
      </trkpt>
      <trkpt lat="45.94708" lon="-0.96363">
        <ele>5</ele>
        <time>2023-07-21T14:48:14.583+00:00</time>
      </trkpt>
      <trkpt lat="45.9471" lon="-0.96376">
        <ele>5</ele>
        <time>2023-07-21T14:48:18.772+00:00</time>
      </trkpt>
      <trkpt lat="45.94718" lon="-0.96389">
        <ele>5</ele>
        <time>2023-07-21T14:48:23.401+00:00</time>
      </trkpt>
    </trkseg>
  </trk>
</gpx>